GFSSGP_prec_precacc_009.txt.gz
Total_Precipitation_Accumulation
0.00 0.00 0.00 0.00 0.00 0.00 0.00 0.00 0.00 0.00 0.00 0.00 0.00 0.00 0.00 0.00 0.00 0.00 0.00 0.00 0.00 0.00 0.00 0.00 0.01 0.02 0.03 0.01 0.00 0.00 0.00 0.00 0.00 0.00 0.00 0.01 0.00 0.00 0.00 0.01 0.00 0.00 0.00 0.00 0.00 0.00 0.00 0.01 0.01
0.00 0.00 0.00 0.00 0.00 0.00 0.00 0.00 0.00 0.00 0.00 0.00 0.00 0.00 0.00 0.00 0.00 0.00 0.00 0.00 0.00 0.00 0.00 0.00 0.01 0.01 0.03 0.01 0.01 0.00 0.00 0.00 0.00 0.00 0.01 0.02 0.00 0.01 0.00 0.00 0.00 0.00 0.00 0.00 0.00 0.00 0.00 0.00 0.01
0.00 0.00 0.00 0.00 0.00 0.00 0.00 0.00 0.00 0.00 0.00 0.00 0.00 0.00 0.00 0.00 0.00 0.00 0.00 0.00 0.00 0.00 0.00 0.00 0.01 0.02 0.02 0.03 0.02 0.00 0.00 0.00 0.00 0.00 0.02 0.04 0.01 0.00 0.00 0.00 0.00 0.00 0.00 0.00 0.00 0.00 0.00 0.00 0.00
0.00 0.00 0.00 0.00 0.00 0.00 0.00 0.00 0.00 0.00 0.00 0.00 0.00 0.00 0.00 0.00 0.00 0.00 0.00 0.00 0.00 0.00 0.00 0.00 0.01 0.02 0.01 0.00 0.00 0.00 0.00 0.00 0.00 0.00 0.01 0.04 0.03 0.00 0.00 0.00 0.00 0.00 0.00 0.00 0.00 0.00 0.00 0.00 0.00
0.00 0.00 0.00 0.00 0.00 0.00 0.00 0.00 0.00 0.00 0.00 0.00 0.00 0.00 0.00 0.00 0.00 0.00 0.00 0.00 0.00 0.00 0.00 0.00 0.00 0.01 0.00 0.00 0.00 0.00 0.00 0.00 0.00 0.00 0.01 0.03 0.04 0.01 0.00 0.00 0.00 0.00 0.00 0.00 0.00 0.00 0.00 0.00 0.00
0.00 0.00 0.00 0.00 0.00 0.00 0.00 0.00 0.00 0.00 0.00 0.00 0.00 0.00 0.00 0.00 0.00 0.00 0.00 0.00 0.00 0.00 0.00 0.00 0.00 0.01 0.00 0.00 0.00 0.00 0.00 0.00 0.00 0.00 0.00 0.02 0.03 0.02 0.00 0.00 0.00 0.00 0.00 0.00 0.00 0.00 0.00 0.00 0.00
0.00 0.00 0.00 0.00 0.00 0.00 0.00 0.00 0.00 0.00 0.00 0.00 0.00 0.00 0.00 0.00 0.00 0.00 0.00 0.00 0.00 0.00 0.00 0.00 0.00 0.01 0.01 0.00 0.00 0.00 0.00 0.00 0.00 0.00 0.00 0.00 0.00 0.00 0.00 0.00 0.00 0.00 0.00 0.00 0.01 0.01 0.01 0.00 0.00
0.00 0.00 0.00 0.00 0.00 0.00 0.00 0.00 0.00 0.00 0.00 0.00 0.00 0.00 0.00 0.00 0.00 0.00 0.00 0.00 0.00 0.00 0.00 0.00 0.00 0.00 0.00 0.00 0.00 0.00 0.00 0.00 0.00 0.00 0.00 0.00 0.00 0.00 0.00 0.00 0.00 0.00 0.00 0.00 0.01 0.01 0.01 0.00 0.00
0.00 0.00 0.00 0.00 0.00 0.00 0.00 0.00 0.00 0.00 0.00 0.00 0.00 0.00 0.00 0.00 0.00 0.00 0.00 0.00 0.00 0.00 0.00 0.00 0.00 0.00 0.00 0.00 0.00 0.00 0.00 0.00 0.00 0.00 0.00 0.00 0.00 0.00 0.00 0.00 0.00 0.00 0.00 0.00 0.00 0.00 0.00 0.00 0.00
0.00 0.00 0.00 0.00 0.00 0.00 0.00 0.00 0.00 0.00 0.00 0.00 0.00 0.00 0.00 0.00 0.00 0.00 0.00 0.00 0.00 0.00 0.00 0.00 0.00 0.00 0.00 0.00 0.00 0.00 0.00 0.00 0.00 0.00 0.00 0.00 0.00 0.00 0.00 0.00 0.00 0.00 0.00 0.00 0.00 0.00 0.00 0.00 0.00
0.00 0.00 0.00 0.00 0.00 0.00 0.00 0.00 0.00 0.00 0.00 0.00 0.00 0.00 0.00 0.00 0.00 0.00 0.00 0.00 0.00 0.00 0.00 0.00 0.00 0.00 0.00 0.00 0.00 0.00 0.00 0.00 0.00 0.00 0.00 0.00 0.00 0.00 0.00 0.00 0.00 0.00 0.00 0.00 0.00 0.00 0.00 0.00 0.00
0.00 0.00 0.00 0.00 0.00 0.00 0.00 0.00 0.00 0.00 0.00 0.00 0.00 0.00 0.00 0.00 0.00 0.00 0.00 0.00 0.00 0.00 0.00 0.00 0.00 0.00 0.00 0.00 0.00 0.00 0.00 0.00 0.00 0.00 0.00 0.00 0.00 0.00 0.00 0.00 0.00 0.00 0.00 0.00 0.00 0.00 0.00 0.00 0.00
0.00 0.00 0.00 0.00 0.00 0.00 0.00 0.00 0.00 0.00 0.00 0.00 0.00 0.00 0.00 0.00 0.00 0.00 0.00 0.00 0.00 0.00 0.00 0.00 0.00 0.00 0.00 0.00 0.00 0.00 0.00 0.00 0.00 0.00 0.00 0.00 0.00 0.00 0.00 0.00 0.00 0.00 0.00 0.00 0.00 0.00 0.00 0.00 0.00
0.00 0.00 0.00 0.00 0.00 0.00 0.00 0.00 0.00 0.00 0.00 0.00 0.00 0.00 0.00 0.00 0.00 0.00 0.00 0.00 0.00 0.00 0.00 0.00 0.00 0.00 0.00 0.00 0.00 0.00 0.00 0.00 0.00 0.00 0.00 0.00 0.00 0.00 0.00 0.00 0.00 0.00 0.00 0.00 0.00 0.00 0.00 0.00 0.00
0.00 0.00 0.00 0.00 0.00 0.00 0.00 0.00 0.00 0.00 0.00 0.00 0.00 0.00 0.00 0.00 0.00 0.00 0.00 0.00 0.00 0.00 0.00 0.00 0.00 0.00 0.00 0.00 0.00 0.00 0.00 0.00 0.00 0.00 0.00 0.00 0.00 0.00 0.00 0.00 0.00 0.00 0.00 0.00 0.00 0.00 0.00 0.00 0.00
0.00 0.00 0.00 0.00 0.00 0.00 0.00 0.00 0.00 0.00 0.00 0.00 0.00 0.00 0.00 0.00 0.00 0.00 0.00 0.00 0.00 0.00 0.00 0.00 0.00 0.00 0.00 0.00 0.00 0.00 0.00 0.00 0.00 0.00 0.00 0.00 0.00 0.00 0.00 0.00 0.00 0.00 0.00 0.00 0.00 0.00 0.00 0.00 0.00
0.00 0.00 0.00 0.00 0.00 0.00 0.00 0.00 0.00 0.00 0.00 0.00 0.00 0.00 0.00 0.00 0.00 0.00 0.00 0.00 0.00 0.00 0.00 0.00 0.00 0.00 0.00 0.00 0.00 0.00 0.00 0.00 0.00 0.00 0.00 0.00 0.00 0.00 0.00 0.00 0.00 0.00 0.00 0.00 0.00 0.00 0.00 0.00 0.00
0.00 0.00 0.00 0.00 0.00 0.00 0.00 0.00 0.00 0.00 0.00 0.00 0.00 0.00 0.00 0.00 0.00 0.00 0.00 0.00 0.00 0.00 0.00 0.00 0.00 0.00 0.00 0.00 0.00 0.00 0.00 0.00 0.00 0.00 0.00 0.00 0.00 0.00 0.00 0.00 0.00 0.00 0.00 0.00 0.00 0.00 0.00 0.00 0.00
0.00 0.00 0.00 0.00 0.00 0.00 0.00 0.00 0.00 0.00 0.00 0.00 0.00 0.00 0.00 0.00 0.00 0.00 0.00 0.00 0.00 0.00 0.00 0.00 0.00 0.00 0.00 0.00 0.00 0.00 0.00 0.00 0.00 0.00 0.00 0.00 0.00 0.00 0.00 0.00 0.00 0.00 0.00 0.00 0.00 0.00 0.00 0.00 0.00
0.00 0.00 0.00 0.00 0.00 0.00 0.00 0.00 0.00 0.00 0.00 0.00 0.00 0.00 0.00 0.00 0.00 0.00 0.00 0.00 0.00 0.00 0.00 0.00 0.00 0.00 0.00 0.00 0.00 0.00 0.00 0.00 0.00 0.00 0.00 0.00 0.00 0.00 0.00 0.00 0.00 0.00 0.00 0.00 0.00 0.00 0.00 0.00 0.00
0.00 0.00 0.00 0.00 0.00 0.00 0.00 0.00 0.00 0.00 0.00 0.00 0.00 0.00 0.00 0.00 0.00 0.00 0.00 0.00 0.00 0.00 0.00 0.00 0.00 0.00 0.00 0.00 0.00 0.00 0.00 0.00 0.00 0.00 0.00 0.00 0.00 0.00 0.00 0.00 0.00 0.00 0.00 0.00 0.00 0.00 0.00 0.01 0.01
0.01 0.00 0.00 0.00 0.00 0.00 0.00 0.00 0.00 0.00 0.00 0.00 0.00 0.00 0.00 0.00 0.00 0.00 0.00 0.00 0.00 0.00 0.00 0.00 0.00 0.00 0.00 0.00 0.00 0.00 0.00 0.00 0.00 0.00 0.00 0.00 0.00 0.00 0.00 0.00 0.00 0.00 0.00 0.00 0.00 0.00 0.01 0.02 0.02
0.00 0.00 0.00 0.00 0.00 0.00 0.00 0.00 0.00 0.00 0.00 0.00 0.00 0.00 0.00 0.00 0.00 0.00 0.00 0.00 0.00 0.00 0.00 0.00 0.00 0.00 0.00 0.00 0.00 0.00 0.00 0.00 0.00 0.00 0.00 0.00 0.00 0.00 0.00 0.00 0.00 0.00 0.00 0.00 0.00 0.01 0.01 0.02 0.03
0.00 0.01 0.01 0.00 0.00 0.00 0.00 0.00 0.00 0.00 0.00 0.00 0.00 0.00 0.00 0.00 0.00 0.00 0.00 0.00 0.00 0.00 0.00 0.00 0.00 0.00 0.00 0.00 0.00 0.00 0.00 0.00 0.00 0.00 0.00 0.00 0.00 0.00 0.00 0.00 0.00 0.00 0.00 0.00 0.00 0.00 0.00 0.01 0.04
0.02 0.01 0.07 0.03 0.00 0.00 0.00 0.00 0.00 0.00 0.00 0.00 0.00 0.00 0.00 0.00 0.00 0.00 0.00 0.00 0.00 0.00 0.00 0.00 0.00 0.00 0.00 0.00 0.00 0.00 0.00 0.00 0.00 0.00 0.00 0.00 0.00 0.00 0.00 0.00 0.00 0.00 0.00 0.00 0.00 0.00 0.00 0.00 0.00
0.03 0.02 0.01 0.00 0.00 0.00 0.00 0.00 0.00 0.00 0.00 0.00 0.00 0.00 0.00 0.00 0.00 0.00 0.00 0.00 0.00 0.00 0.00 0.00 0.00 0.00 0.00 0.00 0.00 0.00 0.00 0.00 0.00 0.00 0.00 0.00 0.00 0.00 0.00 0.00 0.00 0.00 0.00 0.00 0.00 0.00 0.00 0.00 0.00
0.04 0.01 0.00 0.00 0.00 0.00 0.00 0.00 0.00 0.00 0.00 0.00 0.00 0.00 0.00 0.00 0.00 0.00 0.00 0.00 0.00 0.00 0.00 0.00 0.00 0.00 0.00 0.00 0.00 0.00 0.00 0.00 0.00 0.00 0.00 0.00 0.00 0.00 0.00 0.00 0.00 0.00 0.00 0.00 0.00 0.00 0.00 0.00 0.00
0.00 0.00 0.00 0.00 0.00 0.00 0.00 0.00 0.00 0.00 0.00 0.00 0.00 0.00 0.00 0.00 0.00 0.00 0.00 0.00 0.00 0.00 0.00 0.00 0.00 0.00 0.00 0.00 0.00 0.00 0.00 0.00 0.00 0.00 0.00 0.00 0.00 0.00 0.00 0.00 0.00 0.00 0.00 0.00 0.00 0.00 0.00 0.00 0.00
0.00 0.01 0.00 0.00 0.00 0.00 0.00 0.00 0.00 0.00 0.00 0.00 0.00 0.00 0.00 0.00 0.00 0.00 0.00 0.00 0.00 0.00 0.00 0.00 0.00 0.00 0.00 0.00 0.00 0.00 0.00 0.00 0.00 0.00 0.00 0.00 0.00 0.00 0.00 0.00 0.00 0.00 0.00 0.00 0.00 0.00 0.00 0.00 0.00
0.00 0.00 0.00 0.00 0.00 0.00 0.00 0.00 0.00 0.00 0.00 0.00 0.00 0.00 0.00 0.00 0.00 0.00 0.00 0.00 0.00 0.00 0.00 0.00 0.00 0.00 0.00 0.00 0.00 0.00 0.00 0.00 0.00 0.00 0.00 0.00 0.00 0.00 0.00 0.00 0.00 0.00 0.00 0.00 0.00 0.00 0.00 0.00 0.00

GFSSGP_prec_precacc_015.txt.gz
Total_Precipitation_Accumulation
0.00 0.00 0.00 0.00 0.00 0.00 0.00 0.00 0.00 0.00 0.00 0.00 0.00 0.00 0.00 0.00 0.00 0.00 0.00 0.00 0.00 0.00 0.00 0.00 0.02 0.03 0.05 0.03 0.01 0.00 0.00 0.00 0.00 0.00 0.00 0.01 0.00 0.00 0.00 0.01 0.00 0.00 0.00 0.00 0.00 0.00 0.00 0.01 0.01
0.00 0.00 0.00 0.00 0.00 0.00 0.00 0.00 0.00 0.00 0.00 0.00 0.00 0.00 0.00 0.00 0.00 0.00 0.00 0.00 0.00 0.00 0.00 0.00 0.02 0.02 0.05 0.03 0.01 0.00 0.00 0.00 0.00 0.00 0.01 0.02 0.01 0.01 0.00 0.00 0.00 0.00 0.00 0.00 0.00 0.00 0.00 0.00 0.01
0.00 0.00 0.00 0.00 0.00 0.00 0.00 0.00 0.00 0.00 0.00 0.00 0.00 0.00 0.00 0.00 0.00 0.00 0.00 0.00 0.00 0.00 0.00 0.00 0.01 0.02 0.04 0.04 0.03 0.01 0.00 0.00 0.00 0.00 0.02 0.04 0.03 0.00 0.00 0.00 0.00 0.00 0.00 0.00 0.00 0.00 0.00 0.00 0.00
0.00 0.00 0.00 0.00 0.00 0.00 0.00 0.00 0.00 0.00 0.00 0.00 0.00 0.00 0.00 0.00 0.00 0.00 0.00 0.00 0.00 0.00 0.00 0.00 0.01 0.02 0.03 0.03 0.01 0.00 0.00 0.00 0.00 0.00 0.01 0.04 0.06 0.03 0.00 0.00 0.00 0.00 0.00 0.00 0.00 0.00 0.00 0.00 0.00
0.00 0.00 0.00 0.00 0.00 0.00 0.00 0.00 0.00 0.00 0.00 0.00 0.00 0.00 0.00 0.00 0.00 0.00 0.00 0.00 0.00 0.00 0.00 0.00 0.00 0.01 0.01 0.01 0.00 0.00 0.00 0.00 0.00 0.00 0.01 0.03 0.06 0.05 0.01 0.00 0.00 0.00 0.00 0.00 0.00 0.00 0.00 0.00 0.00
0.00 0.00 0.00 0.00 0.00 0.00 0.00 0.00 0.00 0.00 0.00 0.00 0.00 0.00 0.00 0.00 0.00 0.00 0.00 0.00 0.00 0.00 0.00 0.00 0.00 0.01 0.01 0.01 0.00 0.00 0.00 0.00 0.00 0.00 0.00 0.02 0.04 0.05 0.04 0.01 0.00 0.00 0.00 0.00 0.00 0.00 0.01 0.01 0.00
0.00 0.00 0.00 0.00 0.00 0.00 0.00 0.00 0.00 0.00 0.00 0.00 0.00 0.00 0.00 0.00 0.00 0.00 0.00 0.00 0.00 0.00 0.00 0.00 0.00 0.01 0.01 0.01 0.01 0.00 0.00 0.00 0.00 0.00 0.00 0.00 0.01 0.01 0.01 0.00 0.00 0.01 0.01 0.00 0.01 0.02 0.02 0.02 0.01
0.00 0.00 0.00 0.00 0.00 0.00 0.00 0.00 0.00 0.00 0.00 0.00 0.00 0.00 0.00 0.00 0.00 0.00 0.00 0.00 0.00 0.00 0.00 0.00 0.00 0.00 0.00 0.00 0.01 0.01 0.01 0.00 0.00 0.00 0.00 0.00 0.00 0.00 0.00 0.00 0.00 0.00 0.00 0.00 0.01 0.02 0.01 0.01 0.01
0.00 0.00 0.00 0.00 0.00 0.00 0.00 0.00 0.00 0.00 0.00 0.00 0.00 0.00 0.00 0.00 0.00 0.00 0.00 0.00 0.00 0.00 0.00 0.00 0.00 0.00 0.00 0.00 0.00 0.01 0.01 0.01 0.00 0.00 0.00 0.00 0.00 0.00 0.00 0.00 0.00 0.00 0.00 0.00 0.00 0.00 0.01 0.01 0.00
0.00 0.00 0.00 0.00 0.00 0.00 0.00 0.00 0.00 0.00 0.00 0.00 0.00 0.00 0.00 0.00 0.00 0.00 0.00 0.00 0.00 0.00 0.00 0.00 0.00 0.00 0.00 0.00 0.00 0.00 0.00 0.00 0.00 0.00 0.00 0.00 0.00 0.00 0.00 0.00 0.00 0.00 0.00 0.00 0.00 0.00 0.00 0.00 0.00
0.00 0.00 0.00 0.00 0.00 0.00 0.00 0.00 0.00 0.00 0.00 0.00 0.00 0.00 0.00 0.00 0.00 0.00 0.00 0.00 0.00 0.00 0.00 0.00 0.00 0.00 0.00 0.00 0.00 0.00 0.00 0.00 0.00 0.00 0.00 0.00 0.00 0.00 0.00 0.00 0.00 0.00 0.00 0.00 0.00 0.00 0.00 0.00 0.00
0.00 0.00 0.00 0.00 0.00 0.00 0.00 0.00 0.00 0.00 0.00 0.00 0.00 0.00 0.00 0.00 0.00 0.00 0.00 0.00 0.00 0.00 0.00 0.00 0.00 0.00 0.00 0.00 0.00 0.00 0.00 0.00 0.00 0.00 0.00 0.00 0.00 0.00 0.00 0.00 0.00 0.00 0.00 0.00 0.00 0.00 0.00 0.00 0.00
0.00 0.00 0.00 0.00 0.00 0.00 0.00 0.00 0.00 0.00 0.00 0.00 0.00 0.00 0.00 0.00 0.00 0.00 0.00 0.00 0.00 0.00 0.00 0.00 0.00 0.00 0.00 0.00 0.00 0.00 0.00 0.00 0.00 0.00 0.00 0.00 0.00 0.00 0.00 0.00 0.00 0.00 0.00 0.00 0.00 0.00 0.00 0.00 0.00
0.00 0.00 0.00 0.00 0.00 0.00 0.00 0.00 0.00 0.00 0.00 0.00 0.00 0.00 0.00 0.00 0.00 0.00 0.00 0.00 0.00 0.00 0.00 0.00 0.00 0.00 0.00 0.00 0.00 0.00 0.00 0.00 0.00 0.00 0.00 0.00 0.00 0.00 0.00 0.00 0.00 0.00 0.00 0.00 0.00 0.00 0.00 0.00 0.00
0.00 0.00 0.00 0.00 0.00 0.00 0.00 0.00 0.00 0.00 0.00 0.00 0.00 0.00 0.00 0.00 0.00 0.00 0.00 0.00 0.00 0.00 0.00 0.00 0.00 0.00 0.00 0.00 0.00 0.00 0.00 0.00 0.00 0.00 0.00 0.00 0.00 0.00 0.00 0.00 0.00 0.00 0.00 0.00 0.00 0.00 0.00 0.00 0.00
0.01 0.02 0.01 0.00 0.00 0.00 0.00 0.00 0.00 0.00 0.00 0.00 0.00 0.00 0.00 0.00 0.00 0.00 0.00 0.00 0.00 0.00 0.00 0.00 0.00 0.00 0.00 0.00 0.00 0.00 0.00 0.00 0.00 0.00 0.00 0.00 0.00 0.00 0.00 0.00 0.00 0.00 0.00 0.00 0.00 0.00 0.00 0.00 0.00
0.04 0.02 0.01 0.00 0.00 0.00 0.00 0.00 0.00 0.00 0.00 0.00 0.00 0.00 0.00 0.00 0.00 0.00 0.00 0.00 0.00 0.00 0.00 0.00 0.00 0.00 0.00 0.00 0.00 0.00 0.00 0.00 0.00 0.00 0.00 0.00 0.00 0.00 0.00 0.00 0.00 0.00 0.00 0.00 0.00 0.00 0.00 0.00 0.00
0.02 0.01 0.00 0.00 0.00 0.00 0.00 0.00 0.00 0.00 0.00 0.00 0.00 0.00 0.00 0.00 0.00 0.00 0.00 0.00 0.00 0.00 0.00 0.00 0.00 0.00 0.00 0.00 0.00 0.00 0.00 0.00 0.00 0.00 0.00 0.00 0.00 0.00 0.00 0.00 0.00 0.00 0.00 0.00 0.00 0.00 0.00 0.00 0.00
0.00 0.00 0.00 0.00 0.00 0.00 0.00 0.00 0.00 0.00 0.00 0.00 0.00 0.00 0.00 0.00 0.00 0.00 0.00 0.00 0.00 0.00 0.00 0.00 0.00 0.00 0.00 0.00 0.00 0.00 0.00 0.00 0.00 0.00 0.00 0.00 0.00 0.00 0.00 0.00 0.00 0.00 0.00 0.00 0.00 0.00 0.00 0.00 0.00
0.01 0.00 0.00 0.00 0.00 0.00 0.00 0.00 0.00 0.00 0.00 0.00 0.00 0.00 0.00 0.00 0.00 0.00 0.00 0.00 0.00 0.00 0.00 0.00 0.00 0.00 0.00 0.00 0.00 0.00 0.00 0.00 0.00 0.00 0.00 0.00 0.00 0.00 0.00 0.00 0.00 0.00 0.00 0.00 0.00 0.00 0.00 0.00 0.00
0.02 0.00 0.00 0.00 0.00 0.00 0.00 0.00 0.00 0.00 0.00 0.00 0.00 0.00 0.00 0.00 0.00 0.00 0.00 0.00 0.00 0.00 0.00 0.00 0.00 0.00 0.00 0.00 0.00 0.00 0.00 0.00 0.00 0.00 0.00 0.00 0.00 0.00 0.00 0.00 0.00 0.00 0.00 0.00 0.00 0.00 0.00 0.01 0.01
0.06 0.00 0.00 0.00 0.00 0.01 0.00 0.00 0.00 0.00 0.00 0.00 0.00 0.00 0.00 0.00 0.00 0.00 0.00 0.00 0.00 0.00 0.00 0.00 0.00 0.00 0.00 0.00 0.00 0.00 0.00 0.00 0.00 0.00 0.00 0.00 0.00 0.00 0.00 0.00 0.00 0.00 0.00 0.00 0.00 0.00 0.01 0.02 0.02
0.08 0.00 0.00 0.00 0.00 0.00 0.00 0.00 0.00 0.00 0.00 0.00 0.00 0.00 0.00 0.00 0.00 0.00 0.00 0.00 0.00 0.00 0.00 0.00 0.00 0.00 0.00 0.00 0.00 0.00 0.00 0.00 0.00 0.00 0.00 0.00 0.00 0.00 0.00 0.00 0.00 0.00 0.00 0.00 0.00 0.01 0.01 0.02 0.03
0.06 0.02 0.03 0.01 0.00 0.00 0.00 0.00 0.00 0.00 0.00 0.00 0.00 0.00 0.00 0.00 0.00 0.00 0.00 0.00 0.00 0.00 0.00 0.00 0.00 0.00 0.00 0.00 0.00 0.00 0.00 0.00 0.00 0.00 0.00 0.00 0.00 0.00 0.00 0.00 0.00 0.00 0.00 0.00 0.00 0.00 0.00 0.01 0.04
0.21 0.08 0.14 0.07 0.02 0.00 0.00 0.00 0.00 0.00 0.00 0.00 0.00 0.00 0.00 0.00 0.00 0.00 0.00 0.00 0.00 0.00 0.00 0.00 0.00 0.00 0.00 0.00 0.00 0.00 0.00 0.00 0.00 0.00 0.00 0.00 0.00 0.00 0.00 0.00 0.00 0.00 0.00 0.00 0.00 0.00 0.00 0.00 0.00
0.15 0.05 0.03 0.02 0.00 0.00 0.00 0.00 0.00 0.00 0.00 0.00 0.00 0.00 0.00 0.00 0.00 0.00 0.00 0.00 0.00 0.00 0.00 0.00 0.00 0.00 0.00 0.00 0.00 0.00 0.00 0.00 0.00 0.00 0.00 0.00 0.00 0.00 0.00 0.00 0.00 0.00 0.00 0.00 0.00 0.00 0.00 0.00 0.00
0.16 0.04 0.00 0.00 0.00 0.00 0.00 0.00 0.00 0.00 0.00 0.00 0.00 0.00 0.00 0.00 0.00 0.00 0.00 0.00 0.00 0.00 0.00 0.00 0.00 0.00 0.00 0.00 0.00 0.00 0.00 0.00 0.00 0.00 0.00 0.00 0.00 0.00 0.00 0.00 0.00 0.00 0.00 0.00 0.00 0.00 0.00 0.00 0.00
0.07 0.02 0.01 0.00 0.00 0.00 0.00 0.00 0.00 0.00 0.00 0.00 0.00 0.00 0.00 0.00 0.00 0.00 0.00 0.00 0.00 0.00 0.00 0.00 0.00 0.00 0.00 0.00 0.00 0.00 0.00 0.00 0.00 0.00 0.00 0.00 0.00 0.00 0.00 0.00 0.00 0.00 0.00 0.00 0.00 0.00 0.00 0.00 0.00
0.10 0.10 0.02 0.00 0.00 0.00 0.00 0.00 0.00 0.00 0.00 0.00 0.00 0.00 0.00 0.00 0.00 0.00 0.00 0.00 0.00 0.00 0.00 0.00 0.00 0.00 0.00 0.00 0.00 0.00 0.00 0.00 0.00 0.00 0.00 0.00 0.00 0.00 0.00 0.00 0.00 0.00 0.00 0.00 0.00 0.00 0.00 0.00 0.00
0.01 0.02 0.00 0.00 0.00 0.00 0.00 0.00 0.00 0.00 0.00 0.00 0.00 0.00 0.00 0.00 0.00 0.00 0.00 0.00 0.00 0.00 0.00 0.00 0.00 0.00 0.00 0.00 0.00 0.00 0.00 0.00 0.00 0.00 0.00 0.00 0.00 0.00 0.00 0.00 0.00 0.00 0.00 0.00 0.00 0.00 0.00 0.00 0.00

GFSSGP_prec_precacc_021.txt.gz
Total_Precipitation_Accumulation
0.00 0.00 0.00 0.00 0.00 0.00 0.00 0.00 0.00 0.00 0.00 0.00 0.00 0.00 0.00 0.00 0.00 0.00 0.00 0.00 0.00 0.00 0.00 0.00 0.02 0.04 0.06 0.05 0.03 0.01 0.00 0.00 0.00 0.00 0.00 0.01 0.00 0.00 0.00 0.01 0.00 0.00 0.00 0.00 0.00 0.00 0.00 0.01 0.01
0.00 0.00 0.00 0.00 0.00 0.00 0.00 0.00 0.00 0.00 0.00 0.00 0.00 0.00 0.00 0.00 0.00 0.00 0.00 0.00 0.00 0.00 0.00 0.00 0.02 0.03 0.06 0.07 0.03 0.00 0.00 0.00 0.00 0.00 0.01 0.02 0.01 0.01 0.00 0.00 0.00 0.00 0.00 0.00 0.00 0.00 0.00 0.00 0.01
0.00 0.00 0.00 0.00 0.00 0.00 0.00 0.00 0.00 0.00 0.00 0.00 0.00 0.00 0.00 0.00 0.00 0.00 0.00 0.00 0.00 0.00 0.00 0.00 0.01 0.02 0.05 0.06 0.03 0.01 0.00 0.00 0.00 0.00 0.02 0.05 0.03 0.01 0.00 0.00 0.00 0.00 0.00 0.00 0.00 0.00 0.00 0.00 0.00
0.00 0.00 0.00 0.00 0.00 0.00 0.00 0.00 0.00 0.00 0.00 0.00 0.00 0.00 0.00 0.00 0.00 0.00 0.00 0.00 0.00 0.00 0.00 0.00 0.01 0.02 0.04 0.03 0.02 0.00 0.00 0.00 0.00 0.00 0.01 0.04 0.07 0.05 0.02 0.00 0.00 0.00 0.00 0.00 0.00 0.00 0.00 0.00 0.00
0.00 0.00 0.00 0.00 0.00 0.00 0.00 0.00 0.00 0.00 0.00 0.00 0.00 0.00 0.00 0.00 0.00 0.00 0.00 0.00 0.00 0.00 0.00 0.00 0.00 0.01 0.01 0.01 0.00 0.00 0.00 0.00 0.00 0.00 0.01 0.03 0.06 0.06 0.04 0.00 0.00 0.00 0.00 0.00 0.00 0.00 0.00 0.00 0.00
0.00 0.00 0.00 0.00 0.00 0.00 0.00 0.00 0.00 0.00 0.00 0.00 0.00 0.00 0.00 0.00 0.00 0.00 0.00 0.00 0.00 0.00 0.00 0.00 0.00 0.01 0.01 0.01 0.00 0.00 0.00 0.00 0.00 0.00 0.00 0.02 0.05 0.06 0.07 0.02 0.00 0.00 0.00 0.00 0.00 0.00 0.01 0.01 0.01
0.00 0.00 0.00 0.00 0.00 0.00 0.00 0.00 0.00 0.00 0.00 0.00 0.00 0.00 0.00 0.00 0.00 0.00 0.00 0.00 0.00 0.00 0.00 0.00 0.00 0.01 0.01 0.01 0.01 0.00 0.00 0.00 0.00 0.00 0.00 0.00 0.01 0.01 0.01 0.01 0.00 0.01 0.01 0.00 0.01 0.02 0.02 0.02 0.01
0.00 0.00 0.00 0.00 0.00 0.00 0.00 0.00 0.00 0.00 0.00 0.00 0.00 0.00 0.00 0.00 0.00 0.00 0.00 0.00 0.00 0.00 0.00 0.00 0.00 0.00 0.00 0.00 0.01 0.01 0.01 0.00 0.00 0.00 0.00 0.00 0.00 0.00 0.00 0.00 0.00 0.00 0.00 0.00 0.01 0.02 0.01 0.01 0.01
0.00 0.00 0.00 0.00 0.00 0.00 0.00 0.00 0.00 0.00 0.00 0.00 0.00 0.00 0.00 0.00 0.00 0.00 0.00 0.00 0.00 0.00 0.00 0.00 0.00 0.00 0.00 0.00 0.00 0.01 0.01 0.01 0.00 0.00 0.00 0.00 0.00 0.00 0.00 0.00 0.00 0.00 0.00 0.00 0.00 0.00 0.01 0.01 0.00
0.00 0.00 0.00 0.00 0.00 0.00 0.00 0.00 0.00 0.00 0.00 0.00 0.00 0.00 0.00 0.00 0.00 0.00 0.00 0.00 0.00 0.00 0.00 0.00 0.00 0.00 0.00 0.00 0.00 0.00 0.00 0.00 0.00 0.00 0.00 0.00 0.00 0.00 0.00 0.00 0.00 0.00 0.00 0.00 0.00 0.00 0.00 0.00 0.00
0.00 0.00 0.00 0.00 0.00 0.00 0.00 0.00 0.00 0.00 0.00 0.00 0.00 0.00 0.00 0.00 0.00 0.00 0.00 0.00 0.00 0.00 0.00 0.00 0.00 0.00 0.00 0.00 0.00 0.00 0.00 0.00 0.00 0.00 0.00 0.00 0.00 0.00 0.00 0.00 0.00 0.00 0.00 0.00 0.00 0.00 0.00 0.00 0.00
0.00 0.00 0.00 0.00 0.00 0.00 0.00 0.00 0.00 0.00 0.00 0.00 0.00 0.00 0.00 0.00 0.00 0.00 0.00 0.00 0.00 0.00 0.00 0.00 0.00 0.00 0.00 0.00 0.00 0.00 0.00 0.00 0.00 0.00 0.00 0.00 0.00 0.00 0.00 0.00 0.00 0.00 0.00 0.00 0.00 0.00 0.00 0.00 0.00
0.00 0.00 0.00 0.00 0.00 0.00 0.00 0.00 0.00 0.00 0.00 0.00 0.00 0.00 0.00 0.00 0.00 0.00 0.00 0.00 0.00 0.00 0.00 0.00 0.00 0.00 0.00 0.00 0.00 0.00 0.00 0.00 0.00 0.00 0.00 0.00 0.00 0.00 0.00 0.00 0.00 0.00 0.00 0.00 0.00 0.00 0.00 0.00 0.00
0.00 0.00 0.00 0.00 0.00 0.00 0.00 0.00 0.00 0.00 0.00 0.00 0.00 0.00 0.00 0.00 0.00 0.00 0.00 0.00 0.00 0.00 0.00 0.00 0.00 0.00 0.00 0.00 0.00 0.00 0.00 0.00 0.00 0.00 0.00 0.00 0.00 0.00 0.00 0.00 0.00 0.00 0.00 0.00 0.00 0.00 0.00 0.00 0.00
0.00 0.01 0.00 0.00 0.00 0.00 0.00 0.00 0.00 0.00 0.00 0.00 0.00 0.00 0.00 0.00 0.00 0.00 0.00 0.00 0.00 0.00 0.00 0.00 0.00 0.00 0.00 0.00 0.00 0.00 0.00 0.00 0.00 0.00 0.00 0.00 0.00 0.00 0.00 0.00 0.00 0.00 0.00 0.00 0.00 0.00 0.00 0.00 0.00
0.03 0.04 0.01 0.00 0.00 0.00 0.00 0.00 0.00 0.00 0.00 0.00 0.00 0.00 0.00 0.00 0.00 0.00 0.00 0.00 0.00 0.00 0.00 0.00 0.00 0.00 0.00 0.00 0.00 0.00 0.00 0.00 0.00 0.00 0.00 0.00 0.00 0.00 0.00 0.00 0.00 0.00 0.00 0.00 0.00 0.00 0.00 0.00 0.00
0.07 0.03 0.01 0.00 0.00 0.00 0.00 0.00 0.00 0.00 0.00 0.00 0.00 0.00 0.00 0.00 0.00 0.00 0.00 0.00 0.00 0.00 0.00 0.00 0.00 0.00 0.00 0.00 0.00 0.00 0.00 0.00 0.00 0.00 0.00 0.00 0.00 0.00 0.00 0.00 0.00 0.00 0.00 0.00 0.00 0.00 0.00 0.00 0.00
0.02 0.01 0.00 0.00 0.00 0.00 0.00 0.00 0.00 0.00 0.00 0.00 0.00 0.00 0.00 0.00 0.00 0.00 0.00 0.00 0.00 0.00 0.00 0.00 0.00 0.00 0.00 0.00 0.00 0.00 0.00 0.00 0.00 0.00 0.00 0.00 0.00 0.00 0.00 0.00 0.00 0.00 0.00 0.00 0.00 0.00 0.00 0.00 0.00
0.01 0.02 0.01 0.00 0.00 0.00 0.00 0.00 0.00 0.00 0.00 0.00 0.00 0.00 0.00 0.00 0.00 0.00 0.00 0.00 0.00 0.00 0.00 0.00 0.00 0.00 0.00 0.00 0.00 0.00 0.00 0.00 0.00 0.00 0.00 0.00 0.00 0.00 0.00 0.00 0.00 0.00 0.00 0.00 0.00 0.00 0.00 0.00 0.00
0.04 0.04 0.04 0.01 0.00 0.01 0.00 0.00 0.00 0.00 0.00 0.00 0.00 0.00 0.00 0.00 0.00 0.00 0.00 0.00 0.00 0.00 0.00 0.00 0.00 0.00 0.00 0.00 0.00 0.00 0.00 0.00 0.00 0.00 0.00 0.00 0.00 0.00 0.00 0.00 0.00 0.00 0.00 0.00 0.00 0.00 0.00 0.00 0.00
0.13 0.04 0.03 0.03 0.01 0.01 0.00 0.00 0.00 0.00 0.00 0.00 0.00 0.00 0.00 0.00 0.00 0.00 0.00 0.00 0.00 0.00 0.00 0.00 0.00 0.00 0.00 0.00 0.00 0.00 0.00 0.00 0.00 0.00 0.00 0.00 0.00 0.00 0.00 0.00 0.00 0.00 0.00 0.00 0.00 0.00 0.00 0.01 0.01
0.16 0.07 0.01 0.04 0.09 0.07 0.02 0.01 0.00 0.00 0.00 0.00 0.00 0.00 0.00 0.00 0.00 0.00 0.00 0.00 0.00 0.00 0.00 0.00 0.00 0.00 0.00 0.00 0.00 0.00 0.00 0.00 0.00 0.00 0.00 0.00 0.00 0.00 0.00 0.00 0.00 0.00 0.00 0.00 0.00 0.00 0.01 0.02 0.02
0.16 0.10 0.03 0.08 0.15 0.15 0.10 0.04 0.00 0.00 0.00 0.00 0.00 0.00 0.00 0.00 0.00 0.00 0.00 0.00 0.00 0.00 0.00 0.00 0.00 0.00 0.00 0.00 0.00 0.00 0.00 0.00 0.00 0.00 0.00 0.00 0.00 0.00 0.00 0.00 0.00 0.00 0.00 0.00 0.00 0.01 0.01 0.02 0.03
0.17 0.19 0.18 0.11 0.31 0.30 0.11 0.08 0.01 0.00 0.00 0.00 0.00 0.00 0.00 0.00 0.00 0.00 0.00 0.00 0.00 0.00 0.00 0.00 0.00 0.00 0.00 0.00 0.00 0.00 0.00 0.00 0.00 0.00 0.00 0.00 0.00 0.00 0.00 0.00 0.00 0.00 0.00 0.00 0.00 0.00 0.00 0.01 0.04
0.53 0.56 0.71 0.45 0.39 0.37 0.07 0.05 0.02 0.00 0.00 0.00 0.00 0.00 0.00 0.00 0.00 0.00 0.00 0.00 0.00 0.00 0.00 0.00 0.00 0.00 0.00 0.00 0.00 0.00 0.00 0.00 0.00 0.00 0.00 0.00 0.00 0.00 0.00 0.00 0.00 0.00 0.00 0.00 0.00 0.00 0.00 0.00 0.00
0.56 0.72 0.61 0.29 0.14 0.11 0.05 0.10 0.02 0.00 0.00 0.00 0.00 0.00 0.00 0.00 0.00 0.00 0.00 0.00 0.00 0.00 0.00 0.00 0.00 0.00 0.00 0.00 0.00 0.00 0.00 0.00 0.00 0.00 0.00 0.00 0.00 0.00 0.00 0.00 0.00 0.00 0.00 0.00 0.00 0.00 0.00 0.00 0.00
0.51 0.63 0.36 0.29 0.09 0.07 0.06 0.01 0.00 0.00 0.00 0.00 0.00 0.00 0.00 0.00 0.00 0.00 0.00 0.00 0.00 0.00 0.00 0.00 0.00 0.00 0.00 0.00 0.00 0.00 0.00 0.00 0.00 0.00 0.00 0.00 0.00 0.00 0.00 0.00 0.00 0.00 0.00 0.00 0.00 0.00 0.00 0.00 0.00
0.53 0.31 0.38 0.52 0.23 0.08 0.02 0.00 0.00 0.00 0.00 0.00 0.00 0.00 0.00 0.00 0.00 0.00 0.00 0.00 0.00 0.00 0.00 0.00 0.00 0.00 0.00 0.00 0.00 0.00 0.00 0.00 0.00 0.00 0.00 0.00 0.00 0.00 0.00 0.00 0.00 0.00 0.00 0.00 0.00 0.00 0.00 0.00 0.00
0.65 0.63 0.33 0.29 0.14 0.05 0.01 0.00 0.00 0.00 0.00 0.00 0.00 0.00 0.00 0.00 0.00 0.00 0.00 0.00 0.00 0.00 0.00 0.00 0.00 0.00 0.00 0.00 0.00 0.00 0.00 0.00 0.00 0.00 0.00 0.00 0.00 0.00 0.00 0.00 0.00 0.00 0.00 0.00 0.00 0.00 0.00 0.00 0.00
0.28 0.28 0.21 0.35 0.11 0.04 0.01 0.00 0.00 0.00 0.00 0.00 0.00 0.00 0.00 0.00 0.00 0.00 0.00 0.00 0.00 0.00 0.00 0.00 0.00 0.00 0.00 0.00 0.00 0.00 0.00 0.00 0.00 0.00 0.00 0.00 0.00 0.00 0.00 0.00 0.00 0.00 0.00 0.00 0.00 0.00 0.00 0.00 0.00

GFSSGP_prec_precacc_024.txt.gz
Total_Precipitation_Accumulation
0.00 0.00 0.00 0.00 0.00 0.00 0.00 0.00 0.00 0.00 0.00 0.00 0.00 0.00 0.00 0.00 0.00 0.00 0.00 0.00 0.00 0.00 0.00 0.00 0.03 0.05 0.06 0.06 0.03 0.01 0.00 0.00 0.00 0.00 0.00 0.01 0.00 0.00 0.00 0.01 0.00 0.00 0.00 0.00 0.00 0.00 0.00 0.01 0.01
0.00 0.00 0.00 0.00 0.00 0.00 0.00 0.00 0.00 0.00 0.00 0.00 0.00 0.00 0.00 0.00 0.00 0.00 0.00 0.00 0.00 0.00 0.00 0.00 0.02 0.03 0.06 0.07 0.03 0.00 0.00 0.00 0.00 0.00 0.01 0.02 0.01 0.01 0.00 0.00 0.00 0.00 0.00 0.00 0.00 0.00 0.00 0.00 0.01
0.00 0.00 0.00 0.00 0.00 0.00 0.00 0.00 0.00 0.00 0.00 0.00 0.00 0.00 0.00 0.00 0.00 0.00 0.00 0.00 0.00 0.00 0.00 0.00 0.01 0.02 0.05 0.06 0.03 0.01 0.00 0.00 0.00 0.00 0.02 0.05 0.03 0.01 0.00 0.00 0.00 0.00 0.00 0.00 0.00 0.00 0.00 0.00 0.00
0.00 0.00 0.00 0.00 0.00 0.00 0.00 0.00 0.00 0.00 0.00 0.00 0.00 0.00 0.00 0.00 0.00 0.00 0.00 0.00 0.00 0.00 0.00 0.00 0.01 0.02 0.04 0.03 0.02 0.00 0.00 0.00 0.00 0.00 0.01 0.04 0.07 0.05 0.02 0.00 0.00 0.00 0.00 0.00 0.00 0.00 0.00 0.00 0.00
0.00 0.00 0.00 0.00 0.00 0.00 0.00 0.00 0.00 0.00 0.00 0.00 0.00 0.00 0.00 0.00 0.00 0.00 0.00 0.00 0.00 0.00 0.00 0.00 0.00 0.01 0.01 0.01 0.00 0.00 0.00 0.00 0.00 0.00 0.01 0.03 0.07 0.06 0.05 0.00 0.00 0.00 0.00 0.00 0.00 0.00 0.00 0.00 0.00
0.00 0.00 0.00 0.00 0.00 0.00 0.00 0.00 0.00 0.00 0.00 0.00 0.00 0.00 0.00 0.00 0.00 0.00 0.00 0.00 0.00 0.00 0.00 0.00 0.00 0.01 0.01 0.01 0.00 0.00 0.00 0.00 0.00 0.00 0.00 0.02 0.05 0.06 0.08 0.02 0.00 0.00 0.00 0.00 0.00 0.00 0.01 0.01 0.01
0.00 0.00 0.00 0.00 0.00 0.00 0.00 0.00 0.00 0.00 0.00 0.00 0.00 0.00 0.00 0.00 0.00 0.00 0.00 0.00 0.00 0.00 0.00 0.00 0.00 0.01 0.01 0.01 0.01 0.00 0.00 0.00 0.00 0.00 0.00 0.00 0.01 0.01 0.01 0.01 0.00 0.01 0.01 0.00 0.01 0.02 0.02 0.02 0.01
0.00 0.00 0.00 0.00 0.00 0.00 0.00 0.00 0.00 0.00 0.00 0.00 0.00 0.00 0.00 0.00 0.00 0.00 0.00 0.00 0.00 0.00 0.00 0.00 0.00 0.00 0.00 0.00 0.01 0.01 0.01 0.00 0.00 0.00 0.00 0.00 0.00 0.00 0.00 0.00 0.00 0.00 0.00 0.00 0.01 0.02 0.01 0.01 0.01
0.00 0.00 0.00 0.00 0.00 0.00 0.00 0.00 0.00 0.00 0.00 0.00 0.00 0.00 0.00 0.00 0.00 0.00 0.00 0.00 0.00 0.00 0.00 0.00 0.00 0.00 0.00 0.00 0.00 0.01 0.01 0.01 0.00 0.00 0.00 0.00 0.00 0.00 0.00 0.00 0.00 0.00 0.00 0.00 0.00 0.00 0.01 0.01 0.00
0.00 0.00 0.00 0.00 0.00 0.00 0.00 0.00 0.00 0.00 0.00 0.00 0.00 0.00 0.00 0.00 0.00 0.00 0.00 0.00 0.00 0.00 0.00 0.00 0.00 0.00 0.00 0.00 0.00 0.00 0.00 0.00 0.00 0.00 0.00 0.00 0.00 0.00 0.00 0.00 0.00 0.00 0.00 0.00 0.00 0.00 0.00 0.00 0.00
0.00 0.00 0.00 0.00 0.00 0.00 0.00 0.00 0.00 0.00 0.00 0.00 0.00 0.00 0.00 0.00 0.00 0.00 0.00 0.00 0.00 0.00 0.00 0.00 0.00 0.00 0.00 0.00 0.00 0.00 0.00 0.00 0.00 0.00 0.00 0.00 0.00 0.00 0.00 0.00 0.00 0.00 0.00 0.00 0.00 0.00 0.00 0.00 0.00
0.00 0.00 0.00 0.00 0.00 0.00 0.00 0.00 0.00 0.00 0.00 0.00 0.00 0.00 0.00 0.00 0.00 0.00 0.00 0.00 0.00 0.00 0.00 0.00 0.00 0.00 0.00 0.00 0.00 0.00 0.00 0.00 0.00 0.00 0.00 0.00 0.00 0.00 0.00 0.00 0.00 0.00 0.00 0.00 0.00 0.00 0.00 0.00 0.00
0.00 0.00 0.00 0.00 0.00 0.00 0.00 0.00 0.00 0.00 0.00 0.00 0.00 0.00 0.00 0.00 0.00 0.00 0.00 0.00 0.00 0.00 0.00 0.00 0.00 0.00 0.00 0.00 0.00 0.00 0.00 0.00 0.00 0.00 0.00 0.00 0.00 0.00 0.00 0.00 0.00 0.00 0.00 0.00 0.00 0.00 0.00 0.00 0.00
0.00 0.00 0.00 0.00 0.00 0.00 0.00 0.00 0.00 0.00 0.00 0.00 0.00 0.00 0.00 0.00 0.00 0.00 0.00 0.00 0.00 0.00 0.00 0.00 0.00 0.00 0.00 0.00 0.00 0.00 0.00 0.00 0.00 0.00 0.00 0.00 0.00 0.00 0.00 0.00 0.00 0.00 0.00 0.00 0.00 0.00 0.00 0.00 0.00
0.00 0.01 0.00 0.00 0.00 0.00 0.00 0.00 0.00 0.00 0.00 0.00 0.00 0.00 0.00 0.00 0.00 0.00 0.00 0.00 0.00 0.00 0.00 0.00 0.00 0.00 0.00 0.00 0.00 0.00 0.00 0.00 0.00 0.00 0.00 0.00 0.00 0.00 0.00 0.00 0.00 0.00 0.00 0.00 0.00 0.00 0.00 0.00 0.00
0.03 0.04 0.01 0.00 0.00 0.00 0.01 0.00 0.00 0.00 0.00 0.00 0.00 0.00 0.00 0.00 0.00 0.00 0.00 0.00 0.00 0.00 0.00 0.00 0.00 0.00 0.00 0.00 0.00 0.00 0.00 0.00 0.00 0.00 0.00 0.00 0.00 0.00 0.00 0.00 0.00 0.00 0.00 0.00 0.00 0.00 0.00 0.00 0.00
0.07 0.03 0.01 0.00 0.00 0.00 0.00 0.00 0.00 0.00 0.00 0.00 0.00 0.00 0.00 0.00 0.00 0.00 0.00 0.00 0.00 0.00 0.00 0.00 0.00 0.00 0.00 0.00 0.00 0.00 0.00 0.00 0.00 0.00 0.00 0.00 0.00 0.00 0.00 0.00 0.00 0.00 0.00 0.00 0.00 0.00 0.00 0.00 0.00
0.02 0.01 0.00 0.00 0.00 0.00 0.00 0.00 0.00 0.00 0.00 0.00 0.00 0.00 0.00 0.00 0.00 0.00 0.00 0.00 0.00 0.00 0.00 0.00 0.00 0.00 0.00 0.00 0.00 0.00 0.00 0.00 0.00 0.00 0.00 0.00 0.00 0.00 0.00 0.00 0.00 0.00 0.00 0.00 0.00 0.00 0.00 0.00 0.00
0.01 0.02 0.01 0.00 0.00 0.00 0.00 0.00 0.00 0.00 0.00 0.00 0.00 0.00 0.00 0.00 0.00 0.00 0.00 0.00 0.00 0.00 0.00 0.00 0.00 0.00 0.00 0.00 0.00 0.00 0.00 0.00 0.00 0.00 0.00 0.00 0.00 0.00 0.00 0.00 0.00 0.00 0.00 0.00 0.00 0.00 0.00 0.00 0.00
0.04 0.04 0.04 0.01 0.00 0.01 0.00 0.00 0.00 0.00 0.00 0.00 0.00 0.00 0.00 0.00 0.00 0.00 0.00 0.00 0.00 0.00 0.00 0.00 0.00 0.00 0.00 0.00 0.00 0.00 0.00 0.00 0.00 0.00 0.00 0.00 0.00 0.00 0.00 0.00 0.00 0.00 0.00 0.00 0.00 0.00 0.00 0.00 0.00
0.13 0.04 0.03 0.03 0.01 0.01 0.01 0.00 0.00 0.00 0.00 0.00 0.00 0.00 0.00 0.00 0.00 0.00 0.00 0.00 0.00 0.00 0.00 0.00 0.00 0.00 0.00 0.00 0.00 0.00 0.00 0.00 0.00 0.00 0.00 0.00 0.00 0.00 0.00 0.00 0.00 0.00 0.00 0.00 0.00 0.00 0.00 0.01 0.01
0.16 0.07 0.01 0.05 0.09 0.07 0.04 0.02 0.00 0.00 0.00 0.00 0.00 0.00 0.00 0.00 0.00 0.00 0.00 0.00 0.00 0.00 0.00 0.00 0.00 0.00 0.00 0.00 0.00 0.00 0.00 0.00 0.00 0.00 0.00 0.00 0.00 0.00 0.00 0.00 0.00 0.00 0.00 0.00 0.00 0.00 0.01 0.02 0.02
0.16 0.10 0.03 0.08 0.15 0.16 0.11 0.07 0.01 0.00 0.00 0.00 0.00 0.00 0.00 0.00 0.00 0.00 0.00 0.00 0.00 0.00 0.00 0.00 0.00 0.00 0.00 0.00 0.00 0.00 0.00 0.00 0.00 0.00 0.00 0.00 0.00 0.00 0.00 0.00 0.00 0.00 0.00 0.00 0.00 0.01 0.01 0.02 0.03
0.17 0.20 0.19 0.11 0.33 0.33 0.11 0.14 0.07 0.00 0.00 0.00 0.00 0.00 0.00 0.00 0.00 0.00 0.00 0.00 0.00 0.00 0.00 0.00 0.00 0.00 0.00 0.00 0.00 0.00 0.00 0.00 0.00 0.00 0.00 0.00 0.00 0.00 0.00 0.00 0.00 0.00 0.00 0.00 0.00 0.00 0.00 0.01 0.04
0.54 0.57 0.73 0.46 0.41 0.38 0.07 0.06 0.07 0.00 0.00 0.00 0.00 0.00 0.00 0.00 0.00 0.00 0.00 0.00 0.00 0.00 0.00 0.00 0.00 0.00 0.00 0.00 0.00 0.00 0.00 0.00 0.00 0.00 0.00 0.00 0.00 0.00 0.00 0.00 0.00 0.00 0.00 0.00 0.00 0.00 0.00 0.00 0.00
0.57 0.73 0.62 0.29 0.14 0.11 0.05 0.11 0.02 0.00 0.00 0.00 0.00 0.00 0.00 0.00 0.00 0.00 0.00 0.00 0.00 0.00 0.00 0.00 0.00 0.00 0.00 0.00 0.00 0.00 0.00 0.00 0.00 0.00 0.00 0.00 0.00 0.00 0.00 0.00 0.00 0.00 0.00 0.00 0.00 0.00 0.00 0.00 0.00
0.52 0.67 0.36 0.30 0.10 0.09 0.08 0.01 0.00 0.00 0.00 0.00 0.00 0.00 0.00 0.00 0.00 0.00 0.00 0.00 0.00 0.00 0.00 0.00 0.00 0.00 0.00 0.00 0.00 0.00 0.00 0.00 0.00 0.00 0.00 0.00 0.00 0.00 0.00 0.00 0.00 0.00 0.00 0.00 0.00 0.00 0.00 0.00 0.00
0.54 0.33 0.40 0.60 0.33 0.14 0.09 0.03 0.00 0.00 0.00 0.00 0.00 0.00 0.00 0.00 0.00 0.00 0.00 0.00 0.00 0.00 0.00 0.00 0.00 0.00 0.00 0.00 0.00 0.00 0.00 0.00 0.00 0.00 0.00 0.00 0.00 0.00 0.00 0.00 0.00 0.00 0.00 0.00 0.00 0.00 0.00 0.00 0.00
0.70 0.76 0.37 0.32 0.20 0.25 0.05 0.02 0.00 0.00 0.00 0.00 0.00 0.00 0.00 0.00 0.00 0.00 0.00 0.00 0.00 0.00 0.00 0.00 0.00 0.00 0.00 0.00 0.00 0.00 0.00 0.00 0.00 0.00 0.00 0.00 0.00 0.00 0.00 0.00 0.00 0.00 0.00 0.00 0.00 0.00 0.00 0.00 0.00
0.31 0.32 0.24 0.36 0.19 0.20 0.12 0.01 0.00 0.00 0.00 0.00 0.00 0.00 0.00 0.00 0.00 0.00 0.00 0.00 0.00 0.00 0.00 0.00 0.00 0.00 0.00 0.00 0.00 0.00 0.00 0.00 0.00 0.00 0.00 0.00 0.00 0.00 0.00 0.00 0.00 0.00 0.00 0.00 0.00 0.00 0.00 0.00 0.00

GFSSGP_prec_precacc_027.txt.gz
Total_Precipitation_Accumulation
0.00 0.00 0.00 0.00 0.00 0.00 0.00 0.00 0.00 0.00 0.00 0.00 0.00 0.00 0.00 0.00 0.00 0.00 0.00 0.00 0.00 0.00 0.00 0.00 0.03 0.06 0.06 0.06 0.03 0.01 0.00 0.00 0.00 0.00 0.00 0.01 0.00 0.00 0.00 0.01 0.00 0.00 0.00 0.00 0.00 0.00 0.00 0.01 0.01
0.00 0.00 0.00 0.00 0.00 0.00 0.00 0.00 0.00 0.00 0.00 0.00 0.00 0.00 0.00 0.00 0.00 0.00 0.00 0.00 0.00 0.00 0.00 0.00 0.02 0.03 0.06 0.08 0.03 0.00 0.00 0.00 0.00 0.00 0.01 0.02 0.01 0.01 0.00 0.00 0.00 0.00 0.00 0.00 0.00 0.00 0.00 0.00 0.01
0.00 0.00 0.00 0.00 0.00 0.00 0.00 0.00 0.00 0.00 0.00 0.00 0.00 0.00 0.00 0.00 0.00 0.00 0.00 0.00 0.00 0.00 0.00 0.00 0.01 0.02 0.06 0.07 0.03 0.01 0.00 0.00 0.00 0.00 0.02 0.05 0.03 0.01 0.00 0.00 0.00 0.00 0.00 0.00 0.00 0.00 0.00 0.00 0.00
0.00 0.00 0.00 0.00 0.00 0.00 0.00 0.00 0.00 0.00 0.00 0.00 0.00 0.00 0.00 0.00 0.00 0.00 0.00 0.00 0.00 0.00 0.00 0.00 0.01 0.02 0.05 0.03 0.02 0.00 0.00 0.00 0.00 0.00 0.01 0.05 0.07 0.06 0.02 0.00 0.00 0.00 0.00 0.00 0.00 0.00 0.00 0.00 0.00
0.00 0.00 0.00 0.00 0.00 0.00 0.00 0.00 0.00 0.00 0.00 0.00 0.00 0.00 0.00 0.00 0.00 0.00 0.00 0.00 0.00 0.00 0.00 0.00 0.00 0.01 0.02 0.01 0.00 0.00 0.00 0.00 0.00 0.00 0.01 0.03 0.07 0.08 0.06 0.00 0.00 0.00 0.00 0.00 0.00 0.00 0.00 0.00 0.00
0.00 0.00 0.00 0.00 0.00 0.00 0.00 0.00 0.00 0.00 0.00 0.00 0.00 0.00 0.00 0.00 0.00 0.00 0.00 0.00 0.00 0.00 0.00 0.00 0.00 0.01 0.02 0.01 0.00 0.00 0.00 0.00 0.00 0.00 0.00 0.02 0.05 0.07 0.09 0.02 0.00 0.00 0.00 0.00 0.00 0.00 0.01 0.01 0.01
0.00 0.00 0.00 0.00 0.00 0.00 0.00 0.00 0.00 0.00 0.00 0.00 0.00 0.00 0.00 0.00 0.00 0.00 0.00 0.00 0.00 0.00 0.00 0.00 0.00 0.01 0.01 0.01 0.01 0.00 0.00 0.00 0.00 0.00 0.00 0.00 0.01 0.01 0.02 0.01 0.00 0.01 0.01 0.00 0.01 0.02 0.02 0.02 0.01
0.00 0.00 0.00 0.00 0.00 0.00 0.00 0.00 0.00 0.00 0.00 0.00 0.00 0.00 0.00 0.00 0.00 0.00 0.00 0.00 0.00 0.00 0.00 0.00 0.00 0.00 0.00 0.00 0.01 0.01 0.01 0.00 0.00 0.00 0.00 0.00 0.00 0.00 0.00 0.00 0.00 0.00 0.00 0.00 0.01 0.02 0.01 0.01 0.01
0.00 0.00 0.00 0.00 0.00 0.00 0.00 0.00 0.00 0.00 0.00 0.00 0.00 0.00 0.00 0.00 0.00 0.00 0.00 0.00 0.00 0.00 0.00 0.00 0.00 0.00 0.00 0.00 0.00 0.01 0.01 0.01 0.00 0.00 0.00 0.00 0.00 0.00 0.00 0.00 0.00 0.00 0.00 0.00 0.00 0.00 0.01 0.01 0.00
0.00 0.00 0.00 0.00 0.00 0.00 0.00 0.00 0.00 0.00 0.00 0.00 0.00 0.00 0.00 0.00 0.00 0.00 0.00 0.00 0.00 0.00 0.00 0.00 0.00 0.00 0.00 0.00 0.00 0.00 0.00 0.00 0.00 0.00 0.00 0.00 0.00 0.00 0.00 0.00 0.00 0.00 0.00 0.00 0.00 0.00 0.00 0.00 0.00
0.00 0.00 0.00 0.00 0.00 0.00 0.00 0.00 0.00 0.00 0.00 0.00 0.00 0.00 0.00 0.00 0.00 0.00 0.00 0.00 0.00 0.00 0.00 0.00 0.00 0.00 0.00 0.00 0.00 0.00 0.00 0.00 0.00 0.00 0.00 0.00 0.00 0.00 0.00 0.00 0.00 0.00 0.00 0.00 0.00 0.00 0.00 0.00 0.00
0.00 0.00 0.00 0.00 0.00 0.00 0.00 0.00 0.00 0.00 0.00 0.00 0.00 0.00 0.00 0.00 0.00 0.00 0.00 0.00 0.00 0.00 0.00 0.00 0.00 0.00 0.00 0.00 0.00 0.00 0.00 0.00 0.00 0.00 0.00 0.00 0.00 0.00 0.00 0.00 0.00 0.00 0.00 0.00 0.00 0.00 0.00 0.00 0.00
0.00 0.00 0.00 0.00 0.00 0.00 0.00 0.00 0.00 0.00 0.00 0.00 0.00 0.00 0.00 0.00 0.00 0.00 0.00 0.00 0.00 0.00 0.00 0.00 0.00 0.00 0.00 0.00 0.00 0.00 0.00 0.00 0.00 0.00 0.00 0.00 0.00 0.00 0.00 0.00 0.00 0.00 0.00 0.00 0.00 0.00 0.00 0.00 0.00
0.00 0.00 0.00 0.00 0.00 0.00 0.00 0.00 0.00 0.00 0.00 0.00 0.00 0.00 0.00 0.00 0.00 0.00 0.00 0.00 0.00 0.00 0.00 0.00 0.00 0.00 0.00 0.00 0.00 0.00 0.00 0.00 0.00 0.00 0.00 0.00 0.00 0.00 0.00 0.00 0.00 0.00 0.00 0.00 0.00 0.00 0.00 0.00 0.00
0.00 0.01 0.00 0.00 0.00 0.00 0.00 0.00 0.00 0.00 0.00 0.00 0.00 0.00 0.00 0.00 0.00 0.00 0.00 0.00 0.00 0.00 0.00 0.00 0.00 0.00 0.00 0.00 0.00 0.00 0.00 0.00 0.00 0.00 0.00 0.00 0.00 0.00 0.00 0.00 0.00 0.00 0.00 0.00 0.00 0.00 0.00 0.00 0.00
0.03 0.04 0.01 0.00 0.00 0.00 0.01 0.00 0.00 0.00 0.00 0.00 0.00 0.00 0.00 0.00 0.00 0.00 0.00 0.00 0.00 0.00 0.00 0.00 0.00 0.00 0.00 0.00 0.00 0.00 0.00 0.00 0.00 0.00 0.00 0.00 0.00 0.00 0.00 0.00 0.00 0.00 0.00 0.00 0.00 0.00 0.00 0.00 0.00
0.07 0.03 0.01 0.00 0.00 0.00 0.00 0.00 0.00 0.00 0.00 0.00 0.00 0.00 0.00 0.00 0.00 0.00 0.00 0.00 0.00 0.00 0.00 0.00 0.00 0.00 0.00 0.00 0.00 0.00 0.00 0.00 0.00 0.00 0.00 0.00 0.00 0.00 0.00 0.00 0.00 0.00 0.00 0.00 0.00 0.00 0.00 0.00 0.00
0.02 0.01 0.00 0.00 0.00 0.00 0.00 0.00 0.00 0.00 0.00 0.00 0.00 0.00 0.00 0.00 0.00 0.00 0.00 0.00 0.00 0.00 0.00 0.00 0.00 0.00 0.00 0.00 0.00 0.00 0.00 0.00 0.00 0.00 0.00 0.00 0.00 0.00 0.00 0.00 0.00 0.00 0.00 0.00 0.00 0.00 0.00 0.00 0.00
0.01 0.02 0.01 0.00 0.00 0.00 0.00 0.00 0.00 0.00 0.00 0.00 0.00 0.00 0.00 0.00 0.00 0.00 0.00 0.00 0.00 0.00 0.00 0.00 0.00 0.00 0.00 0.00 0.00 0.00 0.00 0.00 0.00 0.00 0.00 0.00 0.00 0.00 0.00 0.00 0.00 0.00 0.00 0.00 0.00 0.00 0.00 0.00 0.00
0.04 0.04 0.04 0.01 0.00 0.01 0.00 0.00 0.00 0.00 0.00 0.00 0.00 0.00 0.00 0.00 0.00 0.00 0.00 0.00 0.00 0.00 0.00 0.00 0.00 0.00 0.00 0.00 0.00 0.00 0.00 0.00 0.00 0.00 0.00 0.00 0.00 0.00 0.00 0.00 0.00 0.00 0.00 0.00 0.00 0.00 0.00 0.00 0.00
0.13 0.04 0.03 0.03 0.01 0.01 0.01 0.00 0.00 0.00 0.00 0.00 0.00 0.00 0.00 0.00 0.00 0.00 0.00 0.00 0.00 0.00 0.00 0.00 0.00 0.00 0.00 0.00 0.00 0.00 0.00 0.00 0.00 0.00 0.00 0.00 0.00 0.00 0.00 0.00 0.00 0.00 0.00 0.00 0.00 0.00 0.00 0.01 0.01
0.16 0.07 0.01 0.05 0.10 0.07 0.04 0.02 0.00 0.00 0.00 0.00 0.00 0.00 0.00 0.00 0.00 0.00 0.00 0.00 0.00 0.00 0.00 0.00 0.00 0.00 0.00 0.00 0.00 0.00 0.00 0.00 0.00 0.00 0.00 0.00 0.00 0.00 0.00 0.00 0.00 0.00 0.00 0.00 0.00 0.00 0.01 0.02 0.02
0.16 0.10 0.03 0.08 0.16 0.16 0.11 0.07 0.01 0.00 0.00 0.00 0.00 0.00 0.00 0.00 0.00 0.00 0.00 0.00 0.00 0.00 0.00 0.00 0.00 0.00 0.00 0.00 0.00 0.00 0.00 0.00 0.00 0.00 0.00 0.00 0.00 0.00 0.00 0.00 0.00 0.00 0.00 0.00 0.00 0.01 0.01 0.02 0.03
0.17 0.20 0.19 0.12 0.34 0.34 0.11 0.14 0.07 0.00 0.00 0.00 0.00 0.00 0.00 0.00 0.00 0.00 0.00 0.00 0.00 0.00 0.00 0.00 0.00 0.00 0.00 0.00 0.00 0.00 0.00 0.00 0.00 0.00 0.00 0.00 0.00 0.00 0.00 0.00 0.00 0.00 0.00 0.00 0.00 0.00 0.00 0.01 0.04
0.55 0.61 0.77 0.49 0.44 0.38 0.07 0.06 0.07 0.00 0.00 0.00 0.00 0.00 0.00 0.00 0.00 0.00 0.00 0.00 0.00 0.00 0.00 0.00 0.00 0.00 0.00 0.00 0.00 0.00 0.00 0.00 0.00 0.00 0.00 0.00 0.00 0.00 0.00 0.00 0.00 0.00 0.00 0.00 0.00 0.00 0.00 0.00 0.00
0.58 0.75 0.67 0.30 0.14 0.12 0.05 0.11 0.02 0.00 0.00 0.00 0.00 0.00 0.00 0.00 0.00 0.00 0.00 0.00 0.00 0.00 0.00 0.00 0.00 0.00 0.00 0.00 0.00 0.00 0.00 0.00 0.00 0.00 0.00 0.00 0.00 0.00 0.00 0.00 0.00 0.00 0.00 0.00 0.00 0.00 0.00 0.00 0.00
0.58 0.73 0.40 0.31 0.11 0.10 0.09 0.01 0.00 0.00 0.00 0.00 0.00 0.00 0.00 0.00 0.00 0.00 0.00 0.00 0.00 0.00 0.00 0.00 0.00 0.00 0.00 0.00 0.00 0.00 0.00 0.00 0.00 0.00 0.00 0.00 0.00 0.00 0.00 0.00 0.00 0.00 0.00 0.00 0.00 0.00 0.00 0.00 0.00
0.55 0.34 0.43 0.70 0.36 0.15 0.09 0.03 0.00 0.00 0.00 0.00 0.00 0.00 0.00 0.00 0.00 0.00 0.00 0.00 0.00 0.00 0.00 0.00 0.00 0.00 0.00 0.00 0.00 0.00 0.00 0.00 0.00 0.00 0.00 0.00 0.00 0.00 0.00 0.00 0.00 0.00 0.00 0.00 0.00 0.00 0.00 0.00 0.00
0.71 0.79 0.41 0.34 0.21 0.25 0.05 0.02 0.00 0.00 0.00 0.00 0.00 0.00 0.00 0.00 0.00 0.00 0.00 0.00 0.00 0.00 0.00 0.00 0.00 0.00 0.00 0.00 0.00 0.00 0.00 0.00 0.00 0.00 0.00 0.00 0.00 0.00 0.00 0.00 0.00 0.00 0.00 0.00 0.00 0.00 0.00 0.00 0.00
0.34 0.35 0.26 0.39 0.19 0.20 0.17 0.02 0.00 0.00 0.00 0.00 0.01 0.02 0.01 0.00 0.00 0.00 0.00 0.00 0.00 0.00 0.00 0.00 0.00 0.00 0.00 0.00 0.00 0.00 0.00 0.00 0.00 0.00 0.00 0.00 0.00 0.00 0.00 0.00 0.00 0.00 0.00 0.00 0.00 0.00 0.00 0.00 0.00

GFSSGP_prec_precacc_030.txt.gz
Total_Precipitation_Accumulation
0.00 0.00 0.00 0.00 0.00 0.00 0.00 0.00 0.00 0.00 0.00 0.00 0.00 0.00 0.00 0.00 0.00 0.00 0.00 0.00 0.00 0.00 0.00 0.01 0.03 0.07 0.07 0.06 0.03 0.01 0.00 0.00 0.00 0.00 0.01 0.03 0.01 0.00 0.00 0.01 0.00 0.00 0.00 0.00 0.00 0.01 0.00 0.01 0.01
0.00 0.00 0.00 0.00 0.00 0.00 0.00 0.00 0.00 0.00 0.00 0.00 0.00 0.00 0.00 0.00 0.00 0.00 0.00 0.00 0.00 0.00 0.00 0.00 0.02 0.04 0.06 0.08 0.03 0.00 0.00 0.00 0.00 0.00 0.02 0.03 0.01 0.01 0.00 0.00 0.00 0.00 0.00 0.00 0.00 0.00 0.00 0.00 0.01
0.00 0.00 0.00 0.00 0.00 0.00 0.00 0.00 0.00 0.00 0.00 0.00 0.00 0.00 0.00 0.00 0.00 0.00 0.00 0.00 0.00 0.00 0.00 0.00 0.01 0.03 0.06 0.07 0.03 0.01 0.00 0.00 0.00 0.00 0.02 0.05 0.03 0.01 0.00 0.00 0.00 0.00 0.00 0.00 0.00 0.00 0.00 0.00 0.00
0.00 0.00 0.00 0.00 0.00 0.00 0.00 0.00 0.00 0.00 0.00 0.00 0.00 0.00 0.00 0.00 0.00 0.00 0.00 0.00 0.00 0.00 0.00 0.00 0.01 0.02 0.06 0.04 0.02 0.00 0.00 0.00 0.00 0.00 0.01 0.05 0.07 0.06 0.02 0.00 0.00 0.00 0.00 0.00 0.00 0.00 0.00 0.00 0.00
0.00 0.00 0.00 0.00 0.00 0.00 0.00 0.00 0.00 0.00 0.00 0.00 0.00 0.00 0.00 0.00 0.00 0.00 0.00 0.00 0.00 0.00 0.00 0.00 0.00 0.01 0.03 0.02 0.00 0.00 0.00 0.00 0.00 0.00 0.01 0.04 0.08 0.09 0.06 0.00 0.00 0.00 0.00 0.00 0.00 0.00 0.00 0.00 0.00
0.00 0.00 0.00 0.00 0.00 0.00 0.00 0.00 0.00 0.00 0.00 0.00 0.00 0.00 0.00 0.00 0.00 0.00 0.00 0.00 0.00 0.00 0.00 0.00 0.00 0.01 0.02 0.01 0.00 0.00 0.00 0.00 0.00 0.00 0.00 0.02 0.05 0.07 0.10 0.02 0.00 0.00 0.00 0.00 0.00 0.00 0.01 0.01 0.01
0.00 0.00 0.00 0.00 0.00 0.00 0.00 0.00 0.00 0.00 0.00 0.00 0.00 0.00 0.00 0.00 0.00 0.00 0.00 0.00 0.00 0.00 0.00 0.00 0.00 0.01 0.01 0.01 0.01 0.00 0.00 0.00 0.00 0.00 0.00 0.00 0.01 0.01 0.03 0.01 0.00 0.01 0.01 0.00 0.01 0.02 0.02 0.02 0.01
0.00 0.00 0.00 0.00 0.00 0.00 0.00 0.00 0.00 0.00 0.00 0.00 0.00 0.00 0.00 0.00 0.00 0.00 0.00 0.00 0.00 0.00 0.00 0.00 0.00 0.00 0.00 0.00 0.01 0.01 0.01 0.00 0.00 0.00 0.00 0.00 0.00 0.00 0.00 0.00 0.00 0.00 0.00 0.00 0.01 0.02 0.01 0.01 0.01
0.00 0.00 0.00 0.00 0.00 0.00 0.00 0.00 0.00 0.00 0.00 0.00 0.00 0.00 0.00 0.00 0.00 0.00 0.00 0.00 0.00 0.00 0.00 0.00 0.00 0.00 0.00 0.00 0.00 0.01 0.01 0.01 0.00 0.00 0.00 0.00 0.00 0.00 0.00 0.00 0.00 0.00 0.00 0.00 0.00 0.00 0.01 0.01 0.00
0.00 0.00 0.00 0.00 0.00 0.00 0.00 0.00 0.00 0.00 0.00 0.00 0.00 0.00 0.00 0.00 0.00 0.00 0.00 0.00 0.00 0.00 0.00 0.00 0.00 0.00 0.00 0.00 0.00 0.00 0.00 0.00 0.00 0.00 0.00 0.00 0.00 0.00 0.00 0.00 0.00 0.00 0.00 0.00 0.00 0.00 0.00 0.00 0.00
0.00 0.00 0.00 0.00 0.00 0.00 0.00 0.00 0.00 0.00 0.00 0.00 0.00 0.00 0.00 0.00 0.00 0.00 0.00 0.00 0.00 0.00 0.00 0.00 0.00 0.00 0.00 0.00 0.00 0.00 0.00 0.00 0.00 0.00 0.00 0.00 0.00 0.00 0.00 0.00 0.00 0.00 0.00 0.00 0.00 0.00 0.00 0.00 0.00
0.00 0.00 0.00 0.00 0.00 0.00 0.00 0.00 0.00 0.00 0.00 0.00 0.00 0.00 0.00 0.00 0.00 0.00 0.00 0.00 0.00 0.00 0.00 0.00 0.00 0.00 0.00 0.00 0.00 0.00 0.00 0.00 0.00 0.00 0.00 0.00 0.00 0.00 0.00 0.00 0.00 0.00 0.00 0.00 0.00 0.00 0.00 0.00 0.00
0.00 0.00 0.00 0.00 0.00 0.00 0.00 0.00 0.00 0.00 0.00 0.00 0.00 0.00 0.00 0.00 0.00 0.00 0.00 0.00 0.00 0.00 0.00 0.00 0.00 0.00 0.00 0.00 0.00 0.00 0.00 0.00 0.00 0.00 0.00 0.00 0.00 0.00 0.00 0.00 0.00 0.00 0.00 0.00 0.00 0.00 0.00 0.00 0.00
0.00 0.00 0.00 0.00 0.00 0.00 0.00 0.00 0.00 0.00 0.00 0.00 0.00 0.00 0.00 0.00 0.00 0.00 0.00 0.00 0.00 0.00 0.00 0.00 0.00 0.00 0.00 0.00 0.00 0.00 0.00 0.00 0.00 0.00 0.00 0.00 0.00 0.00 0.00 0.00 0.00 0.00 0.00 0.00 0.00 0.00 0.00 0.00 0.00
0.00 0.01 0.00 0.00 0.00 0.00 0.00 0.00 0.00 0.00 0.00 0.00 0.00 0.00 0.00 0.00 0.00 0.00 0.00 0.00 0.00 0.00 0.00 0.00 0.00 0.00 0.00 0.00 0.00 0.00 0.00 0.00 0.00 0.00 0.00 0.00 0.00 0.00 0.00 0.00 0.00 0.00 0.00 0.00 0.00 0.00 0.00 0.00 0.00
0.03 0.04 0.01 0.00 0.00 0.00 0.01 0.00 0.00 0.00 0.00 0.00 0.00 0.00 0.00 0.00 0.00 0.00 0.00 0.00 0.00 0.00 0.00 0.00 0.00 0.00 0.00 0.00 0.00 0.00 0.00 0.00 0.00 0.00 0.00 0.00 0.00 0.00 0.00 0.00 0.00 0.00 0.00 0.00 0.00 0.00 0.00 0.00 0.00
0.08 0.03 0.01 0.00 0.00 0.00 0.00 0.00 0.00 0.00 0.00 0.00 0.00 0.00 0.00 0.00 0.00 0.00 0.00 0.00 0.00 0.00 0.00 0.00 0.00 0.00 0.00 0.00 0.00 0.00 0.00 0.00 0.00 0.00 0.00 0.00 0.00 0.00 0.00 0.00 0.00 0.00 0.00 0.00 0.00 0.00 0.00 0.00 0.00
0.02 0.01 0.00 0.00 0.00 0.00 0.00 0.00 0.00 0.00 0.00 0.00 0.00 0.00 0.00 0.00 0.00 0.00 0.00 0.00 0.00 0.00 0.00 0.00 0.00 0.00 0.00 0.00 0.00 0.00 0.00 0.00 0.00 0.00 0.00 0.00 0.00 0.00 0.00 0.00 0.00 0.00 0.00 0.00 0.00 0.00 0.00 0.00 0.00
0.01 0.02 0.01 0.00 0.00 0.00 0.00 0.00 0.00 0.00 0.00 0.00 0.00 0.00 0.00 0.00 0.00 0.00 0.00 0.00 0.00 0.00 0.00 0.00 0.00 0.00 0.00 0.00 0.00 0.00 0.00 0.00 0.00 0.00 0.00 0.00 0.00 0.00 0.00 0.00 0.00 0.00 0.00 0.00 0.00 0.00 0.00 0.00 0.00
0.04 0.04 0.04 0.01 0.00 0.01 0.00 0.00 0.00 0.00 0.00 0.00 0.00 0.00 0.00 0.00 0.00 0.00 0.00 0.00 0.00 0.00 0.00 0.00 0.00 0.00 0.00 0.00 0.00 0.00 0.00 0.00 0.00 0.00 0.00 0.00 0.00 0.00 0.00 0.00 0.00 0.00 0.00 0.00 0.00 0.00 0.00 0.00 0.00
0.13 0.04 0.03 0.03 0.01 0.01 0.01 0.00 0.00 0.00 0.00 0.00 0.00 0.00 0.00 0.00 0.00 0.00 0.00 0.00 0.00 0.00 0.00 0.00 0.00 0.00 0.00 0.00 0.00 0.00 0.00 0.00 0.00 0.00 0.00 0.00 0.00 0.00 0.00 0.00 0.00 0.00 0.00 0.00 0.00 0.00 0.00 0.01 0.01
0.16 0.07 0.01 0.05 0.10 0.08 0.04 0.02 0.00 0.00 0.00 0.00 0.00 0.00 0.00 0.00 0.00 0.00 0.00 0.00 0.00 0.00 0.00 0.00 0.00 0.00 0.00 0.00 0.00 0.00 0.00 0.00 0.00 0.00 0.00 0.00 0.00 0.00 0.00 0.00 0.00 0.00 0.00 0.00 0.00 0.00 0.01 0.02 0.02
0.16 0.10 0.03 0.09 0.16 0.16 0.11 0.07 0.01 0.00 0.00 0.00 0.00 0.00 0.00 0.00 0.00 0.00 0.00 0.00 0.00 0.00 0.00 0.00 0.00 0.00 0.00 0.00 0.00 0.00 0.00 0.00 0.00 0.00 0.00 0.00 0.00 0.00 0.00 0.00 0.00 0.00 0.00 0.00 0.00 0.01 0.01 0.02 0.03
0.18 0.21 0.20 0.14 0.36 0.36 0.11 0.14 0.07 0.00 0.00 0.00 0.00 0.00 0.00 0.00 0.00 0.00 0.00 0.00 0.00 0.00 0.00 0.00 0.00 0.00 0.00 0.00 0.00 0.00 0.00 0.00 0.00 0.00 0.00 0.00 0.00 0.00 0.00 0.00 0.00 0.00 0.00 0.00 0.00 0.00 0.00 0.01 0.04
0.56 0.67 0.85 0.56 0.50 0.40 0.07 0.06 0.07 0.00 0.00 0.00 0.00 0.00 0.00 0.00 0.00 0.00 0.00 0.00 0.00 0.00 0.00 0.00 0.00 0.00 0.00 0.00 0.00 0.00 0.00 0.00 0.00 0.00 0.00 0.00 0.00 0.00 0.00 0.00 0.00 0.00 0.00 0.00 0.00 0.00 0.00 0.00 0.00
0.58 0.78 0.78 0.33 0.15 0.12 0.05 0.11 0.02 0.00 0.00 0.00 0.00 0.00 0.00 0.00 0.00 0.00 0.00 0.00 0.00 0.00 0.00 0.00 0.00 0.00 0.00 0.00 0.00 0.00 0.00 0.00 0.00 0.00 0.00 0.00 0.00 0.00 0.00 0.00 0.00 0.00 0.00 0.00 0.00 0.00 0.00 0.00 0.00
0.61 0.82 0.47 0.40 0.18 0.16 0.09 0.01 0.00 0.00 0.00 0.00 0.00 0.00 0.00 0.00 0.00 0.00 0.00 0.00 0.00 0.00 0.00 0.00 0.00 0.00 0.00 0.00 0.00 0.00 0.00 0.00 0.00 0.00 0.00 0.00 0.00 0.00 0.00 0.00 0.00 0.00 0.00 0.00 0.00 0.00 0.00 0.00 0.00
0.58 0.36 0.48 0.88 0.47 0.17 0.09 0.03 0.00 0.00 0.00 0.00 0.00 0.00 0.00 0.00 0.00 0.00 0.00 0.00 0.00 0.00 0.00 0.00 0.00 0.00 0.00 0.00 0.00 0.00 0.00 0.00 0.00 0.00 0.00 0.00 0.00 0.00 0.00 0.00 0.00 0.00 0.00 0.00 0.00 0.00 0.00 0.00 0.00
0.71 0.84 0.45 0.36 0.21 0.25 0.05 0.02 0.00 0.00 0.00 0.00 0.00 0.00 0.00 0.00 0.00 0.00 0.00 0.00 0.00 0.00 0.00 0.00 0.00 0.00 0.00 0.00 0.00 0.00 0.00 0.00 0.00 0.00 0.00 0.00 0.00 0.00 0.00 0.00 0.00 0.00 0.00 0.00 0.00 0.00 0.00 0.00 0.00
0.34 0.35 0.26 0.39 0.19 0.20 0.17 0.02 0.00 0.00 0.00 0.00 0.01 0.02 0.01 0.00 0.00 0.00 0.00 0.00 0.00 0.00 0.00 0.00 0.00 0.00 0.00 0.00 0.00 0.00 0.00 0.00 0.00 0.00 0.00 0.00 0.00 0.00 0.00 0.00 0.00 0.00 0.00 0.00 0.00 0.00 0.00 0.00 0.00

GFSSGP_prec_precacc_033.txt.gz
Total_Precipitation_Accumulation
0.00 0.00 0.00 0.00 0.00 0.00 0.00 0.00 0.00 0.00 0.00 0.00 0.00 0.00 0.00 0.00 0.00 0.00 0.00 0.00 0.00 0.00 0.00 0.01 0.04 0.07 0.07 0.06 0.03 0.01 0.00 0.00 0.00 0.00 0.01 0.04 0.01 0.00 0.00 0.01 0.00 0.00 0.00 0.00 0.00 0.01 0.01 0.01 0.01
0.00 0.00 0.00 0.00 0.00 0.00 0.00 0.00 0.00 0.00 0.00 0.00 0.00 0.00 0.00 0.00 0.00 0.00 0.00 0.00 0.00 0.00 0.00 0.00 0.03 0.04 0.06 0.08 0.03 0.00 0.00 0.00 0.00 0.00 0.03 0.04 0.01 0.01 0.00 0.00 0.00 0.00 0.00 0.00 0.00 0.00 0.00 0.00 0.01
0.00 0.00 0.00 0.00 0.00 0.00 0.00 0.00 0.00 0.00 0.00 0.00 0.00 0.00 0.00 0.00 0.00 0.00 0.00 0.00 0.00 0.00 0.00 0.00 0.01 0.03 0.06 0.07 0.03 0.01 0.00 0.00 0.00 0.00 0.02 0.05 0.03 0.01 0.00 0.00 0.00 0.00 0.00 0.00 0.00 0.00 0.00 0.00 0.00
0.00 0.00 0.00 0.00 0.00 0.00 0.00 0.00 0.00 0.00 0.00 0.00 0.00 0.00 0.00 0.00 0.00 0.00 0.00 0.00 0.00 0.00 0.00 0.00 0.01 0.03 0.06 0.04 0.02 0.00 0.00 0.00 0.00 0.00 0.01 0.05 0.07 0.06 0.02 0.00 0.00 0.00 0.00 0.00 0.00 0.00 0.00 0.00 0.00
0.00 0.00 0.00 0.00 0.00 0.00 0.00 0.00 0.00 0.00 0.00 0.00 0.00 0.00 0.00 0.00 0.00 0.00 0.00 0.00 0.00 0.00 0.00 0.00 0.01 0.02 0.03 0.02 0.00 0.00 0.00 0.00 0.00 0.00 0.01 0.04 0.08 0.10 0.07 0.00 0.00 0.00 0.00 0.00 0.00 0.00 0.00 0.00 0.00
0.00 0.00 0.00 0.00 0.00 0.00 0.00 0.00 0.00 0.00 0.00 0.00 0.00 0.00 0.00 0.00 0.00 0.00 0.00 0.00 0.00 0.00 0.00 0.00 0.00 0.02 0.03 0.01 0.00 0.00 0.00 0.00 0.00 0.00 0.00 0.02 0.07 0.09 0.12 0.03 0.00 0.00 0.00 0.00 0.00 0.00 0.01 0.01 0.01
0.00 0.00 0.00 0.00 0.00 0.00 0.00 0.00 0.00 0.00 0.00 0.00 0.00 0.00 0.00 0.00 0.00 0.00 0.00 0.00 0.00 0.00 0.00 0.00 0.00 0.01 0.01 0.02 0.01 0.00 0.00 0.00 0.00 0.00 0.00 0.00 0.01 0.01 0.05 0.03 0.01 0.01 0.01 0.00 0.01 0.02 0.02 0.02 0.01
0.00 0.00 0.00 0.00 0.00 0.00 0.00 0.00 0.00 0.00 0.00 0.00 0.00 0.00 0.00 0.00 0.00 0.00 0.00 0.00 0.00 0.00 0.00 0.00 0.00 0.00 0.00 0.00 0.01 0.01 0.01 0.00 0.00 0.00 0.00 0.00 0.00 0.00 0.01 0.01 0.00 0.00 0.00 0.00 0.01 0.02 0.01 0.01 0.01
0.00 0.00 0.00 0.00 0.00 0.00 0.00 0.00 0.00 0.00 0.00 0.00 0.00 0.00 0.00 0.00 0.00 0.00 0.00 0.00 0.00 0.00 0.00 0.00 0.00 0.00 0.00 0.00 0.00 0.01 0.01 0.01 0.00 0.00 0.00 0.00 0.00 0.00 0.00 0.00 0.00 0.00 0.01 0.00 0.00 0.00 0.01 0.01 0.00
0.00 0.00 0.00 0.00 0.00 0.00 0.00 0.00 0.00 0.00 0.00 0.00 0.00 0.00 0.00 0.00 0.00 0.00 0.00 0.00 0.00 0.00 0.00 0.00 0.00 0.00 0.00 0.00 0.00 0.00 0.00 0.00 0.00 0.00 0.00 0.00 0.00 0.00 0.00 0.00 0.00 0.00 0.00 0.00 0.00 0.00 0.00 0.00 0.00
0.00 0.00 0.00 0.00 0.00 0.00 0.00 0.00 0.00 0.00 0.00 0.00 0.00 0.00 0.00 0.00 0.00 0.00 0.00 0.00 0.00 0.00 0.00 0.00 0.00 0.00 0.00 0.00 0.00 0.00 0.00 0.00 0.00 0.00 0.00 0.00 0.00 0.00 0.00 0.00 0.00 0.00 0.00 0.00 0.00 0.00 0.00 0.00 0.00
0.00 0.00 0.00 0.00 0.00 0.00 0.00 0.00 0.00 0.00 0.00 0.00 0.00 0.00 0.00 0.00 0.00 0.00 0.00 0.00 0.00 0.00 0.00 0.00 0.00 0.00 0.00 0.00 0.00 0.00 0.00 0.00 0.00 0.00 0.00 0.00 0.00 0.00 0.00 0.00 0.00 0.00 0.00 0.00 0.00 0.00 0.00 0.00 0.00
0.00 0.00 0.00 0.00 0.00 0.00 0.00 0.00 0.00 0.00 0.00 0.00 0.00 0.00 0.00 0.00 0.00 0.00 0.00 0.00 0.00 0.00 0.00 0.00 0.00 0.00 0.00 0.00 0.00 0.00 0.00 0.00 0.00 0.00 0.00 0.00 0.00 0.00 0.00 0.00 0.00 0.00 0.00 0.00 0.00 0.00 0.00 0.00 0.00
0.00 0.00 0.00 0.00 0.00 0.00 0.00 0.00 0.00 0.00 0.00 0.00 0.00 0.00 0.00 0.00 0.00 0.00 0.00 0.00 0.00 0.00 0.00 0.00 0.00 0.00 0.00 0.00 0.00 0.00 0.00 0.00 0.00 0.00 0.00 0.00 0.00 0.00 0.00 0.00 0.00 0.00 0.00 0.00 0.00 0.00 0.00 0.00 0.00
0.00 0.01 0.00 0.00 0.00 0.00 0.00 0.00 0.00 0.00 0.00 0.00 0.00 0.00 0.00 0.00 0.00 0.00 0.00 0.00 0.00 0.00 0.00 0.00 0.00 0.00 0.00 0.00 0.00 0.00 0.00 0.00 0.00 0.00 0.00 0.00 0.00 0.00 0.00 0.00 0.00 0.00 0.00 0.00 0.00 0.00 0.00 0.00 0.00
0.03 0.04 0.01 0.00 0.00 0.00 0.01 0.00 0.00 0.00 0.00 0.00 0.00 0.00 0.00 0.00 0.00 0.00 0.00 0.00 0.00 0.00 0.00 0.00 0.00 0.00 0.00 0.00 0.00 0.00 0.00 0.00 0.00 0.00 0.00 0.00 0.00 0.00 0.00 0.00 0.00 0.00 0.00 0.00 0.00 0.00 0.00 0.00 0.00
0.08 0.03 0.01 0.00 0.00 0.00 0.00 0.00 0.00 0.00 0.00 0.00 0.00 0.00 0.00 0.00 0.00 0.00 0.00 0.00 0.00 0.00 0.00 0.00 0.00 0.00 0.00 0.00 0.00 0.00 0.00 0.00 0.00 0.00 0.00 0.00 0.00 0.00 0.00 0.00 0.00 0.00 0.00 0.00 0.00 0.00 0.00 0.00 0.00
0.02 0.01 0.00 0.00 0.00 0.00 0.00 0.00 0.00 0.00 0.00 0.00 0.00 0.00 0.00 0.00 0.00 0.00 0.00 0.00 0.00 0.00 0.00 0.00 0.00 0.00 0.00 0.00 0.00 0.00 0.02 0.02 0.01 0.00 0.00 0.00 0.00 0.00 0.00 0.00 0.00 0.00 0.00 0.00 0.00 0.00 0.00 0.00 0.00
0.01 0.02 0.01 0.00 0.00 0.00 0.00 0.00 0.00 0.00 0.00 0.00 0.00 0.00 0.00 0.00 0.00 0.00 0.00 0.00 0.00 0.00 0.00 0.00 0.00 0.00 0.00 0.00 0.00 0.01 0.06 0.04 0.01 0.00 0.00 0.00 0.00 0.00 0.00 0.00 0.00 0.00 0.00 0.00 0.00 0.00 0.00 0.00 0.00
0.04 0.04 0.04 0.01 0.00 0.01 0.00 0.00 0.00 0.00 0.00 0.00 0.00 0.00 0.00 0.00 0.00 0.00 0.00 0.00 0.00 0.00 0.00 0.00 0.00 0.00 0.00 0.00 0.00 0.02 0.07 0.04 0.01 0.00 0.00 0.00 0.00 0.00 0.00 0.00 0.00 0.00 0.00 0.00 0.00 0.00 0.00 0.00 0.00
0.13 0.04 0.03 0.03 0.01 0.01 0.01 0.00 0.00 0.00 0.00 0.00 0.00 0.00 0.00 0.00 0.00 0.00 0.00 0.00 0.00 0.00 0.00 0.00 0.00 0.00 0.00 0.00 0.00 0.01 0.03 0.02 0.01 0.00 0.00 0.00 0.00 0.00 0.00 0.00 0.00 0.00 0.00 0.00 0.00 0.00 0.00 0.01 0.01
0.16 0.07 0.01 0.05 0.10 0.08 0.04 0.02 0.00 0.00 0.00 0.00 0.00 0.00 0.00 0.00 0.00 0.00 0.00 0.00 0.00 0.00 0.00 0.00 0.00 0.00 0.00 0.00 0.00 0.00 0.03 0.03 0.01 0.00 0.00 0.00 0.00 0.00 0.00 0.00 0.00 0.00 0.00 0.00 0.00 0.00 0.01 0.02 0.02
0.16 0.10 0.03 0.09 0.16 0.17 0.11 0.07 0.01 0.00 0.00 0.00 0.00 0.00 0.00 0.00 0.00 0.00 0.00 0.00 0.00 0.00 0.00 0.00 0.00 0.00 0.00 0.00 0.00 0.00 0.02 0.02 0.00 0.00 0.00 0.00 0.00 0.00 0.00 0.00 0.00 0.00 0.00 0.00 0.00 0.01 0.01 0.02 0.03
0.18 0.21 0.21 0.15 0.39 0.40 0.11 0.14 0.07 0.00 0.00 0.00 0.00 0.00 0.00 0.00 0.00 0.00 0.00 0.00 0.00 0.00 0.00 0.00 0.00 0.00 0.00 0.00 0.00 0.00 0.01 0.00 0.00 0.00 0.00 0.00 0.00 0.00 0.00 0.00 0.00 0.00 0.00 0.00 0.00 0.00 0.00 0.01 0.04
0.57 0.72 0.90 0.62 0.56 0.41 0.07 0.06 0.07 0.00 0.00 0.00 0.00 0.00 0.00 0.00 0.00 0.00 0.00 0.00 0.00 0.00 0.00 0.00 0.00 0.00 0.00 0.00 0.00 0.00 0.00 0.00 0.00 0.00 0.00 0.00 0.00 0.00 0.00 0.00 0.00 0.00 0.00 0.00 0.00 0.00 0.00 0.00 0.00
0.58 0.79 0.83 0.36 0.15 0.12 0.05 0.11 0.02 0.00 0.00 0.00 0.00 0.00 0.00 0.00 0.00 0.00 0.00 0.00 0.00 0.00 0.00 0.00 0.00 0.00 0.00 0.00 0.00 0.00 0.00 0.00 0.00 0.00 0.00 0.00 0.00 0.00 0.00 0.00 0.00 0.00 0.00 0.00 0.00 0.00 0.00 0.00 0.00
0.62 0.84 0.48 0.45 0.23 0.24 0.10 0.01 0.00 0.00 0.00 0.00 0.00 0.00 0.00 0.00 0.00 0.00 0.00 0.00 0.00 0.00 0.00 0.00 0.00 0.00 0.00 0.00 0.00 0.00 0.00 0.00 0.00 0.00 0.00 0.00 0.00 0.00 0.00 0.00 0.00 0.00 0.00 0.00 0.00 0.00 0.00 0.00 0.00
0.59 0.36 0.50 0.95 0.53 0.21 0.09 0.03 0.00 0.00 0.00 0.00 0.00 0.00 0.00 0.00 0.00 0.00 0.00 0.00 0.00 0.00 0.00 0.00 0.00 0.00 0.00 0.00 0.00 0.00 0.00 0.00 0.00 0.00 0.00 0.00 0.00 0.00 0.00 0.00 0.00 0.00 0.00 0.00 0.00 0.00 0.00 0.00 0.00
0.72 0.86 0.48 0.38 0.23 0.26 0.06 0.02 0.00 0.00 0.00 0.00 0.00 0.00 0.00 0.00 0.00 0.00 0.00 0.00 0.00 0.00 0.00 0.00 0.00 0.00 0.00 0.00 0.00 0.00 0.00 0.00 0.00 0.00 0.00 0.00 0.00 0.00 0.00 0.00 0.00 0.00 0.00 0.00 0.00 0.00 0.00 0.00 0.00
0.34 0.36 0.29 0.46 0.21 0.23 0.18 0.03 0.00 0.00 0.00 0.00 0.01 0.02 0.01 0.00 0.00 0.00 0.00 0.00 0.00 0.00 0.00 0.00 0.00 0.00 0.00 0.00 0.00 0.00 0.00 0.00 0.00 0.00 0.00 0.00 0.00 0.00 0.00 0.00 0.00 0.00 0.00 0.00 0.00 0.00 0.00 0.00 0.00

GFSSGP_prec_precacc_036.txt.gz
Total_Precipitation_Accumulation
0.00 0.00 0.00 0.00 0.00 0.00 0.00 0.00 0.00 0.00 0.00 0.00 0.00 0.00 0.00 0.00 0.00 0.00 0.00 0.00 0.00 0.00 0.00 0.01 0.04 0.07 0.07 0.06 0.03 0.01 0.00 0.00 0.00 0.00 0.01 0.06 0.03 0.01 0.00 0.01 0.00 0.00 0.00 0.00 0.00 0.02 0.01 0.01 0.01
0.00 0.00 0.00 0.00 0.00 0.00 0.00 0.00 0.00 0.00 0.00 0.00 0.00 0.00 0.00 0.00 0.00 0.00 0.00 0.00 0.00 0.00 0.00 0.00 0.03 0.04 0.06 0.08 0.03 0.00 0.00 0.00 0.00 0.00 0.03 0.05 0.01 0.01 0.00 0.00 0.00 0.00 0.00 0.00 0.00 0.00 0.00 0.00 0.01
0.00 0.00 0.00 0.00 0.00 0.00 0.00 0.00 0.00 0.00 0.00 0.00 0.00 0.00 0.00 0.00 0.00 0.00 0.00 0.00 0.00 0.00 0.00 0.00 0.01 0.03 0.06 0.07 0.03 0.01 0.00 0.00 0.00 0.00 0.03 0.05 0.03 0.01 0.00 0.00 0.00 0.00 0.00 0.00 0.00 0.00 0.00 0.00 0.00
0.00 0.00 0.00 0.00 0.00 0.00 0.00 0.00 0.00 0.00 0.00 0.00 0.00 0.00 0.00 0.00 0.00 0.00 0.00 0.00 0.00 0.00 0.00 0.00 0.02 0.03 0.06 0.04 0.02 0.00 0.00 0.00 0.00 0.00 0.01 0.05 0.07 0.06 0.02 0.00 0.00 0.00 0.00 0.00 0.00 0.00 0.00 0.00 0.00
0.00 0.00 0.00 0.00 0.00 0.00 0.00 0.00 0.00 0.00 0.00 0.00 0.00 0.00 0.00 0.00 0.00 0.00 0.00 0.00 0.00 0.00 0.00 0.00 0.01 0.03 0.04 0.02 0.00 0.00 0.00 0.00 0.00 0.00 0.01 0.04 0.08 0.10 0.07 0.00 0.00 0.00 0.00 0.00 0.00 0.00 0.00 0.00 0.00
0.00 0.00 0.00 0.00 0.00 0.00 0.00 0.00 0.00 0.00 0.00 0.00 0.00 0.00 0.00 0.00 0.00 0.00 0.00 0.00 0.00 0.00 0.00 0.00 0.01 0.03 0.03 0.01 0.00 0.00 0.00 0.00 0.00 0.00 0.00 0.02 0.07 0.09 0.14 0.04 0.00 0.00 0.00 0.00 0.00 0.01 0.01 0.01 0.01
0.00 0.00 0.00 0.00 0.00 0.00 0.00 0.00 0.00 0.00 0.00 0.00 0.00 0.00 0.00 0.00 0.00 0.00 0.00 0.00 0.00 0.00 0.00 0.00 0.00 0.02 0.02 0.02 0.01 0.00 0.00 0.00 0.00 0.00 0.00 0.00 0.02 0.01 0.06 0.04 0.01 0.01 0.01 0.00 0.02 0.02 0.02 0.02 0.01
0.00 0.00 0.00 0.00 0.00 0.00 0.00 0.00 0.00 0.00 0.00 0.00 0.00 0.00 0.00 0.00 0.00 0.00 0.00 0.00 0.00 0.00 0.00 0.00 0.00 0.00 0.01 0.01 0.01 0.01 0.01 0.00 0.00 0.00 0.00 0.00 0.00 0.00 0.02 0.02 0.01 0.00 0.00 0.00 0.01 0.02 0.01 0.01 0.01
0.00 0.00 0.00 0.00 0.00 0.00 0.00 0.00 0.00 0.00 0.00 0.00 0.00 0.00 0.00 0.00 0.00 0.00 0.00 0.00 0.00 0.00 0.00 0.00 0.00 0.00 0.00 0.00 0.00 0.01 0.01 0.01 0.00 0.00 0.00 0.00 0.00 0.00 0.00 0.00 0.00 0.00 0.01 0.00 0.00 0.00 0.01 0.01 0.00
0.00 0.00 0.00 0.00 0.00 0.00 0.00 0.00 0.00 0.00 0.00 0.00 0.00 0.00 0.00 0.00 0.00 0.00 0.00 0.00 0.00 0.00 0.00 0.00 0.00 0.00 0.00 0.00 0.00 0.00 0.00 0.00 0.00 0.00 0.00 0.00 0.00 0.00 0.00 0.00 0.00 0.00 0.00 0.00 0.00 0.00 0.00 0.00 0.00
0.00 0.00 0.00 0.00 0.00 0.00 0.00 0.00 0.00 0.00 0.00 0.00 0.00 0.00 0.00 0.00 0.00 0.00 0.00 0.00 0.00 0.00 0.00 0.00 0.00 0.00 0.00 0.00 0.00 0.00 0.00 0.00 0.00 0.00 0.00 0.00 0.00 0.00 0.00 0.00 0.00 0.00 0.00 0.00 0.00 0.00 0.00 0.00 0.00
0.00 0.00 0.00 0.00 0.00 0.00 0.00 0.00 0.00 0.00 0.00 0.00 0.00 0.00 0.00 0.00 0.00 0.00 0.00 0.00 0.00 0.00 0.00 0.00 0.00 0.00 0.00 0.00 0.00 0.00 0.00 0.00 0.00 0.00 0.00 0.00 0.00 0.00 0.00 0.00 0.00 0.00 0.00 0.00 0.00 0.00 0.00 0.00 0.00
0.00 0.00 0.00 0.00 0.00 0.00 0.00 0.00 0.00 0.00 0.00 0.00 0.00 0.00 0.00 0.00 0.00 0.00 0.00 0.00 0.00 0.00 0.00 0.00 0.00 0.00 0.00 0.00 0.00 0.00 0.00 0.00 0.00 0.00 0.00 0.00 0.00 0.00 0.00 0.00 0.00 0.00 0.00 0.00 0.00 0.00 0.00 0.00 0.00
0.00 0.00 0.00 0.00 0.00 0.00 0.00 0.00 0.00 0.00 0.00 0.00 0.00 0.00 0.00 0.00 0.00 0.00 0.00 0.00 0.00 0.00 0.00 0.00 0.00 0.00 0.00 0.00 0.00 0.00 0.00 0.00 0.00 0.00 0.00 0.00 0.00 0.00 0.00 0.00 0.00 0.00 0.00 0.00 0.00 0.00 0.00 0.00 0.00
0.00 0.01 0.00 0.00 0.00 0.00 0.00 0.00 0.00 0.00 0.00 0.00 0.00 0.00 0.00 0.00 0.00 0.00 0.00 0.00 0.00 0.00 0.00 0.00 0.00 0.00 0.00 0.00 0.00 0.00 0.00 0.00 0.00 0.00 0.00 0.00 0.00 0.00 0.00 0.00 0.00 0.00 0.00 0.00 0.00 0.00 0.00 0.00 0.00
0.03 0.04 0.01 0.00 0.00 0.00 0.01 0.00 0.00 0.00 0.00 0.00 0.00 0.00 0.00 0.00 0.00 0.00 0.00 0.00 0.00 0.00 0.00 0.00 0.00 0.00 0.00 0.00 0.00 0.00 0.00 0.00 0.00 0.00 0.00 0.00 0.00 0.00 0.00 0.00 0.00 0.00 0.00 0.00 0.00 0.00 0.00 0.00 0.00
0.08 0.03 0.01 0.00 0.00 0.00 0.00 0.00 0.00 0.00 0.00 0.00 0.00 0.00 0.00 0.00 0.00 0.00 0.00 0.00 0.00 0.00 0.00 0.00 0.00 0.00 0.00 0.00 0.00 0.00 0.00 0.00 0.00 0.00 0.00 0.00 0.00 0.00 0.00 0.00 0.00 0.00 0.00 0.00 0.00 0.00 0.00 0.00 0.00
0.02 0.01 0.00 0.00 0.00 0.00 0.00 0.00 0.00 0.00 0.00 0.00 0.00 0.00 0.00 0.00 0.00 0.00 0.00 0.00 0.00 0.00 0.00 0.00 0.00 0.00 0.00 0.00 0.00 0.00 0.02 0.06 0.03 0.00 0.00 0.00 0.00 0.00 0.00 0.00 0.00 0.00 0.00 0.00 0.00 0.00 0.00 0.00 0.00
0.01 0.02 0.01 0.00 0.00 0.00 0.00 0.00 0.00 0.00 0.00 0.00 0.00 0.00 0.00 0.00 0.00 0.00 0.00 0.00 0.00 0.00 0.00 0.00 0.00 0.00 0.00 0.00 0.00 0.01 0.06 0.14 0.06 0.03 0.01 0.00 0.00 0.00 0.00 0.00 0.00 0.00 0.00 0.00 0.00 0.00 0.00 0.00 0.00
0.04 0.05 0.04 0.01 0.00 0.01 0.00 0.00 0.00 0.00 0.00 0.00 0.00 0.00 0.00 0.00 0.00 0.00 0.00 0.00 0.00 0.00 0.00 0.00 0.00 0.00 0.00 0.00 0.00 0.02 0.08 0.11 0.08 0.03 0.01 0.00 0.01 0.00 0.00 0.00 0.00 0.00 0.00 0.00 0.00 0.00 0.00 0.00 0.00
0.13 0.04 0.03 0.03 0.01 0.01 0.01 0.00 0.00 0.00 0.00 0.00 0.00 0.00 0.00 0.00 0.00 0.00 0.00 0.00 0.00 0.00 0.00 0.00 0.00 0.00 0.00 0.00 0.00 0.01 0.03 0.04 0.04 0.01 0.01 0.01 0.00 0.00 0.00 0.00 0.00 0.00 0.00 0.00 0.00 0.00 0.00 0.01 0.01
0.16 0.07 0.01 0.05 0.10 0.08 0.04 0.02 0.00 0.00 0.00 0.00 0.00 0.00 0.00 0.00 0.00 0.00 0.00 0.00 0.00 0.00 0.00 0.00 0.00 0.00 0.00 0.00 0.00 0.00 0.03 0.06 0.05 0.03 0.02 0.01 0.01 0.01 0.00 0.00 0.00 0.00 0.00 0.00 0.00 0.00 0.01 0.02 0.02
0.16 0.10 0.03 0.09 0.16 0.17 0.11 0.08 0.01 0.00 0.00 0.00 0.00 0.00 0.00 0.00 0.00 0.00 0.00 0.00 0.00 0.00 0.00 0.00 0.00 0.00 0.00 0.00 0.00 0.00 0.02 0.05 0.04 0.02 0.01 0.01 0.00 0.00 0.00 0.00 0.00 0.00 0.00 0.00 0.00 0.01 0.01 0.02 0.03
0.18 0.21 0.21 0.15 0.40 0.42 0.11 0.14 0.07 0.00 0.00 0.00 0.00 0.00 0.00 0.00 0.00 0.00 0.00 0.00 0.00 0.00 0.00 0.00 0.00 0.00 0.00 0.00 0.00 0.00 0.03 0.05 0.02 0.00 0.00 0.00 0.00 0.00 0.00 0.00 0.00 0.00 0.00 0.00 0.00 0.00 0.00 0.01 0.04
0.58 0.74 0.91 0.63 0.59 0.42 0.07 0.06 0.07 0.00 0.00 0.00 0.00 0.00 0.00 0.00 0.00 0.00 0.00 0.00 0.00 0.00 0.00 0.00 0.00 0.00 0.00 0.00 0.00 0.00 0.00 0.03 0.02 0.01 0.00 0.00 0.00 0.00 0.00 0.00 0.00 0.00 0.00 0.00 0.00 0.00 0.00 0.00 0.00
0.58 0.80 0.83 0.36 0.15 0.12 0.05 0.11 0.02 0.00 0.00 0.00 0.00 0.00 0.00 0.00 0.00 0.00 0.00 0.00 0.00 0.00 0.00 0.00 0.00 0.00 0.00 0.00 0.00 0.00 0.00 0.00 0.00 0.00 0.00 0.00 0.00 0.00 0.00 0.00 0.00 0.00 0.00 0.00 0.00 0.00 0.00 0.00 0.00
0.63 0.85 0.49 0.47 0.24 0.25 0.10 0.01 0.00 0.00 0.00 0.00 0.00 0.00 0.00 0.00 0.00 0.00 0.00 0.00 0.00 0.00 0.00 0.00 0.00 0.00 0.00 0.00 0.00 0.00 0.00 0.00 0.01 0.00 0.00 0.00 0.00 0.00 0.00 0.00 0.00 0.00 0.00 0.00 0.00 0.00 0.00 0.00 0.00
0.59 0.37 0.51 0.98 0.54 0.21 0.09 0.03 0.00 0.00 0.00 0.00 0.00 0.00 0.00 0.00 0.00 0.00 0.00 0.00 0.00 0.00 0.00 0.00 0.00 0.00 0.00 0.00 0.00 0.00 0.00 0.00 0.00 0.00 0.00 0.00 0.00 0.00 0.00 0.00 0.00 0.00 0.00 0.00 0.00 0.00 0.00 0.00 0.00
0.72 0.87 0.50 0.42 0.23 0.27 0.06 0.02 0.00 0.00 0.00 0.00 0.00 0.00 0.00 0.00 0.00 0.00 0.00 0.00 0.00 0.00 0.00 0.00 0.00 0.00 0.00 0.00 0.00 0.00 0.00 0.00 0.00 0.00 0.00 0.00 0.00 0.00 0.00 0.00 0.00 0.00 0.00 0.00 0.00 0.00 0.00 0.00 0.00
0.34 0.36 0.30 0.55 0.24 0.29 0.22 0.04 0.00 0.00 0.00 0.00 0.01 0.02 0.01 0.00 0.00 0.00 0.00 0.00 0.00 0.00 0.00 0.00 0.00 0.00 0.00 0.00 0.00 0.00 0.00 0.00 0.00 0.00 0.00 0.00 0.00 0.00 0.00 0.00 0.00 0.00 0.00 0.00 0.00 0.00 0.00 0.00 0.00

GFSSGP_prec_precacc_039.txt.gz
Total_Precipitation_Accumulation
0.00 0.00 0.00 0.00 0.00 0.00 0.00 0.00 0.00 0.00 0.00 0.00 0.00 0.00 0.00 0.00 0.00 0.00 0.00 0.00 0.00 0.00 0.00 0.01 0.05 0.07 0.07 0.06 0.03 0.01 0.00 0.00 0.00 0.00 0.02 0.08 0.04 0.01 0.00 0.01 0.00 0.00 0.00 0.00 0.00 0.03 0.02 0.01 0.01
0.00 0.00 0.00 0.00 0.00 0.00 0.00 0.00 0.00 0.00 0.00 0.00 0.00 0.00 0.00 0.00 0.00 0.00 0.00 0.00 0.00 0.00 0.00 0.00 0.03 0.04 0.06 0.08 0.03 0.00 0.00 0.00 0.00 0.00 0.04 0.06 0.01 0.01 0.00 0.00 0.00 0.00 0.00 0.00 0.00 0.00 0.00 0.00 0.01
0.00 0.00 0.00 0.00 0.00 0.00 0.00 0.00 0.00 0.00 0.00 0.00 0.00 0.00 0.00 0.00 0.00 0.00 0.00 0.00 0.00 0.00 0.00 0.00 0.02 0.03 0.06 0.07 0.03 0.01 0.00 0.00 0.00 0.00 0.04 0.06 0.03 0.01 0.00 0.00 0.00 0.00 0.00 0.00 0.00 0.00 0.00 0.00 0.00
0.00 0.00 0.00 0.00 0.00 0.00 0.00 0.00 0.00 0.00 0.00 0.00 0.00 0.00 0.00 0.00 0.00 0.00 0.00 0.00 0.00 0.00 0.00 0.00 0.02 0.03 0.06 0.04 0.02 0.00 0.00 0.00 0.00 0.00 0.01 0.05 0.07 0.06 0.02 0.00 0.00 0.00 0.00 0.00 0.00 0.00 0.00 0.00 0.00
0.00 0.00 0.00 0.00 0.00 0.00 0.00 0.00 0.00 0.00 0.00 0.00 0.00 0.00 0.00 0.00 0.00 0.00 0.00 0.00 0.00 0.00 0.00 0.00 0.01 0.03 0.04 0.02 0.00 0.00 0.00 0.00 0.00 0.00 0.01 0.04 0.08 0.10 0.07 0.00 0.00 0.00 0.00 0.00 0.00 0.00 0.00 0.00 0.00
0.00 0.00 0.00 0.00 0.00 0.00 0.00 0.00 0.00 0.00 0.00 0.00 0.00 0.00 0.00 0.00 0.00 0.00 0.00 0.00 0.00 0.00 0.00 0.00 0.01 0.04 0.04 0.01 0.00 0.00 0.00 0.00 0.00 0.00 0.00 0.02 0.07 0.09 0.14 0.04 0.00 0.00 0.00 0.00 0.00 0.01 0.01 0.01 0.01
0.00 0.00 0.00 0.00 0.00 0.00 0.00 0.00 0.00 0.00 0.00 0.00 0.00 0.00 0.00 0.00 0.00 0.00 0.00 0.00 0.00 0.00 0.00 0.00 0.01 0.03 0.03 0.02 0.02 0.00 0.00 0.00 0.00 0.00 0.00 0.00 0.02 0.01 0.07 0.05 0.02 0.01 0.01 0.00 0.02 0.02 0.02 0.02 0.01
0.00 0.00 0.00 0.00 0.00 0.00 0.00 0.00 0.00 0.00 0.00 0.00 0.00 0.00 0.00 0.00 0.00 0.00 0.00 0.00 0.00 0.00 0.00 0.00 0.00 0.01 0.01 0.02 0.01 0.01 0.01 0.00 0.00 0.00 0.00 0.00 0.00 0.00 0.03 0.03 0.01 0.00 0.00 0.00 0.01 0.02 0.01 0.01 0.01
0.00 0.00 0.00 0.00 0.00 0.00 0.00 0.00 0.00 0.00 0.00 0.00 0.00 0.00 0.00 0.00 0.00 0.00 0.00 0.00 0.00 0.00 0.00 0.00 0.00 0.00 0.00 0.01 0.01 0.01 0.01 0.01 0.00 0.00 0.00 0.00 0.00 0.00 0.00 0.01 0.00 0.00 0.01 0.00 0.00 0.00 0.01 0.01 0.00
0.00 0.00 0.00 0.00 0.00 0.00 0.00 0.00 0.00 0.00 0.00 0.00 0.00 0.00 0.00 0.00 0.00 0.00 0.00 0.00 0.00 0.00 0.00 0.00 0.00 0.00 0.00 0.00 0.01 0.00 0.00 0.00 0.00 0.00 0.00 0.00 0.00 0.00 0.00 0.00 0.00 0.00 0.00 0.00 0.00 0.00 0.00 0.00 0.00
0.00 0.00 0.00 0.00 0.00 0.00 0.00 0.00 0.00 0.00 0.00 0.00 0.00 0.00 0.00 0.00 0.00 0.00 0.00 0.00 0.00 0.00 0.00 0.00 0.00 0.00 0.00 0.00 0.00 0.00 0.00 0.00 0.00 0.00 0.00 0.00 0.00 0.00 0.00 0.00 0.00 0.00 0.00 0.00 0.00 0.00 0.00 0.00 0.00
0.00 0.00 0.00 0.00 0.00 0.00 0.00 0.00 0.00 0.00 0.00 0.00 0.00 0.00 0.00 0.00 0.00 0.00 0.00 0.00 0.00 0.00 0.00 0.00 0.00 0.00 0.00 0.00 0.00 0.00 0.00 0.00 0.00 0.00 0.00 0.00 0.00 0.00 0.00 0.00 0.00 0.00 0.00 0.00 0.00 0.00 0.00 0.00 0.00
0.00 0.00 0.00 0.00 0.00 0.00 0.00 0.00 0.00 0.00 0.00 0.00 0.00 0.00 0.00 0.00 0.00 0.00 0.00 0.00 0.00 0.00 0.00 0.00 0.00 0.00 0.00 0.00 0.00 0.00 0.00 0.00 0.00 0.00 0.00 0.00 0.00 0.00 0.00 0.00 0.00 0.00 0.00 0.00 0.00 0.00 0.00 0.00 0.00
0.00 0.00 0.00 0.00 0.00 0.00 0.00 0.00 0.00 0.00 0.00 0.00 0.00 0.00 0.00 0.00 0.00 0.00 0.00 0.00 0.00 0.00 0.00 0.00 0.00 0.00 0.00 0.00 0.00 0.00 0.00 0.00 0.00 0.00 0.00 0.00 0.00 0.00 0.00 0.00 0.00 0.00 0.00 0.00 0.00 0.00 0.00 0.00 0.00
0.00 0.01 0.00 0.00 0.00 0.00 0.00 0.00 0.00 0.00 0.00 0.00 0.00 0.00 0.00 0.00 0.00 0.00 0.00 0.00 0.00 0.00 0.00 0.00 0.00 0.00 0.00 0.00 0.00 0.00 0.00 0.00 0.00 0.00 0.00 0.00 0.00 0.00 0.00 0.00 0.00 0.00 0.00 0.00 0.00 0.00 0.00 0.00 0.00
0.03 0.04 0.01 0.00 0.00 0.00 0.01 0.00 0.00 0.00 0.00 0.00 0.00 0.00 0.00 0.00 0.00 0.00 0.00 0.00 0.00 0.00 0.00 0.00 0.00 0.00 0.00 0.00 0.00 0.00 0.00 0.00 0.01 0.00 0.00 0.00 0.00 0.00 0.00 0.00 0.00 0.00 0.00 0.00 0.00 0.00 0.00 0.00 0.00
0.08 0.03 0.01 0.00 0.00 0.00 0.00 0.00 0.00 0.00 0.00 0.00 0.00 0.00 0.00 0.00 0.00 0.00 0.00 0.00 0.00 0.00 0.00 0.00 0.00 0.00 0.00 0.00 0.00 0.00 0.00 0.00 0.00 0.00 0.00 0.00 0.00 0.00 0.00 0.00 0.00 0.00 0.00 0.00 0.00 0.00 0.00 0.00 0.00
0.02 0.01 0.00 0.00 0.00 0.00 0.00 0.00 0.00 0.00 0.00 0.00 0.00 0.00 0.00 0.00 0.00 0.00 0.00 0.00 0.00 0.00 0.00 0.00 0.00 0.00 0.00 0.00 0.00 0.00 0.02 0.06 0.04 0.01 0.00 0.00 0.00 0.00 0.00 0.00 0.00 0.00 0.00 0.00 0.00 0.00 0.00 0.00 0.00
0.01 0.02 0.01 0.00 0.00 0.00 0.00 0.00 0.00 0.00 0.00 0.00 0.00 0.00 0.00 0.00 0.00 0.00 0.00 0.00 0.00 0.00 0.00 0.00 0.00 0.00 0.00 0.00 0.00 0.01 0.06 0.16 0.10 0.07 0.03 0.00 0.00 0.00 0.00 0.00 0.00 0.00 0.00 0.00 0.00 0.00 0.00 0.00 0.00
0.04 0.05 0.04 0.01 0.00 0.01 0.00 0.00 0.00 0.00 0.00 0.00 0.00 0.00 0.00 0.00 0.00 0.00 0.00 0.00 0.00 0.00 0.00 0.00 0.00 0.00 0.00 0.00 0.00 0.02 0.08 0.13 0.13 0.10 0.07 0.07 0.04 0.00 0.00 0.00 0.00 0.00 0.00 0.00 0.00 0.00 0.00 0.00 0.00
0.13 0.04 0.03 0.03 0.01 0.01 0.01 0.00 0.00 0.00 0.00 0.00 0.00 0.00 0.00 0.00 0.00 0.00 0.00 0.00 0.00 0.00 0.00 0.00 0.00 0.00 0.00 0.00 0.00 0.01 0.03 0.04 0.05 0.03 0.04 0.07 0.05 0.02 0.00 0.00 0.00 0.00 0.00 0.00 0.00 0.00 0.00 0.01 0.01
0.16 0.07 0.01 0.05 0.10 0.08 0.04 0.02 0.00 0.00 0.00 0.00 0.00 0.00 0.00 0.00 0.00 0.00 0.00 0.00 0.00 0.00 0.00 0.00 0.00 0.00 0.00 0.00 0.00 0.00 0.03 0.06 0.07 0.08 0.08 0.08 0.05 0.03 0.00 0.00 0.00 0.00 0.00 0.00 0.00 0.00 0.01 0.02 0.02
0.16 0.10 0.03 0.09 0.16 0.17 0.11 0.09 0.01 0.00 0.00 0.00 0.00 0.00 0.00 0.00 0.00 0.00 0.00 0.00 0.00 0.00 0.00 0.00 0.00 0.00 0.00 0.00 0.00 0.00 0.02 0.05 0.05 0.04 0.04 0.03 0.03 0.01 0.01 0.00 0.00 0.00 0.00 0.00 0.00 0.01 0.01 0.02 0.03
0.18 0.21 0.21 0.15 0.40 0.43 0.11 0.14 0.07 0.00 0.00 0.00 0.00 0.00 0.00 0.00 0.00 0.00 0.00 0.00 0.00 0.00 0.00 0.00 0.00 0.00 0.00 0.00 0.00 0.00 0.03 0.06 0.03 0.02 0.02 0.03 0.02 0.01 0.00 0.00 0.00 0.00 0.00 0.00 0.00 0.00 0.00 0.01 0.04
0.58 0.74 0.91 0.63 0.60 0.43 0.07 0.06 0.07 0.00 0.00 0.00 0.00 0.00 0.00 0.00 0.00 0.00 0.00 0.00 0.00 0.00 0.00 0.00 0.00 0.00 0.00 0.00 0.00 0.00 0.00 0.03 0.05 0.04 0.03 0.02 0.01 0.01 0.00 0.00 0.00 0.00 0.00 0.00 0.00 0.00 0.00 0.00 0.00
0.59 0.80 0.83 0.36 0.15 0.12 0.05 0.11 0.02 0.00 0.00 0.00 0.00 0.00 0.00 0.00 0.00 0.00 0.00 0.00 0.00 0.00 0.00 0.00 0.00 0.00 0.00 0.00 0.00 0.00 0.00 0.00 0.02 0.01 0.01 0.00 0.00 0.00 0.00 0.00 0.00 0.00 0.00 0.00 0.00 0.00 0.00 0.00 0.00
0.63 0.86 0.49 0.48 0.25 0.25 0.10 0.01 0.00 0.00 0.00 0.00 0.00 0.00 0.00 0.00 0.00 0.00 0.00 0.00 0.00 0.00 0.00 0.00 0.00 0.00 0.00 0.00 0.00 0.00 0.00 0.01 0.02 0.01 0.00 0.00 0.00 0.00 0.00 0.00 0.00 0.00 0.00 0.00 0.00 0.00 0.00 0.00 0.00
0.59 0.37 0.52 1.00 0.54 0.21 0.09 0.03 0.00 0.00 0.00 0.00 0.00 0.00 0.00 0.00 0.00 0.00 0.00 0.00 0.00 0.00 0.00 0.00 0.00 0.00 0.00 0.00 0.00 0.00 0.00 0.00 0.01 0.01 0.00 0.01 0.00 0.00 0.00 0.00 0.00 0.00 0.00 0.00 0.00 0.00 0.00 0.00 0.00
0.72 0.88 0.50 0.42 0.24 0.27 0.06 0.02 0.00 0.00 0.00 0.00 0.00 0.00 0.00 0.00 0.00 0.00 0.00 0.00 0.00 0.00 0.00 0.00 0.00 0.00 0.00 0.00 0.00 0.00 0.00 0.00 0.00 0.01 0.01 0.01 0.00 0.00 0.00 0.00 0.00 0.00 0.00 0.00 0.00 0.00 0.00 0.00 0.00
0.34 0.36 0.31 0.56 0.24 0.32 0.26 0.06 0.00 0.00 0.00 0.00 0.01 0.02 0.01 0.00 0.00 0.00 0.00 0.00 0.00 0.00 0.00 0.00 0.00 0.00 0.00 0.00 0.00 0.00 0.00 0.00 0.00 0.00 0.00 0.00 0.00 0.00 0.00 0.00 0.00 0.00 0.00 0.00 0.00 0.00 0.00 0.00 0.00

GFSSGP_prec_precacc_042.txt.gz
Total_Precipitation_Accumulation
0.00 0.00 0.00 0.00 0.00 0.00 0.00 0.00 0.00 0.00 0.00 0.00 0.00 0.00 0.00 0.00 0.00 0.00 0.00 0.00 0.00 0.00 0.00 0.01 0.05 0.07 0.07 0.06 0.03 0.01 0.00 0.00 0.00 0.01 0.02 0.09 0.04 0.01 0.00 0.01 0.00 0.00 0.00 0.00 0.01 0.03 0.02 0.02 0.02
0.00 0.00 0.00 0.00 0.00 0.00 0.00 0.00 0.00 0.00 0.00 0.00 0.00 0.00 0.00 0.00 0.00 0.00 0.00 0.00 0.00 0.00 0.00 0.00 0.03 0.04 0.06 0.08 0.03 0.00 0.00 0.00 0.00 0.00 0.06 0.07 0.01 0.01 0.00 0.00 0.00 0.00 0.00 0.00 0.00 0.00 0.00 0.00 0.01
0.00 0.00 0.00 0.00 0.00 0.00 0.00 0.00 0.00 0.00 0.00 0.00 0.00 0.00 0.00 0.00 0.00 0.00 0.00 0.00 0.00 0.00 0.00 0.00 0.02 0.03 0.06 0.07 0.03 0.01 0.00 0.00 0.00 0.00 0.04 0.06 0.03 0.01 0.00 0.00 0.00 0.00 0.00 0.00 0.00 0.00 0.00 0.00 0.00
0.00 0.00 0.00 0.00 0.00 0.00 0.00 0.00 0.00 0.00 0.00 0.00 0.00 0.00 0.00 0.00 0.00 0.00 0.00 0.00 0.00 0.00 0.00 0.00 0.02 0.03 0.06 0.04 0.02 0.00 0.00 0.00 0.00 0.01 0.01 0.05 0.07 0.06 0.02 0.00 0.00 0.00 0.00 0.00 0.00 0.00 0.00 0.00 0.00
0.00 0.00 0.00 0.00 0.00 0.00 0.00 0.00 0.00 0.00 0.00 0.00 0.00 0.00 0.00 0.00 0.00 0.00 0.00 0.00 0.00 0.00 0.00 0.00 0.01 0.03 0.04 0.02 0.00 0.00 0.00 0.00 0.00 0.00 0.01 0.04 0.08 0.10 0.07 0.00 0.00 0.00 0.00 0.00 0.00 0.00 0.00 0.00 0.00
0.00 0.00 0.00 0.00 0.00 0.00 0.00 0.00 0.00 0.00 0.00 0.00 0.00 0.00 0.00 0.00 0.00 0.00 0.00 0.00 0.00 0.00 0.00 0.00 0.01 0.04 0.04 0.01 0.00 0.00 0.00 0.00 0.00 0.00 0.00 0.02 0.07 0.09 0.14 0.04 0.00 0.00 0.00 0.00 0.00 0.01 0.01 0.01 0.01
0.00 0.00 0.00 0.00 0.00 0.00 0.00 0.00 0.00 0.00 0.00 0.00 0.00 0.00 0.00 0.00 0.00 0.00 0.00 0.00 0.00 0.00 0.00 0.00 0.01 0.03 0.03 0.02 0.02 0.00 0.00 0.00 0.00 0.00 0.00 0.00 0.02 0.01 0.07 0.06 0.02 0.01 0.01 0.00 0.02 0.02 0.02 0.02 0.01
0.00 0.00 0.00 0.00 0.00 0.00 0.00 0.00 0.00 0.00 0.00 0.00 0.00 0.00 0.00 0.00 0.00 0.00 0.00 0.00 0.00 0.00 0.00 0.00 0.00 0.01 0.02 0.02 0.01 0.01 0.01 0.00 0.00 0.00 0.00 0.00 0.00 0.00 0.03 0.03 0.02 0.00 0.00 0.00 0.01 0.02 0.01 0.01 0.01
0.00 0.00 0.00 0.00 0.00 0.00 0.00 0.00 0.00 0.00 0.00 0.00 0.00 0.00 0.00 0.00 0.00 0.00 0.00 0.00 0.00 0.00 0.00 0.00 0.00 0.00 0.00 0.01 0.01 0.01 0.01 0.01 0.00 0.00 0.00 0.00 0.00 0.00 0.00 0.01 0.00 0.00 0.01 0.00 0.00 0.00 0.01 0.01 0.00
0.00 0.00 0.00 0.00 0.00 0.00 0.00 0.00 0.00 0.00 0.00 0.00 0.00 0.00 0.00 0.00 0.00 0.00 0.00 0.00 0.00 0.00 0.00 0.00 0.00 0.00 0.00 0.00 0.01 0.00 0.00 0.00 0.00 0.00 0.00 0.00 0.00 0.00 0.00 0.00 0.00 0.00 0.00 0.00 0.00 0.00 0.00 0.00 0.00
0.00 0.00 0.00 0.00 0.00 0.00 0.00 0.00 0.00 0.00 0.00 0.00 0.00 0.00 0.00 0.00 0.00 0.00 0.00 0.00 0.00 0.00 0.00 0.00 0.00 0.00 0.00 0.00 0.00 0.00 0.00 0.00 0.00 0.00 0.00 0.00 0.00 0.00 0.00 0.00 0.00 0.00 0.00 0.00 0.00 0.00 0.00 0.00 0.00
0.00 0.00 0.00 0.00 0.00 0.00 0.00 0.00 0.00 0.00 0.00 0.00 0.00 0.00 0.00 0.00 0.00 0.00 0.00 0.00 0.00 0.00 0.00 0.00 0.00 0.00 0.00 0.00 0.00 0.00 0.00 0.00 0.00 0.00 0.00 0.00 0.00 0.00 0.00 0.00 0.00 0.00 0.00 0.00 0.00 0.00 0.00 0.00 0.00
0.00 0.00 0.00 0.00 0.00 0.00 0.00 0.00 0.00 0.00 0.00 0.00 0.00 0.00 0.00 0.00 0.00 0.00 0.00 0.00 0.00 0.00 0.00 0.00 0.00 0.00 0.00 0.00 0.00 0.00 0.00 0.00 0.00 0.00 0.00 0.00 0.00 0.00 0.00 0.00 0.00 0.00 0.00 0.00 0.00 0.00 0.00 0.00 0.00
0.00 0.00 0.00 0.00 0.00 0.00 0.00 0.00 0.00 0.00 0.00 0.00 0.00 0.00 0.00 0.00 0.00 0.00 0.00 0.00 0.00 0.00 0.00 0.00 0.00 0.00 0.00 0.00 0.00 0.00 0.00 0.00 0.00 0.00 0.00 0.00 0.00 0.00 0.00 0.00 0.00 0.00 0.00 0.00 0.00 0.00 0.00 0.00 0.00
0.00 0.01 0.00 0.00 0.00 0.00 0.00 0.00 0.00 0.00 0.00 0.00 0.00 0.00 0.00 0.00 0.00 0.00 0.00 0.00 0.00 0.00 0.00 0.00 0.00 0.00 0.00 0.00 0.00 0.00 0.00 0.00 0.02 0.00 0.00 0.00 0.00 0.00 0.00 0.00 0.00 0.00 0.00 0.00 0.00 0.00 0.00 0.00 0.00
0.03 0.04 0.01 0.00 0.00 0.00 0.01 0.00 0.00 0.00 0.00 0.00 0.00 0.00 0.00 0.00 0.00 0.00 0.00 0.00 0.00 0.00 0.00 0.00 0.00 0.00 0.00 0.00 0.00 0.00 0.00 0.00 0.02 0.01 0.00 0.00 0.00 0.00 0.00 0.00 0.00 0.00 0.00 0.00 0.00 0.00 0.00 0.00 0.00
0.08 0.03 0.01 0.00 0.00 0.00 0.00 0.00 0.00 0.00 0.00 0.00 0.00 0.00 0.00 0.00 0.00 0.00 0.00 0.00 0.00 0.00 0.00 0.00 0.00 0.00 0.00 0.00 0.00 0.00 0.00 0.00 0.01 0.01 0.00 0.00 0.00 0.00 0.00 0.00 0.00 0.00 0.00 0.00 0.00 0.00 0.00 0.00 0.00
0.02 0.01 0.00 0.00 0.00 0.00 0.00 0.00 0.00 0.00 0.00 0.00 0.00 0.00 0.00 0.00 0.00 0.00 0.00 0.00 0.00 0.00 0.00 0.00 0.00 0.00 0.00 0.00 0.00 0.00 0.02 0.06 0.04 0.01 0.00 0.02 0.00 0.00 0.00 0.00 0.00 0.00 0.00 0.00 0.00 0.00 0.00 0.00 0.00
0.01 0.02 0.01 0.00 0.00 0.00 0.00 0.00 0.00 0.00 0.00 0.00 0.00 0.00 0.00 0.00 0.00 0.00 0.00 0.00 0.00 0.00 0.00 0.00 0.00 0.00 0.00 0.00 0.00 0.01 0.06 0.16 0.11 0.08 0.04 0.06 0.02 0.00 0.00 0.00 0.00 0.00 0.00 0.00 0.00 0.00 0.00 0.00 0.00
0.04 0.05 0.04 0.01 0.00 0.01 0.00 0.00 0.00 0.00 0.00 0.00 0.00 0.00 0.00 0.00 0.00 0.00 0.00 0.00 0.00 0.00 0.00 0.00 0.00 0.00 0.00 0.00 0.00 0.02 0.08 0.13 0.13 0.10 0.09 0.12 0.10 0.05 0.02 0.00 0.00 0.00 0.00 0.00 0.00 0.00 0.00 0.00 0.00
0.13 0.04 0.03 0.03 0.01 0.01 0.01 0.00 0.00 0.00 0.00 0.00 0.00 0.00 0.00 0.00 0.00 0.00 0.00 0.00 0.00 0.00 0.00 0.00 0.00 0.00 0.00 0.00 0.00 0.01 0.03 0.04 0.05 0.04 0.06 0.09 0.11 0.09 0.02 0.01 0.00 0.00 0.00 0.00 0.00 0.00 0.00 0.01 0.01
0.16 0.07 0.01 0.05 0.10 0.08 0.04 0.02 0.00 0.00 0.00 0.00 0.00 0.00 0.00 0.00 0.00 0.00 0.00 0.00 0.00 0.00 0.00 0.00 0.00 0.00 0.00 0.00 0.00 0.00 0.03 0.06 0.09 0.11 0.10 0.09 0.10 0.07 0.03 0.02 0.01 0.00 0.00 0.00 0.00 0.00 0.01 0.02 0.02
0.16 0.10 0.03 0.09 0.16 0.17 0.11 0.09 0.01 0.00 0.00 0.00 0.00 0.00 0.00 0.00 0.00 0.00 0.00 0.00 0.00 0.00 0.00 0.00 0.00 0.00 0.00 0.00 0.00 0.00 0.03 0.06 0.07 0.05 0.04 0.06 0.06 0.03 0.02 0.01 0.00 0.00 0.00 0.00 0.00 0.01 0.01 0.02 0.03
0.18 0.21 0.21 0.15 0.40 0.43 0.11 0.14 0.07 0.00 0.00 0.00 0.00 0.00 0.00 0.00 0.00 0.00 0.00 0.00 0.00 0.00 0.00 0.00 0.00 0.00 0.00 0.00 0.00 0.00 0.03 0.06 0.03 0.02 0.03 0.05 0.04 0.03 0.01 0.00 0.00 0.00 0.00 0.00 0.00 0.00 0.00 0.01 0.04
0.58 0.75 0.91 0.63 0.60 0.43 0.07 0.06 0.07 0.00 0.00 0.00 0.00 0.00 0.00 0.00 0.00 0.00 0.00 0.00 0.00 0.00 0.00 0.00 0.00 0.00 0.00 0.00 0.00 0.00 0.00 0.03 0.05 0.04 0.03 0.03 0.03 0.02 0.01 0.00 0.00 0.00 0.00 0.00 0.00 0.00 0.00 0.00 0.00
0.59 0.81 0.84 0.36 0.15 0.12 0.05 0.11 0.02 0.00 0.00 0.00 0.00 0.00 0.00 0.00 0.00 0.00 0.00 0.00 0.00 0.00 0.00 0.00 0.00 0.00 0.00 0.00 0.00 0.00 0.00 0.00 0.02 0.02 0.02 0.03 0.03 0.02 0.01 0.01 0.00 0.00 0.00 0.00 0.00 0.00 0.00 0.00 0.00
0.63 0.86 0.49 0.48 0.25 0.25 0.10 0.01 0.00 0.00 0.00 0.00 0.00 0.00 0.00 0.00 0.00 0.00 0.00 0.00 0.00 0.00 0.00 0.00 0.00 0.00 0.00 0.00 0.00 0.00 0.00 0.01 0.03 0.02 0.03 0.03 0.02 0.01 0.00 0.00 0.00 0.00 0.00 0.00 0.00 0.00 0.00 0.00 0.00
0.59 0.37 0.52 1.01 0.54 0.21 0.09 0.03 0.00 0.00 0.00 0.00 0.00 0.00 0.00 0.00 0.00 0.00 0.00 0.00 0.00 0.00 0.00 0.00 0.00 0.00 0.00 0.00 0.00 0.00 0.00 0.01 0.01 0.02 0.02 0.01 0.01 0.00 0.00 0.00 0.00 0.00 0.00 0.00 0.00 0.00 0.00 0.00 0.00
0.72 0.88 0.50 0.42 0.24 0.27 0.06 0.02 0.00 0.00 0.00 0.00 0.00 0.00 0.00 0.00 0.00 0.00 0.00 0.00 0.00 0.00 0.00 0.00 0.00 0.00 0.00 0.00 0.00 0.00 0.00 0.00 0.00 0.02 0.01 0.01 0.01 0.00 0.00 0.00 0.00 0.00 0.00 0.00 0.00 0.00 0.00 0.00 0.00
0.34 0.36 0.31 0.57 0.24 0.33 0.28 0.06 0.00 0.00 0.00 0.00 0.01 0.02 0.01 0.00 0.00 0.00 0.00 0.00 0.00 0.00 0.00 0.00 0.00 0.00 0.00 0.00 0.00 0.00 0.00 0.00 0.00 0.01 0.01 0.01 0.01 0.01 0.00 0.00 0.00 0.00 0.00 0.00 0.00 0.00 0.00 0.00 0.00

GFSSGP_prec_precacc_045.txt.gz
Total_Precipitation_Accumulation
0.00 0.00 0.00 0.00 0.00 0.00 0.00 0.00 0.00 0.00 0.00 0.00 0.00 0.00 0.00 0.00 0.00 0.00 0.00 0.00 0.00 0.00 0.00 0.01 0.05 0.07 0.07 0.06 0.03 0.01 0.00 0.00 0.00 0.01 0.03 0.09 0.04 0.01 0.00 0.01 0.00 0.00 0.00 0.00 0.01 0.04 0.02 0.02 0.02
0.00 0.00 0.00 0.00 0.00 0.00 0.00 0.00 0.00 0.00 0.00 0.00 0.00 0.00 0.00 0.00 0.00 0.00 0.00 0.00 0.00 0.00 0.00 0.00 0.03 0.04 0.06 0.08 0.03 0.00 0.00 0.00 0.00 0.00 0.07 0.08 0.01 0.01 0.00 0.00 0.00 0.00 0.00 0.00 0.00 0.00 0.00 0.00 0.01
0.00 0.00 0.00 0.00 0.00 0.00 0.00 0.00 0.00 0.00 0.00 0.00 0.00 0.00 0.00 0.00 0.00 0.00 0.00 0.00 0.00 0.00 0.00 0.00 0.02 0.03 0.06 0.07 0.03 0.01 0.00 0.00 0.00 0.01 0.05 0.06 0.03 0.01 0.00 0.00 0.00 0.00 0.00 0.00 0.00 0.00 0.00 0.00 0.00
0.00 0.00 0.00 0.00 0.00 0.00 0.00 0.00 0.00 0.00 0.00 0.00 0.00 0.00 0.00 0.00 0.00 0.00 0.00 0.00 0.00 0.00 0.00 0.00 0.02 0.03 0.06 0.04 0.02 0.00 0.00 0.00 0.00 0.01 0.01 0.05 0.07 0.06 0.02 0.00 0.00 0.00 0.00 0.00 0.00 0.00 0.00 0.00 0.00
0.00 0.00 0.00 0.00 0.00 0.00 0.00 0.00 0.00 0.00 0.00 0.00 0.00 0.00 0.00 0.00 0.00 0.00 0.00 0.00 0.00 0.00 0.00 0.00 0.01 0.03 0.04 0.02 0.00 0.00 0.00 0.00 0.00 0.00 0.01 0.04 0.08 0.10 0.07 0.00 0.00 0.00 0.00 0.00 0.00 0.00 0.00 0.00 0.00
0.00 0.00 0.00 0.00 0.00 0.00 0.00 0.00 0.00 0.00 0.00 0.00 0.00 0.00 0.00 0.00 0.00 0.00 0.00 0.00 0.00 0.00 0.00 0.00 0.01 0.04 0.04 0.01 0.00 0.00 0.00 0.00 0.00 0.00 0.00 0.02 0.07 0.09 0.14 0.04 0.00 0.00 0.00 0.00 0.00 0.01 0.01 0.01 0.01
0.00 0.00 0.00 0.00 0.00 0.00 0.00 0.00 0.00 0.00 0.00 0.00 0.00 0.00 0.00 0.00 0.00 0.00 0.00 0.00 0.00 0.00 0.00 0.00 0.01 0.03 0.03 0.02 0.02 0.00 0.00 0.00 0.00 0.00 0.00 0.00 0.02 0.01 0.07 0.06 0.02 0.01 0.01 0.00 0.02 0.02 0.02 0.02 0.01
0.00 0.00 0.00 0.00 0.00 0.00 0.00 0.00 0.00 0.00 0.00 0.00 0.00 0.00 0.00 0.00 0.00 0.00 0.00 0.00 0.00 0.00 0.00 0.00 0.00 0.01 0.02 0.02 0.01 0.01 0.01 0.00 0.00 0.00 0.00 0.00 0.00 0.00 0.03 0.04 0.02 0.00 0.00 0.00 0.01 0.02 0.01 0.01 0.01
0.00 0.00 0.00 0.00 0.00 0.00 0.00 0.00 0.00 0.00 0.00 0.00 0.00 0.00 0.00 0.00 0.00 0.00 0.00 0.00 0.00 0.00 0.00 0.00 0.00 0.00 0.00 0.01 0.01 0.01 0.01 0.01 0.00 0.00 0.00 0.00 0.00 0.00 0.00 0.01 0.00 0.00 0.01 0.00 0.00 0.00 0.01 0.01 0.00
0.00 0.00 0.00 0.00 0.00 0.00 0.00 0.00 0.00 0.00 0.00 0.00 0.00 0.00 0.00 0.00 0.00 0.00 0.00 0.00 0.00 0.00 0.00 0.00 0.00 0.00 0.00 0.00 0.01 0.00 0.00 0.00 0.00 0.00 0.00 0.00 0.00 0.00 0.00 0.00 0.00 0.00 0.00 0.00 0.00 0.00 0.00 0.00 0.00
0.00 0.00 0.00 0.00 0.00 0.00 0.00 0.00 0.00 0.00 0.00 0.00 0.00 0.00 0.00 0.00 0.00 0.00 0.00 0.00 0.00 0.00 0.00 0.00 0.00 0.00 0.00 0.00 0.00 0.00 0.00 0.00 0.00 0.00 0.00 0.00 0.00 0.00 0.00 0.00 0.00 0.00 0.00 0.00 0.00 0.00 0.00 0.00 0.00
0.00 0.00 0.00 0.00 0.00 0.00 0.00 0.00 0.00 0.00 0.00 0.00 0.00 0.00 0.00 0.00 0.00 0.00 0.00 0.00 0.00 0.00 0.00 0.00 0.00 0.00 0.00 0.00 0.00 0.00 0.00 0.00 0.00 0.00 0.00 0.00 0.00 0.00 0.00 0.00 0.00 0.00 0.00 0.00 0.00 0.00 0.00 0.00 0.00
0.00 0.00 0.00 0.00 0.00 0.00 0.00 0.00 0.00 0.00 0.00 0.00 0.00 0.00 0.00 0.00 0.00 0.00 0.00 0.00 0.00 0.00 0.00 0.00 0.00 0.00 0.00 0.00 0.00 0.00 0.00 0.00 0.00 0.00 0.00 0.00 0.00 0.00 0.00 0.00 0.00 0.00 0.00 0.00 0.00 0.00 0.00 0.00 0.00
0.00 0.00 0.00 0.00 0.00 0.00 0.00 0.00 0.00 0.00 0.00 0.00 0.00 0.00 0.00 0.00 0.00 0.00 0.00 0.00 0.00 0.00 0.00 0.00 0.00 0.00 0.00 0.00 0.01 0.00 0.00 0.00 0.00 0.00 0.00 0.00 0.00 0.00 0.00 0.00 0.00 0.00 0.00 0.00 0.00 0.00 0.00 0.00 0.00
0.00 0.01 0.00 0.00 0.00 0.00 0.00 0.00 0.00 0.00 0.00 0.00 0.00 0.00 0.00 0.00 0.00 0.00 0.00 0.00 0.00 0.00 0.00 0.00 0.00 0.00 0.00 0.00 0.00 0.00 0.00 0.00 0.02 0.00 0.00 0.00 0.00 0.00 0.00 0.00 0.00 0.00 0.00 0.00 0.00 0.00 0.00 0.00 0.00
0.03 0.04 0.01 0.00 0.00 0.00 0.01 0.00 0.00 0.00 0.00 0.00 0.00 0.00 0.00 0.00 0.00 0.00 0.00 0.00 0.00 0.00 0.00 0.00 0.00 0.00 0.00 0.00 0.00 0.01 0.00 0.00 0.05 0.01 0.00 0.00 0.00 0.00 0.00 0.00 0.00 0.00 0.00 0.00 0.00 0.00 0.00 0.00 0.00
0.08 0.03 0.01 0.00 0.00 0.00 0.00 0.00 0.00 0.00 0.00 0.00 0.00 0.00 0.00 0.00 0.00 0.00 0.00 0.00 0.00 0.00 0.00 0.00 0.00 0.00 0.00 0.00 0.00 0.00 0.02 0.00 0.01 0.02 0.00 0.00 0.00 0.00 0.00 0.00 0.00 0.00 0.00 0.00 0.00 0.00 0.00 0.00 0.00
0.02 0.01 0.00 0.00 0.00 0.00 0.00 0.00 0.00 0.00 0.00 0.00 0.00 0.00 0.00 0.00 0.00 0.00 0.00 0.00 0.00 0.00 0.00 0.00 0.00 0.00 0.00 0.00 0.00 0.01 0.04 0.06 0.04 0.01 0.00 0.02 0.00 0.00 0.00 0.00 0.00 0.00 0.00 0.00 0.00 0.00 0.00 0.00 0.00
0.01 0.02 0.01 0.00 0.00 0.00 0.00 0.00 0.00 0.00 0.00 0.00 0.00 0.00 0.00 0.00 0.00 0.00 0.00 0.00 0.00 0.00 0.00 0.00 0.00 0.00 0.00 0.00 0.00 0.01 0.08 0.16 0.11 0.08 0.05 0.06 0.03 0.01 0.00 0.00 0.00 0.00 0.00 0.00 0.00 0.00 0.00 0.00 0.00
0.04 0.05 0.04 0.01 0.00 0.01 0.00 0.00 0.00 0.00 0.00 0.00 0.00 0.00 0.00 0.00 0.00 0.00 0.00 0.00 0.00 0.00 0.00 0.00 0.00 0.00 0.00 0.00 0.00 0.03 0.13 0.19 0.16 0.11 0.10 0.12 0.12 0.09 0.03 0.00 0.00 0.00 0.00 0.00 0.00 0.00 0.00 0.00 0.00
0.13 0.04 0.03 0.03 0.01 0.01 0.01 0.00 0.00 0.00 0.00 0.00 0.00 0.00 0.00 0.00 0.00 0.00 0.00 0.00 0.00 0.00 0.00 0.00 0.00 0.00 0.00 0.00 0.00 0.01 0.06 0.12 0.11 0.05 0.06 0.10 0.15 0.16 0.09 0.02 0.00 0.00 0.00 0.00 0.00 0.00 0.00 0.01 0.01
0.16 0.07 0.01 0.05 0.10 0.08 0.04 0.02 0.00 0.00 0.00 0.00 0.00 0.00 0.00 0.00 0.00 0.00 0.00 0.00 0.00 0.00 0.00 0.00 0.00 0.00 0.00 0.00 0.00 0.00 0.03 0.09 0.14 0.16 0.13 0.14 0.16 0.16 0.10 0.05 0.04 0.02 0.00 0.00 0.00 0.00 0.01 0.02 0.02
0.16 0.10 0.03 0.09 0.16 0.17 0.11 0.09 0.01 0.00 0.00 0.00 0.00 0.00 0.00 0.00 0.00 0.00 0.00 0.00 0.00 0.00 0.00 0.00 0.00 0.00 0.00 0.00 0.00 0.00 0.03 0.08 0.12 0.11 0.09 0.11 0.12 0.09 0.06 0.04 0.03 0.01 0.01 0.00 0.01 0.01 0.01 0.02 0.03
0.18 0.21 0.21 0.15 0.40 0.43 0.11 0.14 0.07 0.00 0.00 0.00 0.00 0.00 0.00 0.00 0.00 0.00 0.00 0.00 0.00 0.00 0.00 0.00 0.00 0.00 0.00 0.00 0.00 0.00 0.03 0.07 0.06 0.05 0.06 0.10 0.09 0.06 0.04 0.02 0.03 0.03 0.02 0.01 0.00 0.00 0.00 0.01 0.04
0.58 0.75 0.91 0.63 0.61 0.43 0.07 0.06 0.07 0.00 0.00 0.00 0.00 0.00 0.00 0.00 0.00 0.00 0.00 0.00 0.00 0.00 0.00 0.00 0.00 0.00 0.00 0.00 0.00 0.00 0.00 0.04 0.07 0.06 0.06 0.05 0.04 0.04 0.03 0.02 0.02 0.02 0.01 0.00 0.00 0.00 0.00 0.00 0.00
0.59 0.81 0.84 0.36 0.15 0.12 0.05 0.11 0.02 0.00 0.00 0.00 0.00 0.00 0.00 0.00 0.00 0.00 0.00 0.00 0.00 0.00 0.00 0.00 0.00 0.00 0.00 0.00 0.00 0.00 0.00 0.02 0.04 0.04 0.05 0.06 0.04 0.03 0.02 0.01 0.02 0.01 0.01 0.01 0.00 0.00 0.00 0.00 0.00
0.63 0.86 0.49 0.48 0.25 0.25 0.10 0.01 0.00 0.00 0.00 0.00 0.00 0.00 0.00 0.00 0.00 0.00 0.00 0.00 0.00 0.00 0.00 0.00 0.00 0.00 0.00 0.00 0.01 0.00 0.01 0.03 0.05 0.04 0.04 0.04 0.02 0.01 0.01 0.01 0.01 0.01 0.00 0.00 0.00 0.00 0.00 0.00 0.00
0.59 0.37 0.52 1.01 0.54 0.21 0.09 0.03 0.00 0.00 0.00 0.00 0.00 0.00 0.00 0.00 0.00 0.00 0.00 0.00 0.00 0.00 0.00 0.00 0.00 0.00 0.01 0.03 0.01 0.00 0.01 0.02 0.02 0.03 0.02 0.01 0.01 0.00 0.01 0.01 0.01 0.01 0.00 0.00 0.00 0.00 0.00 0.00 0.00
0.72 0.88 0.50 0.42 0.24 0.27 0.06 0.02 0.00 0.00 0.00 0.00 0.00 0.00 0.00 0.00 0.00 0.00 0.00 0.00 0.00 0.00 0.00 0.00 0.00 0.00 0.01 0.01 0.00 0.01 0.01 0.01 0.01 0.02 0.01 0.01 0.01 0.01 0.01 0.01 0.00 0.00 0.00 0.00 0.00 0.00 0.00 0.00 0.00
0.34 0.36 0.31 0.57 0.24 0.33 0.28 0.07 0.00 0.00 0.00 0.00 0.01 0.02 0.01 0.00 0.00 0.00 0.00 0.00 0.00 0.00 0.00 0.00 0.00 0.00 0.01 0.00 0.00 0.00 0.00 0.00 0.00 0.01 0.01 0.01 0.01 0.02 0.01 0.00 0.00 0.00 0.00 0.00 0.00 0.00 0.00 0.00 0.00

GFSSGP_prec_precacc_048.txt.gz
Total_Precipitation_Accumulation
0.00 0.00 0.00 0.00 0.00 0.00 0.00 0.00 0.00 0.00 0.00 0.00 0.00 0.00 0.00 0.00 0.00 0.00 0.00 0.00 0.00 0.00 0.00 0.01 0.05 0.07 0.07 0.06 0.04 0.01 0.00 0.00 0.00 0.01 0.03 0.09 0.04 0.01 0.00 0.01 0.00 0.01 0.02 0.01 0.02 0.04 0.03 0.02 0.02
0.00 0.00 0.00 0.00 0.00 0.00 0.00 0.00 0.00 0.00 0.00 0.00 0.00 0.00 0.00 0.00 0.00 0.00 0.00 0.00 0.00 0.00 0.00 0.00 0.03 0.04 0.06 0.08 0.03 0.00 0.00 0.00 0.00 0.01 0.07 0.08 0.01 0.01 0.00 0.00 0.00 0.00 0.00 0.00 0.00 0.00 0.00 0.00 0.01
0.00 0.00 0.00 0.00 0.00 0.00 0.00 0.00 0.00 0.00 0.00 0.00 0.00 0.00 0.00 0.00 0.00 0.00 0.00 0.00 0.00 0.00 0.00 0.00 0.02 0.03 0.06 0.07 0.03 0.01 0.00 0.00 0.00 0.02 0.05 0.06 0.03 0.01 0.00 0.00 0.00 0.00 0.00 0.00 0.00 0.00 0.00 0.00 0.00
0.00 0.00 0.00 0.00 0.00 0.00 0.00 0.00 0.00 0.00 0.00 0.00 0.00 0.00 0.00 0.00 0.00 0.00 0.00 0.00 0.00 0.00 0.00 0.00 0.02 0.03 0.06 0.04 0.02 0.00 0.00 0.00 0.00 0.02 0.01 0.05 0.07 0.06 0.02 0.00 0.00 0.00 0.00 0.00 0.00 0.00 0.00 0.00 0.00
0.00 0.00 0.00 0.00 0.00 0.00 0.00 0.00 0.00 0.00 0.00 0.00 0.00 0.00 0.00 0.00 0.00 0.00 0.00 0.00 0.00 0.00 0.00 0.00 0.01 0.03 0.04 0.02 0.00 0.00 0.00 0.00 0.00 0.00 0.01 0.04 0.08 0.10 0.07 0.00 0.00 0.00 0.00 0.00 0.00 0.00 0.00 0.00 0.00
0.00 0.00 0.00 0.00 0.00 0.00 0.00 0.00 0.00 0.00 0.00 0.00 0.00 0.00 0.00 0.00 0.00 0.00 0.00 0.00 0.00 0.00 0.00 0.00 0.01 0.04 0.04 0.01 0.00 0.00 0.00 0.00 0.00 0.00 0.00 0.02 0.07 0.09 0.14 0.04 0.00 0.00 0.00 0.00 0.00 0.01 0.01 0.01 0.01
0.00 0.00 0.00 0.00 0.00 0.00 0.00 0.00 0.00 0.00 0.00 0.00 0.00 0.00 0.00 0.00 0.00 0.00 0.00 0.00 0.00 0.00 0.00 0.00 0.01 0.03 0.03 0.02 0.02 0.00 0.00 0.00 0.00 0.00 0.00 0.00 0.02 0.01 0.07 0.06 0.02 0.01 0.01 0.00 0.02 0.02 0.02 0.02 0.01
0.00 0.00 0.00 0.00 0.00 0.00 0.00 0.00 0.00 0.00 0.00 0.00 0.00 0.00 0.00 0.00 0.00 0.00 0.00 0.00 0.00 0.00 0.01 0.00 0.00 0.01 0.02 0.02 0.01 0.01 0.01 0.00 0.00 0.00 0.00 0.00 0.00 0.00 0.03 0.04 0.02 0.00 0.00 0.00 0.01 0.02 0.01 0.01 0.01
0.00 0.00 0.00 0.00 0.00 0.00 0.00 0.00 0.00 0.00 0.00 0.00 0.00 0.00 0.00 0.00 0.00 0.00 0.00 0.00 0.00 0.00 0.00 0.00 0.00 0.00 0.00 0.01 0.01 0.01 0.01 0.01 0.00 0.00 0.00 0.00 0.00 0.00 0.00 0.01 0.00 0.00 0.01 0.00 0.00 0.00 0.01 0.01 0.00
0.00 0.00 0.00 0.00 0.00 0.00 0.00 0.00 0.00 0.00 0.00 0.00 0.00 0.00 0.00 0.00 0.00 0.00 0.00 0.00 0.00 0.00 0.00 0.00 0.00 0.00 0.00 0.00 0.01 0.00 0.00 0.00 0.00 0.00 0.00 0.00 0.00 0.00 0.00 0.00 0.00 0.00 0.00 0.00 0.00 0.00 0.00 0.00 0.00
0.00 0.00 0.00 0.00 0.00 0.00 0.00 0.00 0.00 0.00 0.00 0.00 0.00 0.00 0.00 0.00 0.00 0.00 0.00 0.00 0.00 0.00 0.00 0.00 0.00 0.00 0.00 0.00 0.00 0.00 0.00 0.00 0.00 0.00 0.00 0.00 0.00 0.00 0.00 0.00 0.00 0.00 0.00 0.00 0.00 0.00 0.00 0.00 0.00
0.00 0.00 0.00 0.00 0.00 0.00 0.00 0.00 0.00 0.00 0.00 0.00 0.00 0.00 0.00 0.00 0.00 0.00 0.00 0.00 0.00 0.00 0.00 0.00 0.00 0.00 0.00 0.00 0.00 0.00 0.00 0.00 0.00 0.00 0.00 0.00 0.00 0.00 0.00 0.00 0.00 0.00 0.00 0.00 0.00 0.00 0.00 0.00 0.00
0.00 0.00 0.00 0.00 0.00 0.00 0.00 0.00 0.00 0.00 0.00 0.00 0.00 0.00 0.00 0.00 0.00 0.00 0.00 0.00 0.00 0.00 0.00 0.00 0.00 0.00 0.00 0.00 0.00 0.00 0.00 0.00 0.00 0.00 0.00 0.00 0.00 0.00 0.00 0.00 0.00 0.00 0.00 0.00 0.00 0.00 0.00 0.00 0.00
0.00 0.00 0.00 0.00 0.00 0.00 0.00 0.00 0.00 0.00 0.00 0.00 0.00 0.00 0.00 0.00 0.00 0.00 0.00 0.00 0.00 0.00 0.00 0.00 0.00 0.00 0.00 0.00 0.01 0.00 0.00 0.00 0.00 0.00 0.00 0.00 0.00 0.00 0.00 0.00 0.00 0.00 0.00 0.00 0.00 0.00 0.00 0.00 0.00
0.00 0.01 0.00 0.00 0.00 0.00 0.00 0.00 0.00 0.00 0.00 0.00 0.00 0.00 0.00 0.00 0.00 0.00 0.00 0.00 0.00 0.00 0.00 0.00 0.00 0.00 0.00 0.00 0.00 0.00 0.00 0.00 0.02 0.00 0.00 0.00 0.00 0.00 0.00 0.00 0.00 0.00 0.00 0.00 0.00 0.00 0.00 0.00 0.00
0.03 0.04 0.01 0.00 0.00 0.00 0.01 0.00 0.00 0.00 0.00 0.00 0.00 0.00 0.00 0.00 0.00 0.00 0.00 0.00 0.00 0.00 0.00 0.00 0.00 0.00 0.00 0.00 0.00 0.02 0.01 0.00 0.05 0.02 0.00 0.00 0.00 0.00 0.00 0.00 0.00 0.00 0.00 0.00 0.00 0.00 0.00 0.00 0.00
0.08 0.03 0.01 0.00 0.00 0.00 0.00 0.00 0.00 0.00 0.00 0.00 0.00 0.00 0.00 0.00 0.00 0.00 0.00 0.00 0.00 0.00 0.00 0.00 0.00 0.00 0.01 0.02 0.01 0.03 0.05 0.00 0.02 0.03 0.00 0.00 0.00 0.00 0.00 0.00 0.00 0.00 0.00 0.00 0.00 0.00 0.00 0.00 0.00
0.02 0.01 0.00 0.00 0.00 0.00 0.00 0.00 0.00 0.00 0.00 0.00 0.00 0.00 0.00 0.00 0.00 0.00 0.00 0.00 0.00 0.00 0.00 0.00 0.00 0.00 0.02 0.04 0.05 0.04 0.09 0.07 0.04 0.01 0.01 0.02 0.01 0.00 0.00 0.00 0.00 0.00 0.00 0.00 0.00 0.00 0.00 0.00 0.00
0.01 0.02 0.01 0.00 0.00 0.00 0.00 0.00 0.00 0.00 0.00 0.00 0.00 0.00 0.00 0.00 0.00 0.00 0.00 0.00 0.00 0.00 0.00 0.00 0.00 0.00 0.02 0.03 0.03 0.03 0.12 0.21 0.14 0.09 0.05 0.06 0.04 0.02 0.00 0.00 0.00 0.00 0.00 0.00 0.00 0.00 0.00 0.00 0.00
0.04 0.05 0.04 0.01 0.00 0.01 0.00 0.00 0.00 0.00 0.00 0.00 0.00 0.00 0.00 0.00 0.00 0.00 0.00 0.00 0.00 0.00 0.00 0.00 0.00 0.00 0.00 0.01 0.01 0.06 0.18 0.26 0.24 0.17 0.12 0.12 0.13 0.15 0.06 0.00 0.00 0.00 0.00 0.00 0.00 0.00 0.00 0.00 0.00
0.13 0.04 0.03 0.03 0.01 0.01 0.01 0.00 0.00 0.00 0.00 0.00 0.00 0.00 0.00 0.00 0.00 0.00 0.00 0.00 0.00 0.00 0.00 0.00 0.00 0.00 0.00 0.00 0.03 0.07 0.13 0.17 0.19 0.12 0.08 0.11 0.18 0.29 0.16 0.04 0.01 0.00 0.00 0.00 0.00 0.00 0.00 0.01 0.01
0.16 0.07 0.01 0.05 0.10 0.08 0.04 0.02 0.00 0.00 0.00 0.00 0.00 0.00 0.00 0.00 0.00 0.00 0.00 0.00 0.00 0.00 0.00 0.00 0.00 0.00 0.00 0.00 0.00 0.01 0.04 0.09 0.14 0.18 0.18 0.23 0.24 0.28 0.18 0.10 0.09 0.05 0.02 0.00 0.00 0.00 0.01 0.02 0.02
0.16 0.10 0.03 0.09 0.16 0.17 0.11 0.09 0.01 0.00 0.00 0.00 0.00 0.00 0.00 0.00 0.00 0.00 0.00 0.00 0.00 0.00 0.00 0.00 0.00 0.00 0.00 0.00 0.00 0.00 0.04 0.10 0.13 0.16 0.16 0.20 0.26 0.22 0.16 0.10 0.08 0.05 0.03 0.02 0.03 0.02 0.01 0.02 0.03
0.18 0.21 0.21 0.15 0.40 0.43 0.11 0.14 0.07 0.00 0.00 0.00 0.00 0.00 0.00 0.00 0.00 0.00 0.00 0.00 0.00 0.00 0.00 0.00 0.00 0.00 0.00 0.00 0.00 0.00 0.03 0.07 0.07 0.07 0.09 0.14 0.16 0.15 0.12 0.08 0.05 0.06 0.05 0.05 0.03 0.01 0.01 0.01 0.04
0.58 0.75 0.91 0.63 0.61 0.43 0.07 0.06 0.07 0.00 0.00 0.00 0.00 0.00 0.00 0.00 0.00 0.00 0.00 0.00 0.00 0.00 0.00 0.00 0.00 0.00 0.00 0.00 0.00 0.00 0.00 0.04 0.07 0.07 0.07 0.07 0.08 0.08 0.09 0.07 0.05 0.05 0.03 0.02 0.01 0.00 0.00 0.00 0.00
0.59 0.81 0.84 0.36 0.15 0.12 0.05 0.11 0.02 0.00 0.00 0.00 0.00 0.00 0.00 0.00 0.00 0.00 0.00 0.00 0.00 0.00 0.00 0.00 0.00 0.00 0.00 0.00 0.00 0.00 0.00 0.02 0.05 0.05 0.06 0.07 0.08 0.08 0.05 0.03 0.03 0.02 0.01 0.02 0.01 0.01 0.00 0.00 0.00
0.63 0.86 0.49 0.48 0.25 0.25 0.10 0.01 0.00 0.00 0.00 0.00 0.00 0.00 0.00 0.00 0.00 0.00 0.00 0.00 0.00 0.00 0.00 0.00 0.00 0.00 0.00 0.00 0.01 0.00 0.01 0.04 0.06 0.06 0.07 0.08 0.07 0.05 0.03 0.03 0.03 0.02 0.01 0.01 0.01 0.00 0.00 0.00 0.00
0.59 0.37 0.52 1.01 0.54 0.21 0.09 0.03 0.00 0.00 0.00 0.00 0.00 0.00 0.00 0.00 0.00 0.00 0.00 0.00 0.00 0.00 0.00 0.00 0.00 0.00 0.01 0.03 0.01 0.01 0.01 0.04 0.05 0.06 0.06 0.05 0.03 0.02 0.02 0.01 0.01 0.01 0.01 0.00 0.01 0.00 0.00 0.00 0.00
0.72 0.88 0.50 0.42 0.24 0.27 0.06 0.02 0.00 0.00 0.00 0.00 0.00 0.00 0.00 0.00 0.00 0.00 0.00 0.00 0.00 0.00 0.00 0.00 0.00 0.00 0.01 0.01 0.01 0.02 0.03 0.05 0.04 0.05 0.04 0.03 0.02 0.01 0.01 0.01 0.01 0.00 0.00 0.01 0.01 0.00 0.00 0.00 0.00
0.34 0.36 0.31 0.57 0.24 0.33 0.28 0.07 0.00 0.00 0.00 0.00 0.01 0.02 0.01 0.00 0.00 0.00 0.00 0.00 0.00 0.00 0.00 0.00 0.00 0.00 0.01 0.00 0.00 0.00 0.02 0.04 0.05 0.04 0.03 0.01 0.02 0.02 0.01 0.00 0.00 0.00 0.01 0.00 0.00 0.00 0.00 0.00 0.00

GFSSGP_prec_precacc_051.txt.gz
Total_Precipitation_Accumulation
0.00 0.00 0.00 0.00 0.00 0.00 0.00 0.00 0.00 0.00 0.00 0.00 0.00 0.00 0.00 0.00 0.00 0.00 0.00 0.00 0.00 0.00 0.00 0.02 0.06 0.09 0.08 0.07 0.04 0.01 0.00 0.00 0.00 0.02 0.03 0.09 0.04 0.01 0.00 0.01 0.01 0.03 0.02 0.02 0.03 0.08 0.05 0.02 0.02
0.00 0.00 0.00 0.00 0.00 0.00 0.00 0.00 0.00 0.00 0.00 0.00 0.00 0.00 0.00 0.00 0.00 0.00 0.00 0.00 0.00 0.00 0.00 0.00 0.04 0.06 0.07 0.08 0.04 0.01 0.00 0.00 0.00 0.01 0.08 0.08 0.01 0.01 0.00 0.00 0.00 0.01 0.02 0.01 0.01 0.00 0.00 0.00 0.01
0.00 0.00 0.00 0.00 0.00 0.00 0.00 0.00 0.00 0.00 0.00 0.00 0.00 0.00 0.00 0.00 0.00 0.00 0.00 0.00 0.00 0.00 0.00 0.00 0.02 0.04 0.07 0.07 0.03 0.01 0.00 0.00 0.00 0.02 0.05 0.06 0.03 0.01 0.00 0.00 0.00 0.00 0.00 0.00 0.00 0.00 0.00 0.00 0.00
0.00 0.00 0.00 0.00 0.00 0.00 0.00 0.00 0.00 0.00 0.00 0.00 0.00 0.00 0.00 0.00 0.00 0.00 0.00 0.00 0.00 0.00 0.00 0.00 0.02 0.03 0.06 0.04 0.02 0.00 0.00 0.00 0.00 0.02 0.02 0.05 0.07 0.06 0.02 0.00 0.00 0.00 0.00 0.00 0.00 0.00 0.00 0.00 0.00
0.00 0.00 0.00 0.00 0.00 0.00 0.00 0.00 0.00 0.00 0.00 0.00 0.00 0.00 0.00 0.00 0.00 0.00 0.00 0.00 0.00 0.00 0.00 0.00 0.01 0.03 0.04 0.02 0.00 0.00 0.00 0.00 0.01 0.01 0.01 0.04 0.08 0.10 0.07 0.00 0.00 0.00 0.00 0.00 0.00 0.00 0.00 0.00 0.00
0.00 0.00 0.00 0.00 0.00 0.00 0.00 0.00 0.00 0.00 0.00 0.00 0.00 0.00 0.00 0.00 0.00 0.00 0.00 0.00 0.00 0.00 0.00 0.00 0.01 0.04 0.04 0.01 0.00 0.00 0.00 0.00 0.01 0.00 0.00 0.02 0.07 0.09 0.14 0.04 0.00 0.00 0.00 0.00 0.00 0.01 0.01 0.01 0.01
0.00 0.00 0.00 0.00 0.00 0.00 0.00 0.00 0.00 0.00 0.00 0.00 0.00 0.00 0.00 0.00 0.00 0.00 0.00 0.00 0.00 0.00 0.00 0.00 0.01 0.03 0.03 0.02 0.02 0.00 0.00 0.00 0.00 0.00 0.00 0.00 0.02 0.01 0.07 0.06 0.02 0.01 0.01 0.00 0.02 0.02 0.02 0.02 0.01
0.00 0.00 0.00 0.00 0.00 0.00 0.00 0.00 0.00 0.00 0.00 0.00 0.00 0.00 0.00 0.00 0.00 0.00 0.00 0.00 0.00 0.00 0.01 0.00 0.00 0.01 0.02 0.02 0.01 0.01 0.01 0.00 0.00 0.00 0.00 0.00 0.00 0.00 0.03 0.04 0.02 0.00 0.00 0.00 0.01 0.02 0.01 0.01 0.01
0.00 0.00 0.00 0.00 0.00 0.00 0.00 0.00 0.00 0.00 0.00 0.00 0.00 0.00 0.00 0.00 0.00 0.00 0.00 0.00 0.00 0.02 0.04 0.01 0.01 0.00 0.00 0.01 0.01 0.01 0.01 0.01 0.00 0.00 0.00 0.00 0.00 0.00 0.00 0.01 0.00 0.00 0.01 0.00 0.00 0.00 0.01 0.01 0.00
0.00 0.00 0.00 0.00 0.00 0.00 0.00 0.00 0.00 0.00 0.00 0.00 0.00 0.00 0.00 0.00 0.00 0.00 0.00 0.00 0.00 0.01 0.04 0.02 0.00 0.00 0.00 0.00 0.01 0.00 0.00 0.00 0.00 0.00 0.00 0.00 0.00 0.00 0.00 0.00 0.00 0.00 0.00 0.00 0.00 0.00 0.00 0.00 0.00
0.00 0.00 0.00 0.00 0.00 0.00 0.00 0.00 0.00 0.00 0.00 0.00 0.00 0.00 0.00 0.00 0.00 0.00 0.00 0.00 0.00 0.00 0.01 0.00 0.00 0.00 0.00 0.00 0.00 0.00 0.00 0.00 0.00 0.00 0.00 0.00 0.00 0.00 0.00 0.00 0.00 0.00 0.00 0.00 0.00 0.00 0.00 0.00 0.00
0.00 0.00 0.00 0.00 0.00 0.00 0.00 0.00 0.00 0.00 0.00 0.00 0.00 0.00 0.00 0.00 0.00 0.00 0.00 0.00 0.00 0.00 0.00 0.00 0.00 0.00 0.00 0.00 0.00 0.00 0.00 0.00 0.00 0.00 0.00 0.00 0.00 0.00 0.00 0.00 0.00 0.00 0.00 0.00 0.00 0.00 0.00 0.00 0.00
0.00 0.00 0.00 0.00 0.00 0.00 0.00 0.00 0.00 0.00 0.00 0.00 0.00 0.00 0.00 0.00 0.00 0.00 0.00 0.00 0.00 0.00 0.00 0.00 0.00 0.00 0.00 0.00 0.00 0.00 0.00 0.00 0.00 0.00 0.00 0.00 0.00 0.00 0.00 0.00 0.00 0.00 0.00 0.00 0.00 0.00 0.00 0.00 0.00
0.00 0.00 0.00 0.00 0.00 0.00 0.00 0.00 0.00 0.00 0.00 0.00 0.00 0.00 0.00 0.00 0.00 0.00 0.00 0.00 0.00 0.00 0.00 0.00 0.00 0.00 0.00 0.00 0.01 0.00 0.00 0.00 0.00 0.00 0.00 0.00 0.00 0.00 0.00 0.00 0.00 0.00 0.00 0.00 0.00 0.00 0.00 0.00 0.00
0.00 0.01 0.00 0.00 0.00 0.00 0.00 0.00 0.00 0.00 0.00 0.00 0.00 0.00 0.00 0.00 0.00 0.00 0.00 0.00 0.00 0.00 0.00 0.00 0.00 0.00 0.00 0.00 0.00 0.02 0.02 0.00 0.02 0.00 0.00 0.00 0.00 0.00 0.00 0.00 0.00 0.00 0.00 0.00 0.00 0.00 0.00 0.00 0.00
0.03 0.04 0.01 0.00 0.00 0.00 0.01 0.00 0.00 0.00 0.00 0.00 0.00 0.00 0.00 0.00 0.00 0.00 0.00 0.00 0.00 0.00 0.00 0.00 0.00 0.03 0.01 0.00 0.01 0.05 0.04 0.01 0.06 0.02 0.00 0.00 0.00 0.00 0.00 0.00 0.00 0.00 0.00 0.00 0.00 0.00 0.00 0.00 0.00
0.08 0.03 0.01 0.00 0.00 0.00 0.00 0.00 0.00 0.00 0.00 0.00 0.00 0.00 0.00 0.00 0.00 0.00 0.00 0.00 0.00 0.00 0.00 0.00 0.00 0.01 0.04 0.07 0.05 0.07 0.10 0.02 0.03 0.04 0.00 0.00 0.00 0.00 0.00 0.00 0.00 0.00 0.00 0.00 0.00 0.00 0.00 0.00 0.00
0.02 0.01 0.00 0.00 0.00 0.00 0.00 0.00 0.00 0.00 0.00 0.00 0.00 0.00 0.00 0.00 0.00 0.00 0.00 0.00 0.00 0.00 0.00 0.00 0.00 0.00 0.03 0.08 0.12 0.11 0.16 0.10 0.04 0.02 0.01 0.02 0.01 0.00 0.00 0.00 0.00 0.00 0.00 0.00 0.00 0.00 0.00 0.00 0.00
0.01 0.02 0.01 0.00 0.00 0.00 0.00 0.00 0.00 0.00 0.00 0.00 0.00 0.00 0.00 0.00 0.00 0.00 0.00 0.00 0.00 0.00 0.00 0.00 0.00 0.00 0.02 0.04 0.05 0.05 0.14 0.24 0.15 0.12 0.10 0.09 0.07 0.05 0.02 0.00 0.00 0.00 0.00 0.00 0.00 0.00 0.00 0.00 0.00
0.04 0.05 0.04 0.01 0.00 0.01 0.00 0.00 0.00 0.00 0.00 0.00 0.00 0.00 0.00 0.00 0.00 0.00 0.00 0.00 0.00 0.00 0.00 0.00 0.00 0.00 0.00 0.01 0.01 0.07 0.19 0.27 0.27 0.22 0.16 0.16 0.16 0.23 0.11 0.01 0.00 0.00 0.00 0.00 0.00 0.00 0.00 0.00 0.00
0.13 0.04 0.03 0.03 0.01 0.01 0.01 0.00 0.00 0.00 0.00 0.00 0.00 0.00 0.00 0.00 0.00 0.00 0.00 0.00 0.00 0.00 0.00 0.00 0.00 0.00 0.00 0.00 0.03 0.09 0.17 0.23 0.23 0.16 0.10 0.12 0.21 0.42 0.25 0.06 0.02 0.00 0.01 0.03 0.01 0.00 0.00 0.01 0.01
0.16 0.07 0.01 0.05 0.10 0.08 0.04 0.02 0.00 0.00 0.00 0.00 0.00 0.00 0.00 0.00 0.00 0.00 0.00 0.00 0.00 0.00 0.00 0.00 0.00 0.00 0.00 0.00 0.00 0.01 0.04 0.10 0.15 0.18 0.19 0.25 0.26 0.40 0.30 0.17 0.13 0.12 0.11 0.10 0.07 0.04 0.03 0.02 0.02
0.16 0.10 0.03 0.09 0.16 0.17 0.11 0.09 0.01 0.00 0.00 0.00 0.00 0.00 0.00 0.00 0.00 0.00 0.00 0.00 0.00 0.00 0.00 0.00 0.00 0.00 0.00 0.00 0.00 0.00 0.04 0.11 0.15 0.17 0.19 0.23 0.29 0.29 0.26 0.21 0.17 0.13 0.10 0.08 0.07 0.07 0.03 0.02 0.03
0.18 0.21 0.21 0.15 0.40 0.43 0.11 0.14 0.07 0.00 0.00 0.00 0.00 0.00 0.00 0.00 0.00 0.00 0.00 0.00 0.00 0.00 0.00 0.00 0.00 0.00 0.00 0.00 0.00 0.00 0.03 0.07 0.07 0.11 0.16 0.18 0.19 0.18 0.16 0.16 0.14 0.14 0.11 0.09 0.06 0.04 0.02 0.02 0.04
0.58 0.75 0.91 0.63 0.61 0.43 0.07 0.06 0.07 0.00 0.00 0.00 0.00 0.00 0.00 0.00 0.00 0.00 0.00 0.00 0.00 0.00 0.00 0.00 0.00 0.00 0.00 0.00 0.00 0.00 0.00 0.04 0.07 0.10 0.12 0.09 0.09 0.09 0.11 0.12 0.10 0.12 0.09 0.06 0.03 0.01 0.01 0.01 0.00
0.59 0.81 0.84 0.36 0.15 0.12 0.05 0.11 0.02 0.00 0.00 0.00 0.00 0.00 0.00 0.00 0.00 0.00 0.00 0.00 0.00 0.00 0.00 0.00 0.00 0.00 0.00 0.00 0.00 0.00 0.00 0.02 0.05 0.05 0.06 0.08 0.09 0.10 0.09 0.09 0.09 0.07 0.05 0.04 0.02 0.01 0.00 0.00 0.00
0.63 0.86 0.49 0.48 0.25 0.25 0.10 0.01 0.00 0.00 0.00 0.00 0.00 0.00 0.00 0.00 0.00 0.00 0.00 0.00 0.00 0.00 0.00 0.00 0.00 0.00 0.00 0.00 0.01 0.00 0.01 0.04 0.06 0.06 0.07 0.09 0.10 0.08 0.07 0.07 0.07 0.04 0.02 0.01 0.01 0.00 0.00 0.00 0.00
0.59 0.37 0.52 1.01 0.54 0.21 0.09 0.03 0.00 0.00 0.00 0.00 0.00 0.00 0.00 0.00 0.00 0.00 0.00 0.00 0.00 0.00 0.00 0.00 0.00 0.00 0.01 0.03 0.01 0.01 0.01 0.04 0.05 0.06 0.07 0.07 0.07 0.06 0.07 0.05 0.03 0.02 0.01 0.00 0.01 0.00 0.00 0.01 0.01
0.72 0.88 0.50 0.42 0.24 0.27 0.06 0.02 0.00 0.00 0.00 0.00 0.00 0.00 0.00 0.00 0.00 0.00 0.00 0.00 0.00 0.00 0.00 0.00 0.00 0.00 0.01 0.01 0.01 0.02 0.03 0.05 0.04 0.06 0.05 0.06 0.05 0.05 0.05 0.03 0.01 0.01 0.00 0.01 0.01 0.00 0.00 0.00 0.00
0.34 0.36 0.31 0.57 0.24 0.33 0.28 0.07 0.00 0.00 0.00 0.00 0.01 0.02 0.01 0.00 0.00 0.00 0.00 0.00 0.00 0.00 0.00 0.00 0.00 0.00 0.01 0.00 0.00 0.00 0.02 0.04 0.05 0.06 0.05 0.04 0.04 0.04 0.03 0.01 0.00 0.00 0.01 0.00 0.00 0.00 0.01 0.01 0.01

GFSSGP_prec_precacc_054.txt.gz
Total_Precipitation_Accumulation
0.00 0.00 0.00 0.00 0.00 0.00 0.00 0.00 0.00 0.00 0.00 0.00 0.00 0.00 0.00 0.00 0.00 0.00 0.00 0.00 0.00 0.00 0.00 0.02 0.06 0.09 0.09 0.08 0.05 0.01 0.00 0.00 0.01 0.02 0.03 0.09 0.04 0.01 0.00 0.01 0.01 0.04 0.02 0.02 0.09 0.15 0.07 0.02 0.02
0.00 0.00 0.00 0.00 0.00 0.00 0.00 0.00 0.00 0.00 0.00 0.00 0.00 0.00 0.00 0.00 0.00 0.00 0.00 0.00 0.00 0.00 0.00 0.00 0.05 0.06 0.08 0.09 0.04 0.01 0.01 0.00 0.01 0.01 0.08 0.08 0.01 0.01 0.00 0.00 0.02 0.03 0.02 0.03 0.03 0.01 0.00 0.00 0.01
0.00 0.00 0.00 0.00 0.00 0.00 0.00 0.00 0.00 0.00 0.00 0.00 0.00 0.00 0.00 0.00 0.00 0.00 0.00 0.00 0.00 0.00 0.00 0.00 0.03 0.05 0.08 0.08 0.03 0.01 0.01 0.01 0.01 0.02 0.06 0.06 0.03 0.01 0.00 0.00 0.01 0.01 0.01 0.00 0.00 0.00 0.00 0.00 0.00
0.00 0.00 0.00 0.00 0.00 0.00 0.00 0.00 0.00 0.00 0.00 0.00 0.00 0.00 0.00 0.00 0.00 0.00 0.00 0.00 0.00 0.00 0.00 0.00 0.02 0.04 0.07 0.04 0.02 0.01 0.01 0.01 0.01 0.02 0.02 0.05 0.07 0.06 0.02 0.00 0.00 0.00 0.00 0.00 0.00 0.00 0.00 0.00 0.00
0.00 0.00 0.00 0.00 0.00 0.00 0.00 0.00 0.00 0.00 0.00 0.00 0.00 0.00 0.00 0.00 0.00 0.00 0.00 0.00 0.00 0.00 0.00 0.00 0.02 0.04 0.04 0.02 0.00 0.00 0.00 0.00 0.01 0.01 0.01 0.04 0.08 0.10 0.07 0.00 0.00 0.00 0.00 0.00 0.00 0.00 0.00 0.00 0.00
0.00 0.00 0.00 0.00 0.00 0.00 0.00 0.00 0.00 0.00 0.00 0.00 0.00 0.00 0.00 0.00 0.00 0.00 0.00 0.00 0.00 0.00 0.00 0.00 0.01 0.04 0.04 0.01 0.00 0.00 0.00 0.00 0.01 0.01 0.00 0.02 0.07 0.09 0.14 0.04 0.00 0.00 0.00 0.00 0.00 0.01 0.01 0.01 0.01
0.00 0.00 0.00 0.00 0.00 0.00 0.00 0.00 0.00 0.00 0.00 0.00 0.00 0.00 0.00 0.00 0.00 0.00 0.00 0.00 0.00 0.00 0.00 0.00 0.01 0.03 0.03 0.02 0.02 0.00 0.00 0.00 0.01 0.00 0.00 0.00 0.02 0.01 0.07 0.06 0.02 0.01 0.01 0.00 0.02 0.02 0.02 0.02 0.01
0.00 0.00 0.00 0.00 0.00 0.00 0.00 0.00 0.00 0.00 0.00 0.00 0.00 0.00 0.00 0.00 0.00 0.00 0.00 0.00 0.00 0.00 0.01 0.00 0.00 0.01 0.02 0.02 0.01 0.01 0.01 0.01 0.00 0.00 0.00 0.00 0.00 0.00 0.03 0.04 0.02 0.00 0.00 0.00 0.01 0.02 0.01 0.01 0.01
0.00 0.00 0.00 0.00 0.00 0.00 0.00 0.00 0.00 0.00 0.00 0.00 0.00 0.00 0.00 0.00 0.00 0.00 0.00 0.00 0.00 0.02 0.04 0.01 0.01 0.00 0.00 0.01 0.01 0.01 0.01 0.01 0.01 0.00 0.00 0.00 0.00 0.00 0.00 0.01 0.00 0.00 0.01 0.00 0.00 0.00 0.01 0.01 0.00
0.00 0.00 0.00 0.00 0.00 0.00 0.00 0.00 0.00 0.00 0.00 0.00 0.00 0.00 0.00 0.00 0.00 0.00 0.00 0.00 0.01 0.02 0.04 0.02 0.00 0.00 0.00 0.00 0.01 0.00 0.00 0.00 0.00 0.00 0.00 0.00 0.00 0.00 0.00 0.00 0.00 0.00 0.00 0.00 0.00 0.00 0.00 0.00 0.00
0.00 0.00 0.00 0.00 0.00 0.00 0.00 0.00 0.00 0.00 0.00 0.00 0.00 0.00 0.00 0.00 0.00 0.00 0.00 0.00 0.01 0.01 0.01 0.00 0.00 0.00 0.00 0.00 0.00 0.00 0.00 0.00 0.00 0.00 0.00 0.00 0.00 0.00 0.00 0.00 0.00 0.00 0.00 0.00 0.00 0.00 0.00 0.00 0.00
0.00 0.00 0.00 0.00 0.00 0.00 0.00 0.00 0.00 0.00 0.00 0.00 0.00 0.00 0.00 0.00 0.00 0.00 0.00 0.00 0.00 0.00 0.01 0.00 0.00 0.00 0.00 0.00 0.00 0.00 0.00 0.00 0.00 0.00 0.00 0.00 0.00 0.00 0.00 0.00 0.00 0.00 0.00 0.00 0.00 0.00 0.00 0.00 0.00
0.00 0.00 0.00 0.00 0.00 0.00 0.00 0.00 0.00 0.00 0.00 0.00 0.00 0.00 0.00 0.00 0.00 0.00 0.00 0.00 0.00 0.00 0.01 0.00 0.00 0.00 0.00 0.00 0.00 0.00 0.00 0.00 0.00 0.00 0.00 0.00 0.00 0.00 0.00 0.00 0.00 0.00 0.00 0.00 0.00 0.00 0.00 0.00 0.00
0.00 0.00 0.00 0.00 0.00 0.00 0.00 0.00 0.00 0.00 0.00 0.00 0.00 0.00 0.00 0.00 0.00 0.00 0.00 0.00 0.00 0.00 0.01 0.01 0.00 0.00 0.00 0.00 0.01 0.01 0.00 0.00 0.00 0.00 0.00 0.00 0.00 0.00 0.00 0.00 0.00 0.00 0.00 0.00 0.00 0.00 0.00 0.00 0.00
0.00 0.01 0.00 0.00 0.00 0.00 0.00 0.00 0.00 0.00 0.00 0.00 0.00 0.00 0.00 0.00 0.00 0.00 0.00 0.00 0.00 0.00 0.01 0.01 0.01 0.01 0.00 0.00 0.03 0.04 0.05 0.01 0.02 0.00 0.00 0.00 0.00 0.00 0.00 0.00 0.00 0.00 0.00 0.00 0.00 0.00 0.00 0.00 0.00
0.03 0.04 0.01 0.00 0.00 0.00 0.01 0.00 0.00 0.00 0.00 0.00 0.00 0.00 0.00 0.00 0.00 0.00 0.00 0.00 0.00 0.00 0.00 0.00 0.02 0.04 0.01 0.01 0.05 0.07 0.06 0.02 0.06 0.02 0.00 0.00 0.00 0.00 0.00 0.00 0.00 0.00 0.00 0.00 0.00 0.00 0.00 0.00 0.00
0.08 0.03 0.01 0.00 0.00 0.00 0.00 0.00 0.00 0.00 0.00 0.00 0.00 0.00 0.00 0.00 0.00 0.00 0.00 0.00 0.00 0.00 0.00 0.00 0.00 0.01 0.05 0.09 0.07 0.11 0.15 0.05 0.05 0.05 0.00 0.00 0.00 0.00 0.00 0.00 0.00 0.00 0.00 0.00 0.00 0.00 0.00 0.00 0.00
0.02 0.01 0.00 0.00 0.00 0.00 0.00 0.00 0.00 0.00 0.00 0.00 0.00 0.00 0.00 0.00 0.00 0.00 0.00 0.00 0.00 0.00 0.00 0.00 0.00 0.00 0.03 0.09 0.14 0.15 0.17 0.12 0.05 0.06 0.03 0.04 0.01 0.00 0.00 0.00 0.00 0.00 0.00 0.00 0.00 0.00 0.00 0.00 0.00
0.01 0.02 0.01 0.00 0.00 0.00 0.00 0.00 0.00 0.00 0.00 0.00 0.00 0.00 0.00 0.00 0.00 0.00 0.00 0.00 0.00 0.00 0.00 0.00 0.00 0.00 0.02 0.05 0.05 0.06 0.14 0.26 0.16 0.15 0.16 0.11 0.09 0.08 0.05 0.02 0.00 0.00 0.00 0.00 0.00 0.00 0.00 0.00 0.00
0.04 0.05 0.04 0.01 0.00 0.01 0.00 0.00 0.00 0.00 0.00 0.00 0.00 0.00 0.00 0.00 0.00 0.00 0.00 0.00 0.00 0.00 0.00 0.00 0.00 0.00 0.00 0.01 0.02 0.07 0.19 0.27 0.28 0.25 0.19 0.21 0.21 0.28 0.14 0.05 0.01 0.00 0.00 0.00 0.00 0.00 0.00 0.00 0.00
0.14 0.04 0.03 0.03 0.01 0.01 0.01 0.00 0.00 0.00 0.00 0.00 0.00 0.00 0.00 0.00 0.00 0.00 0.00 0.00 0.00 0.00 0.00 0.00 0.00 0.00 0.00 0.00 0.03 0.09 0.17 0.23 0.23 0.16 0.11 0.13 0.26 0.46 0.31 0.11 0.05 0.02 0.02 0.05 0.03 0.04 0.03 0.02 0.01
0.18 0.07 0.01 0.05 0.10 0.08 0.04 0.02 0.00 0.00 0.00 0.00 0.00 0.00 0.00 0.00 0.00 0.00 0.00 0.00 0.00 0.00 0.00 0.00 0.00 0.00 0.00 0.00 0.00 0.01 0.04 0.10 0.15 0.18 0.19 0.25 0.28 0.45 0.38 0.22 0.16 0.15 0.14 0.14 0.14 0.11 0.10 0.07 0.04
0.17 0.10 0.03 0.09 0.16 0.17 0.11 0.09 0.01 0.00 0.00 0.00 0.00 0.00 0.00 0.00 0.00 0.00 0.00 0.00 0.00 0.00 0.00 0.00 0.00 0.00 0.00 0.00 0.00 0.00 0.04 0.11 0.15 0.17 0.19 0.24 0.30 0.33 0.34 0.25 0.21 0.16 0.13 0.12 0.11 0.10 0.06 0.05 0.04
0.18 0.21 0.21 0.15 0.40 0.43 0.11 0.14 0.07 0.00 0.00 0.00 0.00 0.00 0.00 0.00 0.00 0.00 0.00 0.00 0.00 0.00 0.00 0.00 0.00 0.00 0.00 0.00 0.00 0.00 0.03 0.07 0.07 0.11 0.18 0.21 0.21 0.20 0.19 0.18 0.18 0.19 0.14 0.13 0.11 0.08 0.05 0.03 0.05
0.58 0.75 0.91 0.63 0.61 0.43 0.07 0.06 0.07 0.00 0.00 0.00 0.00 0.00 0.00 0.00 0.00 0.00 0.00 0.00 0.00 0.00 0.00 0.00 0.00 0.00 0.00 0.00 0.00 0.00 0.00 0.04 0.07 0.11 0.13 0.14 0.13 0.11 0.14 0.17 0.15 0.16 0.15 0.13 0.08 0.06 0.04 0.02 0.01
0.59 0.81 0.84 0.36 0.15 0.12 0.05 0.11 0.02 0.00 0.00 0.00 0.00 0.00 0.00 0.00 0.00 0.00 0.00 0.00 0.00 0.00 0.00 0.00 0.00 0.00 0.00 0.00 0.00 0.00 0.00 0.02 0.05 0.06 0.07 0.08 0.10 0.14 0.12 0.13 0.14 0.12 0.11 0.10 0.06 0.03 0.02 0.00 0.00
0.63 0.86 0.49 0.48 0.25 0.25 0.10 0.01 0.00 0.00 0.00 0.00 0.00 0.00 0.00 0.00 0.00 0.00 0.00 0.00 0.00 0.00 0.00 0.00 0.00 0.00 0.00 0.00 0.01 0.00 0.01 0.04 0.06 0.06 0.07 0.09 0.10 0.09 0.09 0.12 0.13 0.10 0.07 0.06 0.04 0.01 0.00 0.00 0.00
0.59 0.37 0.52 1.01 0.54 0.21 0.09 0.03 0.00 0.00 0.00 0.00 0.00 0.00 0.00 0.00 0.00 0.00 0.00 0.00 0.00 0.00 0.00 0.00 0.00 0.00 0.01 0.03 0.01 0.01 0.01 0.04 0.05 0.06 0.07 0.07 0.07 0.06 0.09 0.10 0.09 0.07 0.05 0.02 0.02 0.01 0.00 0.01 0.01
0.72 0.88 0.50 0.42 0.24 0.27 0.06 0.02 0.00 0.00 0.00 0.00 0.00 0.00 0.00 0.00 0.00 0.00 0.00 0.00 0.00 0.00 0.00 0.00 0.00 0.00 0.01 0.01 0.01 0.02 0.03 0.05 0.04 0.06 0.05 0.06 0.05 0.05 0.06 0.05 0.05 0.04 0.03 0.02 0.01 0.00 0.00 0.00 0.00
0.34 0.36 0.31 0.57 0.24 0.33 0.28 0.07 0.00 0.00 0.00 0.00 0.01 0.02 0.01 0.00 0.00 0.00 0.00 0.00 0.00 0.00 0.00 0.00 0.00 0.00 0.01 0.00 0.00 0.00 0.02 0.04 0.05 0.06 0.05 0.04 0.04 0.04 0.03 0.02 0.02 0.02 0.01 0.01 0.00 0.00 0.01 0.01 0.01

GFSSGP_prec_precacc_057.txt.gz
Total_Precipitation_Accumulation
0.00 0.00 0.00 0.00 0.00 0.00 0.00 0.00 0.00 0.00 0.00 0.00 0.00 0.00 0.00 0.00 0.00 0.00 0.00 0.00 0.00 0.00 0.00 0.02 0.07 0.09 0.09 0.10 0.06 0.02 0.01 0.01 0.01 0.02 0.03 0.09 0.04 0.01 0.00 0.01 0.01 0.04 0.02 0.04 0.18 0.19 0.07 0.02 0.02
0.00 0.00 0.00 0.00 0.00 0.00 0.00 0.00 0.00 0.00 0.00 0.00 0.00 0.00 0.00 0.00 0.00 0.00 0.00 0.00 0.00 0.00 0.00 0.01 0.05 0.06 0.09 0.10 0.04 0.02 0.01 0.01 0.01 0.01 0.08 0.08 0.01 0.01 0.00 0.01 0.03 0.03 0.02 0.06 0.06 0.02 0.00 0.00 0.01
0.00 0.00 0.00 0.00 0.00 0.00 0.00 0.00 0.00 0.00 0.00 0.00 0.00 0.00 0.00 0.00 0.00 0.00 0.00 0.00 0.00 0.00 0.00 0.00 0.03 0.05 0.08 0.09 0.04 0.01 0.01 0.01 0.01 0.02 0.06 0.06 0.03 0.01 0.00 0.01 0.02 0.01 0.01 0.00 0.00 0.00 0.00 0.00 0.00
0.00 0.00 0.00 0.00 0.00 0.00 0.00 0.00 0.00 0.00 0.00 0.00 0.00 0.00 0.00 0.00 0.00 0.00 0.00 0.00 0.00 0.00 0.00 0.00 0.03 0.05 0.08 0.04 0.02 0.01 0.01 0.01 0.01 0.03 0.02 0.05 0.07 0.06 0.02 0.00 0.00 0.00 0.00 0.00 0.00 0.00 0.00 0.00 0.00
0.00 0.00 0.00 0.00 0.00 0.00 0.00 0.00 0.00 0.00 0.00 0.00 0.00 0.00 0.00 0.00 0.00 0.00 0.00 0.00 0.00 0.00 0.00 0.00 0.03 0.05 0.06 0.03 0.01 0.00 0.01 0.01 0.01 0.02 0.01 0.04 0.08 0.10 0.07 0.00 0.00 0.00 0.00 0.00 0.00 0.00 0.00 0.00 0.00
0.00 0.00 0.00 0.00 0.00 0.00 0.00 0.00 0.00 0.00 0.00 0.00 0.00 0.00 0.00 0.00 0.00 0.00 0.00 0.00 0.00 0.00 0.00 0.00 0.02 0.05 0.05 0.02 0.01 0.00 0.01 0.01 0.02 0.01 0.00 0.02 0.07 0.09 0.14 0.04 0.00 0.00 0.00 0.00 0.00 0.01 0.01 0.01 0.01
0.00 0.00 0.00 0.00 0.00 0.00 0.00 0.00 0.00 0.00 0.00 0.00 0.00 0.00 0.00 0.00 0.00 0.00 0.00 0.00 0.00 0.00 0.00 0.00 0.01 0.03 0.03 0.02 0.02 0.00 0.00 0.00 0.01 0.01 0.00 0.00 0.02 0.01 0.07 0.06 0.02 0.01 0.01 0.00 0.02 0.02 0.02 0.02 0.01
0.00 0.00 0.00 0.00 0.00 0.00 0.00 0.00 0.00 0.00 0.00 0.00 0.00 0.00 0.00 0.00 0.00 0.00 0.00 0.00 0.00 0.00 0.01 0.00 0.00 0.01 0.02 0.02 0.01 0.01 0.01 0.01 0.01 0.01 0.00 0.00 0.00 0.00 0.03 0.04 0.02 0.00 0.00 0.00 0.01 0.02 0.01 0.01 0.01
0.00 0.00 0.00 0.00 0.00 0.00 0.00 0.00 0.00 0.00 0.00 0.00 0.00 0.00 0.00 0.00 0.00 0.00 0.00 0.00 0.00 0.02 0.04 0.01 0.01 0.00 0.00 0.01 0.01 0.01 0.01 0.01 0.01 0.00 0.00 0.00 0.00 0.00 0.00 0.01 0.00 0.00 0.01 0.00 0.00 0.00 0.01 0.01 0.00
0.00 0.00 0.00 0.00 0.00 0.00 0.00 0.00 0.00 0.00 0.00 0.00 0.00 0.00 0.00 0.00 0.00 0.00 0.00 0.00 0.01 0.02 0.04 0.02 0.00 0.00 0.00 0.00 0.01 0.00 0.00 0.00 0.00 0.00 0.00 0.00 0.00 0.00 0.00 0.00 0.00 0.00 0.00 0.00 0.00 0.00 0.00 0.00 0.00
0.00 0.00 0.00 0.00 0.00 0.00 0.00 0.00 0.00 0.00 0.00 0.00 0.00 0.00 0.00 0.00 0.01 0.01 0.01 0.00 0.01 0.01 0.01 0.00 0.00 0.00 0.00 0.00 0.00 0.00 0.00 0.00 0.00 0.00 0.00 0.00 0.00 0.00 0.00 0.00 0.00 0.00 0.00 0.00 0.00 0.00 0.00 0.00 0.00
0.00 0.00 0.00 0.00 0.00 0.00 0.00 0.00 0.00 0.00 0.00 0.00 0.00 0.00 0.00 0.00 0.00 0.01 0.01 0.01 0.00 0.01 0.01 0.00 0.00 0.00 0.00 0.00 0.00 0.00 0.00 0.00 0.00 0.00 0.00 0.00 0.00 0.00 0.00 0.00 0.00 0.00 0.00 0.00 0.00 0.00 0.00 0.00 0.00
0.00 0.00 0.00 0.00 0.00 0.00 0.00 0.00 0.00 0.00 0.00 0.00 0.00 0.00 0.00 0.00 0.00 0.00 0.00 0.00 0.00 0.01 0.01 0.01 0.00 0.00 0.01 0.00 0.00 0.00 0.00 0.00 0.00 0.00 0.00 0.00 0.00 0.00 0.00 0.00 0.00 0.00 0.00 0.00 0.00 0.00 0.00 0.00 0.00
0.00 0.00 0.00 0.00 0.00 0.00 0.00 0.00 0.00 0.00 0.00 0.00 0.00 0.00 0.00 0.00 0.00 0.00 0.00 0.00 0.00 0.00 0.01 0.02 0.00 0.01 0.01 0.02 0.02 0.01 0.00 0.00 0.00 0.00 0.00 0.00 0.00 0.00 0.00 0.00 0.00 0.00 0.00 0.00 0.00 0.00 0.00 0.00 0.00
0.00 0.01 0.00 0.00 0.00 0.00 0.00 0.00 0.00 0.00 0.00 0.00 0.00 0.00 0.00 0.00 0.00 0.00 0.00 0.00 0.00 0.00 0.01 0.01 0.01 0.02 0.01 0.01 0.04 0.06 0.07 0.02 0.02 0.00 0.00 0.00 0.00 0.00 0.00 0.00 0.00 0.00 0.00 0.00 0.00 0.00 0.00 0.00 0.00
0.03 0.04 0.01 0.00 0.00 0.00 0.01 0.00 0.00 0.00 0.00 0.00 0.00 0.00 0.00 0.00 0.00 0.00 0.00 0.00 0.00 0.00 0.00 0.00 0.03 0.05 0.03 0.03 0.08 0.11 0.10 0.05 0.07 0.02 0.00 0.00 0.00 0.00 0.00 0.00 0.00 0.00 0.00 0.00 0.00 0.00 0.00 0.00 0.00
0.08 0.03 0.01 0.00 0.00 0.00 0.00 0.00 0.00 0.00 0.00 0.00 0.00 0.00 0.00 0.00 0.00 0.00 0.00 0.00 0.00 0.00 0.00 0.00 0.00 0.01 0.07 0.12 0.09 0.17 0.22 0.10 0.08 0.05 0.00 0.00 0.01 0.01 0.00 0.00 0.00 0.00 0.00 0.00 0.00 0.00 0.00 0.00 0.00
0.02 0.01 0.00 0.00 0.00 0.00 0.00 0.00 0.00 0.00 0.00 0.00 0.00 0.00 0.00 0.00 0.00 0.00 0.00 0.00 0.00 0.00 0.00 0.00 0.00 0.00 0.03 0.10 0.18 0.18 0.18 0.12 0.06 0.06 0.03 0.07 0.04 0.03 0.00 0.00 0.00 0.00 0.00 0.00 0.00 0.00 0.00 0.00 0.00
0.01 0.02 0.01 0.00 0.00 0.00 0.00 0.00 0.00 0.00 0.00 0.00 0.00 0.00 0.00 0.00 0.00 0.00 0.00 0.00 0.00 0.00 0.00 0.00 0.00 0.00 0.02 0.05 0.06 0.06 0.14 0.28 0.20 0.15 0.22 0.17 0.15 0.11 0.07 0.02 0.00 0.00 0.00 0.00 0.00 0.00 0.00 0.00 0.00
0.04 0.05 0.04 0.01 0.00 0.01 0.00 0.00 0.00 0.00 0.00 0.00 0.00 0.00 0.00 0.00 0.00 0.00 0.00 0.00 0.00 0.00 0.00 0.00 0.00 0.00 0.00 0.01 0.02 0.07 0.19 0.28 0.30 0.28 0.22 0.22 0.23 0.32 0.18 0.05 0.01 0.00 0.00 0.00 0.00 0.00 0.00 0.00 0.00
0.14 0.04 0.03 0.03 0.01 0.01 0.01 0.00 0.00 0.00 0.00 0.00 0.00 0.00 0.00 0.00 0.00 0.00 0.00 0.00 0.00 0.00 0.00 0.00 0.00 0.00 0.00 0.00 0.03 0.09 0.17 0.23 0.24 0.16 0.11 0.13 0.26 0.47 0.33 0.12 0.05 0.04 0.04 0.05 0.03 0.04 0.04 0.03 0.01
0.18 0.07 0.01 0.05 0.10 0.08 0.04 0.02 0.00 0.00 0.00 0.00 0.00 0.00 0.00 0.00 0.00 0.00 0.00 0.00 0.00 0.00 0.00 0.00 0.00 0.00 0.00 0.00 0.00 0.01 0.04 0.10 0.15 0.18 0.19 0.26 0.29 0.46 0.45 0.27 0.18 0.20 0.17 0.16 0.16 0.12 0.11 0.09 0.06
0.22 0.10 0.03 0.09 0.16 0.17 0.11 0.09 0.01 0.00 0.00 0.00 0.00 0.00 0.00 0.00 0.00 0.00 0.00 0.00 0.00 0.00 0.00 0.00 0.00 0.00 0.00 0.00 0.00 0.00 0.04 0.11 0.15 0.17 0.19 0.24 0.30 0.33 0.36 0.27 0.25 0.18 0.17 0.16 0.14 0.12 0.08 0.07 0.06
0.20 0.21 0.21 0.15 0.40 0.43 0.11 0.14 0.07 0.00 0.00 0.00 0.00 0.00 0.00 0.00 0.00 0.00 0.00 0.00 0.00 0.00 0.00 0.00 0.00 0.00 0.00 0.00 0.00 0.00 0.03 0.07 0.07 0.11 0.18 0.21 0.21 0.21 0.21 0.26 0.22 0.24 0.18 0.15 0.14 0.12 0.08 0.06 0.07
0.58 0.75 0.91 0.63 0.61 0.43 0.07 0.06 0.07 0.00 0.00 0.00 0.00 0.00 0.00 0.00 0.00 0.00 0.00 0.00 0.00 0.00 0.00 0.00 0.00 0.00 0.00 0.00 0.00 0.00 0.00 0.04 0.07 0.11 0.13 0.14 0.13 0.11 0.15 0.21 0.22 0.22 0.21 0.17 0.13 0.10 0.08 0.05 0.04
0.59 0.81 0.84 0.36 0.15 0.12 0.05 0.11 0.02 0.00 0.00 0.00 0.00 0.00 0.00 0.00 0.00 0.00 0.00 0.00 0.00 0.00 0.00 0.00 0.00 0.00 0.00 0.00 0.00 0.00 0.00 0.02 0.05 0.06 0.07 0.08 0.10 0.14 0.13 0.15 0.20 0.21 0.20 0.19 0.15 0.11 0.08 0.04 0.03
0.63 0.86 0.49 0.48 0.25 0.25 0.10 0.01 0.00 0.00 0.00 0.00 0.00 0.00 0.00 0.00 0.00 0.00 0.00 0.00 0.00 0.00 0.00 0.00 0.00 0.00 0.00 0.00 0.01 0.00 0.01 0.04 0.06 0.06 0.07 0.09 0.10 0.09 0.09 0.13 0.15 0.15 0.15 0.16 0.13 0.09 0.06 0.03 0.01
0.59 0.37 0.52 1.01 0.54 0.21 0.09 0.03 0.00 0.00 0.00 0.00 0.00 0.00 0.00 0.00 0.00 0.00 0.00 0.00 0.00 0.00 0.00 0.00 0.00 0.00 0.01 0.03 0.01 0.01 0.01 0.04 0.05 0.06 0.07 0.07 0.07 0.06 0.09 0.10 0.09 0.08 0.08 0.07 0.08 0.06 0.04 0.02 0.01
0.72 0.88 0.50 0.42 0.24 0.27 0.06 0.02 0.00 0.00 0.00 0.00 0.00 0.00 0.00 0.00 0.00 0.00 0.00 0.00 0.00 0.00 0.00 0.00 0.00 0.00 0.01 0.01 0.01 0.02 0.03 0.05 0.04 0.06 0.05 0.06 0.05 0.05 0.06 0.05 0.05 0.04 0.03 0.03 0.03 0.02 0.02 0.02 0.01
0.34 0.36 0.31 0.57 0.24 0.33 0.28 0.07 0.00 0.00 0.00 0.00 0.01 0.02 0.01 0.00 0.00 0.00 0.00 0.00 0.00 0.00 0.00 0.00 0.00 0.00 0.01 0.00 0.00 0.00 0.02 0.04 0.05 0.06 0.05 0.04 0.04 0.04 0.03 0.02 0.02 0.02 0.01 0.01 0.01 0.01 0.01 0.01 0.01

GFSSGP_prec_precacc_060.txt.gz
Total_Precipitation_Accumulation
0.00 0.00 0.00 0.00 0.00 0.00 0.00 0.00 0.00 0.00 0.00 0.00 0.00 0.00 0.00 0.00 0.00 0.00 0.00 0.00 0.00 0.00 0.00 0.03 0.07 0.09 0.10 0.11 0.07 0.02 0.01 0.01 0.02 0.02 0.03 0.09 0.04 0.01 0.00 0.01 0.01 0.04 0.03 0.09 0.23 0.21 0.07 0.02 0.02
0.00 0.00 0.00 0.00 0.00 0.00 0.00 0.00 0.00 0.00 0.00 0.00 0.00 0.00 0.00 0.00 0.00 0.00 0.00 0.00 0.00 0.00 0.00 0.01 0.05 0.06 0.10 0.13 0.05 0.02 0.01 0.01 0.02 0.02 0.08 0.08 0.01 0.01 0.00 0.01 0.03 0.03 0.04 0.11 0.10 0.02 0.00 0.00 0.01
0.00 0.00 0.00 0.00 0.00 0.00 0.00 0.00 0.00 0.00 0.00 0.00 0.00 0.00 0.00 0.00 0.00 0.00 0.00 0.00 0.00 0.00 0.00 0.00 0.03 0.05 0.10 0.09 0.04 0.02 0.01 0.01 0.01 0.03 0.06 0.06 0.03 0.01 0.01 0.02 0.02 0.02 0.02 0.01 0.00 0.00 0.00 0.00 0.00
0.00 0.00 0.00 0.00 0.00 0.00 0.00 0.00 0.00 0.00 0.00 0.00 0.00 0.00 0.00 0.00 0.00 0.00 0.00 0.00 0.00 0.00 0.00 0.01 0.03 0.05 0.09 0.04 0.02 0.01 0.01 0.01 0.02 0.03 0.02 0.05 0.07 0.06 0.03 0.01 0.01 0.01 0.00 0.00 0.00 0.00 0.00 0.00 0.00
0.00 0.00 0.00 0.00 0.00 0.00 0.00 0.00 0.00 0.00 0.00 0.00 0.00 0.00 0.00 0.00 0.00 0.00 0.00 0.00 0.00 0.00 0.00 0.00 0.03 0.05 0.06 0.03 0.01 0.00 0.01 0.01 0.02 0.02 0.01 0.04 0.08 0.10 0.07 0.00 0.00 0.00 0.00 0.00 0.00 0.00 0.00 0.00 0.00
0.00 0.00 0.00 0.00 0.00 0.00 0.00 0.00 0.00 0.00 0.00 0.00 0.00 0.00 0.00 0.00 0.00 0.00 0.00 0.00 0.00 0.00 0.00 0.00 0.02 0.06 0.05 0.02 0.01 0.00 0.01 0.02 0.02 0.01 0.00 0.02 0.07 0.09 0.14 0.04 0.00 0.00 0.00 0.00 0.00 0.01 0.01 0.01 0.01
0.00 0.00 0.00 0.00 0.00 0.00 0.00 0.00 0.00 0.00 0.00 0.00 0.00 0.00 0.00 0.00 0.00 0.00 0.00 0.00 0.00 0.00 0.00 0.00 0.01 0.03 0.04 0.03 0.02 0.01 0.00 0.01 0.02 0.02 0.00 0.00 0.02 0.01 0.07 0.06 0.02 0.01 0.01 0.00 0.02 0.02 0.02 0.02 0.01
0.00 0.00 0.00 0.00 0.00 0.00 0.00 0.00 0.00 0.00 0.00 0.00 0.00 0.00 0.00 0.00 0.00 0.00 0.00 0.00 0.00 0.00 0.01 0.00 0.00 0.01 0.02 0.02 0.01 0.01 0.01 0.01 0.01 0.02 0.00 0.00 0.00 0.00 0.03 0.04 0.02 0.00 0.00 0.00 0.01 0.02 0.01 0.01 0.01
0.00 0.00 0.00 0.00 0.00 0.00 0.00 0.00 0.00 0.00 0.00 0.00 0.00 0.00 0.00 0.00 0.00 0.00 0.00 0.00 0.00 0.02 0.04 0.01 0.01 0.00 0.00 0.01 0.01 0.01 0.01 0.01 0.01 0.01 0.00 0.00 0.00 0.00 0.00 0.01 0.00 0.00 0.01 0.00 0.00 0.01 0.01 0.01 0.00
0.00 0.00 0.00 0.00 0.00 0.00 0.00 0.00 0.00 0.00 0.00 0.00 0.00 0.00 0.00 0.00 0.00 0.00 0.00 0.00 0.01 0.02 0.04 0.02 0.00 0.00 0.00 0.00 0.01 0.00 0.00 0.00 0.00 0.00 0.00 0.00 0.00 0.00 0.00 0.00 0.00 0.00 0.00 0.00 0.00 0.01 0.00 0.00 0.00
0.00 0.00 0.00 0.00 0.00 0.00 0.00 0.00 0.00 0.00 0.00 0.00 0.00 0.00 0.00 0.00 0.01 0.01 0.01 0.01 0.01 0.01 0.01 0.00 0.00 0.00 0.00 0.00 0.00 0.00 0.00 0.00 0.00 0.00 0.00 0.00 0.00 0.00 0.00 0.00 0.00 0.00 0.00 0.00 0.00 0.00 0.00 0.00 0.00
0.00 0.00 0.00 0.00 0.00 0.00 0.00 0.00 0.00 0.00 0.00 0.00 0.00 0.00 0.00 0.00 0.01 0.02 0.01 0.01 0.00 0.01 0.01 0.00 0.00 0.00 0.00 0.00 0.00 0.00 0.00 0.00 0.00 0.00 0.00 0.00 0.00 0.00 0.00 0.00 0.00 0.00 0.00 0.00 0.00 0.00 0.00 0.00 0.00
0.00 0.00 0.00 0.00 0.00 0.00 0.00 0.00 0.00 0.00 0.00 0.00 0.00 0.00 0.00 0.00 0.00 0.00 0.00 0.00 0.00 0.01 0.01 0.01 0.00 0.00 0.02 0.01 0.01 0.01 0.00 0.00 0.00 0.00 0.00 0.00 0.00 0.00 0.00 0.00 0.00 0.00 0.00 0.00 0.00 0.00 0.00 0.00 0.00
0.00 0.00 0.00 0.00 0.00 0.00 0.00 0.00 0.00 0.00 0.00 0.00 0.00 0.00 0.00 0.00 0.00 0.00 0.00 0.00 0.00 0.00 0.01 0.02 0.00 0.01 0.01 0.03 0.03 0.02 0.00 0.00 0.00 0.00 0.00 0.00 0.00 0.00 0.00 0.00 0.00 0.00 0.00 0.00 0.00 0.00 0.00 0.00 0.00
0.00 0.01 0.00 0.00 0.00 0.00 0.00 0.00 0.00 0.00 0.00 0.00 0.00 0.00 0.00 0.00 0.00 0.00 0.00 0.00 0.00 0.00 0.01 0.01 0.01 0.02 0.01 0.01 0.05 0.07 0.08 0.02 0.02 0.00 0.00 0.00 0.00 0.00 0.00 0.00 0.00 0.00 0.00 0.00 0.00 0.00 0.00 0.00 0.00
0.03 0.04 0.01 0.00 0.00 0.00 0.01 0.00 0.00 0.00 0.00 0.00 0.00 0.00 0.00 0.00 0.00 0.00 0.00 0.00 0.00 0.00 0.00 0.00 0.03 0.05 0.03 0.03 0.08 0.12 0.12 0.06 0.07 0.03 0.00 0.00 0.00 0.00 0.00 0.00 0.00 0.00 0.00 0.00 0.00 0.00 0.00 0.00 0.00
0.08 0.03 0.01 0.00 0.00 0.00 0.00 0.00 0.00 0.00 0.00 0.00 0.00 0.00 0.00 0.00 0.00 0.00 0.00 0.00 0.00 0.00 0.00 0.00 0.00 0.01 0.07 0.12 0.09 0.20 0.23 0.11 0.08 0.06 0.01 0.00 0.02 0.02 0.00 0.00 0.00 0.00 0.00 0.00 0.00 0.00 0.00 0.00 0.00
0.02 0.01 0.00 0.00 0.00 0.00 0.00 0.00 0.00 0.00 0.00 0.00 0.00 0.00 0.00 0.00 0.00 0.00 0.00 0.00 0.00 0.00 0.00 0.00 0.00 0.00 0.03 0.10 0.18 0.20 0.19 0.12 0.06 0.06 0.03 0.10 0.05 0.06 0.03 0.00 0.00 0.00 0.00 0.00 0.00 0.00 0.00 0.00 0.00
0.01 0.02 0.01 0.00 0.00 0.00 0.00 0.00 0.00 0.00 0.00 0.00 0.00 0.00 0.00 0.00 0.00 0.00 0.00 0.00 0.00 0.00 0.00 0.00 0.00 0.00 0.02 0.05 0.06 0.07 0.15 0.28 0.20 0.15 0.23 0.18 0.15 0.12 0.08 0.03 0.01 0.00 0.00 0.00 0.00 0.00 0.00 0.00 0.00
0.04 0.05 0.04 0.01 0.00 0.01 0.00 0.00 0.00 0.00 0.00 0.00 0.00 0.00 0.00 0.00 0.00 0.00 0.00 0.00 0.00 0.00 0.00 0.00 0.00 0.00 0.00 0.01 0.02 0.07 0.19 0.28 0.30 0.29 0.23 0.22 0.23 0.32 0.18 0.06 0.02 0.03 0.00 0.00 0.00 0.00 0.00 0.00 0.00
0.14 0.04 0.03 0.03 0.01 0.01 0.01 0.00 0.00 0.00 0.00 0.00 0.00 0.00 0.00 0.00 0.00 0.00 0.00 0.00 0.00 0.00 0.00 0.00 0.00 0.00 0.00 0.00 0.03 0.09 0.17 0.23 0.24 0.17 0.11 0.13 0.26 0.47 0.35 0.16 0.07 0.14 0.06 0.06 0.03 0.04 0.04 0.03 0.01
0.19 0.07 0.01 0.05 0.10 0.08 0.04 0.02 0.00 0.00 0.00 0.00 0.00 0.00 0.00 0.00 0.00 0.00 0.00 0.00 0.00 0.00 0.00 0.00 0.00 0.00 0.00 0.00 0.00 0.01 0.04 0.10 0.15 0.18 0.19 0.26 0.29 0.46 0.47 0.30 0.21 0.24 0.22 0.18 0.17 0.12 0.11 0.09 0.06
0.22 0.10 0.03 0.09 0.16 0.17 0.11 0.09 0.01 0.00 0.00 0.00 0.00 0.00 0.00 0.00 0.00 0.00 0.00 0.00 0.00 0.00 0.00 0.00 0.00 0.00 0.00 0.00 0.00 0.00 0.04 0.11 0.15 0.17 0.19 0.24 0.30 0.34 0.37 0.33 0.31 0.21 0.22 0.21 0.16 0.14 0.10 0.09 0.07
0.21 0.21 0.21 0.15 0.40 0.43 0.11 0.14 0.07 0.00 0.00 0.00 0.00 0.00 0.00 0.00 0.00 0.00 0.00 0.00 0.00 0.00 0.00 0.00 0.00 0.00 0.00 0.00 0.00 0.00 0.03 0.07 0.07 0.11 0.18 0.21 0.22 0.21 0.22 0.29 0.26 0.32 0.24 0.21 0.20 0.19 0.14 0.09 0.10
0.61 0.75 0.91 0.63 0.61 0.43 0.07 0.06 0.07 0.00 0.00 0.00 0.00 0.00 0.00 0.00 0.00 0.00 0.00 0.00 0.00 0.00 0.00 0.00 0.00 0.00 0.00 0.00 0.00 0.00 0.00 0.04 0.07 0.11 0.13 0.14 0.13 0.11 0.15 0.22 0.23 0.25 0.27 0.27 0.24 0.21 0.16 0.11 0.07
0.59 0.81 0.84 0.36 0.15 0.12 0.05 0.11 0.02 0.00 0.00 0.00 0.00 0.00 0.00 0.00 0.00 0.00 0.00 0.00 0.00 0.00 0.00 0.00 0.00 0.00 0.00 0.00 0.00 0.00 0.00 0.02 0.05 0.06 0.07 0.08 0.10 0.14 0.13 0.16 0.20 0.22 0.22 0.23 0.21 0.20 0.17 0.13 0.08
0.63 0.86 0.49 0.48 0.25 0.25 0.10 0.01 0.00 0.00 0.00 0.00 0.00 0.00 0.00 0.00 0.00 0.00 0.00 0.00 0.00 0.00 0.00 0.00 0.00 0.00 0.00 0.00 0.01 0.00 0.01 0.04 0.06 0.06 0.07 0.09 0.10 0.09 0.10 0.13 0.15 0.15 0.16 0.18 0.18 0.16 0.13 0.11 0.09
0.59 0.37 0.52 1.01 0.54 0.21 0.09 0.03 0.00 0.00 0.00 0.00 0.00 0.00 0.00 0.00 0.00 0.00 0.00 0.00 0.00 0.00 0.00 0.00 0.00 0.00 0.01 0.03 0.01 0.01 0.01 0.04 0.05 0.06 0.07 0.07 0.07 0.06 0.09 0.10 0.09 0.08 0.08 0.08 0.09 0.10 0.10 0.10 0.12
0.72 0.88 0.50 0.42 0.24 0.27 0.06 0.02 0.00 0.00 0.00 0.00 0.00 0.00 0.00 0.00 0.00 0.00 0.00 0.00 0.00 0.00 0.00 0.00 0.00 0.00 0.01 0.01 0.01 0.02 0.03 0.05 0.04 0.06 0.05 0.06 0.05 0.05 0.06 0.05 0.05 0.04 0.04 0.04 0.04 0.03 0.03 0.03 0.05
0.34 0.36 0.31 0.57 0.24 0.33 0.28 0.07 0.00 0.00 0.00 0.00 0.01 0.02 0.01 0.00 0.00 0.00 0.00 0.00 0.00 0.00 0.00 0.00 0.00 0.00 0.01 0.00 0.00 0.00 0.02 0.04 0.05 0.06 0.05 0.04 0.04 0.04 0.03 0.02 0.02 0.02 0.01 0.01 0.01 0.01 0.02 0.02 0.02

GFSSGP_prec_precacc_063.txt.gz
Total_Precipitation_Accumulation
0.00 0.00 0.00 0.00 0.00 0.00 0.00 0.00 0.00 0.00 0.00 0.00 0.00 0.00 0.00 0.00 0.00 0.00 0.00 0.00 0.00 0.00 0.00 0.03 0.07 0.09 0.10 0.11 0.07 0.02 0.01 0.02 0.03 0.03 0.04 0.09 0.04 0.01 0.00 0.01 0.01 0.04 0.04 0.14 0.26 0.21 0.07 0.02 0.02
0.00 0.00 0.00 0.00 0.00 0.00 0.00 0.00 0.00 0.00 0.00 0.00 0.00 0.00 0.00 0.00 0.00 0.00 0.00 0.00 0.00 0.00 0.00 0.01 0.05 0.06 0.10 0.13 0.05 0.02 0.01 0.01 0.02 0.02 0.08 0.08 0.01 0.01 0.00 0.01 0.03 0.03 0.06 0.17 0.11 0.02 0.00 0.00 0.01
0.00 0.00 0.00 0.00 0.00 0.00 0.00 0.00 0.00 0.00 0.00 0.00 0.00 0.00 0.00 0.00 0.00 0.00 0.00 0.00 0.00 0.00 0.00 0.00 0.03 0.05 0.11 0.10 0.04 0.02 0.01 0.01 0.02 0.03 0.06 0.06 0.03 0.02 0.02 0.02 0.03 0.03 0.05 0.02 0.00 0.00 0.00 0.00 0.00
0.00 0.00 0.00 0.00 0.00 0.00 0.00 0.00 0.00 0.00 0.00 0.00 0.00 0.00 0.00 0.00 0.00 0.00 0.00 0.00 0.00 0.00 0.00 0.01 0.03 0.06 0.10 0.05 0.03 0.02 0.02 0.02 0.02 0.03 0.02 0.05 0.07 0.07 0.04 0.01 0.01 0.01 0.00 0.00 0.00 0.00 0.00 0.00 0.00
0.00 0.00 0.00 0.00 0.00 0.00 0.00 0.00 0.00 0.00 0.00 0.00 0.00 0.00 0.00 0.00 0.00 0.00 0.00 0.00 0.00 0.00 0.00 0.00 0.03 0.06 0.08 0.04 0.01 0.01 0.01 0.02 0.02 0.02 0.01 0.04 0.08 0.10 0.07 0.01 0.00 0.00 0.00 0.00 0.00 0.00 0.00 0.00 0.00
0.00 0.00 0.00 0.00 0.00 0.00 0.00 0.00 0.00 0.00 0.00 0.00 0.00 0.00 0.00 0.00 0.00 0.00 0.00 0.00 0.00 0.00 0.00 0.00 0.02 0.06 0.06 0.03 0.01 0.00 0.02 0.02 0.03 0.01 0.00 0.02 0.07 0.09 0.14 0.04 0.00 0.00 0.00 0.00 0.00 0.01 0.01 0.01 0.01
0.00 0.00 0.00 0.00 0.00 0.00 0.00 0.00 0.00 0.00 0.00 0.00 0.00 0.00 0.00 0.00 0.00 0.00 0.00 0.00 0.00 0.00 0.00 0.00 0.01 0.04 0.05 0.04 0.03 0.01 0.01 0.02 0.02 0.02 0.00 0.00 0.02 0.01 0.07 0.06 0.02 0.01 0.01 0.00 0.02 0.02 0.02 0.02 0.01
0.00 0.00 0.00 0.00 0.00 0.00 0.00 0.00 0.00 0.00 0.00 0.00 0.00 0.00 0.00 0.00 0.00 0.00 0.00 0.00 0.00 0.00 0.01 0.00 0.00 0.01 0.02 0.03 0.02 0.01 0.02 0.01 0.01 0.02 0.01 0.00 0.00 0.00 0.03 0.04 0.02 0.00 0.00 0.00 0.01 0.02 0.01 0.01 0.01
0.00 0.00 0.00 0.00 0.00 0.00 0.00 0.00 0.00 0.00 0.00 0.00 0.00 0.00 0.00 0.00 0.00 0.00 0.00 0.00 0.00 0.02 0.04 0.01 0.01 0.00 0.00 0.01 0.01 0.01 0.01 0.01 0.01 0.01 0.00 0.00 0.00 0.00 0.00 0.01 0.00 0.00 0.01 0.00 0.00 0.01 0.01 0.01 0.00
0.00 0.00 0.00 0.00 0.00 0.00 0.00 0.00 0.00 0.00 0.00 0.00 0.00 0.00 0.00 0.00 0.00 0.00 0.00 0.00 0.01 0.02 0.04 0.02 0.00 0.00 0.00 0.00 0.01 0.00 0.00 0.00 0.00 0.00 0.00 0.00 0.00 0.00 0.00 0.00 0.00 0.00 0.00 0.00 0.00 0.01 0.00 0.00 0.00
0.00 0.00 0.00 0.00 0.00 0.00 0.00 0.00 0.00 0.00 0.00 0.00 0.00 0.00 0.00 0.00 0.01 0.01 0.01 0.01 0.01 0.01 0.01 0.00 0.00 0.00 0.00 0.00 0.00 0.00 0.00 0.00 0.00 0.00 0.00 0.00 0.00 0.00 0.00 0.00 0.00 0.00 0.00 0.00 0.00 0.01 0.00 0.00 0.00
0.00 0.00 0.00 0.00 0.00 0.00 0.00 0.00 0.00 0.00 0.00 0.00 0.00 0.00 0.00 0.00 0.01 0.02 0.01 0.01 0.00 0.01 0.01 0.00 0.00 0.00 0.00 0.00 0.00 0.00 0.00 0.00 0.00 0.00 0.00 0.00 0.00 0.00 0.00 0.00 0.00 0.00 0.00 0.00 0.00 0.00 0.00 0.00 0.00
0.00 0.00 0.00 0.00 0.00 0.00 0.00 0.00 0.00 0.00 0.00 0.00 0.00 0.00 0.00 0.00 0.00 0.00 0.00 0.00 0.00 0.01 0.01 0.01 0.00 0.00 0.02 0.01 0.01 0.01 0.00 0.00 0.00 0.00 0.00 0.00 0.00 0.00 0.00 0.00 0.00 0.00 0.00 0.00 0.00 0.00 0.00 0.00 0.00
0.00 0.00 0.00 0.00 0.00 0.00 0.00 0.00 0.00 0.00 0.00 0.00 0.00 0.00 0.00 0.00 0.00 0.00 0.00 0.00 0.00 0.00 0.01 0.02 0.01 0.02 0.02 0.03 0.03 0.02 0.00 0.00 0.00 0.00 0.00 0.00 0.00 0.00 0.00 0.00 0.00 0.00 0.00 0.00 0.00 0.00 0.00 0.00 0.00
0.00 0.01 0.00 0.00 0.00 0.00 0.00 0.00 0.00 0.00 0.00 0.00 0.00 0.00 0.00 0.00 0.00 0.00 0.00 0.00 0.00 0.00 0.01 0.01 0.01 0.02 0.01 0.01 0.05 0.07 0.08 0.02 0.02 0.00 0.00 0.00 0.00 0.00 0.00 0.00 0.00 0.00 0.00 0.00 0.00 0.00 0.00 0.00 0.00
0.03 0.04 0.01 0.00 0.00 0.00 0.01 0.00 0.00 0.00 0.00 0.00 0.00 0.00 0.00 0.00 0.00 0.00 0.00 0.00 0.00 0.00 0.00 0.00 0.03 0.05 0.03 0.03 0.09 0.12 0.12 0.06 0.07 0.03 0.00 0.00 0.00 0.00 0.00 0.00 0.00 0.00 0.00 0.00 0.00 0.00 0.00 0.00 0.00
0.08 0.03 0.01 0.00 0.00 0.00 0.00 0.00 0.00 0.00 0.00 0.00 0.00 0.00 0.00 0.00 0.00 0.00 0.00 0.00 0.00 0.00 0.00 0.00 0.00 0.01 0.07 0.12 0.09 0.22 0.24 0.11 0.08 0.06 0.01 0.00 0.02 0.02 0.00 0.00 0.00 0.00 0.00 0.00 0.00 0.00 0.00 0.00 0.00
0.02 0.01 0.00 0.00 0.00 0.00 0.00 0.00 0.00 0.00 0.00 0.00 0.00 0.00 0.00 0.00 0.00 0.00 0.00 0.00 0.00 0.00 0.00 0.00 0.00 0.00 0.03 0.10 0.18 0.21 0.20 0.14 0.08 0.06 0.03 0.10 0.05 0.06 0.03 0.00 0.00 0.00 0.00 0.00 0.00 0.00 0.00 0.00 0.00
0.01 0.02 0.01 0.00 0.00 0.00 0.00 0.00 0.00 0.00 0.00 0.00 0.00 0.00 0.00 0.00 0.00 0.00 0.00 0.00 0.00 0.00 0.00 0.00 0.00 0.00 0.02 0.05 0.06 0.07 0.15 0.32 0.20 0.16 0.23 0.18 0.15 0.12 0.08 0.04 0.01 0.00 0.00 0.00 0.00 0.00 0.00 0.00 0.00
0.04 0.05 0.04 0.01 0.00 0.01 0.00 0.00 0.00 0.00 0.00 0.00 0.00 0.00 0.00 0.00 0.00 0.00 0.00 0.00 0.00 0.00 0.00 0.00 0.00 0.00 0.00 0.01 0.02 0.07 0.19 0.28 0.30 0.30 0.23 0.23 0.23 0.32 0.18 0.06 0.03 0.05 0.00 0.00 0.00 0.00 0.00 0.00 0.00
0.14 0.04 0.03 0.03 0.01 0.01 0.01 0.00 0.00 0.00 0.00 0.00 0.00 0.00 0.00 0.00 0.00 0.00 0.00 0.00 0.00 0.00 0.00 0.00 0.00 0.00 0.00 0.00 0.03 0.09 0.17 0.23 0.24 0.17 0.11 0.13 0.27 0.47 0.35 0.16 0.08 0.14 0.06 0.06 0.03 0.04 0.04 0.03 0.01
0.19 0.07 0.01 0.05 0.10 0.08 0.04 0.02 0.00 0.00 0.00 0.00 0.00 0.00 0.00 0.00 0.00 0.00 0.00 0.00 0.00 0.00 0.00 0.00 0.00 0.00 0.00 0.00 0.00 0.01 0.04 0.10 0.15 0.18 0.19 0.26 0.29 0.47 0.51 0.34 0.21 0.25 0.23 0.19 0.19 0.14 0.13 0.10 0.06
0.22 0.10 0.03 0.09 0.16 0.17 0.11 0.09 0.01 0.00 0.00 0.00 0.00 0.00 0.00 0.00 0.00 0.00 0.00 0.00 0.00 0.00 0.00 0.00 0.00 0.00 0.00 0.00 0.00 0.00 0.04 0.11 0.15 0.17 0.19 0.24 0.30 0.34 0.37 0.36 0.33 0.23 0.25 0.27 0.21 0.18 0.14 0.13 0.10
0.21 0.21 0.21 0.15 0.40 0.43 0.11 0.14 0.07 0.00 0.00 0.00 0.00 0.00 0.00 0.00 0.00 0.00 0.00 0.00 0.00 0.00 0.00 0.00 0.00 0.00 0.00 0.00 0.00 0.00 0.03 0.07 0.07 0.11 0.18 0.21 0.22 0.21 0.22 0.29 0.27 0.34 0.27 0.25 0.29 0.30 0.25 0.16 0.16
0.62 0.75 0.92 0.64 0.61 0.43 0.07 0.06 0.07 0.00 0.00 0.00 0.00 0.00 0.00 0.00 0.00 0.00 0.00 0.00 0.00 0.00 0.00 0.00 0.00 0.00 0.00 0.00 0.00 0.00 0.00 0.04 0.07 0.11 0.13 0.14 0.13 0.11 0.15 0.22 0.24 0.26 0.28 0.29 0.27 0.27 0.21 0.18 0.15
0.64 0.81 0.85 0.36 0.15 0.12 0.05 0.11 0.02 0.00 0.00 0.00 0.00 0.00 0.00 0.00 0.00 0.00 0.00 0.00 0.00 0.00 0.00 0.00 0.00 0.00 0.00 0.00 0.00 0.00 0.00 0.02 0.05 0.06 0.07 0.08 0.10 0.14 0.13 0.16 0.20 0.23 0.23 0.25 0.23 0.22 0.19 0.17 0.15
0.68 0.87 0.49 0.48 0.25 0.25 0.10 0.01 0.00 0.00 0.00 0.00 0.00 0.00 0.00 0.00 0.00 0.00 0.00 0.00 0.00 0.00 0.00 0.00 0.00 0.00 0.00 0.00 0.01 0.00 0.01 0.04 0.06 0.06 0.07 0.09 0.10 0.09 0.10 0.13 0.15 0.16 0.17 0.19 0.19 0.18 0.16 0.16 0.15
0.59 0.37 0.52 1.01 0.54 0.21 0.09 0.03 0.00 0.00 0.00 0.00 0.00 0.00 0.00 0.00 0.00 0.00 0.00 0.00 0.00 0.00 0.00 0.00 0.00 0.00 0.01 0.03 0.01 0.01 0.01 0.04 0.05 0.06 0.07 0.07 0.07 0.06 0.09 0.10 0.09 0.08 0.08 0.09 0.10 0.11 0.14 0.16 0.18
0.72 0.88 0.50 0.42 0.24 0.27 0.06 0.02 0.00 0.00 0.00 0.00 0.00 0.00 0.00 0.00 0.00 0.00 0.00 0.00 0.00 0.00 0.00 0.00 0.00 0.00 0.01 0.01 0.01 0.02 0.03 0.05 0.04 0.06 0.05 0.06 0.05 0.05 0.06 0.05 0.05 0.04 0.04 0.04 0.05 0.04 0.05 0.05 0.06
0.34 0.36 0.31 0.57 0.24 0.33 0.28 0.07 0.00 0.00 0.00 0.00 0.01 0.02 0.01 0.00 0.00 0.00 0.00 0.00 0.00 0.00 0.00 0.00 0.00 0.00 0.01 0.00 0.00 0.00 0.02 0.04 0.05 0.06 0.05 0.04 0.04 0.04 0.03 0.02 0.02 0.02 0.01 0.01 0.01 0.02 0.03 0.03 0.04

GFSSGP_prec_precacc_066.txt.gz
Total_Precipitation_Accumulation
0.00 0.00 0.00 0.00 0.00 0.00 0.00 0.00 0.00 0.00 0.00 0.00 0.00 0.00 0.00 0.00 0.00 0.00 0.00 0.00 0.00 0.00 0.00 0.03 0.07 0.09 0.10 0.12 0.08 0.03 0.02 0.04 0.05 0.04 0.05 0.10 0.04 0.01 0.00 0.01 0.01 0.04 0.06 0.16 0.26 0.21 0.07 0.02 0.02
0.00 0.00 0.00 0.00 0.00 0.00 0.00 0.00 0.00 0.00 0.00 0.00 0.00 0.00 0.00 0.00 0.00 0.00 0.00 0.00 0.00 0.00 0.00 0.01 0.05 0.06 0.10 0.13 0.05 0.02 0.02 0.02 0.04 0.03 0.08 0.08 0.01 0.01 0.00 0.01 0.03 0.03 0.09 0.19 0.11 0.02 0.00 0.00 0.01
0.00 0.00 0.00 0.00 0.00 0.00 0.00 0.00 0.00 0.00 0.00 0.00 0.00 0.00 0.00 0.00 0.00 0.00 0.00 0.00 0.00 0.00 0.00 0.00 0.03 0.05 0.11 0.10 0.04 0.02 0.02 0.02 0.02 0.03 0.06 0.06 0.03 0.02 0.02 0.02 0.03 0.04 0.06 0.02 0.00 0.00 0.00 0.00 0.00
0.00 0.00 0.00 0.00 0.00 0.00 0.00 0.00 0.00 0.00 0.00 0.00 0.00 0.00 0.00 0.00 0.00 0.00 0.00 0.00 0.00 0.00 0.00 0.01 0.03 0.06 0.10 0.05 0.03 0.02 0.02 0.02 0.02 0.03 0.02 0.05 0.08 0.08 0.04 0.01 0.01 0.01 0.00 0.00 0.00 0.00 0.00 0.00 0.00
0.00 0.00 0.00 0.00 0.00 0.00 0.00 0.00 0.00 0.00 0.00 0.00 0.00 0.00 0.00 0.00 0.00 0.00 0.00 0.00 0.00 0.00 0.00 0.00 0.03 0.06 0.08 0.04 0.01 0.01 0.02 0.02 0.02 0.02 0.01 0.04 0.09 0.11 0.08 0.01 0.00 0.00 0.00 0.00 0.00 0.00 0.00 0.00 0.00
0.01 0.00 0.00 0.00 0.00 0.00 0.00 0.00 0.00 0.00 0.00 0.00 0.00 0.00 0.00 0.00 0.00 0.00 0.00 0.00 0.00 0.00 0.00 0.00 0.02 0.06 0.07 0.03 0.01 0.00 0.02 0.03 0.03 0.01 0.00 0.02 0.07 0.10 0.14 0.04 0.00 0.00 0.00 0.00 0.00 0.01 0.01 0.01 0.01
0.10 0.01 0.00 0.00 0.00 0.00 0.00 0.00 0.00 0.00 0.00 0.00 0.00 0.00 0.00 0.00 0.00 0.00 0.00 0.00 0.00 0.00 0.00 0.00 0.01 0.05 0.06 0.04 0.03 0.01 0.01 0.02 0.03 0.02 0.00 0.00 0.02 0.01 0.07 0.06 0.02 0.01 0.01 0.00 0.02 0.02 0.02 0.02 0.01
0.00 0.03 0.02 0.00 0.00 0.00 0.00 0.00 0.00 0.00 0.00 0.00 0.00 0.00 0.03 0.00 0.00 0.00 0.00 0.00 0.00 0.00 0.01 0.00 0.00 0.01 0.03 0.04 0.03 0.02 0.02 0.02 0.01 0.02 0.01 0.00 0.00 0.00 0.03 0.04 0.02 0.00 0.00 0.00 0.01 0.02 0.01 0.01 0.01
0.00 0.01 0.04 0.01 0.00 0.00 0.00 0.00 0.00 0.00 0.00 0.00 0.00 0.00 0.00 0.01 0.00 0.00 0.00 0.00 0.00 0.02 0.04 0.01 0.01 0.00 0.01 0.01 0.01 0.02 0.03 0.02 0.01 0.01 0.00 0.00 0.00 0.00 0.00 0.01 0.00 0.00 0.01 0.00 0.00 0.01 0.01 0.01 0.00
0.00 0.00 0.00 0.00 0.00 0.00 0.00 0.00 0.00 0.00 0.00 0.00 0.00 0.00 0.00 0.00 0.00 0.00 0.01 0.00 0.01 0.02 0.04 0.02 0.00 0.00 0.00 0.00 0.01 0.00 0.00 0.00 0.00 0.00 0.00 0.00 0.00 0.00 0.00 0.00 0.00 0.00 0.00 0.00 0.00 0.01 0.00 0.00 0.00
0.00 0.00 0.00 0.00 0.00 0.00 0.00 0.00 0.00 0.00 0.00 0.00 0.00 0.00 0.00 0.00 0.01 0.01 0.01 0.01 0.01 0.01 0.01 0.00 0.00 0.00 0.00 0.00 0.00 0.00 0.00 0.00 0.00 0.00 0.00 0.00 0.00 0.00 0.00 0.00 0.00 0.00 0.00 0.00 0.00 0.01 0.00 0.00 0.00
0.00 0.00 0.00 0.00 0.00 0.00 0.00 0.00 0.00 0.00 0.00 0.00 0.00 0.00 0.00 0.00 0.01 0.02 0.01 0.01 0.00 0.01 0.01 0.00 0.00 0.00 0.00 0.00 0.00 0.00 0.00 0.00 0.00 0.00 0.00 0.00 0.00 0.00 0.00 0.00 0.00 0.00 0.00 0.00 0.00 0.00 0.00 0.00 0.00
0.00 0.00 0.00 0.00 0.00 0.00 0.00 0.00 0.00 0.00 0.00 0.00 0.00 0.00 0.00 0.00 0.00 0.00 0.00 0.00 0.00 0.01 0.01 0.01 0.00 0.00 0.02 0.01 0.01 0.01 0.00 0.00 0.00 0.00 0.00 0.00 0.00 0.00 0.00 0.00 0.00 0.00 0.00 0.00 0.00 0.00 0.00 0.00 0.00
0.00 0.00 0.00 0.00 0.00 0.00 0.00 0.00 0.00 0.00 0.00 0.00 0.00 0.00 0.00 0.00 0.00 0.00 0.00 0.00 0.00 0.01 0.01 0.02 0.01 0.02 0.02 0.03 0.03 0.02 0.00 0.00 0.00 0.00 0.00 0.00 0.00 0.00 0.00 0.00 0.00 0.00 0.00 0.00 0.00 0.00 0.00 0.00 0.00
0.00 0.01 0.00 0.00 0.00 0.00 0.00 0.00 0.00 0.00 0.00 0.00 0.00 0.00 0.00 0.00 0.00 0.00 0.00 0.00 0.01 0.00 0.01 0.01 0.01 0.02 0.01 0.01 0.05 0.07 0.08 0.02 0.02 0.00 0.00 0.00 0.00 0.00 0.00 0.00 0.00 0.00 0.00 0.00 0.00 0.00 0.00 0.00 0.00
0.05 0.05 0.02 0.00 0.00 0.00 0.01 0.00 0.00 0.00 0.00 0.00 0.00 0.00 0.00 0.00 0.00 0.00 0.00 0.00 0.00 0.00 0.00 0.01 0.03 0.05 0.03 0.03 0.09 0.12 0.12 0.06 0.07 0.03 0.00 0.00 0.00 0.00 0.00 0.00 0.00 0.00 0.00 0.00 0.00 0.00 0.00 0.00 0.00
0.11 0.04 0.01 0.00 0.00 0.00 0.00 0.00 0.00 0.00 0.00 0.00 0.00 0.00 0.00 0.00 0.00 0.00 0.00 0.00 0.00 0.00 0.00 0.00 0.00 0.01 0.07 0.12 0.09 0.22 0.24 0.11 0.08 0.06 0.01 0.00 0.02 0.02 0.00 0.00 0.00 0.00 0.00 0.00 0.00 0.00 0.00 0.00 0.00
0.03 0.01 0.00 0.00 0.00 0.00 0.00 0.00 0.00 0.00 0.00 0.00 0.00 0.00 0.00 0.00 0.00 0.00 0.00 0.00 0.00 0.00 0.00 0.00 0.00 0.00 0.03 0.10 0.19 0.21 0.21 0.14 0.09 0.06 0.03 0.10 0.05 0.07 0.03 0.01 0.00 0.00 0.00 0.00 0.00 0.00 0.00 0.00 0.00
0.01 0.02 0.01 0.00 0.00 0.00 0.00 0.00 0.00 0.00 0.00 0.00 0.00 0.00 0.00 0.00 0.00 0.00 0.00 0.00 0.00 0.00 0.00 0.00 0.00 0.00 0.02 0.05 0.07 0.08 0.16 0.33 0.21 0.17 0.24 0.19 0.18 0.14 0.09 0.04 0.04 0.01 0.00 0.00 0.00 0.00 0.00 0.00 0.00
0.04 0.05 0.04 0.01 0.00 0.01 0.00 0.00 0.00 0.00 0.00 0.00 0.00 0.00 0.00 0.00 0.00 0.00 0.00 0.00 0.00 0.00 0.00 0.00 0.00 0.00 0.00 0.01 0.02 0.07 0.19 0.28 0.30 0.30 0.24 0.27 0.26 0.35 0.21 0.07 0.04 0.09 0.04 0.01 0.00 0.01 0.02 0.00 0.01
0.14 0.04 0.03 0.03 0.01 0.01 0.01 0.00 0.00 0.00 0.00 0.00 0.00 0.00 0.00 0.00 0.00 0.00 0.00 0.00 0.00 0.00 0.00 0.00 0.00 0.00 0.00 0.00 0.03 0.09 0.17 0.23 0.24 0.17 0.11 0.14 0.30 0.53 0.40 0.17 0.08 0.16 0.10 0.11 0.08 0.07 0.11 0.07 0.04
0.19 0.07 0.01 0.05 0.10 0.08 0.04 0.02 0.00 0.00 0.00 0.00 0.00 0.00 0.00 0.00 0.00 0.00 0.00 0.00 0.00 0.00 0.00 0.00 0.00 0.00 0.00 0.00 0.00 0.01 0.04 0.10 0.15 0.18 0.19 0.26 0.29 0.47 0.53 0.38 0.23 0.26 0.24 0.21 0.23 0.18 0.22 0.19 0.09
0.23 0.10 0.03 0.09 0.16 0.17 0.11 0.09 0.01 0.00 0.00 0.00 0.00 0.00 0.00 0.00 0.00 0.00 0.00 0.00 0.00 0.00 0.00 0.00 0.00 0.00 0.00 0.00 0.00 0.00 0.04 0.11 0.15 0.17 0.19 0.24 0.30 0.34 0.38 0.37 0.36 0.25 0.26 0.29 0.24 0.23 0.18 0.21 0.17
0.23 0.22 0.21 0.15 0.40 0.43 0.11 0.14 0.07 0.00 0.00 0.00 0.00 0.00 0.00 0.00 0.00 0.00 0.00 0.00 0.00 0.00 0.00 0.00 0.00 0.00 0.00 0.00 0.00 0.00 0.03 0.07 0.07 0.11 0.18 0.21 0.22 0.21 0.23 0.29 0.27 0.34 0.28 0.26 0.30 0.32 0.31 0.23 0.27
0.63 0.75 0.93 0.65 0.61 0.43 0.07 0.06 0.07 0.00 0.00 0.00 0.00 0.00 0.00 0.00 0.00 0.00 0.00 0.00 0.00 0.00 0.00 0.00 0.00 0.00 0.00 0.00 0.00 0.00 0.00 0.04 0.07 0.11 0.13 0.14 0.13 0.11 0.16 0.24 0.24 0.27 0.29 0.30 0.28 0.29 0.24 0.23 0.23
0.64 0.82 0.86 0.36 0.15 0.12 0.05 0.11 0.02 0.00 0.00 0.00 0.00 0.00 0.00 0.00 0.00 0.00 0.00 0.00 0.00 0.00 0.00 0.00 0.00 0.00 0.00 0.00 0.00 0.00 0.00 0.02 0.05 0.06 0.07 0.08 0.10 0.14 0.13 0.16 0.21 0.23 0.24 0.26 0.25 0.24 0.22 0.19 0.19
0.71 0.88 0.49 0.48 0.25 0.25 0.10 0.01 0.00 0.00 0.00 0.00 0.00 0.00 0.00 0.00 0.00 0.00 0.00 0.00 0.00 0.00 0.00 0.00 0.00 0.00 0.00 0.00 0.01 0.00 0.01 0.04 0.06 0.06 0.07 0.09 0.10 0.09 0.10 0.13 0.15 0.16 0.17 0.21 0.22 0.20 0.18 0.20 0.20
0.64 0.38 0.52 1.01 0.54 0.21 0.09 0.03 0.00 0.00 0.00 0.00 0.00 0.00 0.00 0.00 0.00 0.00 0.00 0.00 0.00 0.00 0.00 0.00 0.00 0.00 0.01 0.03 0.01 0.01 0.01 0.04 0.05 0.06 0.07 0.07 0.07 0.06 0.09 0.10 0.09 0.08 0.09 0.09 0.11 0.13 0.16 0.19 0.23
0.74 0.89 0.50 0.42 0.24 0.27 0.06 0.02 0.00 0.00 0.00 0.00 0.00 0.00 0.00 0.00 0.00 0.00 0.00 0.00 0.00 0.00 0.00 0.00 0.00 0.00 0.01 0.01 0.01 0.02 0.03 0.05 0.04 0.06 0.05 0.06 0.05 0.05 0.06 0.05 0.05 0.04 0.04 0.04 0.05 0.04 0.06 0.08 0.09
0.34 0.36 0.31 0.57 0.24 0.33 0.28 0.07 0.00 0.00 0.00 0.00 0.01 0.02 0.01 0.00 0.00 0.00 0.00 0.00 0.00 0.00 0.00 0.00 0.00 0.00 0.01 0.00 0.00 0.00 0.02 0.04 0.05 0.06 0.05 0.04 0.04 0.04 0.03 0.02 0.02 0.02 0.01 0.01 0.02 0.03 0.04 0.05 0.06

GFSSGP_prec_precacc_069.txt.gz
Total_Precipitation_Accumulation
0.00 0.00 0.00 0.00 0.00 0.00 0.00 0.00 0.00 0.00 0.00 0.00 0.00 0.00 0.00 0.00 0.00 0.00 0.00 0.00 0.00 0.00 0.00 0.03 0.08 0.09 0.10 0.13 0.08 0.03 0.02 0.05 0.06 0.06 0.06 0.10 0.04 0.01 0.00 0.01 0.01 0.05 0.07 0.16 0.26 0.21 0.07 0.02 0.02
0.00 0.00 0.00 0.00 0.00 0.00 0.00 0.00 0.00 0.00 0.00 0.00 0.00 0.00 0.00 0.00 0.00 0.00 0.00 0.00 0.00 0.00 0.00 0.01 0.05 0.06 0.10 0.13 0.05 0.02 0.02 0.03 0.05 0.03 0.08 0.08 0.01 0.01 0.00 0.01 0.03 0.05 0.10 0.19 0.11 0.02 0.00 0.00 0.01
0.00 0.01 0.00 0.00 0.00 0.00 0.00 0.00 0.00 0.00 0.00 0.00 0.00 0.00 0.00 0.00 0.00 0.00 0.00 0.00 0.00 0.00 0.00 0.00 0.03 0.05 0.11 0.10 0.04 0.02 0.03 0.02 0.02 0.03 0.06 0.06 0.04 0.02 0.02 0.02 0.03 0.05 0.06 0.02 0.00 0.00 0.00 0.00 0.00
0.00 0.01 0.00 0.00 0.00 0.00 0.00 0.00 0.00 0.00 0.00 0.00 0.00 0.00 0.00 0.00 0.00 0.00 0.00 0.00 0.00 0.00 0.00 0.01 0.03 0.06 0.10 0.05 0.03 0.02 0.03 0.02 0.02 0.03 0.02 0.05 0.08 0.08 0.05 0.02 0.01 0.01 0.00 0.00 0.00 0.00 0.00 0.00 0.00
0.00 0.01 0.00 0.00 0.00 0.00 0.00 0.00 0.00 0.00 0.00 0.00 0.00 0.00 0.00 0.00 0.00 0.00 0.00 0.00 0.00 0.00 0.00 0.00 0.03 0.06 0.08 0.04 0.01 0.01 0.02 0.02 0.02 0.02 0.01 0.04 0.10 0.11 0.08 0.01 0.00 0.00 0.00 0.00 0.00 0.00 0.00 0.00 0.00
0.02 0.03 0.02 0.00 0.00 0.00 0.00 0.00 0.00 0.00 0.00 0.00 0.00 0.00 0.01 0.00 0.00 0.00 0.00 0.00 0.00 0.00 0.00 0.00 0.02 0.07 0.07 0.04 0.01 0.00 0.02 0.03 0.03 0.01 0.00 0.02 0.08 0.10 0.14 0.04 0.00 0.00 0.00 0.00 0.00 0.01 0.01 0.01 0.01
0.18 0.03 0.01 0.00 0.00 0.00 0.00 0.00 0.00 0.00 0.00 0.00 0.00 0.01 0.06 0.02 0.00 0.02 0.01 0.00 0.00 0.00 0.00 0.00 0.01 0.05 0.07 0.05 0.03 0.01 0.01 0.02 0.03 0.03 0.00 0.00 0.02 0.01 0.07 0.06 0.02 0.01 0.01 0.00 0.02 0.02 0.02 0.02 0.01
0.07 0.18 0.04 0.00 0.00 0.00 0.00 0.00 0.00 0.00 0.00 0.00 0.00 0.00 0.07 0.03 0.00 0.01 0.00 0.01 0.00 0.00 0.01 0.00 0.00 0.02 0.04 0.04 0.03 0.02 0.02 0.02 0.01 0.02 0.01 0.00 0.00 0.00 0.03 0.04 0.02 0.00 0.00 0.00 0.01 0.02 0.01 0.01 0.01
0.01 0.14 0.19 0.02 0.00 0.00 0.00 0.00 0.00 0.00 0.00 0.00 0.00 0.00 0.01 0.02 0.01 0.01 0.02 0.01 0.02 0.02 0.04 0.01 0.01 0.00 0.01 0.01 0.01 0.02 0.03 0.02 0.01 0.01 0.00 0.00 0.00 0.00 0.00 0.01 0.00 0.00 0.01 0.00 0.00 0.01 0.01 0.01 0.00
0.00 0.00 0.01 0.00 0.00 0.00 0.00 0.00 0.00 0.00 0.00 0.00 0.00 0.00 0.00 0.00 0.01 0.01 0.01 0.01 0.02 0.02 0.04 0.02 0.00 0.00 0.00 0.00 0.01 0.00 0.00 0.00 0.00 0.00 0.00 0.00 0.00 0.00 0.00 0.00 0.00 0.00 0.00 0.00 0.00 0.01 0.00 0.00 0.00
0.00 0.00 0.00 0.00 0.00 0.01 0.00 0.00 0.00 0.00 0.00 0.00 0.00 0.00 0.00 0.00 0.01 0.04 0.02 0.01 0.02 0.01 0.01 0.00 0.00 0.00 0.00 0.00 0.00 0.00 0.00 0.00 0.00 0.00 0.00 0.00 0.00 0.00 0.00 0.00 0.00 0.00 0.00 0.00 0.00 0.01 0.00 0.00 0.00
0.00 0.00 0.00 0.00 0.00 0.01 0.00 0.00 0.00 0.00 0.00 0.00 0.00 0.00 0.00 0.00 0.01 0.02 0.02 0.03 0.02 0.01 0.01 0.00 0.00 0.00 0.00 0.00 0.00 0.00 0.00 0.00 0.00 0.00 0.00 0.00 0.00 0.00 0.00 0.00 0.00 0.00 0.00 0.00 0.00 0.00 0.00 0.00 0.00
0.00 0.00 0.00 0.00 0.00 0.00 0.00 0.00 0.00 0.00 0.00 0.00 0.00 0.00 0.00 0.00 0.00 0.00 0.00 0.01 0.01 0.01 0.01 0.01 0.00 0.00 0.02 0.01 0.01 0.01 0.00 0.00 0.00 0.00 0.00 0.00 0.00 0.00 0.00 0.00 0.00 0.00 0.00 0.00 0.00 0.00 0.00 0.00 0.00
0.00 0.00 0.00 0.00 0.00 0.00 0.00 0.00 0.00 0.00 0.00 0.00 0.00 0.00 0.00 0.00 0.00 0.00 0.00 0.00 0.01 0.01 0.01 0.02 0.01 0.02 0.02 0.03 0.03 0.02 0.00 0.00 0.00 0.00 0.00 0.00 0.00 0.00 0.00 0.00 0.00 0.00 0.00 0.00 0.00 0.00 0.00 0.00 0.00
0.02 0.01 0.01 0.00 0.00 0.00 0.00 0.00 0.00 0.00 0.00 0.00 0.00 0.00 0.00 0.00 0.00 0.00 0.00 0.00 0.01 0.01 0.01 0.01 0.01 0.02 0.01 0.01 0.05 0.07 0.08 0.02 0.02 0.00 0.00 0.00 0.00 0.00 0.00 0.00 0.00 0.00 0.00 0.00 0.00 0.00 0.00 0.00 0.00
0.09 0.05 0.02 0.00 0.00 0.00 0.01 0.00 0.00 0.00 0.00 0.00 0.00 0.00 0.00 0.00 0.00 0.00 0.00 0.00 0.00 0.00 0.00 0.01 0.03 0.06 0.03 0.03 0.09 0.12 0.12 0.06 0.07 0.03 0.00 0.00 0.00 0.00 0.00 0.00 0.00 0.00 0.00 0.00 0.00 0.00 0.00 0.00 0.00
0.16 0.05 0.01 0.00 0.00 0.00 0.00 0.00 0.00 0.00 0.00 0.00 0.00 0.00 0.00 0.00 0.00 0.00 0.00 0.00 0.00 0.00 0.00 0.00 0.00 0.02 0.09 0.15 0.10 0.22 0.24 0.11 0.08 0.06 0.01 0.00 0.02 0.02 0.00 0.00 0.00 0.00 0.00 0.00 0.00 0.00 0.00 0.00 0.00
0.03 0.02 0.00 0.00 0.00 0.00 0.00 0.00 0.00 0.00 0.00 0.00 0.00 0.00 0.00 0.00 0.00 0.00 0.00 0.00 0.00 0.00 0.00 0.00 0.00 0.00 0.03 0.10 0.19 0.23 0.24 0.15 0.09 0.06 0.03 0.12 0.06 0.07 0.03 0.01 0.00 0.00 0.00 0.00 0.00 0.00 0.00 0.00 0.00
0.01 0.02 0.01 0.00 0.00 0.00 0.00 0.00 0.00 0.00 0.00 0.00 0.00 0.00 0.00 0.00 0.00 0.00 0.00 0.00 0.00 0.00 0.00 0.00 0.00 0.00 0.02 0.05 0.07 0.08 0.17 0.37 0.22 0.17 0.27 0.25 0.22 0.16 0.10 0.05 0.04 0.02 0.00 0.00 0.00 0.00 0.00 0.00 0.00
0.05 0.05 0.04 0.01 0.00 0.01 0.00 0.00 0.00 0.00 0.00 0.00 0.00 0.00 0.00 0.00 0.00 0.00 0.00 0.00 0.00 0.00 0.00 0.00 0.00 0.00 0.00 0.01 0.02 0.07 0.19 0.28 0.30 0.30 0.24 0.29 0.30 0.40 0.25 0.10 0.07 0.13 0.09 0.03 0.01 0.02 0.05 0.03 0.02
0.14 0.04 0.03 0.03 0.01 0.01 0.01 0.00 0.00 0.00 0.00 0.00 0.00 0.00 0.00 0.00 0.00 0.00 0.00 0.00 0.00 0.00 0.00 0.00 0.00 0.00 0.00 0.00 0.03 0.09 0.17 0.23 0.24 0.17 0.11 0.14 0.30 0.55 0.44 0.24 0.13 0.20 0.16 0.19 0.11 0.08 0.13 0.16 0.13
0.19 0.07 0.01 0.05 0.10 0.08 0.04 0.02 0.00 0.00 0.00 0.00 0.00 0.00 0.00 0.00 0.00 0.00 0.00 0.00 0.00 0.00 0.00 0.00 0.00 0.00 0.00 0.00 0.00 0.01 0.04 0.10 0.15 0.18 0.19 0.26 0.29 0.47 0.53 0.41 0.28 0.31 0.29 0.25 0.28 0.24 0.25 0.27 0.18
0.23 0.10 0.03 0.09 0.16 0.17 0.11 0.09 0.01 0.00 0.00 0.00 0.00 0.00 0.00 0.00 0.00 0.00 0.00 0.00 0.00 0.00 0.00 0.00 0.00 0.00 0.00 0.00 0.00 0.00 0.04 0.11 0.15 0.17 0.19 0.24 0.30 0.35 0.38 0.37 0.37 0.29 0.31 0.35 0.33 0.33 0.27 0.31 0.29
0.25 0.23 0.21 0.15 0.41 0.43 0.11 0.14 0.07 0.00 0.00 0.00 0.00 0.00 0.00 0.00 0.00 0.00 0.00 0.00 0.00 0.00 0.00 0.00 0.00 0.00 0.00 0.00 0.00 0.00 0.03 0.07 0.07 0.11 0.18 0.21 0.22 0.21 0.23 0.30 0.28 0.36 0.29 0.27 0.32 0.36 0.37 0.32 0.39
0.68 0.78 0.94 0.67 0.62 0.43 0.07 0.06 0.07 0.00 0.00 0.00 0.00 0.00 0.00 0.00 0.00 0.00 0.00 0.00 0.00 0.00 0.00 0.00 0.00 0.00 0.00 0.00 0.00 0.00 0.00 0.04 0.07 0.11 0.13 0.14 0.13 0.11 0.16 0.24 0.26 0.28 0.29 0.30 0.29 0.30 0.25 0.27 0.29
0.78 0.83 0.86 0.37 0.15 0.12 0.05 0.11 0.02 0.00 0.00 0.00 0.00 0.00 0.00 0.00 0.00 0.00 0.00 0.00 0.00 0.00 0.00 0.00 0.00 0.00 0.00 0.00 0.00 0.00 0.00 0.02 0.05 0.06 0.07 0.08 0.10 0.14 0.13 0.16 0.21 0.23 0.24 0.26 0.25 0.25 0.23 0.21 0.22
0.86 0.88 0.49 0.48 0.25 0.25 0.10 0.01 0.00 0.00 0.00 0.00 0.00 0.00 0.00 0.00 0.00 0.00 0.00 0.00 0.00 0.00 0.00 0.00 0.00 0.00 0.00 0.00 0.01 0.00 0.01 0.04 0.06 0.06 0.07 0.09 0.10 0.09 0.10 0.13 0.15 0.16 0.17 0.21 0.22 0.21 0.19 0.21 0.22
0.68 0.39 0.53 1.01 0.54 0.21 0.09 0.03 0.00 0.00 0.00 0.00 0.00 0.00 0.00 0.00 0.00 0.00 0.00 0.00 0.00 0.00 0.00 0.00 0.00 0.00 0.01 0.03 0.01 0.01 0.01 0.04 0.05 0.06 0.07 0.07 0.07 0.06 0.09 0.10 0.09 0.08 0.09 0.09 0.11 0.13 0.16 0.19 0.23
0.78 0.93 0.51 0.42 0.24 0.27 0.06 0.02 0.00 0.00 0.00 0.00 0.00 0.00 0.00 0.00 0.00 0.00 0.00 0.00 0.00 0.00 0.00 0.00 0.00 0.00 0.01 0.01 0.01 0.02 0.03 0.05 0.04 0.06 0.05 0.06 0.05 0.05 0.06 0.05 0.05 0.04 0.04 0.04 0.05 0.04 0.06 0.08 0.10
0.34 0.36 0.31 0.57 0.24 0.33 0.28 0.07 0.00 0.00 0.00 0.00 0.01 0.02 0.01 0.00 0.00 0.00 0.00 0.00 0.00 0.00 0.00 0.00 0.00 0.00 0.01 0.00 0.00 0.00 0.02 0.04 0.05 0.06 0.05 0.04 0.04 0.04 0.03 0.02 0.02 0.02 0.01 0.01 0.02 0.03 0.04 0.06 0.07

GFSSGP_prec_precacc_072.txt.gz
Total_Precipitation_Accumulation
0.00 0.00 0.00 0.00 0.00 0.00 0.00 0.00 0.00 0.00 0.00 0.00 0.00 0.00 0.00 0.00 0.00 0.00 0.00 0.00 0.00 0.00 0.00 0.03 0.08 0.09 0.11 0.13 0.08 0.03 0.02 0.05 0.07 0.06 0.07 0.10 0.04 0.01 0.00 0.01 0.03 0.06 0.07 0.16 0.26 0.21 0.07 0.02 0.02
0.00 0.00 0.00 0.00 0.00 0.00 0.00 0.00 0.00 0.00 0.00 0.00 0.00 0.00 0.00 0.00 0.00 0.00 0.00 0.00 0.00 0.00 0.00 0.01 0.05 0.06 0.10 0.14 0.05 0.02 0.02 0.04 0.06 0.04 0.08 0.08 0.01 0.01 0.00 0.01 0.04 0.06 0.10 0.19 0.11 0.02 0.00 0.00 0.01
0.00 0.01 0.00 0.00 0.00 0.00 0.00 0.00 0.00 0.00 0.00 0.00 0.00 0.00 0.00 0.00 0.00 0.00 0.00 0.00 0.00 0.00 0.00 0.01 0.03 0.06 0.11 0.10 0.04 0.02 0.04 0.03 0.02 0.03 0.06 0.06 0.04 0.02 0.02 0.03 0.05 0.06 0.06 0.02 0.00 0.00 0.00 0.00 0.00
0.00 0.01 0.00 0.00 0.00 0.00 0.00 0.00 0.00 0.00 0.00 0.00 0.00 0.00 0.00 0.00 0.00 0.00 0.00 0.00 0.00 0.00 0.00 0.01 0.03 0.06 0.10 0.05 0.03 0.02 0.04 0.02 0.02 0.03 0.02 0.05 0.08 0.09 0.05 0.02 0.01 0.01 0.00 0.00 0.00 0.00 0.00 0.00 0.00
0.00 0.01 0.00 0.00 0.00 0.00 0.00 0.00 0.00 0.00 0.00 0.00 0.00 0.00 0.00 0.00 0.00 0.00 0.00 0.00 0.00 0.00 0.00 0.01 0.04 0.06 0.08 0.04 0.01 0.01 0.02 0.02 0.02 0.02 0.01 0.05 0.10 0.12 0.09 0.01 0.00 0.00 0.00 0.00 0.00 0.00 0.00 0.00 0.00
0.02 0.03 0.02 0.00 0.00 0.00 0.00 0.00 0.00 0.00 0.00 0.00 0.00 0.00 0.01 0.01 0.00 0.01 0.00 0.00 0.00 0.00 0.00 0.00 0.02 0.07 0.07 0.04 0.01 0.00 0.02 0.03 0.03 0.01 0.01 0.03 0.08 0.10 0.15 0.04 0.00 0.00 0.00 0.00 0.00 0.01 0.01 0.01 0.01
0.20 0.03 0.02 0.00 0.00 0.00 0.00 0.00 0.00 0.00 0.00 0.00 0.00 0.01 0.07 0.02 0.01 0.03 0.01 0.00 0.00 0.00 0.00 0.00 0.01 0.06 0.07 0.05 0.03 0.01 0.01 0.02 0.03 0.03 0.01 0.01 0.02 0.01 0.07 0.06 0.02 0.01 0.01 0.00 0.02 0.02 0.02 0.02 0.01
0.12 0.19 0.05 0.01 0.01 0.00 0.00 0.00 0.00 0.00 0.00 0.00 0.00 0.01 0.07 0.03 0.00 0.02 0.00 0.01 0.00 0.00 0.01 0.00 0.00 0.03 0.05 0.04 0.03 0.02 0.02 0.02 0.01 0.02 0.01 0.00 0.00 0.00 0.03 0.04 0.02 0.00 0.00 0.00 0.01 0.02 0.01 0.01 0.01
0.09 0.22 0.24 0.02 0.03 0.00 0.00 0.00 0.00 0.00 0.00 0.00 0.00 0.00 0.01 0.02 0.01 0.03 0.03 0.01 0.02 0.02 0.04 0.01 0.01 0.00 0.01 0.01 0.01 0.02 0.03 0.02 0.01 0.01 0.00 0.00 0.00 0.00 0.00 0.01 0.00 0.00 0.01 0.00 0.00 0.01 0.01 0.01 0.00
0.06 0.13 0.06 0.00 0.00 0.03 0.03 0.00 0.00 0.00 0.00 0.00 0.00 0.00 0.00 0.02 0.04 0.07 0.04 0.02 0.03 0.02 0.04 0.02 0.00 0.00 0.00 0.00 0.01 0.00 0.00 0.00 0.00 0.00 0.00 0.00 0.00 0.00 0.00 0.00 0.00 0.00 0.00 0.00 0.00 0.01 0.00 0.00 0.00
0.00 0.02 0.00 0.00 0.01 0.10 0.04 0.01 0.00 0.00 0.00 0.00 0.00 0.00 0.01 0.05 0.11 0.11 0.08 0.05 0.03 0.01 0.01 0.00 0.00 0.00 0.00 0.00 0.00 0.00 0.00 0.00 0.00 0.00 0.00 0.00 0.00 0.00 0.00 0.00 0.00 0.00 0.00 0.00 0.00 0.01 0.00 0.00 0.00
0.00 0.00 0.00 0.00 0.03 0.08 0.08 0.03 0.00 0.00 0.00 0.00 0.00 0.00 0.00 0.00 0.04 0.06 0.07 0.07 0.03 0.01 0.01 0.00 0.00 0.00 0.00 0.00 0.00 0.00 0.00 0.00 0.00 0.00 0.00 0.00 0.00 0.00 0.00 0.00 0.00 0.00 0.00 0.00 0.00 0.00 0.00 0.00 0.00
0.01 0.00 0.00 0.00 0.00 0.01 0.05 0.07 0.00 0.00 0.00 0.00 0.00 0.00 0.00 0.00 0.01 0.02 0.03 0.04 0.02 0.01 0.01 0.01 0.00 0.00 0.02 0.01 0.01 0.01 0.00 0.00 0.00 0.00 0.00 0.00 0.00 0.00 0.00 0.00 0.00 0.00 0.00 0.00 0.00 0.00 0.00 0.00 0.00
0.01 0.00 0.00 0.00 0.00 0.00 0.01 0.02 0.00 0.00 0.00 0.00 0.00 0.00 0.00 0.00 0.00 0.00 0.00 0.01 0.02 0.01 0.01 0.02 0.01 0.02 0.02 0.03 0.03 0.02 0.00 0.00 0.00 0.00 0.00 0.00 0.00 0.00 0.00 0.00 0.00 0.00 0.00 0.00 0.00 0.00 0.00 0.00 0.00
0.04 0.03 0.03 0.00 0.00 0.00 0.00 0.00 0.00 0.00 0.00 0.00 0.00 0.00 0.00 0.00 0.00 0.00 0.00 0.00 0.01 0.02 0.01 0.01 0.01 0.02 0.01 0.01 0.05 0.07 0.08 0.02 0.02 0.00 0.00 0.00 0.00 0.00 0.00 0.00 0.00 0.00 0.00 0.00 0.00 0.00 0.00 0.00 0.00
0.13 0.07 0.03 0.00 0.00 0.00 0.01 0.00 0.00 0.00 0.00 0.00 0.00 0.00 0.00 0.00 0.00 0.00 0.00 0.00 0.01 0.00 0.00 0.01 0.03 0.07 0.03 0.03 0.09 0.12 0.12 0.06 0.07 0.03 0.00 0.00 0.00 0.00 0.00 0.00 0.00 0.00 0.00 0.00 0.00 0.00 0.00 0.00 0.00
0.18 0.05 0.01 0.00 0.00 0.00 0.00 0.00 0.00 0.00 0.00 0.00 0.00 0.00 0.00 0.00 0.00 0.00 0.00 0.00 0.00 0.00 0.00 0.00 0.00 0.04 0.09 0.15 0.10 0.22 0.24 0.11 0.08 0.06 0.01 0.00 0.02 0.02 0.00 0.00 0.00 0.00 0.00 0.00 0.00 0.00 0.00 0.00 0.00
0.03 0.02 0.00 0.00 0.00 0.00 0.00 0.00 0.00 0.00 0.00 0.00 0.00 0.00 0.00 0.00 0.00 0.00 0.00 0.00 0.00 0.00 0.00 0.00 0.00 0.00 0.03 0.10 0.20 0.24 0.24 0.15 0.09 0.06 0.03 0.12 0.06 0.07 0.03 0.01 0.00 0.00 0.00 0.00 0.00 0.00 0.00 0.00 0.00
0.01 0.02 0.01 0.00 0.00 0.00 0.00 0.00 0.00 0.00 0.00 0.00 0.00 0.00 0.00 0.00 0.00 0.00 0.00 0.00 0.00 0.00 0.00 0.00 0.00 0.00 0.02 0.05 0.07 0.08 0.18 0.39 0.25 0.21 0.31 0.29 0.24 0.19 0.10 0.05 0.04 0.02 0.00 0.00 0.00 0.00 0.00 0.00 0.01
0.05 0.05 0.04 0.01 0.00 0.01 0.00 0.00 0.00 0.00 0.00 0.00 0.00 0.00 0.00 0.00 0.00 0.00 0.00 0.00 0.00 0.00 0.00 0.00 0.00 0.00 0.00 0.01 0.02 0.07 0.19 0.28 0.30 0.31 0.26 0.32 0.33 0.43 0.28 0.13 0.08 0.16 0.13 0.06 0.03 0.03 0.06 0.04 0.11
0.14 0.04 0.03 0.03 0.01 0.01 0.01 0.00 0.00 0.00 0.00 0.00 0.00 0.00 0.00 0.00 0.00 0.00 0.00 0.00 0.00 0.00 0.00 0.00 0.00 0.00 0.00 0.00 0.03 0.09 0.17 0.23 0.24 0.17 0.11 0.14 0.31 0.55 0.44 0.25 0.14 0.21 0.19 0.21 0.14 0.12 0.16 0.18 0.19
0.19 0.07 0.01 0.05 0.10 0.08 0.04 0.02 0.00 0.00 0.00 0.00 0.00 0.00 0.00 0.00 0.00 0.00 0.00 0.00 0.00 0.00 0.00 0.00 0.00 0.00 0.00 0.00 0.00 0.01 0.04 0.10 0.15 0.18 0.19 0.26 0.29 0.47 0.53 0.41 0.28 0.31 0.29 0.26 0.30 0.30 0.31 0.34 0.23
0.24 0.10 0.03 0.09 0.16 0.17 0.11 0.09 0.01 0.00 0.00 0.00 0.00 0.00 0.00 0.00 0.00 0.00 0.00 0.00 0.00 0.00 0.00 0.00 0.00 0.00 0.00 0.00 0.00 0.00 0.04 0.11 0.15 0.17 0.19 0.24 0.30 0.35 0.38 0.38 0.38 0.30 0.34 0.38 0.37 0.37 0.31 0.40 0.38
0.25 0.23 0.21 0.15 0.41 0.44 0.11 0.14 0.07 0.00 0.00 0.00 0.00 0.00 0.00 0.00 0.00 0.00 0.00 0.00 0.00 0.00 0.00 0.00 0.00 0.00 0.00 0.00 0.00 0.00 0.03 0.07 0.07 0.11 0.18 0.21 0.22 0.21 0.23 0.30 0.28 0.36 0.29 0.28 0.33 0.38 0.39 0.35 0.43
0.69 0.79 0.96 0.70 0.65 0.44 0.07 0.06 0.07 0.00 0.00 0.00 0.00 0.00 0.00 0.00 0.00 0.00 0.00 0.00 0.00 0.00 0.00 0.00 0.00 0.00 0.00 0.00 0.00 0.00 0.00 0.04 0.07 0.11 0.13 0.14 0.13 0.11 0.16 0.24 0.26 0.28 0.29 0.30 0.29 0.30 0.25 0.28 0.31
0.79 0.85 0.87 0.37 0.15 0.12 0.05 0.11 0.02 0.00 0.00 0.00 0.00 0.00 0.00 0.00 0.00 0.00 0.00 0.00 0.00 0.00 0.00 0.00 0.00 0.00 0.00 0.00 0.00 0.00 0.00 0.02 0.05 0.06 0.07 0.08 0.10 0.14 0.13 0.16 0.21 0.23 0.24 0.26 0.25 0.25 0.23 0.21 0.22
0.99 0.96 0.49 0.48 0.25 0.25 0.10 0.01 0.00 0.00 0.00 0.00 0.00 0.00 0.00 0.00 0.00 0.00 0.00 0.00 0.00 0.00 0.00 0.00 0.00 0.00 0.00 0.00 0.01 0.00 0.01 0.04 0.06 0.06 0.07 0.09 0.10 0.09 0.10 0.13 0.15 0.16 0.17 0.21 0.22 0.21 0.19 0.21 0.22
0.81 0.45 0.56 1.01 0.54 0.21 0.09 0.03 0.00 0.00 0.00 0.00 0.00 0.00 0.00 0.00 0.00 0.00 0.00 0.00 0.00 0.00 0.00 0.00 0.00 0.00 0.01 0.03 0.01 0.01 0.01 0.04 0.05 0.06 0.07 0.07 0.07 0.06 0.09 0.10 0.09 0.08 0.09 0.09 0.11 0.13 0.16 0.19 0.23
0.81 1.00 0.51 0.42 0.24 0.27 0.06 0.02 0.00 0.00 0.00 0.00 0.00 0.00 0.00 0.00 0.00 0.00 0.00 0.00 0.00 0.00 0.00 0.00 0.00 0.00 0.01 0.01 0.01 0.02 0.03 0.05 0.04 0.06 0.05 0.06 0.05 0.05 0.06 0.05 0.05 0.04 0.04 0.04 0.05 0.04 0.06 0.08 0.10
0.35 0.37 0.31 0.57 0.24 0.33 0.28 0.07 0.00 0.00 0.00 0.00 0.01 0.02 0.01 0.00 0.00 0.00 0.00 0.00 0.00 0.00 0.00 0.00 0.00 0.00 0.01 0.00 0.00 0.00 0.02 0.04 0.05 0.06 0.05 0.04 0.04 0.04 0.03 0.02 0.02 0.02 0.01 0.01 0.02 0.03 0.04 0.06 0.07

GFSSGP_prec_precacc_075.txt.gz
Total_Precipitation_Accumulation
0.00 0.00 0.00 0.00 0.00 0.00 0.00 0.00 0.00 0.00 0.00 0.00 0.00 0.00 0.00 0.00 0.00 0.00 0.00 0.00 0.00 0.00 0.00 0.03 0.08 0.09 0.11 0.14 0.08 0.03 0.02 0.05 0.07 0.06 0.07 0.10 0.04 0.01 0.00 0.02 0.04 0.06 0.07 0.16 0.26 0.21 0.07 0.02 0.02
0.00 0.00 0.00 0.00 0.00 0.00 0.00 0.00 0.00 0.00 0.00 0.00 0.00 0.00 0.00 0.00 0.00 0.00 0.00 0.00 0.00 0.00 0.00 0.01 0.06 0.07 0.10 0.14 0.05 0.02 0.03 0.04 0.06 0.04 0.08 0.08 0.01 0.01 0.00 0.02 0.05 0.06 0.10 0.19 0.11 0.02 0.00 0.00 0.01
0.00 0.01 0.00 0.00 0.00 0.00 0.00 0.00 0.00 0.00 0.00 0.00 0.00 0.00 0.00 0.00 0.00 0.00 0.00 0.00 0.00 0.00 0.00 0.01 0.04 0.06 0.11 0.10 0.04 0.03 0.05 0.03 0.02 0.03 0.06 0.06 0.04 0.02 0.02 0.04 0.06 0.06 0.06 0.02 0.00 0.00 0.00 0.00 0.00
0.00 0.01 0.00 0.00 0.00 0.00 0.00 0.00 0.00 0.00 0.00 0.00 0.00 0.00 0.00 0.00 0.00 0.00 0.00 0.00 0.00 0.00 0.00 0.02 0.03 0.06 0.10 0.05 0.03 0.02 0.04 0.02 0.02 0.03 0.02 0.05 0.08 0.09 0.05 0.03 0.01 0.01 0.00 0.00 0.00 0.00 0.00 0.00 0.00
0.00 0.01 0.00 0.00 0.00 0.00 0.00 0.00 0.00 0.00 0.00 0.00 0.00 0.00 0.00 0.00 0.00 0.00 0.00 0.00 0.00 0.00 0.00 0.01 0.04 0.06 0.08 0.04 0.01 0.01 0.02 0.02 0.02 0.02 0.01 0.05 0.11 0.12 0.09 0.01 0.00 0.00 0.00 0.00 0.00 0.00 0.00 0.00 0.00
0.02 0.03 0.02 0.00 0.00 0.00 0.00 0.00 0.00 0.00 0.00 0.00 0.00 0.00 0.01 0.01 0.00 0.01 0.00 0.00 0.00 0.00 0.00 0.00 0.02 0.07 0.07 0.04 0.01 0.00 0.02 0.03 0.03 0.02 0.02 0.04 0.08 0.11 0.15 0.04 0.00 0.00 0.00 0.00 0.00 0.01 0.01 0.01 0.01
0.20 0.03 0.02 0.00 0.00 0.00 0.00 0.00 0.00 0.00 0.00 0.00 0.00 0.01 0.07 0.02 0.01 0.03 0.01 0.00 0.00 0.00 0.00 0.00 0.01 0.06 0.07 0.05 0.03 0.01 0.01 0.02 0.03 0.03 0.01 0.01 0.03 0.02 0.08 0.06 0.02 0.01 0.01 0.00 0.02 0.02 0.02 0.02 0.01
0.12 0.19 0.05 0.01 0.01 0.00 0.00 0.00 0.00 0.00 0.00 0.00 0.00 0.01 0.07 0.03 0.00 0.02 0.00 0.01 0.00 0.00 0.01 0.00 0.00 0.03 0.05 0.04 0.03 0.02 0.02 0.02 0.01 0.02 0.01 0.00 0.00 0.00 0.03 0.04 0.02 0.00 0.00 0.00 0.01 0.02 0.01 0.01 0.01
0.13 0.27 0.25 0.02 0.05 0.01 0.00 0.00 0.00 0.00 0.00 0.00 0.00 0.00 0.01 0.02 0.01 0.03 0.03 0.02 0.02 0.02 0.04 0.01 0.01 0.00 0.01 0.01 0.01 0.02 0.03 0.02 0.01 0.01 0.00 0.00 0.00 0.00 0.00 0.01 0.00 0.00 0.01 0.00 0.00 0.01 0.01 0.01 0.00
0.14 0.26 0.07 0.00 0.00 0.03 0.03 0.00 0.00 0.00 0.00 0.01 0.01 0.00 0.00 0.03 0.05 0.07 0.04 0.03 0.03 0.02 0.04 0.02 0.00 0.00 0.00 0.00 0.01 0.00 0.00 0.00 0.00 0.00 0.00 0.00 0.00 0.00 0.00 0.00 0.00 0.00 0.00 0.00 0.00 0.01 0.00 0.00 0.00
0.02 0.05 0.00 0.00 0.03 0.15 0.04 0.01 0.00 0.00 0.00 0.01 0.02 0.00 0.03 0.07 0.12 0.12 0.10 0.05 0.05 0.02 0.01 0.00 0.00 0.00 0.00 0.00 0.00 0.00 0.00 0.00 0.00 0.00 0.00 0.00 0.00 0.00 0.00 0.00 0.00 0.00 0.00 0.00 0.00 0.01 0.00 0.00 0.00
0.00 0.00 0.01 0.02 0.11 0.13 0.10 0.05 0.00 0.00 0.00 0.00 0.04 0.04 0.02 0.02 0.06 0.14 0.13 0.09 0.03 0.01 0.01 0.00 0.00 0.00 0.00 0.00 0.00 0.00 0.00 0.00 0.00 0.00 0.00 0.00 0.00 0.00 0.00 0.00 0.00 0.00 0.00 0.00 0.00 0.00 0.00 0.00 0.00
0.01 0.00 0.01 0.09 0.05 0.04 0.08 0.16 0.02 0.00 0.00 0.00 0.01 0.03 0.02 0.02 0.03 0.05 0.09 0.06 0.02 0.01 0.01 0.01 0.00 0.00 0.02 0.01 0.01 0.01 0.00 0.00 0.00 0.00 0.00 0.00 0.00 0.00 0.00 0.00 0.00 0.00 0.00 0.00 0.00 0.00 0.00 0.00 0.00
0.02 0.00 0.01 0.02 0.01 0.01 0.03 0.09 0.12 0.00 0.00 0.02 0.03 0.00 0.00 0.00 0.01 0.02 0.03 0.05 0.02 0.01 0.01 0.02 0.01 0.02 0.02 0.03 0.03 0.02 0.00 0.00 0.00 0.00 0.00 0.00 0.00 0.00 0.00 0.00 0.00 0.00 0.00 0.00 0.00 0.00 0.00 0.00 0.00
0.06 0.04 0.03 0.00 0.00 0.01 0.03 0.13 0.15 0.01 0.00 0.01 0.03 0.02 0.00 0.00 0.00 0.00 0.00 0.01 0.03 0.03 0.02 0.01 0.01 0.02 0.01 0.01 0.05 0.07 0.08 0.02 0.02 0.00 0.00 0.00 0.00 0.00 0.00 0.00 0.00 0.00 0.00 0.00 0.00 0.00 0.00 0.00 0.00
0.17 0.09 0.03 0.00 0.00 0.00 0.02 0.03 0.02 0.02 0.00 0.00 0.00 0.00 0.00 0.00 0.00 0.00 0.00 0.00 0.01 0.00 0.01 0.01 0.03 0.07 0.03 0.03 0.09 0.12 0.12 0.06 0.07 0.03 0.00 0.00 0.00 0.00 0.00 0.00 0.00 0.00 0.00 0.00 0.00 0.00 0.00 0.00 0.00
0.19 0.06 0.01 0.00 0.00 0.00 0.00 0.00 0.01 0.00 0.00 0.00 0.00 0.00 0.00 0.00 0.00 0.00 0.00 0.00 0.00 0.00 0.00 0.00 0.00 0.04 0.10 0.15 0.10 0.23 0.24 0.11 0.08 0.06 0.01 0.00 0.02 0.02 0.00 0.00 0.00 0.00 0.00 0.00 0.00 0.00 0.00 0.00 0.00
0.03 0.02 0.00 0.00 0.00 0.00 0.00 0.00 0.00 0.00 0.00 0.00 0.00 0.00 0.00 0.00 0.00 0.00 0.00 0.00 0.00 0.00 0.00 0.00 0.00 0.01 0.04 0.11 0.20 0.24 0.25 0.15 0.09 0.06 0.03 0.13 0.06 0.07 0.03 0.01 0.00 0.00 0.00 0.00 0.00 0.00 0.00 0.00 0.00
0.01 0.02 0.01 0.00 0.00 0.00 0.00 0.00 0.00 0.00 0.00 0.00 0.00 0.00 0.00 0.00 0.00 0.00 0.00 0.00 0.00 0.00 0.00 0.00 0.00 0.01 0.03 0.05 0.07 0.09 0.18 0.40 0.25 0.21 0.33 0.30 0.26 0.20 0.11 0.05 0.04 0.03 0.00 0.01 0.01 0.01 0.00 0.00 0.02
0.05 0.05 0.04 0.01 0.00 0.01 0.00 0.00 0.00 0.00 0.00 0.00 0.00 0.00 0.00 0.00 0.00 0.00 0.00 0.00 0.00 0.00 0.00 0.00 0.00 0.00 0.00 0.01 0.02 0.07 0.19 0.28 0.31 0.32 0.29 0.34 0.37 0.47 0.32 0.16 0.09 0.16 0.13 0.07 0.04 0.04 0.07 0.05 0.14
0.14 0.04 0.03 0.03 0.01 0.01 0.01 0.00 0.00 0.00 0.00 0.00 0.00 0.00 0.00 0.00 0.00 0.00 0.00 0.00 0.00 0.00 0.00 0.00 0.00 0.00 0.00 0.00 0.03 0.09 0.17 0.23 0.24 0.17 0.11 0.14 0.31 0.55 0.45 0.26 0.15 0.21 0.19 0.21 0.14 0.12 0.18 0.20 0.22
0.19 0.07 0.01 0.05 0.10 0.08 0.04 0.02 0.00 0.00 0.00 0.00 0.00 0.00 0.00 0.00 0.00 0.00 0.00 0.00 0.00 0.00 0.00 0.00 0.00 0.00 0.00 0.00 0.00 0.01 0.04 0.10 0.15 0.18 0.19 0.26 0.29 0.47 0.53 0.41 0.28 0.31 0.29 0.26 0.30 0.30 0.32 0.36 0.24
0.24 0.10 0.03 0.09 0.16 0.17 0.11 0.09 0.01 0.00 0.00 0.00 0.00 0.00 0.00 0.00 0.00 0.00 0.00 0.00 0.00 0.00 0.00 0.00 0.00 0.00 0.00 0.00 0.00 0.00 0.04 0.11 0.15 0.17 0.19 0.24 0.30 0.35 0.38 0.38 0.38 0.30 0.34 0.38 0.37 0.37 0.32 0.40 0.39
0.25 0.23 0.21 0.15 0.41 0.44 0.11 0.14 0.07 0.00 0.00 0.00 0.00 0.00 0.00 0.00 0.00 0.00 0.00 0.00 0.00 0.00 0.00 0.00 0.00 0.00 0.00 0.00 0.00 0.00 0.03 0.07 0.07 0.11 0.18 0.21 0.22 0.21 0.23 0.30 0.28 0.36 0.29 0.28 0.33 0.38 0.39 0.35 0.44
0.69 0.79 0.99 0.72 0.67 0.44 0.07 0.06 0.07 0.00 0.00 0.00 0.00 0.00 0.00 0.00 0.00 0.00 0.00 0.00 0.00 0.00 0.00 0.00 0.00 0.00 0.00 0.00 0.00 0.00 0.00 0.04 0.07 0.11 0.13 0.14 0.13 0.11 0.16 0.24 0.26 0.28 0.29 0.30 0.29 0.30 0.25 0.28 0.31
0.79 0.85 0.88 0.38 0.15 0.12 0.05 0.11 0.02 0.00 0.00 0.00 0.00 0.00 0.00 0.00 0.00 0.00 0.00 0.00 0.00 0.00 0.00 0.00 0.00 0.00 0.00 0.00 0.00 0.00 0.00 0.02 0.05 0.06 0.07 0.08 0.10 0.14 0.13 0.16 0.21 0.23 0.24 0.26 0.25 0.25 0.23 0.21 0.22
0.99 0.96 0.49 0.48 0.25 0.25 0.10 0.01 0.00 0.00 0.00 0.00 0.00 0.00 0.00 0.00 0.00 0.00 0.00 0.00 0.00 0.00 0.00 0.00 0.00 0.00 0.00 0.00 0.01 0.00 0.01 0.04 0.06 0.06 0.07 0.09 0.10 0.09 0.10 0.13 0.15 0.16 0.17 0.21 0.22 0.21 0.19 0.21 0.22
0.81 0.45 0.58 1.02 0.54 0.21 0.09 0.03 0.00 0.00 0.00 0.00 0.00 0.00 0.00 0.00 0.00 0.00 0.00 0.00 0.00 0.00 0.00 0.00 0.00 0.00 0.01 0.03 0.01 0.01 0.01 0.04 0.05 0.06 0.07 0.07 0.07 0.06 0.09 0.10 0.09 0.08 0.09 0.09 0.11 0.13 0.16 0.19 0.23
0.81 1.02 0.54 0.44 0.24 0.27 0.06 0.02 0.00 0.00 0.00 0.00 0.00 0.00 0.00 0.00 0.00 0.00 0.00 0.00 0.00 0.00 0.00 0.00 0.00 0.00 0.01 0.01 0.01 0.02 0.03 0.05 0.04 0.06 0.05 0.06 0.05 0.05 0.06 0.05 0.05 0.04 0.04 0.04 0.05 0.04 0.06 0.08 0.10
0.35 0.37 0.33 0.58 0.24 0.33 0.28 0.07 0.00 0.00 0.00 0.00 0.01 0.02 0.01 0.00 0.00 0.00 0.00 0.00 0.00 0.00 0.00 0.00 0.00 0.00 0.01 0.00 0.00 0.00 0.02 0.04 0.05 0.06 0.05 0.04 0.04 0.04 0.03 0.02 0.02 0.02 0.01 0.01 0.02 0.03 0.04 0.06 0.07

GFSSGP_prec_precacc_078.txt.gz
Total_Precipitation_Accumulation
0.00 0.00 0.00 0.00 0.00 0.00 0.00 0.00 0.00 0.00 0.00 0.00 0.00 0.00 0.00 0.00 0.00 0.00 0.00 0.00 0.00 0.00 0.01 0.03 0.08 0.10 0.11 0.14 0.08 0.03 0.02 0.05 0.07 0.07 0.07 0.10 0.04 0.01 0.01 0.03 0.04 0.06 0.07 0.16 0.26 0.21 0.07 0.02 0.02
0.00 0.00 0.00 0.00 0.00 0.00 0.00 0.00 0.00 0.00 0.00 0.00 0.00 0.00 0.00 0.00 0.00 0.00 0.00 0.00 0.00 0.00 0.01 0.01 0.06 0.07 0.11 0.14 0.06 0.02 0.03 0.04 0.06 0.04 0.08 0.08 0.01 0.01 0.01 0.03 0.05 0.06 0.10 0.19 0.11 0.02 0.00 0.00 0.01
0.00 0.01 0.00 0.00 0.00 0.00 0.00 0.00 0.00 0.00 0.00 0.00 0.00 0.00 0.00 0.00 0.00 0.00 0.00 0.01 0.00 0.00 0.00 0.01 0.04 0.06 0.11 0.10 0.04 0.03 0.06 0.05 0.03 0.03 0.06 0.06 0.04 0.02 0.03 0.05 0.06 0.06 0.06 0.02 0.00 0.00 0.00 0.00 0.00
0.00 0.01 0.00 0.00 0.00 0.00 0.00 0.00 0.00 0.00 0.00 0.00 0.00 0.00 0.00 0.00 0.00 0.00 0.00 0.00 0.00 0.00 0.00 0.03 0.04 0.06 0.11 0.05 0.03 0.03 0.05 0.02 0.02 0.03 0.02 0.05 0.08 0.09 0.06 0.03 0.01 0.01 0.00 0.00 0.00 0.00 0.00 0.00 0.00
0.01 0.01 0.00 0.00 0.00 0.00 0.00 0.00 0.00 0.00 0.00 0.00 0.00 0.00 0.00 0.00 0.00 0.00 0.00 0.00 0.00 0.00 0.00 0.02 0.04 0.07 0.08 0.04 0.02 0.02 0.02 0.02 0.02 0.02 0.01 0.06 0.11 0.12 0.10 0.01 0.00 0.00 0.00 0.00 0.00 0.00 0.00 0.00 0.00
0.04 0.03 0.02 0.00 0.00 0.00 0.00 0.00 0.00 0.00 0.00 0.00 0.00 0.00 0.01 0.01 0.00 0.01 0.00 0.00 0.00 0.00 0.00 0.01 0.03 0.07 0.07 0.04 0.01 0.00 0.02 0.03 0.03 0.02 0.03 0.05 0.09 0.12 0.16 0.04 0.00 0.00 0.00 0.00 0.00 0.01 0.01 0.01 0.01
0.20 0.03 0.02 0.00 0.00 0.00 0.00 0.00 0.00 0.00 0.00 0.00 0.00 0.01 0.07 0.02 0.01 0.03 0.01 0.00 0.00 0.00 0.00 0.00 0.01 0.06 0.07 0.05 0.03 0.01 0.01 0.02 0.03 0.03 0.02 0.02 0.04 0.02 0.08 0.06 0.02 0.01 0.01 0.00 0.02 0.02 0.02 0.02 0.01
0.13 0.19 0.05 0.01 0.01 0.00 0.00 0.00 0.00 0.00 0.00 0.00 0.00 0.01 0.07 0.03 0.00 0.02 0.00 0.01 0.00 0.00 0.01 0.00 0.00 0.03 0.05 0.04 0.03 0.02 0.02 0.02 0.01 0.02 0.01 0.00 0.00 0.00 0.04 0.04 0.02 0.00 0.00 0.00 0.01 0.02 0.01 0.01 0.01
0.15 0.28 0.25 0.02 0.05 0.01 0.00 0.00 0.00 0.00 0.00 0.00 0.00 0.00 0.01 0.02 0.01 0.03 0.03 0.02 0.02 0.02 0.04 0.01 0.01 0.00 0.01 0.01 0.01 0.02 0.03 0.02 0.01 0.01 0.00 0.00 0.00 0.00 0.00 0.01 0.00 0.00 0.01 0.00 0.00 0.01 0.01 0.01 0.00
0.16 0.27 0.07 0.00 0.00 0.03 0.03 0.00 0.00 0.00 0.00 0.01 0.05 0.03 0.02 0.03 0.05 0.07 0.05 0.03 0.03 0.03 0.04 0.02 0.00 0.00 0.00 0.00 0.01 0.00 0.00 0.00 0.00 0.00 0.00 0.00 0.00 0.00 0.00 0.00 0.00 0.00 0.00 0.00 0.00 0.01 0.00 0.00 0.00
0.02 0.07 0.00 0.00 0.03 0.16 0.05 0.01 0.00 0.00 0.00 0.01 0.04 0.06 0.09 0.09 0.14 0.15 0.11 0.06 0.05 0.02 0.01 0.00 0.00 0.00 0.00 0.00 0.00 0.00 0.00 0.00 0.00 0.00 0.00 0.00 0.00 0.00 0.00 0.00 0.00 0.00 0.00 0.00 0.00 0.01 0.00 0.00 0.00
0.00 0.00 0.02 0.04 0.13 0.13 0.10 0.05 0.00 0.00 0.00 0.00 0.04 0.11 0.12 0.14 0.17 0.26 0.19 0.12 0.04 0.01 0.01 0.00 0.00 0.00 0.00 0.00 0.00 0.00 0.00 0.00 0.00 0.00 0.00 0.00 0.00 0.00 0.00 0.00 0.00 0.00 0.00 0.00 0.00 0.00 0.00 0.00 0.00
0.01 0.00 0.03 0.15 0.06 0.04 0.09 0.17 0.02 0.00 0.00 0.00 0.01 0.05 0.08 0.10 0.11 0.12 0.15 0.11 0.03 0.01 0.01 0.01 0.00 0.00 0.02 0.01 0.01 0.01 0.00 0.00 0.00 0.00 0.00 0.00 0.00 0.00 0.00 0.00 0.00 0.00 0.00 0.00 0.00 0.00 0.00 0.00 0.00
0.02 0.01 0.01 0.05 0.05 0.03 0.06 0.13 0.15 0.00 0.00 0.02 0.04 0.03 0.07 0.07 0.08 0.07 0.04 0.06 0.03 0.01 0.01 0.02 0.01 0.02 0.02 0.03 0.03 0.02 0.00 0.00 0.00 0.00 0.00 0.00 0.00 0.00 0.00 0.00 0.00 0.00 0.00 0.00 0.00 0.00 0.00 0.00 0.00
0.06 0.05 0.03 0.00 0.03 0.08 0.10 0.27 0.25 0.02 0.00 0.01 0.03 0.04 0.01 0.05 0.03 0.00 0.01 0.04 0.06 0.04 0.02 0.01 0.01 0.02 0.01 0.01 0.05 0.07 0.08 0.02 0.02 0.00 0.00 0.00 0.00 0.00 0.00 0.00 0.00 0.00 0.00 0.00 0.00 0.00 0.00 0.00 0.00
0.18 0.09 0.04 0.00 0.00 0.02 0.09 0.10 0.05 0.08 0.00 0.00 0.00 0.01 0.02 0.01 0.02 0.01 0.00 0.00 0.01 0.02 0.03 0.01 0.03 0.07 0.03 0.03 0.09 0.12 0.12 0.06 0.07 0.03 0.00 0.00 0.00 0.00 0.00 0.00 0.00 0.00 0.00 0.00 0.00 0.00 0.00 0.00 0.00
0.20 0.06 0.01 0.00 0.00 0.00 0.01 0.01 0.03 0.13 0.03 0.00 0.00 0.00 0.00 0.01 0.01 0.00 0.00 0.00 0.00 0.02 0.02 0.00 0.00 0.05 0.10 0.15 0.10 0.23 0.24 0.11 0.08 0.06 0.01 0.00 0.02 0.02 0.00 0.00 0.00 0.00 0.00 0.00 0.00 0.00 0.00 0.00 0.00
0.04 0.02 0.00 0.00 0.00 0.00 0.00 0.00 0.00 0.04 0.09 0.01 0.00 0.00 0.00 0.00 0.00 0.00 0.00 0.00 0.00 0.00 0.00 0.00 0.00 0.02 0.04 0.12 0.21 0.25 0.25 0.15 0.09 0.06 0.03 0.13 0.06 0.07 0.03 0.01 0.00 0.00 0.00 0.00 0.00 0.00 0.00 0.00 0.00
0.01 0.02 0.01 0.00 0.00 0.00 0.00 0.00 0.00 0.00 0.05 0.03 0.00 0.00 0.00 0.00 0.00 0.00 0.00 0.00 0.00 0.00 0.00 0.00 0.00 0.01 0.03 0.05 0.07 0.09 0.18 0.41 0.25 0.22 0.33 0.30 0.26 0.21 0.11 0.05 0.04 0.03 0.01 0.01 0.01 0.01 0.01 0.01 0.03
0.05 0.05 0.04 0.01 0.00 0.02 0.00 0.00 0.00 0.00 0.00 0.01 0.00 0.00 0.00 0.00 0.00 0.00 0.00 0.00 0.00 0.00 0.00 0.00 0.00 0.00 0.00 0.01 0.02 0.07 0.19 0.28 0.31 0.33 0.32 0.38 0.40 0.51 0.35 0.16 0.09 0.16 0.13 0.07 0.04 0.04 0.07 0.05 0.14
0.14 0.04 0.03 0.03 0.01 0.01 0.01 0.00 0.00 0.00 0.00 0.00 0.00 0.00 0.00 0.00 0.00 0.00 0.00 0.00 0.00 0.00 0.00 0.00 0.00 0.00 0.00 0.00 0.03 0.09 0.17 0.23 0.24 0.17 0.12 0.15 0.31 0.56 0.45 0.26 0.15 0.22 0.19 0.21 0.14 0.12 0.18 0.20 0.23
0.19 0.07 0.01 0.05 0.10 0.08 0.04 0.02 0.00 0.00 0.00 0.00 0.00 0.00 0.00 0.00 0.00 0.00 0.00 0.00 0.00 0.00 0.00 0.00 0.00 0.00 0.00 0.00 0.00 0.01 0.04 0.10 0.15 0.18 0.19 0.26 0.29 0.47 0.53 0.41 0.28 0.31 0.29 0.26 0.30 0.30 0.32 0.36 0.24
0.24 0.10 0.03 0.09 0.16 0.17 0.11 0.09 0.01 0.00 0.00 0.00 0.00 0.00 0.00 0.00 0.00 0.00 0.00 0.00 0.00 0.00 0.00 0.00 0.00 0.00 0.00 0.00 0.00 0.00 0.04 0.11 0.15 0.17 0.19 0.24 0.30 0.35 0.38 0.38 0.38 0.30 0.34 0.38 0.37 0.37 0.32 0.40 0.39
0.25 0.23 0.21 0.15 0.41 0.44 0.11 0.14 0.07 0.00 0.00 0.00 0.00 0.00 0.00 0.00 0.00 0.00 0.00 0.00 0.00 0.00 0.00 0.00 0.00 0.00 0.00 0.00 0.00 0.00 0.03 0.07 0.07 0.11 0.18 0.21 0.22 0.21 0.23 0.30 0.28 0.36 0.29 0.28 0.33 0.38 0.39 0.35 0.44
0.69 0.79 1.01 0.73 0.68 0.44 0.07 0.06 0.07 0.00 0.00 0.00 0.00 0.00 0.00 0.00 0.00 0.00 0.00 0.00 0.00 0.00 0.00 0.00 0.00 0.00 0.00 0.00 0.00 0.00 0.00 0.04 0.07 0.11 0.13 0.14 0.13 0.11 0.16 0.24 0.26 0.28 0.29 0.30 0.29 0.30 0.25 0.28 0.31
0.79 0.85 0.89 0.38 0.15 0.12 0.05 0.11 0.02 0.00 0.00 0.00 0.00 0.00 0.00 0.00 0.00 0.00 0.00 0.00 0.00 0.00 0.00 0.00 0.00 0.00 0.00 0.00 0.00 0.00 0.00 0.02 0.05 0.06 0.07 0.08 0.10 0.14 0.13 0.16 0.21 0.23 0.24 0.26 0.25 0.25 0.23 0.21 0.22
0.99 0.96 0.49 0.48 0.25 0.25 0.10 0.01 0.00 0.00 0.00 0.00 0.00 0.00 0.00 0.00 0.00 0.00 0.00 0.00 0.00 0.00 0.00 0.00 0.00 0.00 0.00 0.00 0.01 0.00 0.01 0.04 0.06 0.06 0.07 0.09 0.10 0.09 0.10 0.13 0.15 0.16 0.17 0.21 0.22 0.21 0.19 0.21 0.22
0.81 0.45 0.58 1.03 0.55 0.21 0.09 0.03 0.00 0.00 0.00 0.00 0.00 0.00 0.00 0.00 0.00 0.00 0.00 0.00 0.00 0.00 0.00 0.00 0.00 0.00 0.01 0.03 0.01 0.01 0.01 0.04 0.05 0.06 0.07 0.07 0.07 0.06 0.09 0.10 0.09 0.08 0.09 0.09 0.11 0.13 0.16 0.19 0.23
0.82 1.02 0.54 0.44 0.24 0.27 0.06 0.02 0.00 0.00 0.00 0.00 0.00 0.00 0.00 0.00 0.00 0.00 0.00 0.00 0.00 0.00 0.00 0.00 0.00 0.00 0.01 0.01 0.01 0.02 0.03 0.05 0.04 0.06 0.05 0.06 0.05 0.05 0.06 0.05 0.05 0.04 0.04 0.04 0.05 0.04 0.06 0.08 0.10
0.35 0.38 0.33 0.58 0.24 0.33 0.28 0.07 0.00 0.00 0.00 0.00 0.01 0.02 0.01 0.00 0.00 0.00 0.00 0.00 0.00 0.00 0.00 0.00 0.00 0.00 0.01 0.00 0.00 0.00 0.02 0.04 0.05 0.06 0.05 0.04 0.04 0.04 0.03 0.02 0.02 0.02 0.01 0.01 0.02 0.03 0.04 0.06 0.07

GFSSGP_prec_precacc_081.txt.gz
Total_Precipitation_Accumulation
0.00 0.00 0.00 0.00 0.00 0.00 0.00 0.00 0.00 0.00 0.00 0.00 0.00 0.00 0.00 0.00 0.00 0.00 0.00 0.00 0.00 0.00 0.01 0.04 0.08 0.10 0.12 0.15 0.09 0.04 0.02 0.05 0.07 0.07 0.07 0.10 0.04 0.01 0.01 0.03 0.04 0.06 0.07 0.16 0.26 0.21 0.07 0.02 0.02
0.00 0.00 0.00 0.00 0.00 0.00 0.00 0.00 0.00 0.00 0.00 0.00 0.00 0.00 0.00 0.00 0.00 0.00 0.00 0.00 0.00 0.00 0.01 0.01 0.06 0.07 0.11 0.14 0.06 0.02 0.03 0.04 0.07 0.04 0.08 0.08 0.01 0.01 0.02 0.03 0.05 0.06 0.10 0.19 0.11 0.02 0.00 0.00 0.01
0.00 0.01 0.00 0.00 0.00 0.00 0.00 0.00 0.00 0.00 0.00 0.00 0.00 0.00 0.00 0.00 0.00 0.00 0.00 0.01 0.00 0.00 0.00 0.02 0.05 0.07 0.12 0.10 0.04 0.03 0.06 0.05 0.03 0.03 0.06 0.06 0.04 0.03 0.05 0.05 0.06 0.06 0.06 0.02 0.00 0.00 0.00 0.00 0.00
0.00 0.01 0.00 0.00 0.00 0.00 0.00 0.00 0.00 0.00 0.00 0.00 0.00 0.00 0.00 0.00 0.00 0.00 0.00 0.00 0.00 0.00 0.00 0.03 0.05 0.07 0.11 0.05 0.03 0.03 0.06 0.03 0.02 0.03 0.02 0.05 0.08 0.09 0.07 0.03 0.01 0.01 0.00 0.00 0.00 0.00 0.00 0.00 0.00
0.01 0.01 0.00 0.00 0.00 0.00 0.00 0.00 0.00 0.00 0.00 0.00 0.00 0.00 0.00 0.00 0.00 0.00 0.00 0.00 0.00 0.00 0.00 0.02 0.05 0.07 0.08 0.04 0.02 0.02 0.02 0.02 0.02 0.02 0.01 0.06 0.11 0.13 0.11 0.01 0.00 0.00 0.00 0.00 0.00 0.00 0.00 0.00 0.00
0.05 0.03 0.02 0.00 0.00 0.00 0.00 0.00 0.00 0.00 0.00 0.00 0.00 0.00 0.01 0.01 0.00 0.01 0.01 0.00 0.00 0.00 0.01 0.02 0.04 0.07 0.07 0.04 0.01 0.00 0.02 0.03 0.03 0.02 0.03 0.05 0.09 0.14 0.16 0.04 0.00 0.00 0.00 0.00 0.00 0.01 0.01 0.01 0.01
0.23 0.06 0.02 0.00 0.00 0.00 0.00 0.00 0.00 0.00 0.00 0.00 0.00 0.01 0.07 0.02 0.02 0.04 0.01 0.00 0.00 0.00 0.00 0.01 0.02 0.06 0.07 0.05 0.03 0.01 0.01 0.02 0.03 0.03 0.02 0.02 0.04 0.03 0.09 0.06 0.02 0.01 0.01 0.00 0.02 0.02 0.02 0.02 0.01
0.14 0.21 0.05 0.01 0.01 0.00 0.00 0.00 0.00 0.00 0.00 0.00 0.00 0.01 0.07 0.03 0.02 0.03 0.00 0.01 0.00 0.01 0.02 0.00 0.00 0.03 0.05 0.04 0.03 0.02 0.02 0.02 0.01 0.02 0.01 0.00 0.00 0.00 0.04 0.04 0.02 0.00 0.00 0.00 0.01 0.02 0.01 0.01 0.01
0.16 0.29 0.25 0.02 0.05 0.01 0.00 0.00 0.00 0.00 0.00 0.00 0.00 0.00 0.01 0.02 0.02 0.03 0.04 0.03 0.03 0.03 0.04 0.01 0.01 0.00 0.01 0.01 0.01 0.02 0.03 0.02 0.01 0.01 0.00 0.00 0.00 0.00 0.00 0.01 0.00 0.00 0.01 0.00 0.00 0.01 0.01 0.01 0.00
0.19 0.27 0.07 0.00 0.00 0.03 0.03 0.00 0.00 0.00 0.00 0.01 0.05 0.03 0.05 0.08 0.07 0.09 0.05 0.04 0.04 0.04 0.05 0.03 0.00 0.00 0.00 0.00 0.01 0.00 0.00 0.00 0.00 0.00 0.00 0.00 0.00 0.00 0.00 0.00 0.00 0.00 0.00 0.00 0.00 0.01 0.00 0.00 0.00
0.03 0.07 0.00 0.00 0.03 0.16 0.05 0.01 0.00 0.00 0.00 0.01 0.04 0.06 0.09 0.19 0.26 0.27 0.13 0.06 0.05 0.02 0.01 0.00 0.00 0.00 0.00 0.00 0.00 0.00 0.00 0.00 0.00 0.00 0.00 0.00 0.00 0.00 0.00 0.00 0.00 0.00 0.00 0.00 0.00 0.01 0.00 0.00 0.00
0.01 0.01 0.02 0.04 0.13 0.13 0.10 0.05 0.00 0.00 0.00 0.00 0.04 0.11 0.13 0.19 0.27 0.40 0.26 0.17 0.04 0.01 0.01 0.01 0.00 0.00 0.00 0.00 0.00 0.00 0.00 0.00 0.00 0.00 0.00 0.00 0.00 0.00 0.00 0.00 0.00 0.00 0.00 0.00 0.00 0.00 0.00 0.00 0.00
0.01 0.02 0.04 0.15 0.06 0.04 0.09 0.17 0.02 0.00 0.00 0.00 0.01 0.05 0.09 0.16 0.26 0.25 0.28 0.13 0.05 0.01 0.01 0.02 0.00 0.00 0.02 0.01 0.01 0.01 0.00 0.00 0.00 0.00 0.00 0.00 0.00 0.00 0.00 0.00 0.00 0.00 0.00 0.00 0.00 0.00 0.00 0.00 0.00
0.02 0.02 0.03 0.05 0.05 0.03 0.06 0.13 0.15 0.00 0.00 0.02 0.04 0.03 0.08 0.08 0.13 0.14 0.07 0.10 0.07 0.04 0.02 0.02 0.01 0.02 0.02 0.03 0.03 0.02 0.00 0.00 0.00 0.00 0.00 0.00 0.00 0.00 0.00 0.00 0.00 0.00 0.00 0.00 0.00 0.00 0.00 0.00 0.00
0.06 0.06 0.04 0.00 0.03 0.08 0.10 0.27 0.26 0.02 0.00 0.01 0.03 0.04 0.02 0.05 0.04 0.02 0.10 0.15 0.20 0.13 0.02 0.01 0.01 0.02 0.01 0.01 0.05 0.07 0.08 0.02 0.02 0.00 0.00 0.00 0.00 0.00 0.00 0.00 0.00 0.00 0.00 0.00 0.00 0.00 0.00 0.00 0.00
0.22 0.11 0.05 0.00 0.00 0.02 0.09 0.10 0.05 0.08 0.00 0.00 0.00 0.01 0.02 0.01 0.03 0.07 0.09 0.06 0.06 0.03 0.03 0.01 0.03 0.07 0.03 0.03 0.09 0.12 0.12 0.06 0.07 0.03 0.00 0.00 0.00 0.00 0.00 0.00 0.00 0.00 0.00 0.00 0.00 0.00 0.00 0.00 0.00
0.22 0.07 0.02 0.00 0.00 0.00 0.01 0.01 0.03 0.15 0.05 0.00 0.00 0.00 0.00 0.01 0.02 0.00 0.02 0.03 0.05 0.07 0.04 0.00 0.00 0.05 0.10 0.15 0.10 0.23 0.24 0.11 0.08 0.06 0.01 0.00 0.02 0.02 0.00 0.00 0.00 0.00 0.00 0.00 0.00 0.00 0.00 0.00 0.00
0.04 0.02 0.01 0.00 0.00 0.00 0.00 0.00 0.00 0.05 0.15 0.01 0.00 0.00 0.00 0.00 0.00 0.00 0.01 0.01 0.02 0.05 0.04 0.01 0.01 0.03 0.05 0.12 0.21 0.25 0.25 0.15 0.09 0.06 0.03 0.13 0.06 0.07 0.03 0.01 0.00 0.00 0.00 0.00 0.00 0.00 0.00 0.00 0.00
0.01 0.02 0.01 0.00 0.00 0.00 0.00 0.00 0.00 0.00 0.09 0.07 0.00 0.00 0.00 0.00 0.00 0.00 0.00 0.01 0.01 0.02 0.03 0.01 0.00 0.01 0.03 0.05 0.07 0.09 0.18 0.41 0.25 0.22 0.34 0.31 0.27 0.23 0.12 0.05 0.05 0.04 0.01 0.02 0.01 0.01 0.01 0.01 0.03
0.05 0.05 0.04 0.01 0.00 0.02 0.00 0.00 0.00 0.00 0.01 0.02 0.00 0.00 0.00 0.00 0.00 0.00 0.00 0.00 0.00 0.00 0.00 0.00 0.00 0.00 0.00 0.01 0.02 0.07 0.19 0.28 0.31 0.33 0.32 0.39 0.41 0.54 0.37 0.20 0.12 0.18 0.14 0.07 0.04 0.04 0.07 0.05 0.14
0.14 0.04 0.03 0.03 0.01 0.01 0.01 0.00 0.00 0.00 0.00 0.00 0.01 0.00 0.00 0.00 0.00 0.00 0.00 0.00 0.00 0.00 0.00 0.00 0.00 0.00 0.00 0.00 0.03 0.09 0.17 0.23 0.24 0.17 0.12 0.15 0.31 0.56 0.45 0.27 0.16 0.22 0.19 0.21 0.14 0.12 0.18 0.20 0.23
0.19 0.07 0.01 0.05 0.10 0.08 0.04 0.03 0.00 0.00 0.00 0.00 0.00 0.00 0.00 0.00 0.00 0.00 0.00 0.00 0.00 0.00 0.00 0.00 0.00 0.00 0.00 0.00 0.00 0.01 0.04 0.10 0.15 0.18 0.19 0.26 0.29 0.47 0.53 0.41 0.28 0.31 0.29 0.26 0.30 0.30 0.32 0.36 0.24
0.24 0.10 0.03 0.09 0.16 0.17 0.11 0.09 0.01 0.00 0.00 0.00 0.00 0.00 0.00 0.00 0.00 0.00 0.00 0.00 0.00 0.00 0.00 0.00 0.00 0.00 0.00 0.00 0.00 0.00 0.04 0.11 0.15 0.17 0.19 0.24 0.30 0.35 0.38 0.38 0.38 0.30 0.34 0.38 0.37 0.37 0.32 0.40 0.40
0.25 0.23 0.21 0.15 0.41 0.44 0.11 0.14 0.07 0.00 0.00 0.00 0.00 0.00 0.00 0.00 0.00 0.00 0.00 0.00 0.00 0.00 0.00 0.00 0.00 0.00 0.00 0.00 0.00 0.00 0.03 0.07 0.07 0.11 0.18 0.21 0.22 0.21 0.23 0.30 0.28 0.36 0.29 0.28 0.33 0.38 0.39 0.35 0.44
0.69 0.80 1.01 0.73 0.68 0.44 0.07 0.06 0.07 0.00 0.00 0.00 0.00 0.00 0.00 0.00 0.00 0.00 0.00 0.00 0.00 0.00 0.00 0.00 0.00 0.00 0.00 0.00 0.00 0.00 0.00 0.04 0.07 0.11 0.13 0.14 0.13 0.11 0.16 0.24 0.26 0.28 0.29 0.31 0.29 0.30 0.26 0.28 0.31
0.79 0.85 0.89 0.38 0.15 0.12 0.05 0.11 0.02 0.00 0.00 0.00 0.00 0.00 0.00 0.00 0.00 0.00 0.00 0.00 0.00 0.00 0.00 0.00 0.00 0.00 0.00 0.00 0.00 0.00 0.00 0.02 0.05 0.06 0.07 0.08 0.10 0.14 0.13 0.16 0.21 0.23 0.24 0.26 0.26 0.25 0.23 0.22 0.23
0.99 0.96 0.49 0.48 0.25 0.25 0.10 0.01 0.00 0.00 0.00 0.00 0.00 0.00 0.00 0.00 0.00 0.00 0.00 0.00 0.00 0.00 0.00 0.00 0.00 0.00 0.00 0.00 0.01 0.00 0.01 0.04 0.06 0.06 0.07 0.09 0.10 0.09 0.10 0.13 0.15 0.16 0.17 0.21 0.22 0.21 0.19 0.21 0.22
0.81 0.45 0.58 1.03 0.55 0.21 0.09 0.03 0.00 0.00 0.00 0.00 0.00 0.00 0.00 0.00 0.00 0.00 0.00 0.00 0.00 0.00 0.00 0.00 0.00 0.00 0.01 0.03 0.01 0.01 0.01 0.04 0.05 0.06 0.07 0.07 0.07 0.06 0.09 0.10 0.09 0.08 0.09 0.09 0.11 0.13 0.16 0.19 0.23
0.82 1.02 0.54 0.44 0.24 0.27 0.06 0.02 0.00 0.00 0.00 0.00 0.00 0.00 0.00 0.00 0.00 0.00 0.00 0.00 0.00 0.00 0.00 0.00 0.00 0.00 0.01 0.01 0.01 0.02 0.03 0.05 0.04 0.06 0.05 0.06 0.05 0.05 0.06 0.05 0.05 0.04 0.04 0.04 0.05 0.04 0.06 0.08 0.10
0.35 0.38 0.33 0.58 0.24 0.33 0.28 0.07 0.00 0.00 0.00 0.00 0.01 0.02 0.01 0.00 0.00 0.00 0.00 0.00 0.00 0.00 0.00 0.00 0.00 0.00 0.01 0.00 0.00 0.00 0.02 0.04 0.05 0.06 0.05 0.04 0.04 0.04 0.03 0.02 0.02 0.02 0.01 0.01 0.02 0.03 0.04 0.06 0.07

GFSSGP_prec_precacc_084.txt.gz
Total_Precipitation_Accumulation
0.00 0.00 0.00 0.00 0.00 0.00 0.00 0.00 0.00 0.00 0.00 0.00 0.00 0.00 0.00 0.00 0.00 0.00 0.00 0.00 0.00 0.00 0.01 0.04 0.09 0.10 0.12 0.16 0.09 0.04 0.03 0.05 0.07 0.07 0.07 0.10 0.04 0.01 0.01 0.03 0.04 0.06 0.07 0.16 0.26 0.21 0.07 0.02 0.02
0.00 0.00 0.00 0.00 0.00 0.00 0.00 0.00 0.00 0.00 0.00 0.00 0.00 0.00 0.00 0.00 0.00 0.00 0.00 0.00 0.00 0.00 0.01 0.02 0.07 0.08 0.12 0.15 0.06 0.02 0.03 0.04 0.07 0.04 0.08 0.08 0.02 0.02 0.02 0.03 0.05 0.06 0.10 0.19 0.11 0.02 0.00 0.00 0.01
0.00 0.01 0.00 0.00 0.00 0.00 0.00 0.00 0.00 0.00 0.00 0.00 0.00 0.00 0.00 0.00 0.00 0.00 0.00 0.01 0.00 0.00 0.00 0.02 0.06 0.07 0.12 0.10 0.04 0.03 0.06 0.06 0.03 0.03 0.06 0.06 0.04 0.04 0.05 0.05 0.06 0.06 0.06 0.02 0.00 0.00 0.00 0.00 0.00
0.00 0.01 0.00 0.00 0.00 0.00 0.00 0.00 0.00 0.00 0.00 0.00 0.00 0.00 0.00 0.00 0.00 0.00 0.00 0.01 0.00 0.00 0.00 0.03 0.05 0.08 0.11 0.06 0.03 0.04 0.07 0.04 0.02 0.03 0.02 0.05 0.09 0.11 0.07 0.03 0.01 0.01 0.00 0.00 0.00 0.00 0.00 0.00 0.00
0.01 0.01 0.00 0.00 0.00 0.00 0.00 0.00 0.00 0.00 0.00 0.00 0.00 0.00 0.00 0.00 0.00 0.00 0.00 0.00 0.00 0.00 0.00 0.03 0.06 0.08 0.08 0.04 0.02 0.02 0.03 0.02 0.02 0.02 0.01 0.06 0.11 0.14 0.11 0.01 0.00 0.00 0.00 0.00 0.00 0.00 0.00 0.00 0.00
0.05 0.03 0.02 0.00 0.00 0.00 0.00 0.00 0.00 0.00 0.00 0.00 0.00 0.00 0.01 0.01 0.00 0.01 0.01 0.00 0.00 0.00 0.01 0.03 0.05 0.08 0.07 0.04 0.01 0.01 0.02 0.03 0.03 0.02 0.03 0.05 0.10 0.14 0.16 0.04 0.00 0.00 0.00 0.00 0.00 0.01 0.01 0.01 0.01
0.26 0.06 0.02 0.00 0.00 0.00 0.00 0.00 0.00 0.00 0.00 0.00 0.00 0.01 0.07 0.03 0.02 0.05 0.02 0.00 0.00 0.00 0.01 0.02 0.03 0.07 0.07 0.05 0.03 0.01 0.01 0.02 0.03 0.03 0.02 0.02 0.05 0.04 0.09 0.06 0.02 0.01 0.01 0.00 0.02 0.02 0.02 0.02 0.01
0.16 0.22 0.05 0.01 0.01 0.00 0.00 0.00 0.00 0.00 0.00 0.00 0.00 0.01 0.07 0.04 0.04 0.07 0.02 0.01 0.00 0.01 0.02 0.01 0.02 0.04 0.05 0.04 0.03 0.02 0.02 0.02 0.01 0.03 0.01 0.00 0.00 0.00 0.04 0.04 0.02 0.00 0.00 0.00 0.01 0.02 0.01 0.01 0.01
0.19 0.32 0.27 0.02 0.05 0.01 0.00 0.00 0.00 0.00 0.00 0.00 0.00 0.00 0.01 0.02 0.04 0.06 0.06 0.04 0.04 0.04 0.05 0.02 0.02 0.01 0.02 0.02 0.01 0.02 0.03 0.02 0.01 0.01 0.00 0.00 0.00 0.00 0.00 0.01 0.00 0.00 0.01 0.00 0.00 0.01 0.01 0.01 0.00
0.23 0.29 0.08 0.00 0.00 0.03 0.03 0.00 0.00 0.00 0.00 0.01 0.05 0.03 0.05 0.09 0.10 0.11 0.06 0.04 0.05 0.04 0.05 0.03 0.01 0.01 0.01 0.01 0.01 0.00 0.00 0.00 0.00 0.00 0.00 0.00 0.00 0.00 0.00 0.00 0.00 0.00 0.00 0.00 0.00 0.01 0.00 0.00 0.00
0.06 0.09 0.01 0.00 0.03 0.16 0.05 0.01 0.00 0.00 0.00 0.01 0.04 0.06 0.10 0.21 0.31 0.30 0.14 0.06 0.05 0.02 0.02 0.01 0.01 0.01 0.01 0.00 0.00 0.00 0.00 0.00 0.00 0.00 0.00 0.00 0.00 0.00 0.00 0.00 0.00 0.00 0.00 0.00 0.00 0.01 0.00 0.00 0.00
0.02 0.03 0.04 0.05 0.13 0.13 0.10 0.05 0.00 0.00 0.00 0.00 0.04 0.11 0.13 0.21 0.31 0.42 0.28 0.17 0.04 0.01 0.01 0.01 0.00 0.01 0.00 0.00 0.00 0.00 0.00 0.00 0.00 0.00 0.00 0.00 0.00 0.00 0.00 0.00 0.00 0.00 0.00 0.00 0.00 0.00 0.00 0.00 0.00
0.02 0.05 0.07 0.16 0.06 0.04 0.09 0.17 0.02 0.00 0.00 0.00 0.01 0.05 0.09 0.18 0.33 0.28 0.36 0.14 0.05 0.01 0.01 0.02 0.00 0.00 0.02 0.01 0.01 0.01 0.00 0.00 0.00 0.00 0.00 0.00 0.00 0.00 0.00 0.00 0.00 0.00 0.00 0.00 0.00 0.00 0.00 0.00 0.00
0.02 0.04 0.07 0.06 0.05 0.03 0.06 0.13 0.15 0.00 0.00 0.02 0.04 0.03 0.08 0.08 0.13 0.14 0.07 0.10 0.12 0.12 0.04 0.02 0.01 0.02 0.02 0.03 0.03 0.02 0.00 0.00 0.00 0.00 0.00 0.00 0.00 0.00 0.00 0.00 0.00 0.00 0.00 0.00 0.00 0.00 0.00 0.00 0.00
0.06 0.07 0.06 0.01 0.03 0.08 0.10 0.27 0.26 0.02 0.00 0.01 0.03 0.04 0.02 0.05 0.04 0.02 0.11 0.15 0.26 0.22 0.06 0.01 0.01 0.02 0.01 0.01 0.06 0.08 0.08 0.02 0.02 0.00 0.00 0.00 0.00 0.00 0.00 0.00 0.00 0.00 0.00 0.00 0.00 0.00 0.00 0.00 0.00
0.24 0.12 0.05 0.00 0.00 0.02 0.09 0.10 0.05 0.08 0.00 0.00 0.00 0.01 0.02 0.01 0.03 0.07 0.09 0.07 0.07 0.04 0.09 0.02 0.03 0.07 0.03 0.03 0.09 0.13 0.12 0.06 0.07 0.03 0.00 0.00 0.00 0.00 0.00 0.00 0.00 0.00 0.00 0.00 0.00 0.00 0.00 0.00 0.00
0.26 0.08 0.02 0.01 0.00 0.00 0.01 0.01 0.03 0.15 0.05 0.00 0.00 0.00 0.00 0.01 0.02 0.00 0.02 0.06 0.07 0.10 0.09 0.01 0.01 0.05 0.10 0.16 0.11 0.23 0.24 0.11 0.08 0.06 0.01 0.00 0.02 0.02 0.00 0.00 0.00 0.00 0.00 0.00 0.00 0.00 0.00 0.00 0.00
0.05 0.03 0.01 0.00 0.00 0.00 0.00 0.00 0.00 0.05 0.15 0.01 0.00 0.00 0.00 0.00 0.00 0.00 0.01 0.01 0.07 0.14 0.11 0.08 0.07 0.04 0.05 0.12 0.22 0.25 0.25 0.15 0.09 0.06 0.03 0.13 0.06 0.07 0.03 0.01 0.00 0.00 0.00 0.00 0.00 0.00 0.00 0.00 0.00
0.01 0.03 0.01 0.00 0.00 0.00 0.00 0.00 0.00 0.00 0.09 0.07 0.00 0.00 0.00 0.00 0.00 0.00 0.00 0.01 0.07 0.09 0.10 0.14 0.11 0.08 0.06 0.06 0.07 0.09 0.18 0.41 0.25 0.22 0.34 0.31 0.27 0.23 0.12 0.05 0.05 0.04 0.01 0.02 0.01 0.01 0.01 0.01 0.03
0.05 0.05 0.04 0.01 0.00 0.02 0.00 0.00 0.00 0.00 0.01 0.02 0.01 0.00 0.00 0.00 0.00 0.00 0.00 0.00 0.01 0.03 0.08 0.09 0.09 0.07 0.06 0.03 0.02 0.07 0.19 0.28 0.31 0.33 0.32 0.39 0.41 0.54 0.37 0.21 0.12 0.18 0.14 0.07 0.04 0.04 0.07 0.05 0.14
0.14 0.04 0.03 0.03 0.01 0.02 0.01 0.00 0.00 0.00 0.00 0.00 0.01 0.00 0.00 0.00 0.00 0.00 0.00 0.00 0.00 0.00 0.01 0.01 0.02 0.03 0.04 0.04 0.06 0.11 0.17 0.23 0.24 0.17 0.12 0.15 0.31 0.56 0.45 0.27 0.16 0.22 0.19 0.21 0.14 0.12 0.18 0.20 0.23
0.20 0.07 0.01 0.05 0.10 0.08 0.04 0.03 0.00 0.00 0.00 0.00 0.00 0.00 0.00 0.00 0.00 0.00 0.00 0.00 0.00 0.00 0.00 0.00 0.00 0.00 0.01 0.01 0.01 0.01 0.04 0.10 0.15 0.18 0.19 0.26 0.29 0.47 0.53 0.41 0.28 0.31 0.29 0.26 0.30 0.30 0.32 0.36 0.24
0.24 0.10 0.03 0.09 0.16 0.17 0.11 0.09 0.01 0.00 0.00 0.00 0.00 0.00 0.00 0.00 0.00 0.00 0.00 0.00 0.00 0.00 0.00 0.00 0.00 0.00 0.00 0.00 0.00 0.00 0.04 0.11 0.15 0.17 0.19 0.24 0.30 0.35 0.38 0.38 0.38 0.30 0.34 0.38 0.37 0.37 0.32 0.40 0.40
0.25 0.23 0.21 0.15 0.41 0.44 0.11 0.14 0.07 0.00 0.00 0.00 0.00 0.00 0.00 0.00 0.00 0.00 0.00 0.00 0.00 0.00 0.00 0.00 0.00 0.00 0.00 0.00 0.00 0.00 0.03 0.07 0.07 0.11 0.18 0.21 0.22 0.21 0.23 0.30 0.28 0.36 0.30 0.28 0.33 0.38 0.40 0.35 0.44
0.70 0.80 1.02 0.73 0.69 0.45 0.07 0.06 0.07 0.00 0.00 0.00 0.00 0.00 0.00 0.00 0.00 0.00 0.00 0.00 0.00 0.00 0.00 0.00 0.00 0.00 0.00 0.00 0.00 0.00 0.00 0.04 0.07 0.11 0.13 0.14 0.13 0.11 0.16 0.24 0.26 0.28 0.29 0.31 0.30 0.30 0.26 0.28 0.32
0.80 0.85 0.89 0.38 0.15 0.12 0.05 0.11 0.02 0.00 0.00 0.00 0.00 0.00 0.00 0.00 0.00 0.00 0.00 0.00 0.00 0.00 0.00 0.00 0.00 0.00 0.00 0.00 0.00 0.00 0.00 0.02 0.05 0.06 0.07 0.08 0.10 0.14 0.13 0.16 0.21 0.23 0.24 0.26 0.26 0.25 0.24 0.22 0.23
1.00 0.97 0.50 0.49 0.25 0.25 0.10 0.01 0.00 0.00 0.00 0.00 0.00 0.00 0.00 0.00 0.00 0.00 0.00 0.00 0.00 0.00 0.00 0.00 0.00 0.00 0.00 0.00 0.01 0.00 0.01 0.04 0.06 0.06 0.07 0.09 0.10 0.09 0.10 0.13 0.15 0.16 0.17 0.21 0.22 0.21 0.19 0.21 0.22
0.81 0.45 0.59 1.04 0.56 0.21 0.09 0.03 0.00 0.00 0.00 0.00 0.00 0.00 0.00 0.00 0.00 0.00 0.00 0.00 0.00 0.00 0.00 0.00 0.00 0.00 0.01 0.03 0.01 0.01 0.01 0.04 0.05 0.06 0.07 0.07 0.07 0.06 0.09 0.10 0.09 0.08 0.09 0.09 0.11 0.13 0.16 0.19 0.23
0.82 1.02 0.54 0.44 0.24 0.27 0.06 0.02 0.00 0.00 0.00 0.00 0.00 0.00 0.00 0.00 0.00 0.00 0.00 0.00 0.00 0.00 0.00 0.00 0.00 0.00 0.01 0.01 0.01 0.02 0.03 0.05 0.04 0.06 0.05 0.06 0.05 0.05 0.06 0.05 0.05 0.04 0.04 0.04 0.05 0.04 0.06 0.08 0.10
0.35 0.38 0.33 0.58 0.25 0.33 0.28 0.07 0.00 0.00 0.00 0.00 0.01 0.02 0.01 0.00 0.00 0.00 0.00 0.00 0.00 0.00 0.00 0.00 0.00 0.00 0.01 0.00 0.00 0.00 0.02 0.04 0.05 0.06 0.05 0.04 0.04 0.04 0.03 0.02 0.02 0.02 0.01 0.01 0.02 0.03 0.04 0.06 0.07

GFSSGP_prec_precacc_087.txt.gz
Total_Precipitation_Accumulation
0.00 0.00 0.00 0.00 0.00 0.00 0.00 0.00 0.00 0.00 0.00 0.00 0.00 0.00 0.01 0.01 0.00 0.00 0.00 0.00 0.00 0.00 0.01 0.04 0.10 0.11 0.13 0.16 0.10 0.04 0.03 0.05 0.07 0.07 0.07 0.11 0.04 0.01 0.01 0.03 0.04 0.06 0.07 0.16 0.26 0.21 0.07 0.02 0.02
0.00 0.00 0.00 0.00 0.00 0.00 0.00 0.00 0.00 0.00 0.00 0.00 0.00 0.01 0.01 0.00 0.00 0.00 0.00 0.00 0.00 0.00 0.01 0.02 0.07 0.08 0.13 0.15 0.06 0.02 0.03 0.04 0.07 0.04 0.09 0.09 0.02 0.02 0.02 0.03 0.05 0.06 0.10 0.19 0.11 0.02 0.00 0.00 0.01
0.00 0.01 0.00 0.00 0.00 0.00 0.00 0.00 0.00 0.00 0.00 0.00 0.00 0.00 0.00 0.00 0.00 0.00 0.00 0.01 0.00 0.00 0.00 0.02 0.06 0.08 0.13 0.11 0.04 0.03 0.06 0.06 0.03 0.03 0.06 0.07 0.05 0.04 0.05 0.05 0.06 0.06 0.06 0.02 0.00 0.00 0.00 0.00 0.00
0.00 0.01 0.00 0.00 0.00 0.00 0.00 0.00 0.00 0.00 0.00 0.00 0.00 0.00 0.00 0.00 0.00 0.00 0.00 0.01 0.00 0.00 0.00 0.04 0.06 0.08 0.11 0.06 0.03 0.04 0.07 0.04 0.02 0.03 0.02 0.06 0.11 0.11 0.07 0.03 0.01 0.01 0.00 0.00 0.00 0.00 0.00 0.00 0.00
0.01 0.01 0.00 0.00 0.00 0.00 0.00 0.00 0.00 0.00 0.00 0.00 0.00 0.00 0.00 0.00 0.00 0.00 0.00 0.00 0.00 0.00 0.00 0.03 0.07 0.08 0.09 0.04 0.02 0.03 0.03 0.02 0.02 0.02 0.01 0.06 0.13 0.14 0.11 0.01 0.00 0.00 0.00 0.00 0.00 0.00 0.00 0.00 0.00
0.07 0.03 0.02 0.00 0.00 0.00 0.00 0.00 0.00 0.00 0.00 0.00 0.00 0.00 0.01 0.01 0.00 0.01 0.01 0.00 0.00 0.00 0.01 0.03 0.06 0.09 0.07 0.04 0.02 0.01 0.02 0.03 0.03 0.02 0.03 0.06 0.12 0.15 0.16 0.04 0.00 0.00 0.00 0.00 0.00 0.01 0.01 0.01 0.01
0.29 0.06 0.02 0.00 0.00 0.00 0.00 0.00 0.00 0.00 0.00 0.00 0.00 0.02 0.07 0.03 0.03 0.06 0.03 0.00 0.00 0.00 0.01 0.02 0.05 0.08 0.08 0.05 0.03 0.01 0.01 0.02 0.03 0.03 0.02 0.03 0.06 0.04 0.09 0.06 0.02 0.01 0.01 0.00 0.02 0.02 0.02 0.02 0.01
0.18 0.25 0.06 0.01 0.01 0.00 0.00 0.00 0.00 0.00 0.00 0.00 0.00 0.01 0.08 0.04 0.05 0.09 0.03 0.02 0.00 0.01 0.03 0.01 0.03 0.05 0.06 0.05 0.03 0.02 0.02 0.02 0.01 0.03 0.01 0.00 0.00 0.00 0.04 0.04 0.02 0.00 0.00 0.00 0.01 0.02 0.01 0.01 0.01
0.22 0.40 0.28 0.02 0.05 0.01 0.00 0.00 0.00 0.00 0.00 0.00 0.00 0.00 0.02 0.02 0.06 0.09 0.07 0.05 0.04 0.04 0.05 0.02 0.02 0.02 0.02 0.02 0.01 0.02 0.03 0.02 0.01 0.01 0.00 0.00 0.00 0.00 0.00 0.01 0.00 0.00 0.01 0.00 0.00 0.01 0.01 0.01 0.00
0.28 0.32 0.08 0.00 0.00 0.03 0.03 0.00 0.00 0.00 0.00 0.01 0.05 0.03 0.05 0.10 0.14 0.17 0.09 0.05 0.05 0.05 0.06 0.04 0.02 0.02 0.01 0.01 0.01 0.00 0.00 0.00 0.00 0.00 0.00 0.00 0.00 0.00 0.00 0.00 0.00 0.00 0.00 0.00 0.00 0.01 0.00 0.00 0.00
0.11 0.10 0.02 0.02 0.04 0.16 0.05 0.01 0.00 0.00 0.00 0.01 0.04 0.06 0.10 0.22 0.34 0.34 0.16 0.07 0.06 0.03 0.02 0.02 0.03 0.02 0.01 0.00 0.00 0.00 0.00 0.00 0.00 0.00 0.00 0.00 0.00 0.00 0.00 0.00 0.00 0.00 0.00 0.00 0.00 0.01 0.00 0.00 0.00
0.11 0.06 0.08 0.05 0.14 0.13 0.10 0.05 0.00 0.00 0.00 0.00 0.04 0.11 0.13 0.23 0.32 0.44 0.30 0.19 0.05 0.01 0.02 0.01 0.01 0.02 0.01 0.00 0.00 0.00 0.00 0.00 0.00 0.00 0.00 0.00 0.00 0.00 0.00 0.00 0.00 0.00 0.00 0.00 0.00 0.00 0.00 0.00 0.00
0.09 0.12 0.09 0.18 0.06 0.04 0.09 0.17 0.02 0.00 0.00 0.00 0.01 0.05 0.09 0.20 0.37 0.31 0.38 0.19 0.06 0.02 0.01 0.02 0.01 0.01 0.03 0.01 0.01 0.01 0.00 0.00 0.00 0.00 0.00 0.00 0.00 0.00 0.00 0.00 0.00 0.00 0.00 0.00 0.00 0.00 0.00 0.00 0.00
0.03 0.13 0.12 0.09 0.06 0.03 0.06 0.13 0.15 0.00 0.00 0.02 0.04 0.03 0.08 0.08 0.14 0.16 0.08 0.11 0.13 0.13 0.05 0.02 0.01 0.02 0.03 0.04 0.03 0.02 0.00 0.00 0.00 0.00 0.00 0.00 0.00 0.00 0.00 0.00 0.00 0.00 0.00 0.00 0.00 0.00 0.00 0.00 0.00
0.06 0.13 0.15 0.06 0.06 0.09 0.10 0.27 0.26 0.02 0.00 0.01 0.03 0.04 0.02 0.05 0.05 0.02 0.11 0.15 0.27 0.23 0.06 0.01 0.02 0.03 0.02 0.01 0.06 0.08 0.08 0.02 0.02 0.00 0.00 0.00 0.00 0.00 0.00 0.00 0.00 0.00 0.00 0.00 0.00 0.00 0.00 0.00 0.00
0.25 0.16 0.10 0.03 0.02 0.03 0.09 0.10 0.05 0.08 0.00 0.00 0.00 0.01 0.02 0.01 0.03 0.07 0.10 0.07 0.07 0.05 0.12 0.06 0.04 0.07 0.03 0.05 0.10 0.13 0.12 0.06 0.07 0.03 0.00 0.00 0.00 0.00 0.00 0.00 0.00 0.00 0.00 0.00 0.00 0.00 0.00 0.00 0.00
0.29 0.08 0.03 0.03 0.00 0.00 0.01 0.01 0.03 0.15 0.05 0.00 0.00 0.00 0.00 0.01 0.02 0.00 0.02 0.06 0.07 0.10 0.14 0.10 0.06 0.05 0.11 0.22 0.19 0.27 0.24 0.11 0.08 0.06 0.01 0.00 0.02 0.02 0.00 0.00 0.00 0.00 0.00 0.00 0.00 0.00 0.00 0.00 0.00
0.06 0.03 0.01 0.01 0.00 0.00 0.00 0.00 0.00 0.05 0.15 0.01 0.00 0.00 0.00 0.00 0.01 0.00 0.01 0.01 0.07 0.14 0.16 0.18 0.09 0.04 0.07 0.19 0.29 0.32 0.27 0.16 0.09 0.06 0.03 0.13 0.06 0.07 0.03 0.01 0.00 0.00 0.00 0.00 0.00 0.00 0.00 0.00 0.00
0.02 0.03 0.02 0.00 0.00 0.00 0.00 0.00 0.00 0.00 0.09 0.07 0.00 0.00 0.00 0.00 0.00 0.00 0.00 0.01 0.07 0.09 0.11 0.19 0.14 0.13 0.08 0.07 0.08 0.10 0.19 0.41 0.26 0.22 0.34 0.31 0.27 0.23 0.12 0.05 0.05 0.04 0.01 0.02 0.01 0.01 0.01 0.01 0.03
0.05 0.05 0.05 0.01 0.00 0.02 0.00 0.00 0.00 0.00 0.01 0.02 0.01 0.00 0.00 0.00 0.00 0.00 0.00 0.00 0.02 0.04 0.09 0.11 0.13 0.15 0.08 0.04 0.03 0.08 0.23 0.31 0.34 0.36 0.33 0.40 0.41 0.54 0.37 0.21 0.12 0.18 0.14 0.07 0.04 0.04 0.07 0.05 0.14
0.14 0.04 0.03 0.03 0.01 0.02 0.01 0.00 0.00 0.00 0.00 0.00 0.01 0.00 0.00 0.00 0.00 0.00 0.00 0.00 0.00 0.00 0.01 0.02 0.04 0.04 0.04 0.08 0.18 0.26 0.29 0.26 0.24 0.17 0.12 0.15 0.31 0.56 0.45 0.27 0.16 0.22 0.19 0.21 0.14 0.12 0.18 0.20 0.23
0.20 0.07 0.01 0.05 0.10 0.09 0.04 0.03 0.00 0.00 0.00 0.00 0.00 0.00 0.00 0.00 0.00 0.00 0.00 0.00 0.00 0.00 0.00 0.00 0.00 0.02 0.06 0.08 0.07 0.08 0.06 0.10 0.16 0.19 0.19 0.26 0.29 0.47 0.53 0.41 0.28 0.31 0.30 0.26 0.31 0.31 0.33 0.37 0.25
0.24 0.10 0.03 0.09 0.17 0.18 0.11 0.09 0.01 0.00 0.00 0.00 0.00 0.00 0.00 0.00 0.00 0.00 0.00 0.00 0.00 0.00 0.00 0.00 0.00 0.00 0.00 0.01 0.01 0.01 0.05 0.12 0.15 0.17 0.19 0.24 0.30 0.35 0.38 0.38 0.38 0.30 0.34 0.38 0.37 0.37 0.33 0.41 0.41
0.25 0.23 0.21 0.16 0.42 0.45 0.11 0.15 0.07 0.00 0.00 0.00 0.00 0.00 0.00 0.00 0.00 0.00 0.00 0.00 0.00 0.00 0.00 0.00 0.00 0.00 0.00 0.00 0.00 0.00 0.03 0.07 0.07 0.11 0.18 0.21 0.22 0.21 0.23 0.30 0.28 0.36 0.30 0.28 0.33 0.38 0.40 0.36 0.45
0.70 0.81 1.04 0.75 0.70 0.45 0.07 0.06 0.07 0.00 0.00 0.00 0.00 0.00 0.00 0.00 0.00 0.00 0.00 0.00 0.00 0.00 0.00 0.00 0.00 0.00 0.00 0.00 0.00 0.00 0.00 0.04 0.07 0.11 0.13 0.14 0.13 0.11 0.16 0.24 0.26 0.28 0.29 0.31 0.30 0.30 0.26 0.29 0.33
0.80 0.86 0.89 0.39 0.16 0.12 0.05 0.11 0.02 0.00 0.00 0.00 0.00 0.00 0.00 0.00 0.00 0.00 0.00 0.00 0.00 0.00 0.00 0.00 0.00 0.00 0.00 0.00 0.00 0.00 0.00 0.02 0.05 0.06 0.07 0.08 0.10 0.14 0.13 0.16 0.21 0.23 0.24 0.26 0.26 0.25 0.24 0.22 0.23
1.02 0.99 0.50 0.49 0.25 0.25 0.10 0.01 0.00 0.00 0.00 0.00 0.00 0.00 0.00 0.00 0.00 0.00 0.00 0.00 0.00 0.00 0.00 0.00 0.00 0.00 0.00 0.00 0.01 0.00 0.01 0.04 0.06 0.06 0.07 0.09 0.10 0.09 0.10 0.13 0.15 0.16 0.17 0.21 0.22 0.21 0.19 0.21 0.22
0.82 0.46 0.60 1.05 0.56 0.21 0.09 0.03 0.00 0.00 0.00 0.00 0.00 0.00 0.00 0.00 0.00 0.00 0.00 0.00 0.00 0.00 0.00 0.00 0.00 0.00 0.01 0.03 0.01 0.01 0.01 0.04 0.05 0.06 0.07 0.07 0.07 0.06 0.09 0.10 0.09 0.08 0.09 0.09 0.11 0.13 0.16 0.19 0.23
0.82 1.03 0.55 0.45 0.24 0.27 0.06 0.02 0.00 0.00 0.00 0.00 0.00 0.00 0.00 0.00 0.00 0.00 0.00 0.00 0.00 0.00 0.00 0.00 0.00 0.00 0.01 0.01 0.01 0.02 0.03 0.05 0.04 0.06 0.05 0.06 0.05 0.05 0.06 0.05 0.05 0.04 0.04 0.04 0.05 0.04 0.06 0.08 0.10
0.36 0.38 0.34 0.59 0.25 0.33 0.28 0.07 0.00 0.00 0.00 0.00 0.01 0.02 0.01 0.00 0.00 0.00 0.00 0.00 0.00 0.00 0.00 0.00 0.00 0.00 0.01 0.00 0.00 0.00 0.02 0.04 0.05 0.06 0.05 0.04 0.04 0.04 0.03 0.02 0.02 0.02 0.01 0.01 0.02 0.03 0.04 0.06 0.07

GFSSGP_prec_precacc_090.txt.gz
Total_Precipitation_Accumulation
0.00 0.00 0.00 0.00 0.00 0.00 0.00 0.00 0.00 0.00 0.00 0.00 0.00 0.00 0.02 0.03 0.00 0.01 0.00 0.00 0.00 0.00 0.01 0.04 0.10 0.11 0.13 0.18 0.11 0.05 0.04 0.06 0.07 0.07 0.07 0.11 0.04 0.01 0.01 0.03 0.04 0.07 0.08 0.16 0.27 0.21 0.07 0.02 0.02
0.00 0.00 0.00 0.00 0.00 0.00 0.00 0.00 0.00 0.00 0.00 0.00 0.00 0.02 0.04 0.02 0.00 0.00 0.00 0.00 0.00 0.00 0.01 0.02 0.07 0.08 0.14 0.17 0.07 0.02 0.03 0.04 0.07 0.05 0.10 0.09 0.03 0.02 0.02 0.03 0.05 0.06 0.10 0.19 0.11 0.02 0.00 0.00 0.01
0.00 0.01 0.00 0.00 0.00 0.00 0.00 0.00 0.00 0.00 0.00 0.00 0.00 0.01 0.01 0.01 0.01 0.00 0.00 0.01 0.00 0.00 0.00 0.02 0.07 0.08 0.13 0.11 0.04 0.03 0.06 0.06 0.03 0.04 0.08 0.08 0.06 0.04 0.05 0.05 0.06 0.06 0.06 0.02 0.00 0.00 0.00 0.00 0.00
0.02 0.01 0.00 0.00 0.00 0.00 0.00 0.00 0.00 0.00 0.00 0.00 0.00 0.00 0.00 0.02 0.00 0.00 0.00 0.01 0.00 0.00 0.00 0.04 0.06 0.08 0.12 0.06 0.03 0.04 0.07 0.04 0.02 0.03 0.03 0.07 0.11 0.11 0.07 0.03 0.01 0.01 0.00 0.00 0.00 0.00 0.00 0.00 0.00
0.02 0.02 0.00 0.00 0.00 0.00 0.00 0.00 0.00 0.00 0.00 0.00 0.00 0.01 0.00 0.00 0.03 0.01 0.00 0.00 0.00 0.00 0.00 0.03 0.07 0.09 0.09 0.04 0.02 0.03 0.03 0.02 0.02 0.02 0.02 0.08 0.13 0.14 0.11 0.01 0.00 0.00 0.00 0.00 0.00 0.00 0.00 0.00 0.00
0.16 0.06 0.03 0.00 0.00 0.00 0.00 0.00 0.00 0.00 0.00 0.00 0.00 0.03 0.02 0.01 0.01 0.01 0.01 0.00 0.00 0.00 0.01 0.03 0.07 0.10 0.08 0.04 0.02 0.01 0.02 0.03 0.03 0.02 0.03 0.07 0.12 0.15 0.16 0.04 0.00 0.00 0.00 0.00 0.00 0.01 0.01 0.01 0.01
0.38 0.11 0.03 0.00 0.00 0.00 0.00 0.00 0.00 0.00 0.00 0.00 0.00 0.08 0.09 0.03 0.03 0.06 0.03 0.01 0.00 0.00 0.01 0.03 0.06 0.09 0.08 0.05 0.03 0.01 0.01 0.02 0.03 0.03 0.02 0.04 0.07 0.04 0.09 0.06 0.02 0.01 0.01 0.00 0.02 0.02 0.02 0.02 0.01
0.23 0.30 0.07 0.01 0.01 0.00 0.00 0.00 0.00 0.00 0.00 0.00 0.00 0.05 0.10 0.04 0.07 0.09 0.03 0.02 0.01 0.01 0.03 0.02 0.04 0.06 0.06 0.05 0.03 0.02 0.02 0.02 0.01 0.03 0.01 0.00 0.00 0.00 0.04 0.04 0.02 0.00 0.00 0.00 0.01 0.02 0.01 0.01 0.01
0.27 0.47 0.29 0.02 0.05 0.01 0.00 0.00 0.00 0.00 0.00 0.00 0.00 0.02 0.05 0.03 0.10 0.11 0.08 0.05 0.04 0.04 0.06 0.03 0.03 0.02 0.03 0.02 0.01 0.02 0.03 0.02 0.01 0.01 0.00 0.00 0.00 0.00 0.00 0.01 0.00 0.00 0.01 0.00 0.00 0.01 0.01 0.01 0.00
0.36 0.36 0.08 0.01 0.01 0.04 0.03 0.00 0.00 0.00 0.00 0.01 0.05 0.03 0.05 0.10 0.18 0.22 0.11 0.06 0.06 0.05 0.07 0.05 0.03 0.02 0.02 0.01 0.01 0.00 0.00 0.00 0.00 0.00 0.00 0.00 0.00 0.00 0.00 0.00 0.00 0.00 0.00 0.00 0.00 0.01 0.00 0.00 0.00
0.16 0.11 0.02 0.03 0.05 0.17 0.05 0.01 0.00 0.00 0.00 0.01 0.04 0.06 0.10 0.23 0.37 0.39 0.19 0.08 0.06 0.03 0.03 0.04 0.04 0.02 0.01 0.01 0.00 0.00 0.00 0.00 0.00 0.00 0.00 0.00 0.00 0.00 0.00 0.00 0.00 0.00 0.00 0.00 0.00 0.01 0.00 0.00 0.00
0.18 0.08 0.14 0.08 0.15 0.16 0.11 0.06 0.00 0.00 0.00 0.00 0.04 0.11 0.13 0.24 0.33 0.46 0.33 0.21 0.06 0.02 0.03 0.02 0.03 0.04 0.02 0.01 0.00 0.00 0.00 0.00 0.00 0.00 0.00 0.00 0.00 0.00 0.00 0.00 0.00 0.00 0.00 0.00 0.00 0.00 0.00 0.00 0.00
0.23 0.15 0.16 0.21 0.07 0.06 0.10 0.18 0.02 0.00 0.00 0.00 0.01 0.05 0.09 0.20 0.37 0.31 0.41 0.22 0.09 0.02 0.02 0.02 0.01 0.02 0.04 0.01 0.01 0.01 0.00 0.00 0.00 0.00 0.00 0.00 0.00 0.00 0.00 0.00 0.00 0.00 0.00 0.00 0.00 0.00 0.00 0.00 0.00
0.10 0.21 0.22 0.17 0.07 0.03 0.06 0.13 0.15 0.00 0.00 0.02 0.04 0.03 0.08 0.08 0.14 0.16 0.09 0.13 0.18 0.15 0.07 0.04 0.01 0.03 0.04 0.04 0.04 0.02 0.00 0.00 0.00 0.00 0.00 0.00 0.00 0.00 0.00 0.00 0.00 0.00 0.00 0.00 0.00 0.00 0.00 0.00 0.00
0.10 0.29 0.32 0.17 0.08 0.10 0.11 0.27 0.26 0.02 0.00 0.01 0.03 0.04 0.02 0.05 0.05 0.03 0.12 0.16 0.28 0.26 0.11 0.07 0.03 0.03 0.02 0.01 0.07 0.08 0.09 0.02 0.02 0.00 0.00 0.00 0.00 0.00 0.00 0.00 0.00 0.00 0.00 0.00 0.00 0.00 0.00 0.00 0.00
0.27 0.24 0.30 0.13 0.04 0.06 0.11 0.11 0.05 0.08 0.00 0.00 0.00 0.01 0.02 0.01 0.03 0.07 0.12 0.07 0.08 0.07 0.15 0.10 0.12 0.09 0.04 0.05 0.11 0.13 0.12 0.06 0.07 0.03 0.00 0.00 0.00 0.00 0.00 0.00 0.00 0.00 0.00 0.00 0.00 0.00 0.00 0.00 0.00
0.30 0.10 0.08 0.13 0.06 0.03 0.03 0.01 0.03 0.15 0.05 0.00 0.00 0.00 0.00 0.01 0.02 0.00 0.02 0.06 0.07 0.11 0.16 0.14 0.10 0.06 0.11 0.23 0.21 0.29 0.25 0.11 0.08 0.06 0.01 0.00 0.02 0.02 0.00 0.00 0.00 0.00 0.00 0.00 0.00 0.00 0.00 0.00 0.00
0.06 0.03 0.01 0.03 0.04 0.01 0.02 0.00 0.00 0.05 0.15 0.01 0.00 0.00 0.00 0.00 0.01 0.00 0.01 0.01 0.07 0.15 0.17 0.22 0.13 0.07 0.10 0.24 0.35 0.38 0.29 0.16 0.09 0.06 0.04 0.13 0.06 0.07 0.03 0.01 0.00 0.00 0.00 0.00 0.00 0.00 0.00 0.00 0.00
0.02 0.03 0.02 0.00 0.01 0.02 0.00 0.00 0.00 0.00 0.09 0.07 0.00 0.00 0.00 0.00 0.00 0.00 0.00 0.01 0.07 0.09 0.11 0.19 0.15 0.23 0.14 0.12 0.09 0.14 0.23 0.49 0.29 0.24 0.35 0.31 0.28 0.23 0.12 0.05 0.05 0.04 0.01 0.02 0.01 0.01 0.01 0.01 0.03
0.06 0.05 0.06 0.02 0.01 0.03 0.01 0.00 0.00 0.00 0.01 0.02 0.01 0.00 0.00 0.00 0.00 0.00 0.00 0.00 0.02 0.04 0.10 0.12 0.14 0.20 0.19 0.07 0.12 0.28 0.42 0.47 0.46 0.44 0.39 0.47 0.49 0.57 0.39 0.21 0.12 0.18 0.14 0.07 0.05 0.04 0.07 0.05 0.14
0.15 0.04 0.03 0.04 0.01 0.02 0.01 0.00 0.00 0.00 0.00 0.00 0.01 0.00 0.00 0.00 0.00 0.00 0.00 0.00 0.00 0.00 0.01 0.04 0.10 0.07 0.05 0.13 0.35 0.59 0.58 0.42 0.37 0.33 0.22 0.24 0.34 0.57 0.46 0.27 0.16 0.22 0.19 0.21 0.14 0.12 0.19 0.21 0.23
0.20 0.07 0.02 0.05 0.10 0.09 0.04 0.03 0.00 0.00 0.00 0.00 0.00 0.00 0.00 0.00 0.00 0.00 0.00 0.00 0.00 0.00 0.00 0.00 0.01 0.07 0.18 0.25 0.29 0.18 0.07 0.18 0.30 0.30 0.28 0.31 0.33 0.47 0.53 0.41 0.28 0.31 0.30 0.26 0.31 0.31 0.33 0.38 0.25
0.25 0.10 0.03 0.09 0.17 0.18 0.11 0.09 0.01 0.00 0.00 0.00 0.00 0.00 0.00 0.00 0.00 0.00 0.00 0.00 0.00 0.00 0.01 0.01 0.01 0.01 0.05 0.05 0.03 0.03 0.09 0.20 0.18 0.23 0.22 0.25 0.31 0.35 0.38 0.38 0.38 0.30 0.34 0.38 0.37 0.38 0.33 0.42 0.42
0.26 0.24 0.21 0.16 0.42 0.45 0.11 0.15 0.07 0.00 0.00 0.00 0.00 0.00 0.00 0.00 0.00 0.00 0.00 0.00 0.00 0.00 0.00 0.00 0.00 0.00 0.00 0.01 0.00 0.01 0.04 0.07 0.07 0.12 0.18 0.21 0.22 0.21 0.23 0.30 0.28 0.36 0.30 0.28 0.33 0.38 0.40 0.37 0.46
0.70 0.81 1.05 0.76 0.71 0.45 0.07 0.06 0.07 0.00 0.00 0.00 0.00 0.00 0.00 0.00 0.00 0.00 0.00 0.00 0.00 0.00 0.00 0.00 0.00 0.00 0.00 0.00 0.00 0.00 0.00 0.04 0.07 0.11 0.13 0.14 0.13 0.11 0.16 0.24 0.26 0.28 0.29 0.31 0.30 0.30 0.26 0.29 0.34
0.80 0.87 0.90 0.39 0.16 0.12 0.05 0.11 0.02 0.00 0.00 0.00 0.00 0.00 0.00 0.00 0.00 0.00 0.00 0.00 0.00 0.00 0.00 0.00 0.00 0.00 0.00 0.00 0.00 0.00 0.00 0.02 0.05 0.06 0.07 0.08 0.10 0.14 0.13 0.16 0.21 0.23 0.24 0.26 0.26 0.25 0.24 0.22 0.23
1.03 0.99 0.50 0.51 0.25 0.25 0.10 0.01 0.00 0.00 0.00 0.00 0.00 0.00 0.00 0.00 0.00 0.00 0.00 0.00 0.00 0.00 0.00 0.00 0.00 0.00 0.00 0.00 0.01 0.00 0.01 0.04 0.06 0.06 0.07 0.09 0.10 0.09 0.10 0.13 0.15 0.16 0.17 0.21 0.22 0.21 0.19 0.21 0.22
0.84 0.47 0.61 1.06 0.57 0.22 0.09 0.03 0.00 0.00 0.00 0.00 0.00 0.00 0.00 0.00 0.00 0.00 0.00 0.00 0.00 0.00 0.00 0.00 0.00 0.00 0.01 0.03 0.01 0.01 0.01 0.04 0.05 0.06 0.07 0.07 0.07 0.06 0.09 0.10 0.09 0.08 0.09 0.09 0.11 0.13 0.16 0.19 0.23
0.82 1.04 0.56 0.46 0.24 0.27 0.06 0.02 0.00 0.00 0.00 0.00 0.00 0.00 0.00 0.00 0.00 0.00 0.00 0.00 0.00 0.00 0.00 0.00 0.00 0.00 0.01 0.01 0.01 0.02 0.03 0.05 0.04 0.06 0.05 0.06 0.05 0.05 0.06 0.05 0.05 0.04 0.04 0.04 0.05 0.04 0.06 0.08 0.10
0.36 0.39 0.36 0.61 0.25 0.33 0.28 0.07 0.00 0.00 0.00 0.00 0.01 0.02 0.01 0.00 0.00 0.00 0.00 0.00 0.00 0.00 0.00 0.00 0.01 0.01 0.01 0.00 0.00 0.00 0.02 0.04 0.05 0.06 0.05 0.04 0.04 0.04 0.03 0.02 0.02 0.02 0.01 0.01 0.02 0.03 0.04 0.06 0.07

GFSSGP_prec_precacc_093.txt.gz
Total_Precipitation_Accumulation
0.00 0.00 0.00 0.00 0.00 0.00 0.00 0.00 0.00 0.00 0.00 0.00 0.00 0.01 0.13 0.10 0.01 0.01 0.00 0.00 0.00 0.00 0.01 0.04 0.10 0.11 0.14 0.18 0.11 0.06 0.04 0.06 0.07 0.07 0.07 0.11 0.04 0.01 0.01 0.03 0.04 0.07 0.08 0.16 0.27 0.21 0.07 0.02 0.02
0.00 0.00 0.00 0.00 0.00 0.00 0.00 0.00 0.00 0.00 0.00 0.00 0.01 0.03 0.12 0.10 0.01 0.00 0.00 0.00 0.00 0.00 0.01 0.02 0.07 0.08 0.14 0.17 0.07 0.03 0.03 0.05 0.07 0.05 0.10 0.09 0.03 0.02 0.02 0.03 0.06 0.06 0.10 0.19 0.11 0.02 0.00 0.00 0.01
0.01 0.02 0.00 0.00 0.00 0.00 0.00 0.00 0.00 0.00 0.00 0.00 0.00 0.02 0.13 0.09 0.03 0.01 0.00 0.01 0.00 0.00 0.00 0.02 0.07 0.08 0.14 0.12 0.04 0.03 0.06 0.06 0.04 0.05 0.08 0.08 0.06 0.04 0.05 0.05 0.06 0.06 0.06 0.02 0.00 0.00 0.00 0.00 0.00
0.09 0.13 0.03 0.00 0.00 0.00 0.00 0.00 0.00 0.00 0.00 0.00 0.00 0.03 0.07 0.12 0.06 0.03 0.00 0.01 0.00 0.00 0.00 0.04 0.06 0.09 0.12 0.06 0.03 0.04 0.07 0.04 0.02 0.03 0.03 0.07 0.11 0.11 0.07 0.03 0.01 0.01 0.00 0.00 0.00 0.00 0.00 0.00 0.00
0.17 0.13 0.02 0.00 0.00 0.00 0.00 0.00 0.00 0.00 0.00 0.00 0.00 0.03 0.11 0.08 0.16 0.03 0.00 0.00 0.00 0.00 0.00 0.03 0.07 0.09 0.09 0.04 0.02 0.03 0.03 0.02 0.02 0.02 0.02 0.08 0.13 0.14 0.11 0.01 0.00 0.00 0.00 0.00 0.00 0.00 0.00 0.00 0.00
0.33 0.16 0.03 0.00 0.00 0.00 0.00 0.00 0.00 0.00 0.00 0.00 0.01 0.10 0.13 0.04 0.12 0.04 0.01 0.00 0.00 0.00 0.01 0.03 0.08 0.11 0.08 0.04 0.02 0.01 0.02 0.03 0.03 0.02 0.04 0.07 0.12 0.15 0.16 0.04 0.00 0.00 0.00 0.00 0.00 0.01 0.01 0.01 0.01
0.51 0.17 0.03 0.00 0.00 0.00 0.00 0.00 0.00 0.00 0.00 0.00 0.00 0.12 0.14 0.11 0.06 0.07 0.03 0.01 0.00 0.00 0.01 0.03 0.07 0.11 0.08 0.06 0.03 0.01 0.01 0.02 0.03 0.03 0.03 0.04 0.07 0.04 0.09 0.06 0.02 0.01 0.01 0.00 0.02 0.02 0.02 0.02 0.01
0.32 0.36 0.07 0.01 0.01 0.01 0.00 0.00 0.00 0.00 0.00 0.00 0.01 0.06 0.13 0.09 0.07 0.09 0.04 0.02 0.01 0.01 0.03 0.02 0.04 0.06 0.06 0.05 0.03 0.02 0.02 0.02 0.01 0.03 0.01 0.00 0.00 0.00 0.04 0.04 0.02 0.00 0.00 0.00 0.01 0.02 0.01 0.01 0.01
0.40 0.52 0.29 0.02 0.06 0.02 0.00 0.00 0.00 0.00 0.00 0.00 0.00 0.03 0.06 0.04 0.10 0.11 0.09 0.05 0.04 0.04 0.06 0.03 0.03 0.02 0.03 0.02 0.01 0.02 0.03 0.02 0.01 0.01 0.00 0.00 0.00 0.00 0.00 0.01 0.00 0.00 0.01 0.00 0.00 0.01 0.01 0.01 0.00
0.47 0.39 0.08 0.03 0.04 0.04 0.03 0.00 0.00 0.00 0.00 0.01 0.05 0.03 0.05 0.11 0.21 0.24 0.13 0.06 0.06 0.05 0.07 0.05 0.03 0.02 0.02 0.01 0.01 0.00 0.00 0.00 0.00 0.00 0.00 0.00 0.00 0.00 0.00 0.00 0.00 0.00 0.00 0.00 0.00 0.01 0.00 0.00 0.00
0.24 0.13 0.07 0.10 0.06 0.18 0.06 0.01 0.00 0.00 0.00 0.01 0.04 0.06 0.10 0.23 0.39 0.45 0.21 0.08 0.06 0.03 0.03 0.04 0.04 0.02 0.02 0.01 0.00 0.00 0.00 0.00 0.00 0.00 0.00 0.00 0.00 0.00 0.00 0.00 0.00 0.00 0.00 0.00 0.00 0.01 0.00 0.00 0.00
0.29 0.10 0.27 0.18 0.18 0.16 0.12 0.06 0.00 0.00 0.00 0.00 0.04 0.11 0.13 0.24 0.34 0.48 0.37 0.29 0.06 0.02 0.03 0.03 0.03 0.04 0.02 0.01 0.00 0.00 0.00 0.00 0.00 0.00 0.00 0.00 0.00 0.00 0.00 0.00 0.00 0.00 0.00 0.00 0.00 0.00 0.00 0.00 0.00
0.30 0.17 0.22 0.28 0.14 0.07 0.12 0.19 0.03 0.00 0.00 0.00 0.01 0.05 0.09 0.20 0.38 0.32 0.43 0.23 0.09 0.02 0.02 0.03 0.01 0.02 0.05 0.01 0.01 0.01 0.00 0.00 0.00 0.00 0.00 0.00 0.00 0.00 0.00 0.00 0.00 0.00 0.00 0.00 0.00 0.00 0.00 0.00 0.00
0.14 0.24 0.25 0.20 0.18 0.05 0.10 0.19 0.15 0.00 0.00 0.02 0.04 0.03 0.08 0.08 0.15 0.17 0.10 0.14 0.22 0.16 0.07 0.04 0.02 0.03 0.04 0.05 0.04 0.02 0.00 0.00 0.00 0.00 0.00 0.00 0.00 0.00 0.00 0.00 0.00 0.00 0.00 0.00 0.00 0.00 0.00 0.00 0.00
0.11 0.35 0.40 0.25 0.17 0.17 0.15 0.33 0.29 0.02 0.00 0.01 0.03 0.04 0.02 0.05 0.05 0.04 0.13 0.16 0.30 0.27 0.12 0.08 0.04 0.03 0.02 0.02 0.08 0.08 0.09 0.02 0.02 0.00 0.00 0.00 0.00 0.00 0.00 0.00 0.00 0.00 0.00 0.00 0.00 0.00 0.00 0.00 0.00
0.29 0.32 0.39 0.29 0.14 0.11 0.23 0.15 0.08 0.09 0.00 0.00 0.00 0.01 0.02 0.01 0.03 0.08 0.12 0.08 0.09 0.08 0.17 0.16 0.16 0.09 0.04 0.05 0.12 0.14 0.13 0.07 0.07 0.03 0.00 0.00 0.00 0.00 0.00 0.00 0.00 0.00 0.00 0.00 0.00 0.00 0.00 0.00 0.00
0.30 0.18 0.17 0.21 0.17 0.10 0.07 0.04 0.03 0.15 0.05 0.00 0.00 0.00 0.00 0.01 0.02 0.00 0.03 0.07 0.07 0.11 0.16 0.15 0.13 0.07 0.12 0.23 0.22 0.30 0.25 0.12 0.08 0.06 0.01 0.00 0.02 0.02 0.00 0.00 0.00 0.00 0.00 0.00 0.00 0.00 0.00 0.00 0.00
0.06 0.03 0.03 0.06 0.10 0.08 0.07 0.00 0.00 0.05 0.15 0.01 0.00 0.00 0.00 0.00 0.01 0.00 0.01 0.01 0.07 0.15 0.17 0.22 0.14 0.07 0.10 0.25 0.36 0.38 0.30 0.16 0.09 0.06 0.04 0.13 0.06 0.07 0.03 0.01 0.00 0.00 0.00 0.00 0.00 0.00 0.00 0.00 0.00
0.02 0.03 0.02 0.00 0.02 0.04 0.02 0.00 0.00 0.00 0.09 0.07 0.00 0.00 0.00 0.00 0.00 0.00 0.00 0.01 0.07 0.10 0.12 0.19 0.15 0.25 0.14 0.12 0.10 0.14 0.23 0.49 0.29 0.24 0.36 0.31 0.28 0.23 0.12 0.05 0.05 0.04 0.01 0.02 0.01 0.01 0.01 0.01 0.03
0.06 0.05 0.06 0.03 0.04 0.06 0.04 0.01 0.00 0.00 0.01 0.02 0.01 0.00 0.00 0.00 0.00 0.00 0.00 0.00 0.02 0.04 0.11 0.13 0.14 0.20 0.19 0.07 0.12 0.32 0.50 0.62 0.66 0.64 0.61 0.69 0.67 0.68 0.43 0.23 0.14 0.19 0.14 0.07 0.05 0.05 0.07 0.05 0.14
0.15 0.04 0.04 0.04 0.02 0.03 0.02 0.01 0.00 0.00 0.00 0.00 0.01 0.00 0.00 0.00 0.00 0.00 0.00 0.00 0.00 0.00 0.02 0.05 0.12 0.09 0.05 0.15 0.46 0.71 0.75 0.56 0.54 0.52 0.46 0.51 0.55 0.81 0.69 0.42 0.22 0.24 0.20 0.21 0.14 0.12 0.19 0.21 0.23
0.21 0.08 0.03 0.07 0.11 0.09 0.04 0.03 0.00 0.00 0.00 0.00 0.00 0.00 0.00 0.00 0.00 0.00 0.00 0.00 0.00 0.00 0.00 0.00 0.02 0.09 0.20 0.31 0.44 0.32 0.10 0.23 0.43 0.39 0.35 0.37 0.39 0.55 0.62 0.47 0.33 0.34 0.30 0.26 0.31 0.31 0.34 0.38 0.26
0.25 0.10 0.03 0.10 0.17 0.18 0.11 0.09 0.01 0.00 0.00 0.00 0.00 0.00 0.00 0.00 0.00 0.00 0.00 0.00 0.00 0.00 0.01 0.01 0.03 0.03 0.07 0.09 0.07 0.08 0.10 0.23 0.19 0.25 0.26 0.26 0.32 0.36 0.39 0.39 0.40 0.31 0.34 0.38 0.37 0.38 0.33 0.42 0.43
0.26 0.25 0.22 0.16 0.42 0.45 0.11 0.15 0.07 0.00 0.00 0.00 0.00 0.00 0.00 0.00 0.00 0.00 0.00 0.00 0.00 0.00 0.00 0.00 0.01 0.01 0.02 0.09 0.08 0.07 0.10 0.11 0.09 0.18 0.24 0.22 0.22 0.21 0.23 0.30 0.28 0.36 0.30 0.28 0.33 0.38 0.40 0.37 0.46
0.70 0.83 1.06 0.76 0.71 0.45 0.07 0.06 0.07 0.00 0.00 0.00 0.00 0.00 0.00 0.00 0.00 0.00 0.00 0.00 0.00 0.00 0.00 0.00 0.00 0.00 0.01 0.04 0.06 0.04 0.02 0.07 0.09 0.13 0.15 0.15 0.14 0.11 0.16 0.24 0.26 0.28 0.29 0.31 0.30 0.30 0.26 0.29 0.34
0.80 0.87 0.91 0.39 0.16 0.12 0.05 0.11 0.02 0.00 0.00 0.00 0.00 0.00 0.00 0.00 0.00 0.00 0.00 0.00 0.00 0.00 0.00 0.00 0.00 0.00 0.00 0.00 0.02 0.04 0.02 0.03 0.06 0.06 0.07 0.08 0.10 0.14 0.13 0.16 0.21 0.23 0.24 0.26 0.26 0.25 0.24 0.22 0.23
1.03 1.00 0.50 0.52 0.26 0.25 0.10 0.01 0.00 0.00 0.00 0.00 0.00 0.00 0.00 0.00 0.00 0.00 0.00 0.00 0.00 0.00 0.00 0.00 0.00 0.00 0.00 0.00 0.01 0.00 0.01 0.04 0.06 0.06 0.07 0.09 0.10 0.09 0.10 0.13 0.15 0.16 0.17 0.21 0.22 0.21 0.19 0.21 0.22
0.84 0.47 0.61 1.07 0.58 0.22 0.09 0.03 0.00 0.00 0.00 0.00 0.00 0.00 0.00 0.00 0.00 0.00 0.00 0.00 0.00 0.00 0.00 0.00 0.00 0.00 0.01 0.03 0.01 0.01 0.01 0.04 0.05 0.06 0.07 0.07 0.07 0.06 0.09 0.10 0.09 0.08 0.09 0.09 0.11 0.13 0.16 0.19 0.23
0.82 1.04 0.56 0.46 0.24 0.27 0.06 0.02 0.00 0.00 0.00 0.00 0.00 0.00 0.00 0.00 0.00 0.00 0.00 0.00 0.00 0.00 0.00 0.00 0.00 0.00 0.01 0.01 0.01 0.02 0.03 0.05 0.04 0.06 0.05 0.06 0.05 0.05 0.06 0.05 0.05 0.04 0.04 0.04 0.05 0.04 0.06 0.08 0.10
0.36 0.39 0.37 0.62 0.25 0.33 0.28 0.07 0.00 0.00 0.00 0.00 0.01 0.02 0.01 0.00 0.00 0.00 0.00 0.00 0.00 0.00 0.00 0.00 0.01 0.01 0.01 0.00 0.01 0.01 0.02 0.04 0.05 0.06 0.05 0.04 0.04 0.04 0.03 0.02 0.02 0.02 0.01 0.01 0.02 0.03 0.04 0.06 0.07

GFSSGP_prec_precacc_096.txt.gz
Total_Precipitation_Accumulation
0.01 0.00 0.00 0.00 0.00 0.00 0.00 0.00 0.00 0.00 0.00 0.00 0.00 0.01 0.14 0.11 0.01 0.01 0.00 0.00 0.00 0.00 0.01 0.05 0.10 0.12 0.14 0.18 0.12 0.06 0.05 0.07 0.07 0.07 0.07 0.11 0.04 0.02 0.02 0.03 0.04 0.07 0.08 0.16 0.27 0.21 0.07 0.02 0.02
0.03 0.00 0.00 0.00 0.00 0.00 0.00 0.00 0.00 0.01 0.00 0.00 0.01 0.03 0.13 0.11 0.01 0.00 0.00 0.00 0.00 0.00 0.01 0.02 0.08 0.09 0.14 0.17 0.08 0.03 0.03 0.05 0.07 0.05 0.10 0.09 0.03 0.02 0.02 0.04 0.06 0.06 0.10 0.19 0.11 0.02 0.00 0.00 0.01
0.06 0.07 0.02 0.00 0.00 0.00 0.00 0.00 0.00 0.00 0.00 0.00 0.00 0.03 0.15 0.10 0.04 0.01 0.00 0.01 0.00 0.00 0.00 0.02 0.07 0.09 0.14 0.12 0.05 0.03 0.07 0.07 0.04 0.05 0.08 0.08 0.06 0.04 0.05 0.05 0.06 0.06 0.06 0.02 0.00 0.00 0.00 0.00 0.00
0.18 0.23 0.08 0.00 0.00 0.00 0.00 0.00 0.00 0.00 0.00 0.00 0.00 0.06 0.12 0.14 0.07 0.03 0.00 0.01 0.00 0.00 0.00 0.04 0.07 0.10 0.13 0.06 0.03 0.04 0.08 0.04 0.02 0.03 0.03 0.07 0.11 0.11 0.07 0.03 0.01 0.01 0.00 0.00 0.00 0.00 0.00 0.00 0.00
0.27 0.19 0.02 0.00 0.00 0.00 0.00 0.00 0.00 0.00 0.00 0.00 0.00 0.04 0.18 0.13 0.20 0.03 0.00 0.00 0.00 0.00 0.00 0.04 0.09 0.10 0.10 0.04 0.02 0.03 0.04 0.02 0.02 0.02 0.02 0.08 0.13 0.14 0.11 0.01 0.00 0.00 0.00 0.00 0.00 0.00 0.00 0.00 0.00
0.49 0.23 0.03 0.00 0.00 0.00 0.00 0.00 0.00 0.00 0.00 0.00 0.01 0.11 0.25 0.28 0.33 0.17 0.03 0.00 0.00 0.00 0.02 0.05 0.09 0.12 0.08 0.05 0.02 0.01 0.02 0.03 0.04 0.02 0.04 0.07 0.12 0.15 0.16 0.04 0.00 0.00 0.00 0.00 0.00 0.01 0.01 0.01 0.01
0.66 0.21 0.03 0.00 0.00 0.00 0.00 0.00 0.00 0.00 0.00 0.00 0.01 0.13 0.18 0.37 0.36 0.23 0.06 0.01 0.00 0.00 0.01 0.04 0.08 0.11 0.08 0.06 0.03 0.01 0.01 0.03 0.04 0.04 0.03 0.04 0.07 0.04 0.09 0.06 0.02 0.01 0.01 0.00 0.02 0.02 0.02 0.02 0.01
0.42 0.38 0.07 0.01 0.01 0.01 0.00 0.00 0.00 0.00 0.00 0.00 0.01 0.07 0.18 0.26 0.27 0.22 0.09 0.03 0.01 0.01 0.03 0.02 0.04 0.06 0.06 0.05 0.03 0.02 0.02 0.02 0.02 0.03 0.01 0.00 0.00 0.00 0.04 0.04 0.02 0.00 0.00 0.00 0.01 0.02 0.01 0.01 0.01
0.51 0.55 0.29 0.02 0.06 0.02 0.00 0.00 0.00 0.00 0.00 0.00 0.01 0.03 0.09 0.10 0.20 0.39 0.16 0.07 0.05 0.04 0.06 0.03 0.03 0.02 0.03 0.02 0.01 0.02 0.03 0.02 0.01 0.01 0.00 0.00 0.00 0.00 0.00 0.01 0.00 0.00 0.01 0.00 0.00 0.01 0.01 0.01 0.00
0.70 0.41 0.08 0.04 0.04 0.04 0.03 0.00 0.00 0.00 0.00 0.02 0.07 0.04 0.06 0.17 0.31 0.42 0.35 0.13 0.07 0.05 0.07 0.05 0.03 0.02 0.02 0.01 0.01 0.00 0.00 0.00 0.00 0.00 0.00 0.00 0.00 0.00 0.00 0.00 0.00 0.00 0.00 0.00 0.00 0.01 0.00 0.00 0.00
0.49 0.18 0.10 0.15 0.08 0.18 0.06 0.01 0.00 0.00 0.00 0.01 0.05 0.08 0.14 0.30 0.49 0.53 0.30 0.24 0.10 0.03 0.03 0.04 0.04 0.02 0.02 0.01 0.00 0.00 0.00 0.00 0.00 0.00 0.00 0.00 0.00 0.00 0.00 0.00 0.00 0.00 0.00 0.00 0.00 0.01 0.00 0.00 0.00
0.44 0.18 0.30 0.23 0.21 0.17 0.12 0.06 0.00 0.00 0.00 0.00 0.04 0.11 0.16 0.26 0.41 0.61 0.43 0.32 0.08 0.02 0.03 0.03 0.03 0.04 0.02 0.01 0.00 0.00 0.00 0.00 0.00 0.00 0.00 0.00 0.00 0.00 0.00 0.00 0.00 0.00 0.00 0.00 0.00 0.00 0.00 0.00 0.00
0.40 0.35 0.25 0.33 0.17 0.08 0.12 0.19 0.03 0.00 0.00 0.00 0.01 0.05 0.09 0.25 0.45 0.37 0.53 0.26 0.10 0.03 0.02 0.03 0.01 0.02 0.05 0.01 0.01 0.01 0.00 0.00 0.00 0.00 0.00 0.00 0.00 0.00 0.00 0.00 0.00 0.00 0.00 0.00 0.00 0.00 0.00 0.00 0.00
0.25 0.47 0.33 0.28 0.22 0.08 0.11 0.20 0.15 0.00 0.00 0.02 0.05 0.05 0.08 0.11 0.16 0.19 0.15 0.15 0.24 0.16 0.07 0.05 0.02 0.03 0.04 0.05 0.04 0.02 0.00 0.00 0.00 0.00 0.00 0.00 0.00 0.00 0.00 0.00 0.00 0.00 0.00 0.00 0.00 0.00 0.00 0.00 0.00
0.17 0.48 0.57 0.31 0.31 0.22 0.16 0.34 0.29 0.02 0.00 0.01 0.03 0.05 0.03 0.06 0.06 0.04 0.15 0.16 0.33 0.27 0.12 0.08 0.04 0.03 0.02 0.02 0.08 0.08 0.09 0.02 0.02 0.00 0.00 0.00 0.00 0.00 0.00 0.00 0.00 0.00 0.00 0.00 0.00 0.00 0.00 0.00 0.00
0.32 0.46 0.57 0.37 0.32 0.28 0.27 0.17 0.09 0.10 0.00 0.00 0.00 0.01 0.02 0.02 0.04 0.08 0.13 0.08 0.09 0.08 0.18 0.17 0.16 0.09 0.04 0.05 0.12 0.14 0.13 0.07 0.07 0.03 0.00 0.00 0.00 0.00 0.00 0.00 0.00 0.00 0.00 0.00 0.00 0.00 0.00 0.00 0.00
0.31 0.23 0.23 0.27 0.24 0.27 0.16 0.13 0.04 0.17 0.05 0.00 0.00 0.00 0.00 0.01 0.02 0.01 0.04 0.08 0.08 0.12 0.16 0.15 0.13 0.07 0.12 0.23 0.22 0.30 0.25 0.12 0.08 0.06 0.01 0.00 0.02 0.02 0.00 0.00 0.00 0.00 0.00 0.00 0.00 0.00 0.00 0.00 0.00
0.06 0.03 0.03 0.08 0.15 0.12 0.15 0.06 0.06 0.07 0.15 0.01 0.00 0.00 0.00 0.00 0.01 0.01 0.04 0.04 0.09 0.19 0.19 0.22 0.14 0.07 0.10 0.26 0.37 0.38 0.30 0.16 0.10 0.06 0.04 0.13 0.06 0.07 0.03 0.01 0.00 0.00 0.00 0.00 0.00 0.00 0.00 0.00 0.00
0.02 0.03 0.02 0.01 0.03 0.05 0.04 0.04 0.04 0.03 0.09 0.07 0.00 0.00 0.00 0.00 0.00 0.00 0.00 0.03 0.13 0.14 0.17 0.20 0.15 0.26 0.14 0.13 0.11 0.15 0.23 0.50 0.30 0.24 0.36 0.32 0.28 0.23 0.12 0.05 0.05 0.04 0.01 0.02 0.01 0.01 0.01 0.01 0.03
0.06 0.05 0.06 0.04 0.05 0.07 0.05 0.01 0.00 0.01 0.01 0.02 0.01 0.00 0.00 0.00 0.00 0.00 0.00 0.00 0.03 0.07 0.15 0.14 0.14 0.20 0.19 0.08 0.14 0.34 0.54 0.64 0.72 0.72 0.69 0.79 0.79 0.80 0.51 0.31 0.22 0.23 0.17 0.12 0.09 0.07 0.08 0.05 0.15
0.15 0.04 0.04 0.05 0.03 0.06 0.02 0.01 0.00 0.00 0.00 0.00 0.01 0.00 0.00 0.00 0.00 0.00 0.00 0.00 0.00 0.02 0.02 0.05 0.13 0.10 0.05 0.15 0.50 0.73 0.78 0.59 0.59 0.59 0.57 0.63 0.72 1.00 0.88 0.60 0.41 0.36 0.28 0.24 0.16 0.14 0.20 0.21 0.24
0.21 0.08 0.03 0.07 0.11 0.10 0.04 0.03 0.00 0.00 0.00 0.00 0.00 0.00 0.00 0.00 0.00 0.00 0.00 0.00 0.00 0.00 0.00 0.00 0.02 0.09 0.21 0.35 0.53 0.33 0.12 0.27 0.44 0.44 0.42 0.47 0.43 0.60 0.71 0.54 0.37 0.36 0.33 0.28 0.31 0.31 0.34 0.39 0.27
0.25 0.10 0.04 0.11 0.17 0.18 0.11 0.09 0.01 0.00 0.00 0.00 0.00 0.00 0.00 0.00 0.00 0.00 0.00 0.00 0.00 0.00 0.01 0.01 0.06 0.06 0.11 0.13 0.14 0.25 0.21 0.27 0.21 0.28 0.31 0.29 0.33 0.42 0.43 0.41 0.40 0.32 0.34 0.38 0.37 0.38 0.33 0.42 0.43
0.26 0.25 0.22 0.17 0.44 0.47 0.11 0.15 0.07 0.00 0.00 0.00 0.00 0.00 0.00 0.00 0.00 0.00 0.00 0.00 0.00 0.00 0.00 0.00 0.04 0.05 0.07 0.17 0.19 0.21 0.16 0.16 0.11 0.20 0.27 0.27 0.24 0.22 0.24 0.31 0.28 0.36 0.30 0.28 0.33 0.38 0.40 0.37 0.46
0.70 0.86 1.09 0.79 0.81 0.48 0.07 0.06 0.07 0.00 0.00 0.00 0.00 0.00 0.00 0.00 0.00 0.00 0.00 0.00 0.00 0.00 0.00 0.00 0.00 0.01 0.06 0.15 0.17 0.17 0.13 0.18 0.23 0.25 0.25 0.22 0.18 0.13 0.16 0.25 0.26 0.28 0.29 0.31 0.30 0.30 0.26 0.29 0.34
0.81 0.90 0.93 0.39 0.16 0.12 0.05 0.11 0.02 0.00 0.00 0.00 0.00 0.00 0.00 0.00 0.00 0.00 0.00 0.00 0.00 0.00 0.00 0.00 0.00 0.00 0.00 0.02 0.06 0.10 0.13 0.16 0.22 0.23 0.18 0.14 0.13 0.16 0.14 0.16 0.21 0.23 0.24 0.26 0.26 0.25 0.24 0.22 0.23
1.04 1.01 0.51 0.52 0.26 0.25 0.10 0.01 0.00 0.00 0.00 0.00 0.00 0.00 0.00 0.00 0.00 0.00 0.00 0.00 0.00 0.00 0.00 0.00 0.00 0.00 0.00 0.00 0.01 0.02 0.05 0.11 0.12 0.09 0.10 0.11 0.11 0.10 0.10 0.13 0.15 0.16 0.17 0.21 0.22 0.21 0.19 0.21 0.22
0.84 0.47 0.62 1.08 0.59 0.22 0.09 0.03 0.00 0.00 0.00 0.00 0.00 0.00 0.00 0.00 0.00 0.00 0.00 0.00 0.00 0.00 0.00 0.00 0.00 0.00 0.01 0.03 0.01 0.01 0.01 0.04 0.06 0.07 0.07 0.07 0.07 0.06 0.09 0.10 0.09 0.08 0.09 0.09 0.11 0.13 0.16 0.19 0.23
0.83 1.04 0.56 0.46 0.24 0.27 0.06 0.02 0.00 0.00 0.00 0.00 0.00 0.00 0.00 0.00 0.00 0.00 0.00 0.00 0.00 0.00 0.00 0.00 0.00 0.00 0.01 0.01 0.01 0.02 0.03 0.05 0.04 0.06 0.05 0.06 0.05 0.05 0.06 0.05 0.05 0.04 0.04 0.04 0.05 0.04 0.06 0.08 0.10
0.38 0.40 0.37 0.62 0.25 0.33 0.28 0.07 0.00 0.00 0.00 0.00 0.01 0.02 0.01 0.00 0.00 0.00 0.00 0.00 0.00 0.00 0.00 0.00 0.01 0.01 0.01 0.00 0.01 0.01 0.03 0.04 0.05 0.06 0.05 0.04 0.04 0.04 0.03 0.02 0.02 0.02 0.01 0.01 0.02 0.03 0.04 0.06 0.07

GFSSGP_prec_precacc_099.txt.gz
Total_Precipitation_Accumulation
0.15 0.03 0.02 0.00 0.00 0.00 0.00 0.00 0.00 0.01 0.01 0.00 0.00 0.01 0.14 0.11 0.01 0.01 0.00 0.00 0.00 0.00 0.01 0.05 0.10 0.12 0.15 0.18 0.12 0.06 0.05 0.07 0.08 0.10 0.11 0.16 0.12 0.04 0.02 0.03 0.04 0.07 0.08 0.16 0.27 0.21 0.07 0.02 0.02
0.36 0.12 0.02 0.02 0.00 0.00 0.00 0.00 0.00 0.02 0.00 0.00 0.01 0.03 0.14 0.11 0.01 0.00 0.01 0.00 0.00 0.00 0.01 0.02 0.08 0.09 0.14 0.17 0.08 0.03 0.03 0.05 0.07 0.06 0.10 0.11 0.03 0.02 0.02 0.04 0.06 0.06 0.10 0.19 0.11 0.02 0.00 0.00 0.01
0.41 0.20 0.07 0.02 0.00 0.00 0.00 0.00 0.00 0.00 0.00 0.01 0.02 0.04 0.15 0.10 0.04 0.01 0.01 0.02 0.00 0.00 0.00 0.03 0.08 0.09 0.15 0.12 0.05 0.03 0.07 0.07 0.04 0.05 0.08 0.08 0.06 0.04 0.05 0.05 0.06 0.06 0.06 0.02 0.00 0.00 0.00 0.00 0.00
0.52 0.47 0.18 0.01 0.00 0.00 0.00 0.00 0.00 0.00 0.02 0.00 0.02 0.08 0.12 0.14 0.07 0.03 0.00 0.01 0.00 0.00 0.00 0.05 0.08 0.10 0.13 0.06 0.03 0.05 0.08 0.04 0.02 0.03 0.03 0.07 0.11 0.11 0.07 0.03 0.01 0.01 0.00 0.00 0.00 0.00 0.00 0.00 0.00
0.50 0.62 0.09 0.00 0.00 0.00 0.00 0.00 0.00 0.00 0.01 0.03 0.05 0.06 0.19 0.13 0.20 0.03 0.00 0.00 0.00 0.00 0.00 0.04 0.10 0.10 0.10 0.04 0.03 0.05 0.05 0.02 0.02 0.02 0.02 0.08 0.13 0.14 0.11 0.01 0.00 0.00 0.00 0.00 0.00 0.00 0.00 0.00 0.00
0.69 0.62 0.12 0.00 0.00 0.00 0.00 0.00 0.00 0.00 0.00 0.01 0.04 0.13 0.31 0.31 0.37 0.18 0.03 0.00 0.00 0.00 0.02 0.06 0.11 0.12 0.08 0.05 0.02 0.03 0.03 0.04 0.04 0.02 0.04 0.07 0.12 0.15 0.16 0.04 0.00 0.00 0.00 0.00 0.00 0.01 0.01 0.01 0.01
1.06 0.45 0.15 0.00 0.00 0.00 0.00 0.00 0.00 0.00 0.00 0.00 0.01 0.14 0.25 0.46 0.52 0.31 0.06 0.01 0.00 0.01 0.02 0.05 0.09 0.11 0.08 0.06 0.03 0.02 0.02 0.03 0.04 0.04 0.03 0.04 0.07 0.04 0.09 0.06 0.02 0.01 0.01 0.00 0.02 0.02 0.02 0.02 0.01
0.82 0.68 0.08 0.01 0.01 0.01 0.00 0.00 0.00 0.00 0.00 0.00 0.01 0.07 0.19 0.31 0.49 0.39 0.14 0.05 0.01 0.02 0.04 0.03 0.05 0.06 0.06 0.05 0.03 0.02 0.03 0.02 0.02 0.03 0.01 0.00 0.00 0.00 0.04 0.04 0.02 0.00 0.00 0.00 0.01 0.02 0.01 0.01 0.01
0.81 1.00 0.30 0.02 0.06 0.02 0.00 0.00 0.00 0.00 0.01 0.01 0.01 0.03 0.09 0.11 0.30 0.56 0.30 0.13 0.06 0.06 0.07 0.04 0.03 0.02 0.03 0.02 0.01 0.02 0.03 0.03 0.01 0.01 0.00 0.00 0.00 0.00 0.00 0.01 0.00 0.00 0.01 0.00 0.00 0.01 0.01 0.01 0.00
1.02 0.81 0.10 0.04 0.04 0.04 0.03 0.00 0.00 0.00 0.00 0.07 0.13 0.04 0.06 0.17 0.32 0.55 0.57 0.21 0.09 0.07 0.09 0.06 0.03 0.02 0.02 0.01 0.01 0.00 0.00 0.00 0.00 0.00 0.00 0.00 0.00 0.00 0.00 0.00 0.00 0.00 0.00 0.00 0.00 0.01 0.00 0.00 0.00
0.92 0.47 0.13 0.16 0.08 0.18 0.06 0.01 0.00 0.00 0.00 0.01 0.06 0.11 0.18 0.31 0.51 0.61 0.63 0.54 0.24 0.06 0.05 0.05 0.04 0.02 0.02 0.01 0.00 0.00 0.00 0.00 0.00 0.00 0.00 0.00 0.00 0.00 0.00 0.00 0.00 0.00 0.00 0.00 0.00 0.01 0.00 0.00 0.00
0.92 0.42 0.36 0.26 0.23 0.17 0.12 0.06 0.00 0.00 0.00 0.00 0.09 0.23 0.28 0.31 0.47 0.67 0.61 0.85 0.32 0.08 0.04 0.03 0.03 0.04 0.02 0.01 0.00 0.00 0.00 0.00 0.00 0.00 0.00 0.00 0.00 0.00 0.00 0.00 0.00 0.00 0.00 0.00 0.00 0.00 0.00 0.00 0.00
0.91 0.74 0.30 0.35 0.18 0.08 0.12 0.19 0.03 0.00 0.00 0.01 0.03 0.08 0.15 0.41 0.60 0.53 0.67 0.44 0.33 0.12 0.03 0.03 0.01 0.02 0.05 0.01 0.01 0.01 0.00 0.00 0.00 0.00 0.00 0.00 0.00 0.00 0.00 0.00 0.00 0.00 0.00 0.00 0.00 0.00 0.00 0.00 0.00
0.70 0.99 0.39 0.29 0.24 0.08 0.11 0.20 0.15 0.00 0.00 0.02 0.07 0.09 0.19 0.25 0.28 0.32 0.27 0.28 0.52 0.38 0.15 0.05 0.02 0.03 0.04 0.05 0.04 0.02 0.00 0.00 0.00 0.00 0.00 0.00 0.00 0.00 0.00 0.00 0.00 0.00 0.00 0.00 0.00 0.00 0.00 0.00 0.00
0.43 1.07 0.73 0.32 0.32 0.23 0.17 0.34 0.29 0.02 0.00 0.02 0.07 0.12 0.15 0.17 0.13 0.15 0.29 0.30 0.50 0.42 0.18 0.09 0.04 0.03 0.02 0.02 0.08 0.08 0.09 0.02 0.02 0.00 0.00 0.00 0.00 0.00 0.00 0.00 0.00 0.00 0.00 0.00 0.00 0.00 0.00 0.00 0.00
0.37 0.73 0.96 0.43 0.37 0.33 0.31 0.17 0.09 0.10 0.00 0.00 0.00 0.06 0.10 0.09 0.09 0.16 0.26 0.23 0.23 0.26 0.40 0.31 0.18 0.09 0.04 0.06 0.12 0.14 0.13 0.07 0.07 0.03 0.00 0.00 0.00 0.00 0.00 0.00 0.00 0.00 0.00 0.00 0.00 0.00 0.00 0.00 0.00
0.31 0.27 0.47 0.48 0.32 0.44 0.29 0.15 0.04 0.17 0.05 0.00 0.00 0.00 0.04 0.12 0.10 0.05 0.14 0.22 0.23 0.25 0.35 0.42 0.30 0.08 0.13 0.31 0.25 0.31 0.25 0.12 0.08 0.06 0.01 0.00 0.02 0.02 0.00 0.00 0.00 0.00 0.00 0.00 0.00 0.00 0.00 0.00 0.00
0.06 0.03 0.06 0.19 0.23 0.31 0.34 0.21 0.09 0.07 0.15 0.01 0.00 0.00 0.00 0.01 0.03 0.09 0.12 0.12 0.17 0.26 0.28 0.46 0.43 0.22 0.12 0.32 0.43 0.40 0.30 0.16 0.10 0.07 0.04 0.13 0.07 0.07 0.03 0.01 0.00 0.00 0.00 0.00 0.00 0.00 0.00 0.00 0.00
0.02 0.03 0.02 0.01 0.06 0.13 0.19 0.22 0.15 0.03 0.09 0.07 0.00 0.00 0.00 0.00 0.00 0.01 0.06 0.11 0.24 0.18 0.19 0.24 0.21 0.36 0.26 0.17 0.11 0.15 0.23 0.50 0.30 0.24 0.36 0.32 0.28 0.23 0.12 0.05 0.05 0.04 0.01 0.02 0.01 0.01 0.01 0.01 0.03
0.06 0.05 0.06 0.04 0.05 0.09 0.09 0.05 0.07 0.07 0.01 0.02 0.01 0.00 0.00 0.00 0.00 0.00 0.00 0.02 0.05 0.15 0.27 0.22 0.16 0.24 0.21 0.12 0.18 0.35 0.55 0.66 0.73 0.72 0.69 0.79 0.79 0.81 0.51 0.31 0.22 0.25 0.19 0.14 0.12 0.09 0.08 0.05 0.15
0.15 0.04 0.04 0.05 0.03 0.06 0.03 0.01 0.00 0.01 0.00 0.00 0.01 0.00 0.00 0.00 0.00 0.00 0.00 0.00 0.01 0.03 0.03 0.05 0.14 0.19 0.11 0.16 0.54 0.81 0.84 0.63 0.66 0.59 0.57 0.63 0.77 1.11 1.05 0.81 0.56 0.45 0.30 0.28 0.16 0.15 0.22 0.23 0.24
0.21 0.08 0.03 0.07 0.11 0.10 0.04 0.03 0.00 0.00 0.00 0.00 0.00 0.00 0.00 0.00 0.00 0.00 0.00 0.00 0.00 0.00 0.01 0.02 0.08 0.14 0.27 0.41 0.59 0.36 0.14 0.42 0.47 0.50 0.51 0.53 0.48 0.66 0.79 0.66 0.55 0.54 0.43 0.34 0.33 0.34 0.36 0.40 0.27
0.25 0.10 0.04 0.11 0.17 0.18 0.11 0.09 0.01 0.00 0.00 0.00 0.00 0.00 0.00 0.00 0.00 0.00 0.00 0.00 0.00 0.00 0.01 0.02 0.07 0.11 0.25 0.22 0.25 0.31 0.23 0.31 0.30 0.38 0.47 0.36 0.36 0.44 0.54 0.53 0.53 0.42 0.38 0.40 0.39 0.38 0.34 0.43 0.43
0.26 0.25 0.22 0.18 0.45 0.47 0.11 0.15 0.07 0.00 0.00 0.00 0.00 0.00 0.00 0.00 0.00 0.00 0.00 0.00 0.00 0.00 0.00 0.01 0.06 0.09 0.09 0.24 0.24 0.32 0.29 0.23 0.17 0.27 0.38 0.48 0.52 0.46 0.47 0.44 0.34 0.39 0.31 0.29 0.34 0.39 0.41 0.37 0.46
0.70 0.87 1.11 0.82 0.90 0.50 0.07 0.06 0.07 0.00 0.00 0.00 0.00 0.00 0.00 0.00 0.00 0.00 0.00 0.00 0.00 0.00 0.00 0.00 0.00 0.02 0.09 0.19 0.24 0.27 0.21 0.23 0.27 0.36 0.38 0.42 0.43 0.35 0.29 0.30 0.28 0.28 0.29 0.31 0.30 0.30 0.26 0.29 0.34
0.81 0.92 0.99 0.40 0.17 0.14 0.05 0.11 0.02 0.00 0.00 0.00 0.00 0.00 0.00 0.00 0.00 0.00 0.00 0.00 0.00 0.00 0.00 0.00 0.00 0.00 0.02 0.05 0.08 0.11 0.15 0.19 0.29 0.33 0.30 0.27 0.25 0.25 0.20 0.21 0.24 0.23 0.24 0.26 0.26 0.25 0.24 0.22 0.23
1.04 1.01 0.53 0.57 0.27 0.25 0.10 0.01 0.00 0.00 0.00 0.00 0.00 0.00 0.00 0.00 0.00 0.00 0.00 0.00 0.00 0.00 0.00 0.00 0.00 0.00 0.00 0.01 0.01 0.02 0.07 0.13 0.14 0.14 0.15 0.17 0.16 0.15 0.15 0.18 0.17 0.16 0.17 0.21 0.22 0.21 0.19 0.21 0.22
0.84 0.48 0.63 1.10 0.63 0.22 0.09 0.03 0.00 0.00 0.00 0.00 0.00 0.00 0.00 0.00 0.00 0.00 0.00 0.00 0.00 0.00 0.00 0.00 0.00 0.00 0.01 0.03 0.01 0.01 0.01 0.04 0.06 0.09 0.10 0.10 0.09 0.07 0.09 0.10 0.09 0.08 0.09 0.09 0.11 0.13 0.16 0.19 0.23
0.84 1.05 0.56 0.46 0.25 0.27 0.06 0.02 0.00 0.00 0.00 0.00 0.00 0.00 0.00 0.00 0.00 0.00 0.00 0.00 0.00 0.00 0.00 0.00 0.00 0.00 0.01 0.01 0.01 0.02 0.03 0.05 0.04 0.06 0.05 0.06 0.05 0.05 0.06 0.05 0.05 0.04 0.04 0.04 0.05 0.04 0.06 0.08 0.10
0.41 0.43 0.39 0.62 0.26 0.33 0.28 0.07 0.00 0.00 0.00 0.00 0.01 0.02 0.01 0.00 0.00 0.00 0.00 0.00 0.00 0.00 0.00 0.00 0.01 0.01 0.01 0.00 0.01 0.01 0.03 0.04 0.05 0.06 0.05 0.04 0.04 0.04 0.03 0.02 0.02 0.02 0.01 0.01 0.02 0.03 0.04 0.06 0.07

GFSSGP_prec_precacc_102.txt.gz
Total_Precipitation_Accumulation
0.26 0.35 0.21 0.06 0.03 0.02 0.00 0.00 0.00 0.01 0.03 0.01 0.00 0.01 0.14 0.11 0.01 0.01 0.00 0.00 0.00 0.01 0.01 0.05 0.11 0.12 0.15 0.18 0.12 0.06 0.05 0.09 0.12 0.14 0.14 0.21 0.15 0.05 0.02 0.03 0.04 0.07 0.08 0.16 0.27 0.21 0.07 0.02 0.02
0.51 0.50 0.25 0.09 0.03 0.00 0.00 0.00 0.00 0.02 0.01 0.01 0.01 0.03 0.14 0.11 0.01 0.01 0.02 0.01 0.00 0.00 0.01 0.02 0.09 0.09 0.14 0.17 0.08 0.03 0.04 0.07 0.10 0.10 0.17 0.20 0.04 0.02 0.02 0.04 0.06 0.06 0.10 0.19 0.11 0.02 0.00 0.00 0.01
0.58 0.58 0.25 0.10 0.03 0.00 0.00 0.00 0.00 0.00 0.01 0.02 0.02 0.04 0.15 0.10 0.04 0.01 0.01 0.03 0.00 0.00 0.00 0.03 0.08 0.09 0.15 0.12 0.05 0.03 0.07 0.08 0.05 0.07 0.11 0.09 0.06 0.04 0.05 0.05 0.06 0.06 0.06 0.02 0.00 0.00 0.00 0.00 0.00
0.70 0.90 0.59 0.09 0.01 0.00 0.00 0.00 0.00 0.00 0.03 0.02 0.03 0.09 0.12 0.14 0.07 0.03 0.01 0.02 0.00 0.00 0.00 0.05 0.08 0.10 0.13 0.06 0.03 0.05 0.08 0.05 0.02 0.03 0.03 0.07 0.11 0.11 0.07 0.03 0.01 0.01 0.00 0.00 0.00 0.00 0.00 0.00 0.00
0.65 1.27 0.55 0.16 0.00 0.00 0.00 0.00 0.00 0.00 0.02 0.04 0.06 0.11 0.21 0.16 0.20 0.04 0.01 0.01 0.00 0.00 0.01 0.05 0.10 0.10 0.10 0.04 0.03 0.05 0.05 0.02 0.02 0.02 0.02 0.08 0.13 0.14 0.11 0.01 0.00 0.00 0.00 0.00 0.00 0.00 0.00 0.00 0.00
1.03 1.08 0.84 0.16 0.00 0.00 0.00 0.00 0.00 0.00 0.00 0.02 0.08 0.23 0.40 0.32 0.37 0.18 0.03 0.01 0.00 0.00 0.03 0.07 0.11 0.12 0.08 0.05 0.03 0.03 0.03 0.04 0.04 0.02 0.04 0.07 0.12 0.15 0.16 0.04 0.00 0.00 0.00 0.00 0.00 0.01 0.01 0.01 0.01
1.36 0.72 0.87 0.19 0.00 0.00 0.00 0.00 0.00 0.00 0.00 0.01 0.09 0.28 0.29 0.48 0.55 0.34 0.07 0.01 0.01 0.01 0.02 0.06 0.10 0.11 0.08 0.06 0.05 0.03 0.02 0.03 0.04 0.04 0.03 0.04 0.07 0.04 0.09 0.06 0.02 0.01 0.01 0.00 0.02 0.02 0.02 0.02 0.01
1.00 1.18 0.31 0.22 0.01 0.01 0.00 0.00 0.00 0.00 0.00 0.01 0.08 0.20 0.31 0.43 0.65 0.47 0.16 0.05 0.01 0.03 0.05 0.04 0.05 0.06 0.06 0.05 0.04 0.03 0.03 0.02 0.02 0.03 0.01 0.00 0.00 0.00 0.04 0.04 0.02 0.00 0.00 0.00 0.01 0.02 0.01 0.01 0.01
1.03 1.48 0.49 0.14 0.08 0.02 0.00 0.00 0.00 0.00 0.01 0.01 0.03 0.09 0.18 0.36 0.63 0.74 0.31 0.15 0.07 0.08 0.08 0.05 0.03 0.02 0.03 0.02 0.02 0.03 0.04 0.03 0.01 0.01 0.00 0.00 0.00 0.00 0.00 0.01 0.00 0.00 0.01 0.00 0.00 0.01 0.01 0.01 0.00
1.27 1.09 0.27 0.06 0.07 0.04 0.03 0.00 0.00 0.00 0.01 0.11 0.19 0.10 0.14 0.28 0.55 0.70 0.59 0.22 0.11 0.09 0.12 0.06 0.03 0.02 0.02 0.01 0.01 0.01 0.01 0.00 0.00 0.00 0.00 0.00 0.00 0.00 0.00 0.00 0.00 0.00 0.00 0.00 0.00 0.01 0.00 0.00 0.00
1.17 0.64 0.29 0.20 0.11 0.19 0.06 0.01 0.00 0.00 0.02 0.02 0.08 0.12 0.20 0.33 0.57 0.71 0.69 0.56 0.28 0.08 0.07 0.05 0.04 0.02 0.02 0.01 0.00 0.00 0.00 0.00 0.00 0.00 0.00 0.00 0.00 0.00 0.00 0.00 0.00 0.00 0.00 0.00 0.00 0.01 0.00 0.00 0.00
1.28 0.76 0.60 0.39 0.26 0.17 0.12 0.06 0.00 0.00 0.00 0.00 0.16 0.30 0.33 0.32 0.47 0.75 0.65 0.89 0.42 0.12 0.04 0.03 0.03 0.04 0.02 0.01 0.00 0.00 0.00 0.00 0.00 0.00 0.00 0.00 0.00 0.00 0.00 0.00 0.00 0.00 0.00 0.00 0.00 0.00 0.00 0.00 0.00
1.32 1.11 0.62 0.57 0.22 0.09 0.12 0.19 0.03 0.00 0.00 0.04 0.12 0.12 0.21 0.44 0.62 0.64 0.75 0.58 0.59 0.18 0.04 0.03 0.01 0.02 0.05 0.01 0.01 0.01 0.00 0.00 0.00 0.00 0.00 0.00 0.00 0.00 0.00 0.00 0.00 0.00 0.00 0.00 0.00 0.00 0.00 0.00 0.00
1.07 1.40 0.85 0.50 0.28 0.09 0.11 0.20 0.15 0.01 0.04 0.13 0.18 0.16 0.27 0.31 0.33 0.37 0.30 0.30 0.58 0.53 0.33 0.14 0.05 0.03 0.04 0.05 0.04 0.02 0.00 0.00 0.00 0.00 0.00 0.00 0.00 0.00 0.00 0.00 0.00 0.00 0.00 0.00 0.00 0.00 0.00 0.00 0.00
0.68 1.45 1.15 0.50 0.34 0.25 0.18 0.34 0.29 0.02 0.04 0.11 0.20 0.29 0.32 0.33 0.23 0.19 0.30 0.31 0.52 0.52 0.40 0.33 0.15 0.04 0.02 0.02 0.08 0.08 0.09 0.02 0.02 0.00 0.00 0.00 0.00 0.00 0.00 0.00 0.00 0.00 0.00 0.00 0.00 0.00 0.00 0.00 0.00
0.46 1.22 1.45 0.64 0.38 0.34 0.32 0.17 0.09 0.10 0.01 0.02 0.07 0.17 0.24 0.20 0.22 0.23 0.30 0.29 0.29 0.30 0.48 0.46 0.30 0.14 0.04 0.06 0.12 0.14 0.13 0.07 0.07 0.03 0.00 0.00 0.00 0.00 0.00 0.00 0.00 0.00 0.00 0.00 0.00 0.00 0.00 0.00 0.00
0.35 0.48 0.83 0.79 0.43 0.45 0.30 0.16 0.04 0.17 0.05 0.00 0.01 0.04 0.14 0.27 0.24 0.18 0.20 0.31 0.30 0.30 0.43 0.58 0.45 0.25 0.15 0.33 0.28 0.31 0.25 0.12 0.08 0.06 0.01 0.00 0.02 0.02 0.00 0.00 0.00 0.00 0.00 0.00 0.00 0.00 0.00 0.00 0.00
0.07 0.08 0.18 0.41 0.41 0.40 0.36 0.21 0.09 0.07 0.15 0.01 0.00 0.00 0.02 0.06 0.14 0.29 0.30 0.24 0.33 0.43 0.46 0.65 0.69 0.64 0.39 0.47 0.61 0.42 0.30 0.16 0.10 0.07 0.04 0.13 0.07 0.07 0.03 0.01 0.00 0.00 0.00 0.00 0.00 0.00 0.00 0.00 0.00
0.02 0.04 0.05 0.08 0.11 0.30 0.34 0.25 0.17 0.03 0.09 0.07 0.00 0.00 0.00 0.00 0.03 0.09 0.19 0.31 0.41 0.39 0.42 0.51 0.37 0.55 0.75 0.69 0.45 0.31 0.25 0.52 0.30 0.24 0.36 0.32 0.28 0.23 0.12 0.05 0.05 0.04 0.01 0.02 0.01 0.01 0.01 0.01 0.03
0.06 0.05 0.06 0.05 0.05 0.14 0.16 0.11 0.19 0.12 0.01 0.02 0.01 0.00 0.00 0.00 0.00 0.00 0.02 0.09 0.16 0.33 0.56 0.55 0.35 0.36 0.45 0.50 0.42 0.52 0.66 0.72 0.75 0.72 0.69 0.80 0.79 0.81 0.51 0.31 0.22 0.25 0.19 0.14 0.12 0.10 0.11 0.10 0.16
0.15 0.04 0.04 0.05 0.04 0.06 0.03 0.03 0.02 0.07 0.02 0.00 0.01 0.00 0.00 0.00 0.00 0.00 0.00 0.01 0.03 0.09 0.14 0.19 0.26 0.33 0.36 0.50 0.86 1.15 1.24 0.90 0.76 0.61 0.58 0.64 0.77 1.11 1.05 0.81 0.58 0.50 0.36 0.32 0.24 0.21 0.31 0.30 0.28
0.21 0.08 0.03 0.07 0.11 0.10 0.04 0.03 0.01 0.01 0.02 0.01 0.00 0.00 0.00 0.00 0.00 0.00 0.00 0.00 0.00 0.00 0.01 0.02 0.11 0.22 0.35 0.58 0.73 0.58 0.28 0.51 0.54 0.69 0.70 0.67 0.56 0.77 0.92 0.82 0.70 0.74 0.66 0.51 0.44 0.43 0.43 0.45 0.30
0.25 0.10 0.04 0.11 0.17 0.18 0.11 0.09 0.01 0.00 0.00 0.00 0.00 0.00 0.00 0.00 0.00 0.00 0.00 0.00 0.00 0.00 0.01 0.02 0.07 0.12 0.29 0.35 0.33 0.42 0.27 0.35 0.47 0.45 0.52 0.39 0.40 0.51 0.65 0.74 0.80 0.71 0.60 0.50 0.44 0.43 0.37 0.47 0.48
0.26 0.25 0.23 0.18 0.46 0.49 0.11 0.15 0.07 0.00 0.00 0.00 0.00 0.00 0.00 0.00 0.00 0.00 0.00 0.00 0.00 0.00 0.00 0.01 0.06 0.10 0.17 0.26 0.24 0.33 0.33 0.32 0.25 0.29 0.44 0.57 0.59 0.59 0.65 0.71 0.65 0.64 0.54 0.54 0.52 0.45 0.42 0.37 0.46
0.70 0.87 1.12 0.85 0.93 0.51 0.07 0.06 0.07 0.00 0.00 0.00 0.00 0.00 0.00 0.00 0.00 0.00 0.00 0.00 0.00 0.00 0.00 0.00 0.00 0.02 0.10 0.22 0.28 0.30 0.28 0.26 0.29 0.37 0.44 0.48 0.47 0.42 0.39 0.45 0.48 0.55 0.55 0.48 0.35 0.31 0.26 0.29 0.34
0.82 0.94 0.99 0.40 0.17 0.14 0.05 0.11 0.02 0.00 0.00 0.00 0.00 0.00 0.00 0.00 0.00 0.00 0.00 0.00 0.00 0.00 0.00 0.00 0.00 0.00 0.02 0.08 0.12 0.14 0.16 0.20 0.31 0.33 0.31 0.30 0.28 0.30 0.24 0.23 0.25 0.26 0.26 0.27 0.26 0.25 0.24 0.22 0.23
1.06 1.03 0.54 0.61 0.29 0.25 0.10 0.01 0.00 0.00 0.00 0.00 0.00 0.00 0.00 0.00 0.00 0.00 0.00 0.00 0.00 0.00 0.00 0.00 0.00 0.00 0.00 0.01 0.02 0.03 0.08 0.14 0.15 0.15 0.16 0.18 0.17 0.16 0.17 0.19 0.19 0.17 0.18 0.21 0.22 0.21 0.19 0.21 0.22
0.85 0.49 0.64 1.14 0.73 0.24 0.09 0.03 0.00 0.00 0.00 0.00 0.00 0.00 0.00 0.00 0.00 0.00 0.00 0.00 0.00 0.00 0.00 0.00 0.00 0.00 0.01 0.03 0.01 0.01 0.01 0.04 0.07 0.09 0.11 0.11 0.11 0.09 0.11 0.11 0.10 0.08 0.09 0.09 0.11 0.13 0.16 0.19 0.23
0.88 1.08 0.58 0.47 0.25 0.28 0.06 0.02 0.00 0.00 0.00 0.00 0.00 0.00 0.00 0.00 0.00 0.00 0.00 0.00 0.00 0.00 0.00 0.00 0.00 0.00 0.01 0.01 0.01 0.02 0.03 0.05 0.04 0.06 0.05 0.07 0.07 0.07 0.07 0.06 0.05 0.04 0.04 0.04 0.05 0.04 0.06 0.08 0.10
0.45 0.47 0.46 0.65 0.26 0.33 0.28 0.07 0.00 0.00 0.00 0.00 0.01 0.02 0.01 0.00 0.00 0.00 0.00 0.00 0.00 0.00 0.00 0.00 0.01 0.01 0.01 0.00 0.01 0.01 0.03 0.04 0.05 0.06 0.05 0.04 0.04 0.04 0.03 0.02 0.02 0.02 0.01 0.01 0.02 0.03 0.04 0.06 0.07

GFSSGP_prec_precacc_105.txt.gz
Total_Precipitation_Accumulation
0.26 0.48 0.49 0.21 0.07 0.05 0.00 0.00 0.00 0.01 0.04 0.03 0.01 0.01 0.15 0.11 0.01 0.01 0.01 0.00 0.00 0.01 0.01 0.05 0.11 0.12 0.15 0.18 0.12 0.06 0.06 0.11 0.13 0.16 0.16 0.23 0.15 0.05 0.02 0.03 0.04 0.07 0.08 0.16 0.27 0.21 0.07 0.02 0.02
0.53 0.62 0.52 0.20 0.07 0.05 0.00 0.00 0.00 0.02 0.01 0.04 0.02 0.04 0.14 0.11 0.01 0.02 0.03 0.01 0.00 0.00 0.01 0.03 0.09 0.09 0.14 0.17 0.08 0.03 0.06 0.11 0.14 0.15 0.23 0.26 0.05 0.02 0.02 0.04 0.06 0.06 0.10 0.19 0.12 0.02 0.00 0.00 0.01
0.64 0.73 0.52 0.35 0.08 0.02 0.00 0.00 0.00 0.00 0.01 0.02 0.03 0.04 0.16 0.10 0.04 0.02 0.02 0.03 0.01 0.00 0.00 0.03 0.08 0.09 0.15 0.12 0.05 0.04 0.09 0.16 0.15 0.16 0.20 0.12 0.06 0.04 0.05 0.05 0.06 0.06 0.06 0.03 0.00 0.00 0.00 0.00 0.00
0.78 1.06 1.08 0.39 0.20 0.01 0.00 0.00 0.00 0.00 0.03 0.04 0.10 0.15 0.13 0.14 0.07 0.04 0.02 0.03 0.01 0.01 0.00 0.06 0.08 0.10 0.13 0.06 0.03 0.06 0.09 0.07 0.08 0.11 0.06 0.08 0.11 0.11 0.07 0.03 0.01 0.01 0.00 0.00 0.00 0.00 0.00 0.00 0.00
0.76 1.51 0.97 0.57 0.15 0.01 0.00 0.00 0.00 0.00 0.02 0.07 0.14 0.23 0.25 0.17 0.21 0.05 0.02 0.02 0.00 0.01 0.01 0.05 0.10 0.10 0.10 0.04 0.03 0.05 0.05 0.03 0.03 0.03 0.03 0.09 0.13 0.14 0.11 0.01 0.00 0.00 0.00 0.00 0.00 0.00 0.00 0.00 0.00
1.16 1.28 1.19 0.51 0.14 0.00 0.00 0.00 0.00 0.00 0.00 0.02 0.14 0.35 0.48 0.34 0.39 0.21 0.04 0.01 0.00 0.00 0.03 0.07 0.12 0.12 0.08 0.05 0.03 0.03 0.03 0.04 0.04 0.02 0.04 0.07 0.12 0.15 0.16 0.04 0.00 0.00 0.00 0.00 0.00 0.01 0.01 0.01 0.01
1.43 0.90 1.19 0.46 0.03 0.00 0.00 0.00 0.00 0.00 0.00 0.01 0.11 0.44 0.48 0.60 0.59 0.36 0.08 0.02 0.01 0.01 0.03 0.08 0.10 0.11 0.08 0.06 0.05 0.03 0.02 0.03 0.04 0.04 0.03 0.04 0.07 0.04 0.09 0.06 0.02 0.01 0.01 0.01 0.02 0.02 0.02 0.02 0.01
1.05 1.41 0.44 0.49 0.07 0.01 0.00 0.00 0.00 0.00 0.00 0.01 0.09 0.36 0.71 0.78 0.78 0.49 0.17 0.06 0.02 0.04 0.06 0.04 0.06 0.06 0.06 0.06 0.05 0.03 0.03 0.02 0.02 0.03 0.01 0.00 0.00 0.00 0.04 0.04 0.02 0.00 0.00 0.00 0.01 0.02 0.01 0.01 0.01
1.07 1.62 0.70 0.20 0.21 0.02 0.00 0.00 0.00 0.00 0.01 0.01 0.04 0.16 0.48 0.88 1.01 0.82 0.34 0.17 0.08 0.10 0.09 0.05 0.03 0.02 0.03 0.03 0.03 0.03 0.04 0.03 0.01 0.01 0.00 0.00 0.00 0.00 0.00 0.01 0.00 0.00 0.01 0.00 0.00 0.01 0.01 0.01 0.00
1.28 1.22 0.44 0.09 0.10 0.05 0.03 0.00 0.00 0.00 0.01 0.13 0.20 0.15 0.34 0.86 1.09 0.92 0.63 0.23 0.12 0.11 0.13 0.07 0.03 0.02 0.02 0.01 0.02 0.01 0.01 0.00 0.00 0.00 0.00 0.00 0.00 0.00 0.00 0.00 0.00 0.00 0.00 0.00 0.00 0.01 0.00 0.00 0.00
1.17 0.68 0.47 0.28 0.17 0.25 0.07 0.01 0.00 0.00 0.04 0.03 0.09 0.15 0.30 0.86 1.66 1.20 0.85 0.57 0.28 0.09 0.09 0.06 0.04 0.02 0.02 0.01 0.01 0.01 0.01 0.00 0.00 0.00 0.00 0.00 0.00 0.00 0.00 0.00 0.00 0.00 0.00 0.00 0.00 0.01 0.00 0.00 0.00
1.28 0.77 0.73 0.57 0.50 0.33 0.15 0.07 0.02 0.01 0.00 0.00 0.19 0.36 0.37 0.50 1.45 1.37 1.02 0.94 0.44 0.12 0.05 0.03 0.03 0.04 0.02 0.01 0.00 0.00 0.00 0.00 0.00 0.00 0.00 0.00 0.00 0.00 0.00 0.00 0.00 0.00 0.00 0.00 0.00 0.00 0.00 0.00 0.00
1.35 1.17 0.68 0.69 0.35 0.22 0.14 0.19 0.05 0.01 0.01 0.15 0.19 0.18 0.28 0.53 0.84 0.94 0.91 0.74 0.61 0.18 0.05 0.04 0.01 0.02 0.05 0.01 0.01 0.01 0.00 0.00 0.00 0.00 0.00 0.00 0.00 0.00 0.00 0.00 0.00 0.00 0.00 0.00 0.00 0.00 0.00 0.00 0.00
1.13 1.52 0.90 0.73 0.56 0.17 0.12 0.20 0.17 0.05 0.09 0.31 0.31 0.22 0.30 0.37 0.46 0.47 0.41 0.39 0.61 0.55 0.34 0.15 0.06 0.03 0.04 0.05 0.04 0.02 0.00 0.00 0.00 0.00 0.00 0.00 0.00 0.00 0.00 0.00 0.00 0.00 0.00 0.00 0.00 0.00 0.00 0.00 0.00
0.73 1.64 1.32 0.77 0.77 0.32 0.18 0.36 0.30 0.05 0.14 0.34 0.43 0.45 0.46 0.41 0.41 0.34 0.36 0.33 0.55 0.57 0.41 0.39 0.24 0.06 0.02 0.02 0.08 0.08 0.09 0.02 0.02 0.00 0.00 0.00 0.00 0.00 0.00 0.00 0.00 0.00 0.00 0.00 0.00 0.00 0.00 0.00 0.00
0.48 1.31 1.66 0.93 0.69 0.49 0.33 0.17 0.09 0.11 0.07 0.14 0.28 0.38 0.42 0.31 0.28 0.33 0.37 0.34 0.30 0.31 0.50 0.47 0.32 0.19 0.07 0.06 0.12 0.14 0.13 0.07 0.07 0.03 0.00 0.00 0.00 0.00 0.00 0.00 0.00 0.00 0.00 0.00 0.00 0.00 0.00 0.00 0.00
0.36 0.52 0.97 1.09 0.73 0.63 0.34 0.16 0.04 0.17 0.06 0.05 0.11 0.16 0.31 0.49 0.39 0.23 0.23 0.32 0.31 0.31 0.43 0.59 0.46 0.26 0.20 0.37 0.29 0.31 0.25 0.12 0.08 0.06 0.01 0.00 0.02 0.02 0.00 0.00 0.00 0.00 0.00 0.00 0.00 0.00 0.00 0.00 0.00
0.08 0.10 0.23 0.54 0.69 0.55 0.43 0.22 0.09 0.07 0.16 0.02 0.02 0.05 0.12 0.20 0.34 0.38 0.37 0.29 0.34 0.43 0.46 0.65 0.70 0.67 0.52 0.67 0.75 0.46 0.30 0.16 0.10 0.07 0.04 0.13 0.07 0.07 0.03 0.01 0.00 0.00 0.00 0.00 0.00 0.00 0.00 0.00 0.00
0.02 0.04 0.07 0.14 0.24 0.43 0.46 0.26 0.17 0.03 0.09 0.07 0.01 0.01 0.03 0.09 0.16 0.27 0.38 0.42 0.42 0.39 0.44 0.52 0.40 0.57 0.86 0.92 0.79 0.53 0.30 0.53 0.30 0.25 0.36 0.34 0.29 0.23 0.12 0.05 0.05 0.04 0.01 0.02 0.01 0.01 0.01 0.01 0.05
0.06 0.05 0.07 0.09 0.13 0.18 0.26 0.12 0.19 0.12 0.01 0.02 0.01 0.00 0.00 0.01 0.03 0.05 0.16 0.30 0.26 0.36 0.58 0.62 0.40 0.40 0.46 0.60 0.84 0.92 0.83 0.83 0.88 0.81 0.74 0.85 0.83 0.81 0.51 0.31 0.23 0.25 0.19 0.14 0.12 0.10 0.12 0.17 0.23
0.15 0.04 0.04 0.06 0.08 0.09 0.10 0.04 0.02 0.07 0.02 0.00 0.01 0.00 0.00 0.00 0.00 0.01 0.03 0.09 0.25 0.27 0.26 0.37 0.46 0.62 0.50 0.59 1.07 1.44 1.54 1.14 0.99 0.88 0.93 0.87 0.89 1.20 1.08 0.82 0.58 0.50 0.36 0.35 0.28 0.28 0.40 0.39 0.35
0.21 0.08 0.03 0.07 0.12 0.11 0.06 0.05 0.01 0.01 0.02 0.01 0.00 0.00 0.00 0.00 0.00 0.00 0.01 0.01 0.02 0.11 0.20 0.23 0.38 0.49 0.56 0.79 0.92 0.91 0.63 0.84 1.02 1.06 1.24 0.99 0.77 0.92 0.96 0.84 0.75 0.81 0.77 0.67 0.63 0.59 0.59 0.53 0.36
0.25 0.10 0.04 0.11 0.17 0.18 0.12 0.11 0.03 0.00 0.00 0.00 0.00 0.00 0.00 0.00 0.00 0.00 0.00 0.00 0.00 0.02 0.02 0.06 0.26 0.38 0.53 0.64 0.74 0.74 0.50 0.54 0.73 0.70 0.71 0.53 0.47 0.55 0.70 0.80 0.96 0.94 0.88 0.76 0.65 0.63 0.64 0.64 0.51
0.26 0.25 0.23 0.18 0.46 0.49 0.11 0.15 0.08 0.01 0.00 0.00 0.00 0.00 0.00 0.00 0.00 0.00 0.00 0.00 0.00 0.00 0.00 0.01 0.07 0.18 0.29 0.49 0.38 0.50 0.49 0.57 0.46 0.47 0.55 0.69 0.67 0.63 0.73 0.85 0.82 0.85 0.76 0.82 0.95 1.01 0.83 0.50 0.48
0.70 0.87 1.13 0.86 0.94 0.51 0.07 0.06 0.07 0.00 0.00 0.00 0.00 0.00 0.00 0.00 0.00 0.00 0.00 0.00 0.00 0.00 0.00 0.00 0.00 0.02 0.14 0.31 0.29 0.32 0.39 0.40 0.37 0.45 0.52 0.57 0.52 0.42 0.40 0.48 0.51 0.59 0.61 0.58 0.47 0.38 0.29 0.30 0.34
0.84 0.96 0.99 0.40 0.17 0.14 0.05 0.11 0.02 0.00 0.00 0.00 0.00 0.00 0.00 0.00 0.00 0.00 0.00 0.00 0.00 0.00 0.00 0.00 0.00 0.00 0.02 0.08 0.15 0.16 0.22 0.23 0.32 0.35 0.35 0.32 0.29 0.30 0.24 0.24 0.26 0.28 0.27 0.28 0.26 0.26 0.24 0.22 0.23
1.09 1.06 0.56 0.61 0.29 0.25 0.10 0.01 0.00 0.00 0.00 0.00 0.00 0.00 0.00 0.00 0.00 0.00 0.00 0.00 0.00 0.00 0.00 0.00 0.00 0.00 0.00 0.01 0.02 0.04 0.09 0.14 0.15 0.15 0.16 0.18 0.18 0.16 0.17 0.19 0.19 0.17 0.18 0.21 0.22 0.21 0.19 0.21 0.22
0.89 0.54 0.70 1.18 0.75 0.26 0.09 0.03 0.00 0.00 0.00 0.00 0.00 0.00 0.00 0.00 0.00 0.00 0.00 0.00 0.00 0.00 0.00 0.00 0.00 0.00 0.01 0.03 0.01 0.01 0.01 0.04 0.07 0.09 0.11 0.12 0.11 0.09 0.11 0.11 0.10 0.09 0.09 0.09 0.11 0.13 0.16 0.19 0.23
0.91 1.12 0.62 0.51 0.28 0.28 0.06 0.02 0.00 0.00 0.00 0.00 0.00 0.00 0.00 0.00 0.00 0.00 0.00 0.00 0.00 0.00 0.00 0.00 0.00 0.00 0.01 0.01 0.01 0.02 0.03 0.05 0.04 0.06 0.05 0.07 0.07 0.07 0.08 0.06 0.05 0.04 0.04 0.04 0.05 0.04 0.06 0.08 0.10
0.48 0.55 0.64 0.74 0.29 0.33 0.28 0.07 0.00 0.00 0.00 0.00 0.01 0.02 0.01 0.00 0.00 0.00 0.00 0.00 0.00 0.00 0.00 0.00 0.01 0.01 0.01 0.00 0.01 0.01 0.03 0.04 0.05 0.06 0.05 0.04 0.04 0.04 0.03 0.02 0.02 0.02 0.01 0.01 0.02 0.03 0.04 0.06 0.07

GFSSGP_prec_precacc_108.txt.gz
Total_Precipitation_Accumulation
0.26 0.49 0.61 0.42 0.16 0.10 0.00 0.00 0.00 0.01 0.04 0.05 0.03 0.02 0.15 0.11 0.01 0.01 0.01 0.00 0.00 0.01 0.02 0.05 0.11 0.12 0.15 0.18 0.12 0.06 0.06 0.11 0.13 0.18 0.19 0.27 0.17 0.05 0.02 0.03 0.04 0.07 0.08 0.16 0.27 0.22 0.08 0.03 0.02
0.53 0.65 0.69 0.46 0.17 0.08 0.00 0.00 0.00 0.02 0.01 0.04 0.06 0.06 0.15 0.11 0.01 0.02 0.04 0.02 0.00 0.00 0.02 0.03 0.09 0.09 0.14 0.17 0.08 0.04 0.06 0.12 0.14 0.18 0.28 0.31 0.05 0.02 0.02 0.04 0.06 0.06 0.11 0.19 0.12 0.02 0.00 0.00 0.01
0.67 0.78 0.74 0.61 0.22 0.04 0.00 0.00 0.00 0.00 0.01 0.02 0.05 0.06 0.16 0.10 0.04 0.02 0.02 0.04 0.01 0.01 0.01 0.03 0.08 0.09 0.15 0.12 0.05 0.05 0.10 0.16 0.16 0.23 0.31 0.14 0.06 0.04 0.05 0.05 0.06 0.06 0.07 0.03 0.00 0.00 0.00 0.00 0.00
0.85 1.16 1.40 0.64 0.36 0.03 0.00 0.00 0.00 0.00 0.03 0.04 0.10 0.18 0.14 0.14 0.07 0.04 0.02 0.03 0.01 0.01 0.01 0.06 0.08 0.10 0.13 0.06 0.04 0.07 0.10 0.09 0.14 0.19 0.14 0.09 0.11 0.11 0.07 0.03 0.02 0.02 0.01 0.01 0.00 0.00 0.00 0.00 0.00
0.87 1.64 1.18 0.84 0.31 0.07 0.00 0.00 0.00 0.00 0.02 0.07 0.15 0.27 0.25 0.17 0.22 0.05 0.03 0.02 0.01 0.01 0.02 0.06 0.10 0.10 0.10 0.04 0.04 0.07 0.07 0.06 0.10 0.10 0.04 0.09 0.13 0.14 0.11 0.01 0.00 0.01 0.01 0.01 0.00 0.00 0.00 0.00 0.00
1.30 1.42 1.39 0.72 0.25 0.03 0.01 0.00 0.00 0.00 0.00 0.02 0.14 0.40 0.52 0.35 0.40 0.22 0.05 0.02 0.01 0.01 0.04 0.08 0.12 0.12 0.08 0.05 0.04 0.04 0.05 0.06 0.08 0.04 0.05 0.07 0.12 0.15 0.16 0.04 0.00 0.00 0.01 0.01 0.00 0.01 0.01 0.01 0.01
1.49 0.98 1.35 0.56 0.19 0.01 0.02 0.00 0.00 0.01 0.00 0.01 0.11 0.45 0.57 0.67 0.65 0.39 0.09 0.03 0.02 0.02 0.04 0.08 0.10 0.11 0.08 0.07 0.05 0.03 0.02 0.04 0.05 0.04 0.03 0.04 0.07 0.04 0.09 0.06 0.02 0.01 0.01 0.01 0.02 0.02 0.02 0.02 0.01
1.10 1.52 0.54 0.65 0.14 0.07 0.02 0.00 0.00 0.02 0.01 0.01 0.09 0.36 0.76 0.92 0.99 0.55 0.19 0.07 0.03 0.06 0.07 0.05 0.06 0.06 0.07 0.06 0.05 0.03 0.03 0.02 0.02 0.04 0.01 0.00 0.00 0.00 0.04 0.04 0.02 0.01 0.01 0.00 0.01 0.02 0.01 0.01 0.01
1.16 1.73 0.80 0.28 0.28 0.05 0.01 0.02 0.00 0.01 0.03 0.01 0.04 0.16 0.48 1.29 1.30 0.92 0.37 0.20 0.11 0.13 0.10 0.06 0.03 0.02 0.03 0.04 0.03 0.03 0.04 0.03 0.01 0.01 0.00 0.00 0.00 0.00 0.00 0.01 0.00 0.01 0.02 0.00 0.00 0.01 0.01 0.01 0.00
1.38 1.26 0.59 0.20 0.15 0.12 0.09 0.01 0.01 0.00 0.02 0.13 0.20 0.15 0.35 1.40 2.20 1.15 0.68 0.26 0.14 0.13 0.15 0.08 0.04 0.02 0.03 0.02 0.02 0.01 0.01 0.00 0.00 0.00 0.00 0.00 0.00 0.00 0.00 0.00 0.00 0.00 0.00 0.00 0.00 0.01 0.00 0.00 0.00
1.23 0.71 0.52 0.39 0.29 0.32 0.15 0.03 0.02 0.02 0.06 0.03 0.09 0.15 0.31 1.08 3.79 2.33 0.97 0.61 0.30 0.12 0.11 0.07 0.05 0.02 0.02 0.02 0.02 0.01 0.01 0.00 0.00 0.00 0.00 0.00 0.00 0.00 0.00 0.00 0.00 0.00 0.00 0.00 0.00 0.01 0.00 0.00 0.00
1.31 0.78 0.76 0.61 0.66 0.44 0.18 0.08 0.02 0.03 0.00 0.00 0.19 0.36 0.38 0.58 3.38 3.99 2.07 1.12 0.52 0.18 0.07 0.04 0.04 0.04 0.02 0.01 0.01 0.01 0.00 0.00 0.00 0.00 0.00 0.00 0.00 0.00 0.00 0.00 0.00 0.00 0.00 0.00 0.00 0.00 0.00 0.00 0.00
1.36 1.18 0.71 0.77 0.55 0.37 0.16 0.23 0.07 0.03 0.02 0.16 0.19 0.19 0.29 0.58 1.35 2.76 2.21 1.46 0.79 0.27 0.09 0.05 0.02 0.02 0.05 0.02 0.02 0.01 0.01 0.00 0.00 0.00 0.00 0.00 0.00 0.00 0.00 0.00 0.00 0.00 0.00 0.00 0.00 0.00 0.00 0.00 0.00
1.13 1.52 0.90 0.75 0.64 0.25 0.15 0.21 0.18 0.06 0.12 0.37 0.31 0.22 0.33 0.39 0.52 1.11 0.97 1.06 0.95 0.66 0.38 0.16 0.06 0.03 0.04 0.05 0.04 0.02 0.01 0.00 0.00 0.00 0.00 0.00 0.00 0.00 0.00 0.00 0.00 0.00 0.00 0.00 0.00 0.00 0.00 0.00 0.00
0.73 1.64 1.32 0.78 0.83 0.39 0.24 0.38 0.31 0.05 0.15 0.43 0.52 0.48 0.53 0.45 0.42 0.52 0.56 0.67 0.92 0.69 0.50 0.41 0.24 0.06 0.02 0.02 0.08 0.08 0.09 0.03 0.02 0.00 0.00 0.00 0.00 0.00 0.00 0.00 0.00 0.00 0.00 0.00 0.00 0.00 0.00 0.00 0.00
0.48 1.31 1.67 0.94 0.91 0.69 0.42 0.20 0.10 0.11 0.09 0.23 0.41 0.50 0.58 0.40 0.33 0.49 0.54 0.52 0.50 0.46 0.57 0.51 0.33 0.19 0.07 0.06 0.12 0.14 0.13 0.07 0.07 0.03 0.00 0.00 0.00 0.00 0.00 0.00 0.00 0.00 0.00 0.00 0.00 0.00 0.00 0.00 0.00
0.36 0.52 0.97 1.09 0.81 0.87 0.40 0.17 0.05 0.17 0.07 0.10 0.19 0.30 0.47 0.61 0.47 0.28 0.36 0.53 0.50 0.51 0.55 0.61 0.47 0.27 0.20 0.37 0.29 0.31 0.25 0.12 0.08 0.06 0.01 0.00 0.02 0.02 0.00 0.00 0.00 0.00 0.00 0.00 0.00 0.00 0.00 0.00 0.00
0.08 0.11 0.24 0.55 0.71 0.68 0.50 0.23 0.09 0.08 0.17 0.03 0.06 0.15 0.23 0.30 0.45 0.47 0.48 0.51 0.61 0.68 0.66 0.75 0.72 0.68 0.52 0.68 0.76 0.46 0.30 0.16 0.10 0.07 0.04 0.13 0.07 0.07 0.03 0.01 0.00 0.00 0.00 0.00 0.00 0.00 0.00 0.00 0.00
0.02 0.04 0.07 0.15 0.26 0.51 0.52 0.28 0.17 0.04 0.10 0.08 0.02 0.04 0.08 0.16 0.31 0.46 0.52 0.57 0.58 0.51 0.55 0.59 0.43 0.57 0.86 0.92 0.82 0.56 0.31 0.53 0.30 0.25 0.36 0.34 0.29 0.23 0.12 0.05 0.05 0.04 0.01 0.02 0.01 0.01 0.01 0.01 0.05
0.06 0.05 0.07 0.09 0.15 0.23 0.31 0.14 0.19 0.12 0.01 0.03 0.01 0.02 0.03 0.05 0.10 0.15 0.29 0.53 0.41 0.40 0.62 0.63 0.40 0.41 0.47 0.60 0.87 1.00 0.86 0.85 0.93 0.83 0.76 0.89 0.87 0.84 0.53 0.31 0.23 0.25 0.19 0.14 0.12 0.10 0.12 0.21 0.34
0.15 0.04 0.04 0.06 0.10 0.11 0.10 0.06 0.02 0.07 0.02 0.00 0.01 0.01 0.01 0.04 0.04 0.02 0.04 0.20 0.73 0.41 0.31 0.40 0.50 0.65 0.53 0.62 1.08 1.48 1.66 1.16 1.05 0.93 1.00 0.99 1.02 1.38 1.28 0.95 0.61 0.51 0.36 0.35 0.28 0.29 0.45 0.58 0.44
0.21 0.08 0.03 0.07 0.13 0.13 0.06 0.06 0.01 0.01 0.02 0.01 0.00 0.00 0.00 0.01 0.03 0.03 0.02 0.04 0.12 0.31 0.26 0.28 0.48 0.58 0.60 0.86 0.96 0.94 0.74 0.95 1.05 1.14 1.33 1.16 0.91 1.09 1.18 1.07 0.94 0.93 0.81 0.72 0.72 0.66 0.67 0.65 0.46
0.25 0.10 0.04 0.12 0.18 0.18 0.12 0.11 0.03 0.00 0.00 0.00 0.00 0.00 0.00 0.00 0.01 0.02 0.03 0.05 0.12 0.20 0.11 0.12 0.40 0.62 0.76 0.70 0.80 0.87 0.68 0.66 0.92 0.80 0.77 0.64 0.61 0.71 0.85 0.99 1.15 1.13 1.08 1.00 0.90 0.83 0.82 0.85 0.62
0.26 0.26 0.23 0.19 0.47 0.49 0.11 0.15 0.08 0.01 0.00 0.00 0.01 0.00 0.00 0.00 0.00 0.00 0.01 0.02 0.03 0.09 0.03 0.06 0.14 0.27 0.48 0.75 0.55 0.72 0.77 1.00 0.76 0.65 0.67 0.79 0.76 0.74 0.88 1.07 1.07 1.06 0.92 0.91 1.04 1.13 0.96 0.66 0.57
0.71 0.89 1.14 0.87 0.96 0.51 0.07 0.06 0.07 0.00 0.00 0.00 0.00 0.00 0.00 0.00 0.00 0.00 0.00 0.00 0.00 0.01 0.01 0.01 0.00 0.05 0.22 0.47 0.39 0.48 0.55 0.71 0.65 0.61 0.63 0.69 0.68 0.59 0.53 0.65 0.70 0.72 0.67 0.59 0.48 0.44 0.35 0.33 0.35
0.87 0.98 1.01 0.40 0.18 0.14 0.05 0.11 0.02 0.00 0.00 0.00 0.00 0.00 0.00 0.00 0.00 0.00 0.00 0.00 0.00 0.00 0.00 0.00 0.00 0.01 0.03 0.09 0.19 0.30 0.43 0.34 0.39 0.44 0.45 0.41 0.36 0.40 0.36 0.31 0.29 0.29 0.27 0.28 0.27 0.26 0.24 0.22 0.23
1.12 1.11 0.59 0.63 0.29 0.25 0.10 0.01 0.00 0.00 0.00 0.00 0.00 0.00 0.00 0.00 0.00 0.00 0.00 0.00 0.00 0.00 0.00 0.00 0.00 0.00 0.00 0.01 0.03 0.08 0.17 0.17 0.19 0.19 0.20 0.22 0.21 0.20 0.18 0.19 0.19 0.17 0.18 0.21 0.22 0.21 0.19 0.21 0.22
0.93 0.58 0.79 1.24 0.79 0.26 0.09 0.03 0.00 0.00 0.00 0.00 0.00 0.00 0.00 0.00 0.00 0.00 0.00 0.00 0.00 0.00 0.00 0.00 0.00 0.00 0.01 0.03 0.01 0.01 0.03 0.06 0.08 0.10 0.12 0.12 0.11 0.10 0.11 0.11 0.10 0.09 0.09 0.09 0.11 0.13 0.16 0.19 0.23
0.93 1.16 0.67 0.65 0.38 0.29 0.06 0.02 0.00 0.00 0.00 0.00 0.00 0.00 0.00 0.00 0.00 0.00 0.00 0.00 0.00 0.00 0.00 0.00 0.00 0.00 0.01 0.01 0.01 0.02 0.03 0.05 0.04 0.06 0.05 0.07 0.07 0.07 0.08 0.06 0.05 0.04 0.04 0.04 0.05 0.04 0.06 0.08 0.10
0.51 0.61 0.73 0.82 0.34 0.36 0.28 0.07 0.00 0.00 0.00 0.00 0.01 0.02 0.01 0.00 0.00 0.00 0.00 0.00 0.00 0.00 0.00 0.00 0.01 0.01 0.01 0.00 0.01 0.01 0.03 0.04 0.05 0.06 0.05 0.04 0.04 0.04 0.03 0.02 0.03 0.02 0.02 0.01 0.02 0.03 0.04 0.06 0.07

GFSSGP_prec_precacc_111.txt.gz
Total_Precipitation_Accumulation
0.26 0.49 0.63 0.54 0.28 0.17 0.01 0.00 0.00 0.01 0.04 0.05 0.03 0.02 0.15 0.11 0.01 0.01 0.01 0.00 0.00 0.01 0.02 0.05 0.11 0.12 0.15 0.18 0.12 0.06 0.06 0.11 0.14 0.18 0.20 0.31 0.18 0.05 0.02 0.04 0.05 0.07 0.08 0.18 0.29 0.23 0.09 0.03 0.02
0.53 0.65 0.73 0.54 0.32 0.11 0.01 0.00 0.00 0.02 0.01 0.04 0.06 0.06 0.15 0.11 0.01 0.02 0.04 0.02 0.00 0.00 0.02 0.03 0.10 0.09 0.14 0.18 0.08 0.04 0.07 0.13 0.15 0.19 0.30 0.38 0.06 0.02 0.03 0.04 0.06 0.06 0.11 0.20 0.12 0.02 0.01 0.00 0.01
0.67 0.81 0.84 0.71 0.33 0.07 0.00 0.00 0.00 0.00 0.01 0.02 0.05 0.06 0.17 0.10 0.04 0.02 0.02 0.04 0.01 0.01 0.01 0.04 0.08 0.09 0.15 0.13 0.05 0.05 0.11 0.18 0.17 0.25 0.35 0.19 0.06 0.04 0.05 0.05 0.06 0.07 0.07 0.03 0.00 0.01 0.00 0.00 0.00
0.86 1.20 1.52 0.83 0.42 0.05 0.00 0.00 0.00 0.00 0.03 0.04 0.10 0.18 0.14 0.14 0.07 0.04 0.02 0.03 0.01 0.01 0.01 0.06 0.08 0.10 0.13 0.07 0.04 0.07 0.11 0.11 0.17 0.22 0.18 0.10 0.11 0.11 0.08 0.03 0.02 0.02 0.02 0.01 0.01 0.00 0.00 0.00 0.00
0.90 1.69 1.23 0.93 0.42 0.11 0.00 0.00 0.00 0.00 0.02 0.07 0.15 0.27 0.27 0.18 0.22 0.05 0.03 0.02 0.01 0.02 0.02 0.06 0.10 0.10 0.10 0.04 0.04 0.08 0.08 0.09 0.15 0.16 0.07 0.09 0.13 0.14 0.11 0.01 0.00 0.01 0.01 0.01 0.00 0.00 0.00 0.00 0.00
1.33 1.46 1.44 0.74 0.34 0.10 0.03 0.00 0.00 0.00 0.00 0.02 0.15 0.40 0.57 0.37 0.40 0.22 0.05 0.02 0.01 0.01 0.05 0.08 0.12 0.12 0.09 0.05 0.04 0.06 0.06 0.13 0.17 0.12 0.06 0.07 0.12 0.15 0.16 0.04 0.01 0.01 0.01 0.01 0.01 0.01 0.01 0.01 0.01
1.51 1.02 1.38 0.58 0.21 0.12 0.07 0.01 0.01 0.03 0.00 0.01 0.11 0.45 0.61 0.68 0.65 0.39 0.10 0.03 0.02 0.03 0.04 0.08 0.10 0.12 0.09 0.07 0.06 0.06 0.05 0.10 0.14 0.07 0.03 0.04 0.07 0.04 0.09 0.06 0.02 0.01 0.01 0.01 0.02 0.02 0.02 0.02 0.01
1.13 1.59 0.57 0.68 0.18 0.12 0.07 0.04 0.01 0.04 0.03 0.01 0.09 0.36 0.79 0.94 1.00 0.56 0.19 0.08 0.04 0.07 0.08 0.05 0.06 0.07 0.08 0.08 0.05 0.03 0.03 0.05 0.04 0.04 0.01 0.00 0.00 0.00 0.04 0.05 0.02 0.02 0.01 0.00 0.01 0.02 0.01 0.01 0.01
1.25 1.83 0.83 0.31 0.34 0.10 0.08 0.23 0.02 0.02 0.08 0.02 0.04 0.16 0.48 1.29 1.30 0.95 0.40 0.28 0.16 0.18 0.11 0.06 0.03 0.02 0.04 0.06 0.04 0.03 0.04 0.04 0.01 0.01 0.00 0.00 0.00 0.00 0.00 0.01 0.01 0.02 0.02 0.00 0.00 0.01 0.01 0.01 0.00
1.48 1.31 0.61 0.25 0.33 0.21 0.19 0.32 0.13 0.04 0.05 0.27 0.21 0.16 0.36 1.42 2.21 1.29 0.79 0.36 0.23 0.19 0.17 0.08 0.04 0.02 0.03 0.04 0.03 0.02 0.02 0.01 0.00 0.00 0.00 0.00 0.00 0.00 0.00 0.00 0.01 0.02 0.00 0.00 0.00 0.01 0.00 0.00 0.00
1.29 0.75 0.56 0.45 0.40 0.45 0.21 0.12 0.15 0.12 0.10 0.30 0.19 0.27 0.32 1.09 3.81 2.83 1.58 0.83 0.39 0.18 0.15 0.08 0.05 0.02 0.03 0.02 0.03 0.03 0.01 0.00 0.00 0.00 0.00 0.00 0.00 0.00 0.00 0.00 0.00 0.00 0.00 0.00 0.00 0.01 0.00 0.00 0.00
1.36 0.82 0.84 0.70 0.75 0.52 0.31 0.17 0.09 0.09 0.01 0.11 0.61 0.52 0.39 0.58 3.39 4.59 3.95 2.86 1.14 0.35 0.16 0.07 0.04 0.04 0.03 0.02 0.01 0.01 0.00 0.00 0.00 0.00 0.00 0.00 0.00 0.00 0.00 0.00 0.00 0.00 0.00 0.00 0.00 0.00 0.00 0.00 0.00
1.38 1.23 0.76 0.81 0.60 0.48 0.26 0.31 0.11 0.03 0.03 0.19 0.36 0.38 0.30 0.58 1.38 3.03 3.17 3.21 1.96 0.87 0.24 0.11 0.02 0.03 0.06 0.03 0.02 0.01 0.01 0.00 0.00 0.00 0.00 0.00 0.00 0.00 0.00 0.00 0.00 0.00 0.00 0.00 0.00 0.00 0.00 0.00 0.00
1.15 1.53 0.92 0.75 0.65 0.33 0.24 0.23 0.22 0.07 0.12 0.38 0.35 0.33 0.35 0.39 0.53 1.23 1.56 1.96 1.70 1.35 0.69 0.26 0.08 0.04 0.06 0.06 0.04 0.02 0.01 0.00 0.00 0.00 0.00 0.00 0.00 0.00 0.00 0.00 0.00 0.00 0.00 0.00 0.00 0.00 0.00 0.00 0.00
0.74 1.65 1.32 0.78 0.83 0.40 0.26 0.39 0.32 0.05 0.16 0.44 0.60 0.61 0.58 0.45 0.42 0.59 0.87 1.12 1.34 1.15 0.78 0.54 0.28 0.06 0.04 0.03 0.08 0.09 0.09 0.03 0.02 0.00 0.00 0.00 0.00 0.00 0.00 0.00 0.00 0.00 0.00 0.00 0.00 0.00 0.00 0.00 0.00
0.49 1.31 1.68 0.94 0.91 0.71 0.43 0.21 0.11 0.12 0.10 0.23 0.42 0.62 0.79 0.41 0.33 0.51 0.66 0.70 0.74 1.04 0.81 0.66 0.40 0.19 0.08 0.07 0.12 0.14 0.13 0.07 0.07 0.03 0.00 0.00 0.00 0.00 0.00 0.00 0.00 0.00 0.00 0.00 0.00 0.00 0.00 0.00 0.00
0.37 0.52 0.97 1.09 0.81 0.88 0.41 0.18 0.07 0.19 0.08 0.10 0.19 0.34 0.70 0.67 0.47 0.29 0.39 0.62 0.60 1.13 0.88 0.79 0.57 0.28 0.20 0.37 0.29 0.31 0.25 0.12 0.09 0.06 0.01 0.00 0.02 0.02 0.00 0.00 0.00 0.00 0.00 0.00 0.00 0.00 0.00 0.00 0.00
0.08 0.11 0.24 0.55 0.71 0.68 0.51 0.25 0.12 0.08 0.17 0.03 0.07 0.18 0.33 0.44 0.47 0.47 0.51 0.59 0.66 1.04 1.39 0.88 0.83 0.75 0.55 0.68 0.76 0.46 0.30 0.16 0.10 0.07 0.04 0.13 0.07 0.07 0.03 0.01 0.00 0.00 0.00 0.00 0.00 0.00 0.00 0.00 0.00
0.02 0.04 0.07 0.15 0.26 0.51 0.52 0.28 0.18 0.04 0.10 0.08 0.03 0.11 0.21 0.28 0.40 0.49 0.59 0.67 0.69 0.75 1.25 0.85 0.60 0.71 0.91 0.94 0.83 0.57 0.31 0.53 0.30 0.25 0.36 0.34 0.29 0.23 0.12 0.06 0.05 0.04 0.01 0.02 0.01 0.01 0.01 0.01 0.07
0.06 0.05 0.07 0.09 0.15 0.23 0.31 0.14 0.20 0.12 0.02 0.03 0.01 0.06 0.09 0.15 0.22 0.26 0.41 0.65 0.72 0.61 1.22 1.01 0.91 0.55 0.56 0.63 0.88 1.00 0.88 0.87 0.95 0.83 0.76 0.89 0.87 0.84 0.53 0.32 0.26 0.27 0.19 0.14 0.12 0.10 0.12 0.24 0.45
0.15 0.05 0.04 0.06 0.10 0.11 0.11 0.06 0.02 0.07 0.02 0.00 0.01 0.02 0.03 0.07 0.12 0.16 0.15 0.32 1.14 0.93 0.60 0.65 1.05 0.91 0.60 0.68 1.09 1.51 1.68 1.18 1.08 0.95 1.01 1.01 1.03 1.38 1.28 0.96 0.64 0.58 0.44 0.45 0.32 0.29 0.49 0.67 0.49
0.22 0.08 0.03 0.07 0.13 0.13 0.06 0.06 0.01 0.01 0.03 0.01 0.00 0.01 0.02 0.04 0.07 0.12 0.07 0.06 0.21 0.67 0.56 0.51 0.71 0.88 0.78 0.94 1.01 0.98 0.77 0.96 1.06 1.18 1.48 1.27 0.95 1.11 1.21 1.09 1.01 1.00 0.88 0.84 0.79 0.70 0.73 0.71 0.48
0.25 0.10 0.04 0.12 0.18 0.18 0.12 0.11 0.03 0.00 0.00 0.00 0.00 0.00 0.01 0.04 0.08 0.10 0.08 0.09 0.20 0.23 0.17 0.30 0.57 0.79 0.99 0.94 0.89 0.88 0.69 0.67 0.94 0.81 0.78 0.67 0.64 0.71 0.85 1.00 1.21 1.25 1.22 1.14 1.09 1.07 1.09 1.07 0.71
0.26 0.26 0.24 0.20 0.47 0.49 0.11 0.15 0.08 0.01 0.00 0.00 0.01 0.00 0.00 0.01 0.04 0.04 0.06 0.14 0.13 0.17 0.04 0.09 0.28 0.36 0.58 0.92 0.62 0.73 0.79 1.04 0.87 0.73 0.72 0.81 0.77 0.75 0.89 1.09 1.10 1.14 1.07 1.10 1.33 1.41 1.11 0.84 0.68
0.72 0.93 1.18 0.89 0.97 0.51 0.07 0.06 0.07 0.00 0.00 0.00 0.00 0.00 0.00 0.00 0.00 0.01 0.00 0.01 0.06 0.06 0.03 0.03 0.10 0.19 0.30 0.55 0.48 0.51 0.58 0.76 0.89 0.85 0.74 0.78 0.73 0.61 0.54 0.68 0.81 0.87 0.86 0.78 0.68 0.57 0.45 0.44 0.38
0.90 1.02 1.06 0.44 0.19 0.14 0.05 0.11 0.02 0.00 0.00 0.00 0.00 0.00 0.00 0.00 0.00 0.00 0.00 0.00 0.01 0.01 0.01 0.01 0.04 0.17 0.20 0.19 0.30 0.48 0.62 0.45 0.54 0.56 0.51 0.46 0.38 0.43 0.40 0.33 0.34 0.38 0.40 0.41 0.34 0.34 0.27 0.23 0.24
1.16 1.16 0.64 0.67 0.30 0.26 0.10 0.01 0.00 0.00 0.00 0.00 0.00 0.00 0.00 0.00 0.00 0.00 0.00 0.00 0.00 0.00 0.00 0.01 0.04 0.09 0.07 0.08 0.12 0.24 0.40 0.32 0.33 0.32 0.26 0.28 0.27 0.27 0.26 0.26 0.23 0.20 0.28 0.27 0.25 0.22 0.20 0.22 0.23
0.95 0.63 0.85 1.30 0.84 0.28 0.09 0.03 0.00 0.00 0.00 0.00 0.00 0.00 0.00 0.00 0.00 0.00 0.00 0.00 0.00 0.00 0.00 0.00 0.01 0.00 0.03 0.04 0.06 0.08 0.13 0.09 0.16 0.17 0.18 0.17 0.18 0.16 0.15 0.14 0.12 0.13 0.13 0.10 0.11 0.14 0.16 0.20 0.24
0.94 1.18 0.72 0.85 0.46 0.34 0.08 0.02 0.00 0.00 0.00 0.00 0.00 0.00 0.00 0.00 0.00 0.00 0.00 0.00 0.00 0.00 0.00 0.00 0.00 0.00 0.01 0.01 0.01 0.02 0.05 0.08 0.10 0.11 0.09 0.10 0.12 0.10 0.10 0.07 0.06 0.06 0.06 0.05 0.05 0.04 0.06 0.08 0.10
0.52 0.62 0.74 0.86 0.45 0.38 0.31 0.11 0.00 0.00 0.00 0.00 0.01 0.02 0.01 0.00 0.00 0.00 0.00 0.00 0.00 0.00 0.00 0.00 0.01 0.01 0.01 0.00 0.01 0.02 0.04 0.05 0.07 0.07 0.07 0.05 0.06 0.07 0.06 0.04 0.04 0.04 0.02 0.01 0.02 0.03 0.04 0.06 0.07

GFSSGP_prec_precacc_114.txt.gz
Total_Precipitation_Accumulation
0.26 0.49 0.63 0.55 0.31 0.20 0.01 0.00 0.00 0.01 0.04 0.05 0.03 0.02 0.15 0.11 0.01 0.01 0.01 0.00 0.00 0.01 0.02 0.05 0.11 0.12 0.15 0.18 0.12 0.06 0.06 0.12 0.14 0.19 0.21 0.31 0.18 0.05 0.03 0.05 0.05 0.07 0.09 0.18 0.29 0.23 0.09 0.03 0.02
0.53 0.65 0.73 0.56 0.34 0.12 0.01 0.00 0.00 0.02 0.01 0.04 0.06 0.06 0.15 0.11 0.01 0.02 0.04 0.02 0.00 0.00 0.02 0.03 0.10 0.09 0.14 0.18 0.08 0.04 0.07 0.13 0.16 0.20 0.33 0.40 0.06 0.02 0.05 0.05 0.06 0.08 0.12 0.20 0.12 0.02 0.01 0.00 0.01
0.67 0.81 0.86 0.74 0.35 0.08 0.00 0.00 0.00 0.00 0.01 0.02 0.05 0.06 0.17 0.10 0.04 0.02 0.02 0.04 0.01 0.01 0.01 0.04 0.09 0.09 0.15 0.13 0.05 0.05 0.11 0.18 0.18 0.28 0.38 0.24 0.07 0.05 0.06 0.05 0.06 0.08 0.07 0.03 0.01 0.01 0.00 0.00 0.00
0.86 1.20 1.55 0.85 0.42 0.05 0.00 0.00 0.00 0.00 0.03 0.04 0.11 0.18 0.14 0.14 0.07 0.04 0.02 0.03 0.01 0.01 0.01 0.06 0.08 0.10 0.13 0.07 0.04 0.07 0.12 0.11 0.18 0.26 0.23 0.12 0.12 0.12 0.08 0.04 0.02 0.02 0.02 0.01 0.01 0.00 0.00 0.00 0.00
0.90 1.70 1.23 0.93 0.43 0.11 0.00 0.00 0.00 0.00 0.02 0.07 0.16 0.27 0.27 0.18 0.23 0.05 0.03 0.02 0.01 0.02 0.02 0.06 0.10 0.10 0.10 0.05 0.04 0.08 0.08 0.09 0.16 0.21 0.12 0.09 0.14 0.15 0.11 0.01 0.00 0.01 0.01 0.01 0.01 0.00 0.00 0.00 0.00
1.34 1.47 1.44 0.74 0.34 0.10 0.03 0.00 0.00 0.00 0.00 0.02 0.15 0.40 0.58 0.37 0.40 0.22 0.06 0.02 0.01 0.01 0.05 0.08 0.12 0.12 0.09 0.06 0.05 0.06 0.07 0.15 0.21 0.19 0.08 0.07 0.12 0.15 0.16 0.04 0.01 0.01 0.01 0.01 0.01 0.01 0.01 0.01 0.01
1.51 1.03 1.38 0.58 0.21 0.12 0.07 0.02 0.03 0.04 0.01 0.01 0.11 0.48 0.68 0.76 0.65 0.39 0.12 0.05 0.03 0.03 0.04 0.08 0.10 0.12 0.09 0.08 0.07 0.07 0.06 0.14 0.20 0.13 0.04 0.04 0.07 0.04 0.09 0.06 0.03 0.02 0.02 0.01 0.02 0.02 0.02 0.02 0.01
1.14 1.63 0.59 0.68 0.18 0.12 0.07 0.04 0.02 0.06 0.06 0.01 0.11 0.45 0.92 1.13 1.05 0.56 0.21 0.10 0.05 0.08 0.08 0.05 0.06 0.07 0.09 0.08 0.07 0.06 0.05 0.08 0.10 0.06 0.01 0.00 0.00 0.01 0.04 0.05 0.03 0.02 0.01 0.01 0.02 0.02 0.01 0.01 0.01
1.29 1.89 0.85 0.32 0.34 0.10 0.09 0.25 0.03 0.03 0.14 0.05 0.06 0.20 0.52 1.38 1.55 0.96 0.41 0.30 0.19 0.20 0.12 0.06 0.03 0.02 0.05 0.07 0.05 0.05 0.05 0.06 0.03 0.01 0.00 0.00 0.00 0.00 0.01 0.01 0.02 0.03 0.02 0.00 0.00 0.01 0.01 0.01 0.00
1.52 1.33 0.62 0.25 0.35 0.27 0.25 0.37 0.16 0.08 0.15 0.36 0.24 0.20 0.53 1.66 2.44 1.45 0.80 0.41 0.30 0.23 0.18 0.08 0.04 0.02 0.03 0.05 0.04 0.04 0.03 0.04 0.01 0.00 0.00 0.00 0.00 0.00 0.00 0.00 0.02 0.02 0.00 0.00 0.00 0.01 0.00 0.00 0.00
1.30 0.76 0.56 0.47 0.45 0.52 0.26 0.15 0.18 0.21 0.16 0.35 0.22 0.36 0.81 1.65 3.98 3.02 1.62 0.94 0.67 0.31 0.17 0.08 0.05 0.03 0.03 0.03 0.03 0.04 0.03 0.02 0.01 0.00 0.00 0.00 0.00 0.00 0.00 0.00 0.01 0.01 0.00 0.00 0.00 0.01 0.00 0.00 0.00
1.37 0.83 0.86 0.76 0.83 0.56 0.32 0.21 0.13 0.15 0.04 0.11 0.61 0.63 0.97 1.26 4.00 4.64 4.00 3.06 2.03 1.24 0.39 0.08 0.04 0.04 0.03 0.02 0.03 0.03 0.02 0.01 0.00 0.00 0.00 0.00 0.00 0.00 0.00 0.00 0.00 0.00 0.00 0.00 0.00 0.00 0.00 0.00 0.00
1.41 1.25 0.78 0.85 0.64 0.49 0.27 0.38 0.15 0.04 0.03 0.19 0.40 0.62 0.70 1.36 1.99 3.25 3.24 3.38 2.62 2.10 1.23 0.24 0.03 0.03 0.06 0.03 0.03 0.02 0.02 0.01 0.00 0.00 0.00 0.00 0.00 0.00 0.00 0.00 0.00 0.00 0.00 0.00 0.00 0.00 0.00 0.00 0.00
1.21 1.56 0.94 0.76 0.65 0.33 0.24 0.24 0.22 0.07 0.12 0.42 0.39 0.58 0.83 0.98 1.30 1.53 1.65 2.02 2.09 2.21 1.94 0.89 0.15 0.04 0.06 0.06 0.04 0.03 0.01 0.00 0.00 0.00 0.00 0.00 0.00 0.00 0.00 0.00 0.00 0.00 0.00 0.00 0.00 0.00 0.00 0.00 0.00
0.76 1.67 1.34 0.78 0.83 0.40 0.26 0.39 0.33 0.05 0.18 0.51 0.67 0.73 1.30 0.96 0.91 0.75 0.94 1.15 1.42 1.71 1.60 1.31 0.45 0.11 0.07 0.03 0.08 0.09 0.09 0.03 0.02 0.00 0.00 0.00 0.00 0.00 0.00 0.00 0.00 0.00 0.00 0.00 0.00 0.00 0.00 0.00 0.00
0.49 1.32 1.69 0.94 0.91 0.71 0.43 0.21 0.11 0.12 0.11 0.31 0.47 0.67 1.23 0.90 0.67 0.61 0.70 0.72 0.81 1.27 1.33 1.43 0.66 0.30 0.14 0.09 0.13 0.14 0.13 0.07 0.07 0.03 0.00 0.00 0.00 0.00 0.00 0.00 0.00 0.00 0.00 0.00 0.00 0.00 0.00 0.00 0.00
0.37 0.52 0.97 1.09 0.81 0.88 0.41 0.18 0.07 0.20 0.11 0.11 0.20 0.37 0.97 0.98 0.63 0.34 0.41 0.62 0.62 1.24 1.14 1.40 0.92 0.37 0.28 0.45 0.30 0.31 0.26 0.12 0.09 0.06 0.01 0.00 0.02 0.02 0.00 0.00 0.00 0.00 0.00 0.00 0.00 0.00 0.00 0.00 0.00
0.10 0.12 0.24 0.55 0.71 0.68 0.51 0.25 0.12 0.08 0.19 0.03 0.07 0.19 0.47 0.66 0.52 0.48 0.51 0.59 0.67 1.06 1.51 1.40 1.34 0.85 0.57 0.76 0.80 0.48 0.31 0.17 0.10 0.07 0.04 0.13 0.07 0.07 0.03 0.01 0.00 0.00 0.00 0.00 0.00 0.00 0.00 0.00 0.00
0.02 0.04 0.07 0.15 0.26 0.51 0.52 0.28 0.18 0.04 0.10 0.08 0.03 0.16 0.33 0.57 0.53 0.50 0.59 0.68 0.71 0.77 1.72 1.35 1.42 0.96 0.93 0.96 0.85 0.58 0.33 0.54 0.31 0.25 0.36 0.34 0.29 0.23 0.12 0.06 0.05 0.04 0.01 0.02 0.01 0.01 0.01 0.01 0.07
0.06 0.06 0.07 0.09 0.15 0.23 0.31 0.14 0.20 0.12 0.02 0.04 0.02 0.12 0.25 0.39 0.32 0.28 0.41 0.66 0.74 0.64 1.55 1.96 1.63 0.98 0.59 0.64 0.88 1.01 0.88 0.87 0.95 0.83 0.76 0.90 0.88 0.85 0.53 0.32 0.26 0.28 0.20 0.14 0.13 0.11 0.12 0.24 0.46
0.15 0.05 0.04 0.06 0.10 0.11 0.11 0.06 0.02 0.07 0.02 0.01 0.01 0.04 0.11 0.16 0.15 0.21 0.21 0.39 1.20 0.98 0.75 1.40 2.08 1.76 0.86 0.79 1.14 1.54 1.70 1.19 1.08 0.95 1.02 1.03 1.03 1.41 1.28 0.96 0.65 0.59 0.46 0.47 0.35 0.34 0.51 0.73 0.51
0.22 0.08 0.03 0.08 0.13 0.14 0.06 0.08 0.01 0.01 0.03 0.02 0.00 0.03 0.08 0.17 0.18 0.17 0.16 0.16 0.38 0.80 0.71 0.76 1.31 1.95 1.57 1.31 1.28 1.19 0.87 0.99 1.06 1.19 1.49 1.28 0.97 1.15 1.26 1.18 1.11 1.11 1.00 0.98 0.96 0.84 0.84 0.86 0.61
0.25 0.10 0.04 0.12 0.18 0.18 0.12 0.11 0.06 0.01 0.01 0.00 0.00 0.01 0.09 0.13 0.12 0.12 0.11 0.13 0.30 0.28 0.26 0.38 0.81 1.18 1.57 1.41 1.23 1.04 0.82 0.75 0.99 0.81 0.78 0.67 0.65 0.71 0.87 1.05 1.28 1.29 1.26 1.19 1.20 1.16 1.20 1.36 1.08
0.26 0.27 0.24 0.20 0.48 0.50 0.11 0.15 0.14 0.01 0.01 0.02 0.01 0.01 0.02 0.08 0.16 0.10 0.08 0.21 0.27 0.21 0.04 0.12 0.38 0.54 0.79 1.24 0.89 0.85 0.83 1.08 0.92 0.74 0.72 0.82 0.78 0.76 0.89 1.09 1.12 1.18 1.09 1.10 1.34 1.45 1.30 1.06 0.93
0.73 0.95 1.21 0.91 0.97 0.52 0.07 0.06 0.07 0.00 0.00 0.02 0.04 0.03 0.00 0.02 0.04 0.06 0.04 0.07 0.16 0.11 0.03 0.03 0.11 0.24 0.40 0.71 0.66 0.59 0.64 0.79 0.91 0.85 0.75 0.79 0.74 0.62 0.55 0.68 0.82 0.88 0.87 0.81 0.71 0.61 0.52 0.56 0.54
0.91 1.07 1.13 0.57 0.24 0.17 0.05 0.12 0.02 0.00 0.00 0.00 0.05 0.02 0.00 0.00 0.00 0.02 0.04 0.09 0.15 0.17 0.07 0.01 0.05 0.17 0.21 0.25 0.38 0.52 0.64 0.49 0.55 0.56 0.52 0.46 0.40 0.46 0.44 0.36 0.36 0.39 0.41 0.42 0.35 0.38 0.33 0.27 0.27
1.16 1.19 0.67 0.72 0.31 0.26 0.11 0.01 0.00 0.00 0.00 0.00 0.01 0.00 0.00 0.00 0.00 0.00 0.00 0.00 0.01 0.04 0.06 0.07 0.05 0.12 0.09 0.12 0.27 0.35 0.44 0.38 0.40 0.44 0.33 0.29 0.28 0.28 0.28 0.30 0.27 0.23 0.33 0.38 0.33 0.29 0.27 0.26 0.26
0.97 0.64 0.88 1.35 0.86 0.30 0.09 0.03 0.00 0.00 0.00 0.00 0.00 0.00 0.00 0.00 0.00 0.00 0.00 0.00 0.00 0.00 0.02 0.10 0.14 0.14 0.15 0.17 0.15 0.17 0.25 0.15 0.33 0.37 0.31 0.30 0.22 0.24 0.25 0.22 0.23 0.22 0.24 0.29 0.29 0.24 0.22 0.25 0.27
0.95 1.19 0.73 0.91 0.48 0.43 0.23 0.06 0.00 0.00 0.00 0.00 0.00 0.00 0.00 0.00 0.00 0.00 0.00 0.00 0.00 0.00 0.00 0.00 0.02 0.05 0.07 0.17 0.11 0.13 0.16 0.10 0.17 0.23 0.16 0.20 0.28 0.16 0.17 0.21 0.20 0.14 0.14 0.14 0.14 0.09 0.10 0.09 0.11
0.53 0.62 0.74 0.86 0.48 0.40 0.43 0.25 0.00 0.00 0.00 0.00 0.01 0.02 0.01 0.00 0.00 0.00 0.00 0.00 0.00 0.00 0.00 0.00 0.01 0.01 0.01 0.12 0.06 0.05 0.06 0.06 0.13 0.12 0.09 0.07 0.10 0.11 0.08 0.07 0.08 0.09 0.09 0.05 0.04 0.04 0.05 0.07 0.08

GFSSGP_prec_precacc_117.txt.gz
Total_Precipitation_Accumulation
0.26 0.49 0.63 0.56 0.32 0.20 0.01 0.00 0.00 0.01 0.04 0.05 0.03 0.02 0.15 0.11 0.02 0.02 0.01 0.00 0.00 0.01 0.02 0.05 0.11 0.12 0.15 0.18 0.12 0.06 0.07 0.12 0.15 0.20 0.23 0.32 0.18 0.06 0.04 0.05 0.06 0.08 0.09 0.19 0.30 0.24 0.10 0.04 0.02
0.53 0.65 0.74 0.56 0.35 0.12 0.01 0.00 0.00 0.02 0.01 0.04 0.06 0.06 0.15 0.11 0.01 0.02 0.04 0.02 0.00 0.00 0.02 0.03 0.10 0.09 0.14 0.18 0.08 0.04 0.07 0.13 0.16 0.21 0.34 0.41 0.07 0.03 0.05 0.05 0.08 0.10 0.13 0.20 0.12 0.02 0.01 0.00 0.01
0.67 0.81 0.87 0.75 0.35 0.08 0.00 0.00 0.00 0.00 0.01 0.02 0.05 0.06 0.17 0.10 0.04 0.02 0.02 0.04 0.01 0.01 0.01 0.04 0.09 0.09 0.15 0.13 0.05 0.05 0.11 0.18 0.19 0.28 0.40 0.25 0.10 0.07 0.06 0.05 0.08 0.09 0.07 0.03 0.01 0.01 0.00 0.00 0.00
0.86 1.21 1.56 0.85 0.42 0.05 0.00 0.00 0.00 0.00 0.03 0.04 0.11 0.18 0.14 0.15 0.07 0.04 0.02 0.03 0.01 0.01 0.01 0.06 0.08 0.10 0.13 0.07 0.04 0.07 0.12 0.12 0.18 0.26 0.25 0.14 0.16 0.14 0.08 0.04 0.02 0.02 0.02 0.01 0.01 0.00 0.00 0.00 0.00
0.90 1.70 1.24 0.93 0.43 0.11 0.00 0.00 0.00 0.00 0.02 0.07 0.16 0.27 0.27 0.19 0.23 0.05 0.03 0.02 0.01 0.02 0.02 0.06 0.10 0.10 0.10 0.05 0.04 0.08 0.09 0.10 0.17 0.22 0.16 0.13 0.18 0.15 0.11 0.01 0.00 0.01 0.01 0.01 0.01 0.00 0.00 0.00 0.00
1.34 1.47 1.44 0.74 0.34 0.10 0.03 0.00 0.00 0.00 0.00 0.02 0.15 0.40 0.59 0.44 0.43 0.23 0.06 0.02 0.01 0.01 0.05 0.08 0.12 0.12 0.09 0.06 0.05 0.06 0.08 0.15 0.22 0.22 0.13 0.11 0.15 0.15 0.16 0.04 0.01 0.01 0.01 0.02 0.01 0.01 0.01 0.01 0.01
1.51 1.04 1.38 0.58 0.21 0.12 0.07 0.02 0.03 0.04 0.01 0.01 0.11 0.48 0.72 0.91 0.80 0.50 0.15 0.07 0.03 0.03 0.04 0.08 0.10 0.12 0.09 0.08 0.07 0.07 0.07 0.14 0.21 0.17 0.07 0.06 0.07 0.04 0.09 0.06 0.03 0.02 0.03 0.02 0.02 0.02 0.02 0.02 0.01
1.14 1.65 0.59 0.69 0.18 0.12 0.07 0.04 0.02 0.06 0.06 0.01 0.11 0.45 0.94 1.34 1.24 0.82 0.49 0.18 0.09 0.08 0.08 0.05 0.06 0.07 0.09 0.08 0.07 0.06 0.05 0.09 0.12 0.10 0.02 0.01 0.00 0.01 0.04 0.05 0.03 0.03 0.02 0.01 0.02 0.02 0.01 0.01 0.01
1.33 1.96 0.86 0.32 0.34 0.10 0.09 0.25 0.03 0.03 0.14 0.05 0.06 0.21 0.52 1.49 1.95 1.30 0.83 0.52 0.26 0.20 0.12 0.07 0.03 0.02 0.06 0.07 0.06 0.06 0.06 0.06 0.04 0.02 0.00 0.00 0.00 0.00 0.01 0.02 0.02 0.03 0.02 0.00 0.00 0.01 0.01 0.01 0.00
1.54 1.36 0.62 0.25 0.35 0.27 0.25 0.38 0.17 0.09 0.15 0.36 0.24 0.20 0.54 1.67 2.64 1.95 1.17 0.62 0.37 0.24 0.18 0.09 0.04 0.03 0.04 0.05 0.05 0.05 0.03 0.04 0.02 0.00 0.00 0.00 0.00 0.00 0.00 0.01 0.03 0.03 0.00 0.00 0.00 0.01 0.00 0.00 0.00
1.30 0.76 0.56 0.47 0.45 0.54 0.28 0.17 0.21 0.25 0.17 0.35 0.22 0.37 0.83 1.67 4.05 3.53 2.27 1.16 0.85 0.40 0.19 0.10 0.05 0.04 0.03 0.03 0.04 0.04 0.03 0.03 0.01 0.00 0.00 0.00 0.00 0.00 0.00 0.01 0.02 0.01 0.00 0.00 0.00 0.01 0.00 0.00 0.00
1.37 0.83 0.86 0.76 0.83 0.59 0.35 0.22 0.14 0.15 0.04 0.11 0.62 0.66 0.98 1.28 4.08 4.91 5.08 3.90 2.19 1.36 0.43 0.10 0.06 0.06 0.04 0.03 0.03 0.03 0.02 0.02 0.00 0.00 0.00 0.00 0.00 0.00 0.00 0.00 0.00 0.00 0.00 0.00 0.00 0.00 0.00 0.00 0.00
1.43 1.25 0.78 0.85 0.64 0.50 0.28 0.38 0.15 0.04 0.03 0.19 0.40 0.65 0.72 1.39 2.18 3.85 4.05 4.68 3.17 2.23 1.43 0.34 0.07 0.12 0.11 0.04 0.03 0.03 0.02 0.02 0.00 0.00 0.00 0.00 0.00 0.00 0.00 0.00 0.00 0.00 0.00 0.00 0.00 0.00 0.00 0.00 0.00
1.22 1.56 0.94 0.76 0.65 0.33 0.24 0.24 0.22 0.07 0.12 0.42 0.39 0.59 0.84 0.99 1.37 2.17 2.35 2.82 2.98 2.44 2.14 1.48 0.21 0.11 0.15 0.11 0.06 0.04 0.01 0.01 0.00 0.00 0.00 0.00 0.00 0.00 0.00 0.00 0.00 0.00 0.00 0.00 0.00 0.00 0.00 0.00 0.00
0.76 1.67 1.34 0.78 0.84 0.41 0.28 0.39 0.33 0.05 0.18 0.51 0.67 0.74 1.31 0.97 0.99 1.55 1.58 1.93 1.97 1.92 1.70 1.77 0.83 0.13 0.13 0.11 0.14 0.12 0.11 0.03 0.02 0.00 0.00 0.00 0.00 0.00 0.00 0.00 0.00 0.00 0.00 0.00 0.00 0.00 0.00 0.00 0.00
0.49 1.32 1.69 0.94 0.92 0.71 0.43 0.21 0.11 0.12 0.11 0.31 0.47 0.68 1.23 0.90 0.72 0.81 1.29 1.62 1.55 1.48 1.42 1.65 1.07 0.45 0.16 0.15 0.16 0.17 0.15 0.07 0.07 0.03 0.00 0.00 0.00 0.00 0.00 0.00 0.00 0.00 0.00 0.00 0.00 0.00 0.00 0.00 0.00
0.37 0.53 0.98 1.09 0.81 0.88 0.41 0.18 0.07 0.20 0.11 0.11 0.20 0.37 0.97 1.02 0.83 0.45 0.55 1.02 1.16 1.48 1.21 1.58 1.34 0.70 0.34 0.46 0.32 0.33 0.27 0.12 0.09 0.06 0.01 0.00 0.02 0.02 0.00 0.00 0.00 0.00 0.00 0.00 0.00 0.00 0.00 0.00 0.00
0.15 0.17 0.26 0.55 0.71 0.68 0.51 0.25 0.12 0.08 0.19 0.03 0.07 0.20 0.51 0.76 0.78 0.62 0.61 0.68 0.78 1.12 1.53 1.49 1.68 1.37 0.84 0.80 0.81 0.49 0.32 0.17 0.10 0.07 0.04 0.13 0.07 0.07 0.03 0.01 0.00 0.00 0.00 0.00 0.00 0.00 0.00 0.00 0.00
0.03 0.05 0.07 0.15 0.26 0.51 0.52 0.28 0.18 0.04 0.10 0.08 0.03 0.16 0.40 0.70 0.66 0.62 0.69 0.76 0.76 0.78 1.73 1.36 1.57 1.48 1.46 1.13 0.89 0.59 0.33 0.54 0.31 0.25 0.36 0.34 0.29 0.23 0.12 0.06 0.05 0.04 0.01 0.02 0.01 0.01 0.01 0.01 0.07
0.06 0.06 0.08 0.12 0.16 0.23 0.31 0.14 0.20 0.12 0.02 0.04 0.02 0.12 0.33 0.49 0.45 0.38 0.49 0.74 0.77 0.65 1.56 1.97 1.78 1.47 1.03 1.01 0.99 1.04 0.89 0.88 0.95 0.83 0.76 0.90 0.88 0.85 0.53 0.32 0.26 0.28 0.20 0.14 0.13 0.11 0.12 0.24 0.46
0.15 0.05 0.05 0.08 0.10 0.11 0.11 0.06 0.02 0.07 0.02 0.01 0.01 0.07 0.16 0.24 0.21 0.29 0.28 0.44 1.26 1.01 0.76 1.43 2.22 2.18 1.13 1.16 1.38 1.71 1.77 1.24 1.10 0.96 1.03 1.03 1.03 1.41 1.28 0.96 0.65 0.60 0.46 0.47 0.39 0.37 0.54 0.74 0.51
0.22 0.09 0.03 0.08 0.13 0.14 0.06 0.08 0.01 0.02 0.03 0.03 0.01 0.10 0.15 0.23 0.32 0.27 0.24 0.18 0.43 0.85 0.76 0.80 1.41 2.38 1.97 1.56 1.56 1.41 0.95 1.03 1.08 1.19 1.49 1.29 0.98 1.16 1.26 1.18 1.11 1.13 1.02 1.02 1.05 0.96 1.02 0.96 0.72
0.25 0.10 0.04 0.12 0.18 0.18 0.12 0.13 0.12 0.02 0.02 0.02 0.02 0.09 0.26 0.22 0.23 0.21 0.18 0.19 0.32 0.31 0.37 0.47 0.94 1.48 2.16 1.78 1.54 1.30 0.96 0.88 1.06 0.81 0.79 0.68 0.66 0.72 0.87 1.05 1.28 1.30 1.27 1.25 1.30 1.28 1.37 1.55 1.29
0.26 0.27 0.24 0.20 0.48 0.50 0.11 0.16 0.18 0.02 0.06 0.09 0.04 0.03 0.15 0.31 0.42 0.26 0.12 0.22 0.28 0.24 0.10 0.18 0.51 0.79 1.33 1.83 1.20 1.05 0.97 1.23 1.11 0.81 0.74 0.82 0.79 0.78 0.89 1.09 1.12 1.18 1.09 1.11 1.36 1.49 1.35 1.14 1.01
0.73 0.95 1.22 0.92 0.98 0.52 0.07 0.06 0.08 0.00 0.01 0.07 0.07 0.05 0.04 0.16 0.28 0.23 0.10 0.08 0.17 0.12 0.05 0.07 0.15 0.33 0.69 1.43 1.00 0.80 0.75 0.86 1.02 1.02 0.88 0.84 0.76 0.65 0.58 0.68 0.82 0.88 0.87 0.81 0.72 0.61 0.53 0.58 0.57
0.91 1.08 1.23 0.80 0.33 0.21 0.06 0.12 0.02 0.00 0.00 0.01 0.18 0.06 0.02 0.00 0.07 0.17 0.16 0.22 0.25 0.21 0.09 0.03 0.06 0.20 0.33 0.66 0.73 0.73 0.80 0.64 0.63 0.62 0.55 0.51 0.43 0.47 0.44 0.36 0.36 0.39 0.41 0.42 0.36 0.40 0.34 0.28 0.31
1.16 1.19 0.68 0.77 0.35 0.32 0.12 0.01 0.00 0.00 0.00 0.00 0.08 0.20 0.02 0.00 0.00 0.02 0.04 0.12 0.17 0.10 0.09 0.09 0.09 0.15 0.11 0.22 0.44 0.45 0.52 0.47 0.51 0.49 0.34 0.29 0.28 0.30 0.28 0.30 0.27 0.23 0.33 0.39 0.36 0.32 0.36 0.37 0.35
0.98 0.64 0.88 1.35 0.87 0.37 0.14 0.04 0.00 0.00 0.00 0.00 0.00 0.04 0.02 0.00 0.00 0.00 0.00 0.01 0.01 0.01 0.05 0.19 0.25 0.23 0.17 0.20 0.20 0.24 0.32 0.20 0.40 0.42 0.34 0.31 0.24 0.24 0.25 0.22 0.24 0.23 0.25 0.30 0.31 0.35 0.38 0.38 0.35
0.95 1.19 0.73 0.91 0.48 0.53 0.33 0.16 0.00 0.00 0.00 0.00 0.00 0.00 0.00 0.00 0.00 0.00 0.00 0.00 0.00 0.00 0.00 0.05 0.20 0.17 0.16 0.27 0.21 0.32 0.30 0.18 0.32 0.38 0.21 0.23 0.33 0.19 0.18 0.25 0.26 0.21 0.20 0.21 0.24 0.21 0.30 0.21 0.15
0.53 0.62 0.74 0.86 0.48 0.43 0.52 0.35 0.00 0.00 0.00 0.00 0.01 0.02 0.01 0.00 0.00 0.00 0.00 0.00 0.00 0.00 0.00 0.00 0.02 0.05 0.05 0.22 0.26 0.30 0.31 0.27 0.30 0.26 0.18 0.12 0.15 0.19 0.14 0.11 0.12 0.17 0.19 0.22 0.18 0.12 0.16 0.17 0.15

GFSSGP_prec_precacc_120.txt.gz
Total_Precipitation_Accumulation
0.26 0.49 0.63 0.56 0.32 0.21 0.01 0.00 0.00 0.01 0.04 0.05 0.03 0.02 0.15 0.11 0.02 0.02 0.01 0.00 0.00 0.01 0.02 0.05 0.11 0.12 0.15 0.18 0.12 0.06 0.07 0.12 0.15 0.21 0.23 0.32 0.18 0.06 0.04 0.06 0.07 0.08 0.11 0.21 0.31 0.24 0.10 0.04 0.02
0.53 0.65 0.74 0.56 0.35 0.12 0.01 0.00 0.00 0.02 0.01 0.04 0.06 0.06 0.15 0.11 0.01 0.02 0.04 0.02 0.00 0.00 0.02 0.03 0.10 0.09 0.14 0.18 0.08 0.04 0.07 0.13 0.16 0.21 0.34 0.42 0.09 0.04 0.05 0.05 0.08 0.10 0.14 0.21 0.13 0.03 0.01 0.00 0.01
0.67 0.81 0.87 0.75 0.35 0.08 0.00 0.00 0.00 0.00 0.01 0.02 0.05 0.06 0.17 0.10 0.04 0.02 0.02 0.04 0.01 0.01 0.01 0.04 0.09 0.09 0.15 0.13 0.05 0.05 0.11 0.18 0.19 0.29 0.40 0.27 0.14 0.08 0.07 0.06 0.08 0.09 0.08 0.03 0.01 0.01 0.00 0.00 0.00
0.86 1.21 1.56 0.85 0.42 0.05 0.00 0.00 0.00 0.00 0.03 0.04 0.11 0.18 0.14 0.15 0.07 0.04 0.02 0.03 0.01 0.01 0.01 0.06 0.08 0.10 0.13 0.07 0.04 0.07 0.12 0.12 0.19 0.26 0.25 0.16 0.21 0.15 0.08 0.04 0.02 0.02 0.02 0.01 0.01 0.00 0.00 0.00 0.00
0.90 1.70 1.24 0.93 0.43 0.11 0.00 0.00 0.00 0.00 0.02 0.07 0.16 0.27 0.27 0.19 0.23 0.07 0.04 0.02 0.01 0.02 0.02 0.06 0.11 0.10 0.11 0.05 0.05 0.08 0.09 0.10 0.17 0.22 0.16 0.15 0.23 0.15 0.12 0.02 0.00 0.01 0.01 0.01 0.01 0.00 0.00 0.00 0.00
1.34 1.47 1.44 0.74 0.34 0.10 0.03 0.00 0.00 0.00 0.00 0.02 0.15 0.40 0.59 0.45 0.48 0.33 0.14 0.07 0.01 0.01 0.05 0.08 0.12 0.12 0.09 0.06 0.05 0.07 0.08 0.15 0.22 0.22 0.15 0.15 0.19 0.15 0.16 0.04 0.01 0.01 0.01 0.02 0.01 0.01 0.01 0.01 0.01
1.51 1.04 1.38 0.58 0.21 0.12 0.07 0.02 0.03 0.04 0.01 0.01 0.11 0.48 0.72 0.92 0.86 0.66 0.37 0.25 0.13 0.04 0.04 0.08 0.11 0.12 0.10 0.08 0.07 0.07 0.07 0.14 0.21 0.18 0.10 0.10 0.09 0.04 0.09 0.06 0.03 0.02 0.03 0.02 0.02 0.02 0.02 0.02 0.01
1.15 1.65 0.59 0.69 0.18 0.12 0.07 0.04 0.02 0.06 0.06 0.01 0.11 0.45 0.94 1.34 1.28 0.95 0.73 0.45 0.31 0.14 0.08 0.05 0.06 0.08 0.09 0.09 0.08 0.07 0.05 0.09 0.12 0.10 0.03 0.01 0.01 0.01 0.04 0.05 0.03 0.03 0.02 0.01 0.02 0.02 0.01 0.01 0.01
1.34 1.97 0.87 0.32 0.34 0.10 0.09 0.25 0.03 0.03 0.14 0.05 0.06 0.21 0.52 1.49 1.96 1.37 0.98 0.91 0.67 0.35 0.13 0.07 0.03 0.02 0.06 0.07 0.07 0.07 0.07 0.07 0.04 0.02 0.00 0.00 0.00 0.00 0.01 0.02 0.03 0.04 0.02 0.00 0.00 0.01 0.01 0.01 0.00
1.55 1.37 0.62 0.25 0.35 0.27 0.25 0.38 0.17 0.09 0.15 0.36 0.24 0.20 0.54 1.67 2.64 1.96 1.21 1.02 1.06 0.63 0.29 0.11 0.04 0.03 0.04 0.05 0.06 0.06 0.05 0.05 0.02 0.00 0.00 0.00 0.00 0.00 0.00 0.01 0.03 0.03 0.00 0.00 0.00 0.01 0.00 0.00 0.00
1.30 0.76 0.56 0.47 0.45 0.54 0.28 0.17 0.21 0.25 0.17 0.35 0.22 0.37 0.83 1.67 4.05 3.53 2.29 1.36 1.46 1.39 0.59 0.21 0.06 0.04 0.04 0.03 0.04 0.05 0.05 0.04 0.02 0.00 0.00 0.00 0.00 0.00 0.00 0.01 0.02 0.01 0.00 0.00 0.00 0.01 0.00 0.00 0.00
1.37 0.83 0.86 0.76 0.83 0.59 0.35 0.22 0.14 0.15 0.04 0.11 0.62 0.66 0.98 1.28 4.08 4.91 5.10 4.20 2.86 2.26 1.15 0.32 0.07 0.07 0.05 0.03 0.04 0.04 0.04 0.03 0.01 0.00 0.00 0.00 0.00 0.00 0.00 0.00 0.00 0.00 0.00 0.00 0.00 0.00 0.00 0.00 0.00
1.43 1.25 0.78 0.85 0.64 0.50 0.28 0.38 0.15 0.04 0.03 0.19 0.40 0.65 0.72 1.39 2.18 3.85 4.05 4.83 4.15 2.91 2.06 0.58 0.08 0.12 0.11 0.04 0.04 0.04 0.02 0.03 0.00 0.00 0.00 0.00 0.00 0.00 0.00 0.00 0.00 0.00 0.00 0.00 0.00 0.00 0.00 0.00 0.00
1.22 1.56 0.94 0.76 0.65 0.33 0.25 0.24 0.23 0.07 0.12 0.42 0.39 0.59 0.84 0.99 1.37 2.17 2.35 2.84 3.90 3.43 2.69 1.74 0.25 0.11 0.16 0.11 0.06 0.04 0.02 0.02 0.01 0.00 0.00 0.00 0.00 0.00 0.00 0.00 0.00 0.00 0.00 0.00 0.00 0.00 0.00 0.00 0.00
0.76 1.67 1.34 0.78 0.84 0.41 0.29 0.39 0.33 0.05 0.18 0.51 0.67 0.74 1.31 0.97 1.00 1.55 1.58 1.93 2.38 3.09 2.54 2.04 0.87 0.13 0.14 0.11 0.14 0.13 0.12 0.04 0.04 0.00 0.00 0.00 0.00 0.00 0.00 0.00 0.00 0.00 0.00 0.00 0.00 0.00 0.00 0.00 0.00
0.49 1.32 1.69 0.94 0.92 0.71 0.44 0.21 0.11 0.12 0.11 0.31 0.47 0.69 1.24 0.90 0.72 0.81 1.29 1.63 1.95 2.41 2.40 2.23 1.26 0.47 0.16 0.17 0.19 0.19 0.17 0.09 0.09 0.04 0.01 0.00 0.00 0.00 0.00 0.00 0.00 0.00 0.00 0.00 0.00 0.00 0.00 0.00 0.00
0.38 0.54 0.98 1.09 0.81 0.88 0.41 0.18 0.07 0.20 0.11 0.11 0.20 0.39 1.03 1.05 0.84 0.45 0.55 1.05 1.49 2.44 2.18 2.23 1.62 0.78 0.35 0.48 0.39 0.37 0.28 0.14 0.09 0.07 0.01 0.00 0.02 0.02 0.00 0.00 0.00 0.00 0.00 0.00 0.00 0.00 0.00 0.00 0.00
0.15 0.18 0.26 0.55 0.71 0.68 0.51 0.25 0.12 0.08 0.19 0.03 0.08 0.21 0.58 0.85 0.84 0.65 0.61 0.73 0.99 1.69 2.55 2.33 2.07 1.58 0.93 0.85 0.90 0.58 0.38 0.20 0.11 0.07 0.04 0.13 0.07 0.07 0.03 0.01 0.00 0.00 0.00 0.00 0.00 0.00 0.00 0.00 0.00
0.03 0.05 0.07 0.15 0.26 0.51 0.52 0.28 0.18 0.04 0.10 0.08 0.04 0.21 0.51 0.80 0.76 0.67 0.71 0.80 0.91 1.04 2.24 1.99 2.14 1.68 1.55 1.16 0.94 0.68 0.42 0.58 0.31 0.25 0.36 0.34 0.29 0.23 0.12 0.06 0.05 0.04 0.01 0.02 0.01 0.01 0.01 0.01 0.07
0.08 0.06 0.08 0.13 0.16 0.23 0.31 0.14 0.21 0.13 0.02 0.04 0.06 0.16 0.39 0.64 0.51 0.42 0.52 0.81 0.85 0.76 1.67 2.24 1.97 1.56 1.08 1.05 1.01 1.07 1.00 0.94 0.96 0.83 0.76 0.90 0.88 0.85 0.53 0.32 0.26 0.28 0.20 0.14 0.13 0.11 0.12 0.24 0.46
0.15 0.06 0.05 0.09 0.10 0.11 0.11 0.06 0.04 0.07 0.03 0.02 0.03 0.09 0.24 0.36 0.25 0.34 0.33 0.47 1.29 1.03 0.78 1.48 2.25 2.21 1.18 1.28 1.50 1.76 1.83 1.31 1.17 0.97 1.03 1.03 1.03 1.41 1.28 0.96 0.65 0.60 0.46 0.47 0.39 0.38 0.55 0.74 0.51
0.22 0.09 0.03 0.08 0.13 0.14 0.06 0.08 0.02 0.03 0.05 0.05 0.08 0.26 0.29 0.35 0.39 0.29 0.27 0.22 0.46 0.90 0.76 0.82 1.41 2.41 2.03 1.70 1.80 1.56 1.01 1.06 1.13 1.21 1.49 1.29 0.98 1.16 1.26 1.18 1.11 1.14 1.03 1.02 1.05 0.97 1.06 0.99 0.77
0.25 0.10 0.04 0.12 0.18 0.18 0.12 0.15 0.15 0.08 0.20 0.19 0.07 0.20 0.40 0.34 0.31 0.25 0.25 0.34 0.39 0.45 0.48 0.51 0.98 1.49 2.22 1.86 1.75 1.57 1.20 1.01 1.11 0.85 0.81 0.68 0.66 0.72 0.87 1.05 1.28 1.32 1.28 1.25 1.30 1.28 1.37 1.57 1.36
0.26 0.27 0.24 0.20 0.48 0.51 0.11 0.19 0.18 0.03 0.08 0.10 0.07 0.06 0.25 0.47 0.52 0.35 0.20 0.36 0.35 0.28 0.18 0.31 0.73 0.93 1.39 1.89 1.34 1.34 1.22 1.44 1.37 0.95 0.77 0.84 0.80 0.78 0.90 1.09 1.12 1.18 1.11 1.14 1.37 1.49 1.35 1.15 1.04
0.73 0.95 1.22 0.92 0.99 0.56 0.07 0.07 0.13 0.00 0.04 0.11 0.16 0.11 0.14 0.52 0.45 0.31 0.18 0.12 0.18 0.13 0.07 0.18 0.44 0.97 0.81 1.49 1.07 0.92 0.92 0.96 1.17 1.28 1.08 0.91 0.79 0.67 0.59 0.69 0.84 0.89 0.88 0.84 0.75 0.62 0.54 0.58 0.58
0.91 1.08 1.29 0.89 0.38 0.25 0.06 0.14 0.07 0.00 0.01 0.03 0.26 0.11 0.04 0.34 0.58 0.57 0.44 0.34 0.28 0.22 0.11 0.08 0.28 0.85 0.74 0.79 0.78 0.78 0.91 0.73 0.68 0.74 0.72 0.78 0.69 0.66 0.62 0.42 0.41 0.49 0.52 0.45 0.37 0.40 0.34 0.28 0.31
1.16 1.19 0.69 0.85 0.43 0.34 0.15 0.02 0.00 0.00 0.00 0.00 0.12 0.29 0.04 0.03 0.23 0.53 0.46 0.42 0.34 0.15 0.13 0.15 0.18 0.29 0.38 0.50 0.58 0.53 0.59 0.55 0.59 0.59 0.46 0.37 0.41 0.43 0.39 0.38 0.33 0.34 0.39 0.39 0.36 0.32 0.36 0.37 0.35
0.98 0.64 0.89 1.35 0.88 0.40 0.15 0.06 0.05 0.00 0.00 0.00 0.00 0.08 0.04 0.00 0.00 0.02 0.10 0.08 0.07 0.06 0.12 0.30 0.43 0.34 0.28 0.41 0.36 0.33 0.40 0.27 0.48 0.54 0.47 0.42 0.31 0.32 0.32 0.27 0.25 0.25 0.28 0.31 0.31 0.35 0.38 0.40 0.42
0.95 1.19 0.73 0.91 0.48 0.55 0.34 0.24 0.04 0.00 0.00 0.00 0.00 0.00 0.01 0.00 0.00 0.00 0.00 0.00 0.00 0.00 0.01 0.11 0.41 0.40 0.29 0.40 0.41 0.48 0.42 0.26 0.41 0.47 0.32 0.34 0.41 0.25 0.22 0.28 0.27 0.21 0.21 0.22 0.25 0.22 0.34 0.30 0.21
0.53 0.62 0.74 0.86 0.48 0.43 0.53 0.41 0.01 0.00 0.00 0.00 0.01 0.02 0.01 0.00 0.00 0.00 0.00 0.00 0.00 0.00 0.00 0.00 0.12 0.34 0.26 0.31 0.37 0.50 0.49 0.55 0.48 0.45 0.40 0.22 0.24 0.28 0.20 0.16 0.18 0.22 0.22 0.26 0.28 0.21 0.29 0.45 0.41

GFSSGP_prec_precacc_123.txt.gz
Total_Precipitation_Accumulation
0.26 0.49 0.63 0.56 0.32 0.21 0.01 0.00 0.00 0.01 0.04 0.05 0.03 0.02 0.15 0.11 0.02 0.02 0.01 0.00 0.00 0.01 0.02 0.05 0.11 0.13 0.15 0.18 0.12 0.06 0.07 0.12 0.15 0.21 0.23 0.32 0.18 0.06 0.05 0.06 0.07 0.10 0.12 0.22 0.32 0.26 0.13 0.05 0.03
0.53 0.65 0.74 0.56 0.35 0.12 0.01 0.00 0.00 0.02 0.01 0.04 0.06 0.06 0.15 0.11 0.01 0.02 0.04 0.02 0.00 0.00 0.02 0.03 0.10 0.10 0.15 0.18 0.08 0.04 0.07 0.13 0.16 0.21 0.35 0.42 0.09 0.04 0.07 0.06 0.08 0.11 0.14 0.22 0.13 0.04 0.02 0.00 0.01
0.67 0.81 0.87 0.75 0.35 0.08 0.00 0.00 0.00 0.00 0.01 0.02 0.05 0.06 0.17 0.10 0.04 0.02 0.02 0.04 0.01 0.01 0.01 0.04 0.10 0.10 0.16 0.13 0.05 0.05 0.11 0.18 0.19 0.29 0.40 0.27 0.15 0.08 0.07 0.06 0.09 0.10 0.08 0.03 0.01 0.01 0.00 0.00 0.00
0.86 1.21 1.56 0.85 0.42 0.05 0.00 0.00 0.00 0.00 0.03 0.04 0.11 0.18 0.14 0.15 0.07 0.04 0.02 0.03 0.01 0.01 0.01 0.06 0.09 0.11 0.14 0.07 0.04 0.07 0.12 0.12 0.19 0.26 0.25 0.17 0.22 0.15 0.09 0.05 0.03 0.02 0.02 0.01 0.01 0.00 0.00 0.00 0.00
0.90 1.70 1.24 0.93 0.43 0.11 0.00 0.00 0.00 0.00 0.02 0.07 0.16 0.27 0.27 0.19 0.23 0.07 0.05 0.04 0.01 0.02 0.02 0.06 0.11 0.11 0.12 0.06 0.05 0.08 0.09 0.10 0.17 0.22 0.16 0.16 0.24 0.16 0.12 0.02 0.00 0.01 0.01 0.01 0.01 0.00 0.00 0.00 0.00
1.34 1.47 1.44 0.74 0.34 0.10 0.03 0.00 0.00 0.00 0.00 0.02 0.15 0.40 0.59 0.45 0.48 0.34 0.17 0.11 0.05 0.02 0.05 0.08 0.12 0.13 0.10 0.07 0.05 0.07 0.08 0.15 0.22 0.22 0.15 0.16 0.20 0.15 0.17 0.04 0.01 0.01 0.01 0.02 0.01 0.01 0.01 0.01 0.01
1.51 1.04 1.38 0.58 0.21 0.12 0.07 0.02 0.03 0.04 0.01 0.01 0.11 0.48 0.72 0.92 0.86 0.67 0.41 0.29 0.21 0.08 0.05 0.09 0.11 0.13 0.11 0.09 0.08 0.08 0.07 0.14 0.21 0.18 0.10 0.11 0.10 0.04 0.09 0.06 0.03 0.02 0.03 0.02 0.02 0.02 0.02 0.02 0.01
1.15 1.65 0.59 0.69 0.18 0.12 0.07 0.04 0.02 0.06 0.06 0.01 0.11 0.45 0.94 1.34 1.28 0.95 0.74 0.49 0.37 0.25 0.15 0.07 0.07 0.08 0.10 0.09 0.08 0.08 0.06 0.09 0.12 0.10 0.03 0.01 0.01 0.01 0.04 0.05 0.03 0.03 0.02 0.01 0.02 0.02 0.01 0.01 0.01
1.34 1.97 0.87 0.32 0.34 0.10 0.09 0.25 0.03 0.03 0.14 0.05 0.06 0.21 0.52 1.49 1.96 1.37 0.98 0.93 0.73 0.60 0.34 0.16 0.06 0.03 0.07 0.08 0.08 0.08 0.08 0.08 0.05 0.03 0.01 0.00 0.00 0.00 0.01 0.02 0.03 0.04 0.02 0.00 0.00 0.01 0.01 0.01 0.00
1.55 1.37 0.62 0.25 0.35 0.27 0.25 0.38 0.17 0.09 0.15 0.36 0.24 0.20 0.54 1.67 2.64 1.96 1.21 1.03 1.08 0.78 0.60 0.34 0.14 0.03 0.05 0.07 0.07 0.08 0.07 0.07 0.04 0.01 0.02 0.00 0.00 0.00 0.00 0.01 0.03 0.03 0.00 0.00 0.00 0.01 0.00 0.00 0.00
1.30 0.76 0.56 0.47 0.45 0.54 0.28 0.17 0.21 0.25 0.17 0.35 0.22 0.37 0.83 1.67 4.05 3.53 2.29 1.36 1.47 1.43 0.99 0.44 0.16 0.07 0.04 0.05 0.05 0.06 0.06 0.05 0.03 0.01 0.01 0.00 0.00 0.00 0.00 0.01 0.02 0.01 0.00 0.00 0.00 0.01 0.00 0.00 0.00
1.37 0.83 0.86 0.76 0.83 0.59 0.35 0.22 0.14 0.15 0.04 0.11 0.62 0.66 0.98 1.28 4.08 4.91 5.10 4.20 2.86 2.27 1.70 1.54 0.59 0.16 0.06 0.04 0.05 0.05 0.05 0.03 0.02 0.01 0.00 0.00 0.00 0.00 0.00 0.00 0.00 0.00 0.00 0.00 0.00 0.00 0.00 0.00 0.00
1.43 1.25 0.78 0.85 0.64 0.50 0.28 0.38 0.15 0.04 0.03 0.19 0.40 0.65 0.72 1.39 2.18 3.85 4.05 4.83 4.15 2.91 2.09 1.10 1.19 0.70 0.18 0.05 0.05 0.05 0.03 0.03 0.01 0.01 0.00 0.00 0.00 0.00 0.00 0.00 0.00 0.00 0.00 0.00 0.00 0.00 0.00 0.00 0.00
1.22 1.56 0.94 0.76 0.65 0.33 0.25 0.24 0.23 0.07 0.12 0.42 0.39 0.59 0.84 0.99 1.37 2.17 2.35 2.84 3.90 3.43 2.69 1.91 0.74 0.67 0.31 0.12 0.07 0.05 0.03 0.02 0.01 0.01 0.00 0.00 0.00 0.00 0.00 0.00 0.00 0.00 0.00 0.00 0.00 0.00 0.00 0.00 0.00
0.76 1.68 1.34 0.78 0.84 0.41 0.29 0.39 0.33 0.05 0.18 0.51 0.67 0.74 1.31 0.97 1.00 1.55 1.58 1.93 2.38 3.10 2.54 2.21 1.21 0.63 0.32 0.15 0.15 0.13 0.13 0.04 0.04 0.01 0.00 0.00 0.00 0.00 0.00 0.00 0.00 0.00 0.00 0.00 0.00 0.00 0.00 0.00 0.00
0.49 1.32 1.69 0.94 0.92 0.71 0.44 0.21 0.11 0.12 0.11 0.31 0.47 0.69 1.24 0.90 0.72 0.81 1.29 1.64 1.95 2.42 2.45 2.59 1.52 0.86 0.48 0.25 0.20 0.19 0.17 0.09 0.09 0.04 0.01 0.00 0.00 0.00 0.00 0.00 0.00 0.00 0.00 0.00 0.00 0.00 0.00 0.00 0.00
0.38 0.54 0.98 1.09 0.81 0.88 0.41 0.18 0.07 0.20 0.11 0.11 0.20 0.39 1.03 1.05 0.84 0.46 0.57 1.05 1.49 2.47 2.34 2.68 2.28 1.14 0.70 0.71 0.46 0.39 0.29 0.14 0.09 0.07 0.01 0.00 0.02 0.02 0.00 0.00 0.00 0.00 0.00 0.00 0.00 0.00 0.00 0.00 0.00
0.15 0.18 0.26 0.55 0.71 0.68 0.51 0.25 0.12 0.08 0.19 0.03 0.08 0.21 0.61 0.93 0.89 0.68 0.66 0.75 0.99 1.72 2.60 2.58 2.93 2.25 1.19 1.19 1.08 0.67 0.42 0.22 0.11 0.08 0.05 0.15 0.08 0.07 0.03 0.01 0.00 0.00 0.00 0.00 0.00 0.00 0.00 0.00 0.00
0.05 0.06 0.08 0.15 0.26 0.51 0.52 0.28 0.18 0.12 0.12 0.08 0.04 0.23 0.62 1.06 0.97 0.80 0.78 0.89 0.93 1.05 2.28 2.14 2.78 2.72 1.99 1.52 1.27 0.86 0.53 0.62 0.33 0.26 0.37 0.36 0.30 0.23 0.12 0.06 0.05 0.04 0.01 0.02 0.01 0.01 0.01 0.01 0.07
0.10 0.07 0.08 0.13 0.16 0.23 0.31 0.14 0.32 0.25 0.09 0.08 0.13 0.35 0.67 0.82 0.66 0.51 0.56 0.88 0.89 0.77 1.70 2.34 2.45 2.75 1.78 1.36 1.29 1.34 1.16 1.02 1.00 0.85 0.77 0.91 0.89 0.85 0.53 0.32 0.26 0.28 0.20 0.14 0.13 0.11 0.12 0.24 0.46
0.16 0.06 0.05 0.09 0.10 0.11 0.11 0.06 0.10 0.11 0.10 0.05 0.11 0.22 0.41 0.67 0.37 0.41 0.36 0.49 1.33 1.03 0.79 1.55 2.41 2.71 1.87 1.52 1.93 2.13 2.11 1.83 1.36 1.00 1.05 1.05 1.04 1.41 1.28 0.96 0.65 0.60 0.46 0.47 0.39 0.38 0.55 0.74 0.51
0.22 0.10 0.03 0.08 0.13 0.14 0.06 0.09 0.06 0.06 0.13 0.08 0.19 0.35 0.58 0.46 0.51 0.45 0.34 0.25 0.48 0.91 0.77 0.83 1.49 2.55 2.30 1.83 1.95 1.67 1.11 1.34 1.60 1.41 1.53 1.32 0.99 1.16 1.26 1.18 1.11 1.14 1.03 1.02 1.05 0.97 1.06 0.99 0.77
0.25 0.10 0.04 0.12 0.18 0.18 0.12 0.18 0.16 0.14 0.37 0.38 0.51 0.53 1.09 0.71 0.44 0.51 0.33 0.38 0.41 0.48 0.51 0.52 1.00 1.55 2.35 1.96 1.76 1.58 1.22 1.04 1.29 1.19 1.12 0.80 0.74 0.73 0.87 1.05 1.28 1.32 1.28 1.26 1.30 1.28 1.38 1.57 1.36
0.26 0.27 0.24 0.20 0.49 0.52 0.11 0.21 0.19 0.10 0.18 0.16 0.26 0.21 0.71 1.34 0.73 0.47 0.32 0.47 0.41 0.36 0.24 0.34 0.75 0.96 1.44 1.95 1.36 1.34 1.22 1.45 1.39 1.00 0.92 1.03 0.93 0.84 0.90 1.09 1.12 1.19 1.12 1.16 1.42 1.56 1.43 1.23 1.14
0.73 0.95 1.22 0.93 1.02 0.62 0.07 0.08 0.21 0.01 0.05 0.14 0.41 0.18 0.44 1.05 0.69 0.58 0.35 0.26 0.24 0.20 0.10 0.20 0.44 1.01 0.88 1.60 1.12 0.94 0.93 0.97 1.18 1.30 1.11 0.94 0.84 0.72 0.59 0.69 0.84 0.89 0.89 0.90 0.86 0.75 0.70 0.70 0.73
0.91 1.08 1.30 0.91 0.47 0.28 0.06 0.16 0.13 0.00 0.01 0.04 0.40 0.18 0.25 0.70 1.06 0.76 0.60 0.43 0.33 0.24 0.12 0.09 0.30 1.03 0.95 0.89 0.94 0.88 0.95 0.77 0.71 0.76 0.77 0.86 0.72 0.70 0.65 0.44 0.42 0.52 0.57 0.55 0.50 0.48 0.45 0.32 0.33
1.16 1.20 0.72 0.88 0.44 0.35 0.16 0.02 0.01 0.00 0.00 0.00 0.13 0.36 0.23 0.46 0.64 0.78 0.80 0.77 0.37 0.16 0.14 0.19 0.24 0.37 1.00 0.93 0.96 0.76 0.70 0.60 0.62 0.61 0.47 0.41 0.51 0.56 0.52 0.51 0.52 0.50 0.55 0.54 0.48 0.38 0.42 0.41 0.36
0.98 0.64 0.89 1.35 0.88 0.41 0.16 0.08 0.09 0.00 0.00 0.00 0.00 0.08 0.07 0.16 0.16 0.24 0.30 0.36 0.11 0.08 0.15 0.33 0.48 0.40 0.48 1.09 0.74 0.81 0.61 0.40 0.53 0.57 0.52 0.45 0.34 0.39 0.44 0.38 0.37 0.48 0.50 0.50 0.41 0.39 0.40 0.41 0.43
0.95 1.19 0.73 0.91 0.48 0.55 0.34 0.29 0.09 0.00 0.00 0.00 0.00 0.00 0.01 0.01 0.03 0.03 0.03 0.01 0.00 0.00 0.02 0.12 0.44 0.44 0.37 0.59 0.61 0.75 0.60 0.48 0.55 0.56 0.43 0.47 0.48 0.30 0.27 0.33 0.34 0.29 0.29 0.33 0.33 0.25 0.35 0.30 0.22
0.53 0.62 0.74 0.86 0.48 0.43 0.53 0.45 0.02 0.00 0.00 0.00 0.01 0.02 0.01 0.00 0.00 0.00 0.02 0.00 0.00 0.00 0.00 0.00 0.12 0.43 0.39 0.39 0.45 0.64 0.61 0.78 0.76 0.65 0.61 0.44 0.37 0.37 0.27 0.24 0.23 0.25 0.26 0.32 0.33 0.24 0.31 0.47 0.44

GFSSGP_prec_precacc_126.txt.gz
Total_Precipitation_Accumulation
0.26 0.49 0.63 0.56 0.32 0.21 0.01 0.00 0.00 0.01 0.04 0.05 0.03 0.02 0.15 0.11 0.02 0.02 0.01 0.00 0.00 0.01 0.02 0.05 0.12 0.13 0.15 0.19 0.13 0.07 0.07 0.12 0.15 0.21 0.23 0.32 0.18 0.06 0.05 0.07 0.07 0.10 0.12 0.23 0.34 0.27 0.14 0.06 0.03
0.53 0.65 0.74 0.56 0.35 0.12 0.01 0.00 0.00 0.02 0.01 0.04 0.06 0.06 0.15 0.11 0.01 0.02 0.04 0.02 0.00 0.00 0.02 0.03 0.11 0.11 0.15 0.19 0.09 0.05 0.07 0.13 0.16 0.21 0.35 0.42 0.09 0.05 0.07 0.06 0.10 0.12 0.15 0.23 0.14 0.05 0.02 0.01 0.01
0.67 0.81 0.87 0.75 0.35 0.08 0.00 0.00 0.00 0.00 0.01 0.02 0.05 0.06 0.17 0.10 0.04 0.02 0.02 0.04 0.01 0.01 0.01 0.04 0.10 0.11 0.16 0.14 0.06 0.06 0.11 0.19 0.19 0.29 0.40 0.27 0.15 0.09 0.08 0.07 0.09 0.10 0.08 0.04 0.01 0.01 0.00 0.00 0.00
0.86 1.21 1.56 0.85 0.42 0.05 0.00 0.00 0.00 0.00 0.03 0.04 0.11 0.18 0.14 0.15 0.07 0.04 0.02 0.03 0.01 0.02 0.02 0.07 0.10 0.12 0.15 0.08 0.05 0.08 0.12 0.12 0.19 0.26 0.25 0.17 0.23 0.16 0.09 0.05 0.03 0.02 0.02 0.01 0.01 0.00 0.00 0.00 0.00
0.90 1.70 1.24 0.93 0.43 0.11 0.00 0.00 0.00 0.00 0.02 0.07 0.16 0.27 0.27 0.19 0.23 0.07 0.05 0.04 0.03 0.03 0.04 0.08 0.20 0.15 0.12 0.06 0.06 0.09 0.09 0.10 0.18 0.23 0.17 0.16 0.25 0.16 0.12 0.02 0.00 0.01 0.01 0.01 0.01 0.00 0.00 0.00 0.00
1.34 1.47 1.44 0.74 0.34 0.10 0.03 0.00 0.00 0.00 0.00 0.02 0.15 0.40 0.59 0.45 0.48 0.34 0.17 0.12 0.07 0.05 0.07 0.11 0.24 0.29 0.17 0.08 0.06 0.08 0.09 0.16 0.23 0.22 0.16 0.16 0.21 0.15 0.17 0.04 0.01 0.01 0.01 0.02 0.01 0.01 0.01 0.01 0.01
1.51 1.04 1.38 0.58 0.21 0.12 0.07 0.02 0.03 0.04 0.01 0.01 0.11 0.48 0.72 0.92 0.86 0.67 0.41 0.29 0.22 0.10 0.08 0.13 0.18 0.32 0.27 0.14 0.09 0.08 0.08 0.15 0.23 0.19 0.11 0.11 0.11 0.05 0.09 0.06 0.03 0.02 0.03 0.02 0.02 0.02 0.02 0.02 0.01
1.15 1.65 0.59 0.69 0.18 0.12 0.07 0.04 0.02 0.06 0.06 0.01 0.11 0.45 0.94 1.34 1.28 0.95 0.74 0.49 0.38 0.26 0.17 0.12 0.13 0.26 0.34 0.19 0.10 0.09 0.08 0.11 0.14 0.12 0.05 0.02 0.01 0.01 0.05 0.05 0.03 0.03 0.02 0.01 0.02 0.02 0.01 0.01 0.01
1.34 1.97 0.87 0.32 0.34 0.10 0.09 0.25 0.03 0.03 0.14 0.05 0.06 0.21 0.52 1.49 1.96 1.37 0.98 0.93 0.73 0.60 0.35 0.21 0.14 0.16 0.30 0.29 0.16 0.14 0.14 0.12 0.08 0.05 0.03 0.03 0.00 0.00 0.01 0.02 0.03 0.04 0.02 0.00 0.00 0.01 0.01 0.01 0.00
1.55 1.37 0.62 0.25 0.35 0.27 0.25 0.38 0.17 0.09 0.15 0.36 0.24 0.20 0.54 1.67 2.64 1.96 1.21 1.03 1.08 0.78 0.61 0.38 0.23 0.15 0.19 0.24 0.25 0.16 0.15 0.14 0.08 0.04 0.03 0.01 0.00 0.00 0.00 0.01 0.03 0.03 0.00 0.00 0.00 0.01 0.00 0.00 0.00
1.30 0.76 0.56 0.47 0.45 0.54 0.28 0.17 0.21 0.25 0.17 0.35 0.22 0.37 0.83 1.67 4.05 3.53 2.29 1.36 1.47 1.43 0.99 0.46 0.19 0.16 0.15 0.18 0.21 0.13 0.10 0.10 0.08 0.04 0.02 0.00 0.00 0.00 0.00 0.01 0.02 0.01 0.00 0.00 0.00 0.01 0.00 0.00 0.00
1.37 0.83 0.86 0.76 0.83 0.59 0.35 0.22 0.14 0.15 0.04 0.11 0.62 0.66 0.98 1.28 4.08 4.91 5.10 4.20 2.86 2.27 1.70 1.54 0.60 0.33 0.22 0.16 0.16 0.11 0.07 0.06 0.03 0.02 0.01 0.00 0.00 0.00 0.00 0.00 0.00 0.00 0.00 0.00 0.00 0.00 0.00 0.00 0.00
1.43 1.25 0.78 0.85 0.64 0.50 0.28 0.38 0.15 0.04 0.03 0.19 0.40 0.65 0.72 1.39 2.18 3.85 4.05 4.83 4.15 2.91 2.09 1.10 1.19 0.82 0.43 0.26 0.17 0.09 0.05 0.04 0.02 0.02 0.01 0.00 0.00 0.00 0.00 0.00 0.00 0.00 0.00 0.00 0.00 0.00 0.00 0.00 0.00
1.22 1.56 0.94 0.76 0.65 0.33 0.25 0.24 0.23 0.07 0.12 0.42 0.39 0.59 0.84 0.99 1.37 2.17 2.35 2.84 3.90 3.43 2.69 1.91 0.74 0.78 0.58 0.31 0.23 0.09 0.03 0.03 0.02 0.01 0.00 0.00 0.00 0.00 0.00 0.00 0.00 0.00 0.00 0.00 0.00 0.00 0.00 0.00 0.00
0.76 1.68 1.34 0.78 0.84 0.41 0.29 0.39 0.33 0.05 0.18 0.51 0.67 0.74 1.31 0.97 1.00 1.55 1.58 1.93 2.38 3.10 2.54 2.21 1.22 0.67 0.51 0.26 0.26 0.20 0.14 0.05 0.04 0.01 0.00 0.00 0.00 0.00 0.00 0.00 0.00 0.00 0.00 0.00 0.00 0.00 0.00 0.00 0.00
0.50 1.32 1.69 0.94 0.92 0.71 0.44 0.21 0.11 0.12 0.11 0.31 0.47 0.69 1.24 0.90 0.72 0.81 1.29 1.64 1.95 2.42 2.45 2.59 1.52 0.87 0.55 0.35 0.28 0.28 0.21 0.10 0.10 0.04 0.01 0.00 0.00 0.00 0.00 0.00 0.00 0.00 0.00 0.00 0.00 0.00 0.00 0.00 0.00
0.39 0.54 0.98 1.09 0.81 0.88 0.41 0.18 0.07 0.20 0.11 0.11 0.20 0.39 1.03 1.05 0.84 0.46 0.57 1.05 1.49 2.47 2.34 2.68 2.29 1.20 0.72 0.76 0.54 0.50 0.34 0.16 0.10 0.07 0.01 0.01 0.02 0.02 0.00 0.00 0.00 0.00 0.00 0.00 0.00 0.00 0.00 0.00 0.00
0.17 0.19 0.27 0.55 0.71 0.68 0.51 0.25 0.12 0.08 0.19 0.03 0.08 0.21 0.61 0.93 0.89 0.68 0.66 0.75 0.99 1.72 2.60 2.58 2.94 2.34 1.33 1.23 1.15 0.83 0.53 0.25 0.13 0.08 0.06 0.15 0.08 0.07 0.03 0.01 0.00 0.00 0.00 0.00 0.00 0.00 0.00 0.00 0.00
0.07 0.11 0.14 0.15 0.26 0.51 0.52 0.28 0.19 0.13 0.12 0.10 0.05 0.23 0.62 1.06 0.98 0.80 0.78 0.89 0.94 1.05 2.29 2.14 2.79 2.77 2.34 1.70 1.33 0.94 0.68 0.70 0.36 0.27 0.38 0.36 0.31 0.24 0.12 0.06 0.05 0.04 0.01 0.02 0.01 0.01 0.01 0.01 0.07
0.13 0.10 0.09 0.13 0.16 0.23 0.31 0.14 0.33 0.30 0.13 0.20 0.21 0.42 0.74 0.83 0.67 0.51 0.57 0.89 0.93 0.80 1.71 2.35 2.47 2.79 2.24 1.92 1.54 1.39 1.20 1.11 1.10 0.90 0.79 0.94 0.93 0.88 0.56 0.32 0.26 0.28 0.20 0.14 0.13 0.11 0.12 0.24 0.46
0.16 0.06 0.05 0.09 0.10 0.11 0.11 0.06 0.10 0.11 0.10 0.06 0.12 0.30 0.56 0.76 0.38 0.42 0.38 0.51 1.38 1.09 0.82 1.56 2.41 2.76 2.19 2.38 2.52 2.34 2.23 1.93 1.52 1.13 1.13 1.11 1.13 1.48 1.33 0.97 0.65 0.60 0.46 0.47 0.39 0.38 0.55 0.74 0.51
0.22 0.10 0.04 0.08 0.13 0.14 0.06 0.10 0.06 0.06 0.13 0.09 0.19 0.43 0.72 0.50 0.57 0.52 0.37 0.29 0.52 0.98 0.85 0.86 1.50 2.58 2.50 2.54 3.26 2.58 1.41 1.45 1.68 1.50 1.60 1.40 1.09 1.25 1.31 1.19 1.11 1.14 1.03 1.02 1.05 0.97 1.06 0.99 0.77
0.25 0.10 0.04 0.12 0.18 0.18 0.12 0.20 0.16 0.14 0.40 0.44 0.87 0.72 1.49 1.17 1.09 0.98 0.39 0.41 0.52 0.61 0.61 0.56 1.01 1.56 2.44 2.27 2.36 2.76 2.06 1.34 1.42 1.34 1.25 0.93 0.84 0.80 0.92 1.06 1.28 1.32 1.28 1.26 1.30 1.28 1.38 1.57 1.36
0.26 0.27 0.24 0.20 0.49 0.53 0.11 0.22 0.19 0.13 0.25 0.20 0.46 0.43 1.31 1.88 1.32 1.41 1.45 0.78 0.60 0.54 0.37 0.39 0.78 0.98 1.47 2.08 1.64 1.72 1.93 1.92 1.67 1.34 1.34 1.38 1.10 0.96 0.96 1.11 1.12 1.19 1.12 1.16 1.42 1.56 1.43 1.23 1.14
0.73 0.95 1.22 0.93 1.09 0.63 0.07 0.08 0.22 0.04 0.06 0.17 0.50 0.43 1.14 1.72 1.38 1.39 1.62 1.16 0.80 0.44 0.22 0.24 0.46 1.02 0.91 1.65 1.27 1.16 1.14 1.18 1.38 1.49 1.32 1.25 1.21 0.97 0.70 0.72 0.85 0.89 0.89 0.90 0.86 0.76 0.70 0.73 0.78
0.91 1.08 1.30 0.93 0.50 0.28 0.06 0.16 0.14 0.01 0.01 0.05 0.45 0.33 0.66 1.17 1.54 1.06 1.10 0.77 0.51 0.29 0.14 0.09 0.30 1.03 0.96 0.91 1.00 0.96 1.06 0.86 0.80 0.86 0.85 0.91 0.80 0.79 0.77 0.49 0.44 0.53 0.58 0.56 0.52 0.53 0.50 0.41 0.41
1.16 1.21 0.72 0.89 0.44 0.35 0.16 0.02 0.01 0.00 0.00 0.00 0.13 0.39 0.64 0.85 0.87 0.89 1.05 0.94 0.50 0.21 0.15 0.19 0.24 0.37 1.01 0.95 0.98 0.80 0.74 0.64 0.65 0.64 0.50 0.45 0.55 0.63 0.64 0.65 0.54 0.52 0.59 0.58 0.53 0.46 0.49 0.51 0.45
0.98 0.64 0.89 1.35 0.88 0.41 0.16 0.09 0.10 0.00 0.00 0.00 0.00 0.09 0.15 0.36 0.51 0.52 0.52 0.47 0.14 0.08 0.15 0.33 0.48 0.41 0.49 1.24 0.91 1.05 0.74 0.50 0.68 0.63 0.54 0.49 0.40 0.44 0.52 0.56 0.57 0.54 0.64 0.69 0.62 0.58 0.56 0.53 0.52
0.95 1.19 0.73 0.91 0.48 0.55 0.34 0.30 0.10 0.00 0.00 0.00 0.00 0.00 0.01 0.05 0.13 0.12 0.07 0.02 0.01 0.00 0.02 0.12 0.44 0.47 0.42 0.70 0.95 1.13 1.30 0.85 0.85 0.73 0.47 0.51 0.52 0.34 0.32 0.42 0.46 0.40 0.40 0.47 0.50 0.43 0.48 0.38 0.27
0.53 0.62 0.74 0.86 0.48 0.43 0.53 0.46 0.02 0.00 0.00 0.00 0.01 0.02 0.01 0.00 0.00 0.06 0.05 0.00 0.00 0.00 0.00 0.00 0.13 0.45 0.43 0.43 0.56 0.79 0.90 1.26 1.12 0.94 0.76 0.56 0.50 0.47 0.35 0.31 0.30 0.30 0.30 0.38 0.42 0.34 0.41 0.54 0.47

GFSSGP_prec_precacc_129.txt.gz
Total_Precipitation_Accumulation
0.26 0.49 0.63 0.56 0.32 0.21 0.01 0.00 0.00 0.01 0.04 0.05 0.03 0.02 0.15 0.11 0.02 0.02 0.01 0.00 0.00 0.01 0.02 0.06 0.12 0.14 0.16 0.20 0.14 0.08 0.08 0.12 0.15 0.21 0.23 0.32 0.18 0.06 0.05 0.07 0.07 0.11 0.12 0.24 0.35 0.27 0.16 0.08 0.03
0.53 0.65 0.74 0.56 0.35 0.12 0.01 0.00 0.00 0.02 0.01 0.04 0.06 0.06 0.15 0.11 0.01 0.02 0.04 0.02 0.00 0.00 0.02 0.04 0.12 0.12 0.16 0.20 0.10 0.06 0.09 0.14 0.16 0.21 0.35 0.42 0.09 0.05 0.07 0.06 0.10 0.12 0.16 0.24 0.15 0.06 0.02 0.01 0.01
0.67 0.81 0.87 0.75 0.35 0.08 0.00 0.00 0.00 0.00 0.01 0.02 0.05 0.06 0.17 0.10 0.04 0.02 0.02 0.04 0.01 0.01 0.02 0.07 0.14 0.13 0.17 0.15 0.07 0.07 0.13 0.20 0.20 0.29 0.40 0.27 0.15 0.10 0.08 0.07 0.10 0.11 0.09 0.05 0.02 0.01 0.00 0.00 0.00
0.86 1.21 1.56 0.85 0.42 0.05 0.00 0.00 0.00 0.00 0.03 0.04 0.11 0.18 0.14 0.15 0.07 0.04 0.02 0.03 0.02 0.03 0.04 0.13 0.21 0.20 0.17 0.10 0.06 0.09 0.14 0.13 0.19 0.26 0.25 0.17 0.24 0.16 0.10 0.06 0.04 0.03 0.02 0.01 0.01 0.00 0.00 0.00 0.00
0.90 1.70 1.24 0.93 0.43 0.11 0.00 0.00 0.00 0.00 0.02 0.07 0.16 0.27 0.27 0.19 0.23 0.07 0.05 0.04 0.03 0.05 0.07 0.11 0.36 0.33 0.24 0.11 0.07 0.10 0.10 0.12 0.18 0.23 0.17 0.16 0.26 0.16 0.13 0.03 0.01 0.01 0.01 0.01 0.01 0.00 0.00 0.00 0.00
1.34 1.47 1.44 0.74 0.34 0.10 0.03 0.00 0.00 0.00 0.00 0.02 0.15 0.40 0.59 0.45 0.48 0.34 0.17 0.12 0.07 0.06 0.09 0.13 0.29 0.44 0.41 0.22 0.10 0.09 0.09 0.18 0.24 0.22 0.16 0.17 0.24 0.16 0.17 0.04 0.01 0.01 0.01 0.02 0.01 0.01 0.01 0.01 0.01
1.51 1.04 1.38 0.58 0.21 0.12 0.07 0.02 0.03 0.04 0.01 0.01 0.11 0.48 0.72 0.92 0.86 0.67 0.41 0.29 0.22 0.10 0.09 0.15 0.20 0.38 0.50 0.45 0.21 0.12 0.09 0.17 0.24 0.20 0.12 0.13 0.14 0.06 0.09 0.06 0.03 0.02 0.03 0.02 0.02 0.02 0.02 0.02 0.01
1.15 1.65 0.59 0.69 0.18 0.12 0.07 0.04 0.02 0.06 0.06 0.01 0.11 0.45 0.94 1.34 1.28 0.95 0.74 0.49 0.38 0.26 0.17 0.14 0.14 0.32 0.46 0.45 0.40 0.20 0.09 0.12 0.16 0.16 0.07 0.04 0.04 0.01 0.05 0.05 0.03 0.03 0.02 0.01 0.02 0.02 0.01 0.01 0.01
1.34 1.97 0.87 0.32 0.34 0.10 0.09 0.25 0.03 0.03 0.14 0.05 0.06 0.21 0.52 1.49 1.96 1.37 0.98 0.93 0.73 0.60 0.35 0.21 0.16 0.19 0.40 0.48 0.45 0.38 0.20 0.13 0.12 0.11 0.10 0.05 0.03 0.01 0.01 0.02 0.03 0.04 0.02 0.00 0.00 0.01 0.01 0.01 0.00
1.55 1.37 0.62 0.25 0.35 0.27 0.25 0.38 0.17 0.09 0.15 0.36 0.24 0.20 0.54 1.67 2.64 1.96 1.21 1.03 1.08 0.78 0.61 0.38 0.23 0.18 0.22 0.33 0.49 0.41 0.29 0.20 0.11 0.08 0.08 0.04 0.01 0.00 0.00 0.01 0.03 0.03 0.00 0.00 0.00 0.01 0.00 0.00 0.00
1.30 0.76 0.56 0.47 0.45 0.54 0.28 0.17 0.21 0.25 0.17 0.35 0.22 0.37 0.83 1.67 4.05 3.53 2.29 1.36 1.47 1.43 0.99 0.46 0.20 0.18 0.16 0.23 0.38 0.33 0.22 0.16 0.13 0.06 0.03 0.01 0.01 0.00 0.00 0.01 0.02 0.01 0.00 0.00 0.00 0.01 0.00 0.00 0.00
1.37 0.83 0.86 0.76 0.83 0.59 0.35 0.22 0.14 0.15 0.04 0.11 0.62 0.66 0.98 1.28 4.08 4.91 5.10 4.20 2.86 2.27 1.70 1.54 0.60 0.33 0.23 0.18 0.25 0.26 0.19 0.09 0.03 0.03 0.02 0.00 0.01 0.01 0.00 0.00 0.00 0.00 0.00 0.00 0.00 0.00 0.00 0.00 0.00
1.43 1.25 0.78 0.85 0.64 0.50 0.28 0.38 0.15 0.04 0.03 0.19 0.40 0.65 0.72 1.39 2.18 3.85 4.05 4.83 4.15 2.91 2.09 1.10 1.19 0.82 0.43 0.30 0.25 0.21 0.18 0.10 0.02 0.02 0.01 0.00 0.00 0.01 0.00 0.00 0.00 0.00 0.00 0.00 0.00 0.00 0.00 0.00 0.00
1.22 1.56 0.94 0.76 0.65 0.33 0.25 0.24 0.23 0.07 0.12 0.42 0.39 0.59 0.84 0.99 1.37 2.17 2.35 2.84 3.90 3.43 2.69 1.91 0.74 0.78 0.58 0.33 0.33 0.22 0.16 0.09 0.02 0.02 0.00 0.00 0.00 0.00 0.00 0.00 0.00 0.00 0.00 0.00 0.00 0.00 0.00 0.00 0.00
0.76 1.68 1.34 0.78 0.84 0.41 0.29 0.39 0.33 0.05 0.18 0.51 0.67 0.74 1.31 0.97 1.00 1.55 1.58 1.93 2.38 3.10 2.54 2.21 1.22 0.67 0.51 0.26 0.28 0.31 0.26 0.11 0.04 0.01 0.00 0.00 0.00 0.00 0.00 0.00 0.00 0.00 0.00 0.00 0.00 0.00 0.00 0.00 0.00
0.50 1.33 1.69 0.94 0.92 0.71 0.44 0.21 0.11 0.12 0.11 0.31 0.47 0.69 1.24 0.90 0.72 0.81 1.29 1.64 1.95 2.42 2.45 2.59 1.52 0.87 0.55 0.35 0.29 0.31 0.28 0.16 0.10 0.05 0.01 0.00 0.00 0.00 0.00 0.00 0.00 0.00 0.00 0.00 0.00 0.00 0.00 0.00 0.00
0.39 0.55 0.98 1.09 0.81 0.88 0.41 0.18 0.07 0.20 0.11 0.11 0.20 0.39 1.03 1.05 0.84 0.46 0.57 1.05 1.49 2.47 2.34 2.68 2.29 1.20 0.72 0.76 0.57 0.52 0.35 0.18 0.10 0.07 0.02 0.01 0.03 0.02 0.00 0.00 0.00 0.00 0.00 0.00 0.00 0.00 0.00 0.00 0.00
0.22 0.23 0.28 0.55 0.71 0.68 0.51 0.25 0.12 0.08 0.19 0.03 0.08 0.21 0.61 0.93 0.89 0.68 0.66 0.75 0.99 1.72 2.60 2.58 2.94 2.34 1.33 1.23 1.16 0.89 0.56 0.27 0.15 0.09 0.06 0.15 0.08 0.07 0.03 0.01 0.00 0.00 0.00 0.00 0.00 0.00 0.00 0.00 0.00
0.10 0.15 0.18 0.16 0.26 0.51 0.52 0.28 0.19 0.13 0.12 0.10 0.05 0.23 0.62 1.06 0.98 0.80 0.78 0.89 0.94 1.05 2.29 2.14 2.79 2.77 2.34 1.71 1.34 0.96 0.74 0.75 0.38 0.27 0.38 0.36 0.32 0.25 0.13 0.06 0.06 0.04 0.01 0.02 0.01 0.01 0.01 0.01 0.07
0.13 0.10 0.09 0.13 0.16 0.23 0.31 0.14 0.33 0.30 0.13 0.20 0.21 0.42 0.74 0.83 0.67 0.51 0.57 0.89 0.93 0.80 1.71 2.35 2.47 2.80 2.26 1.94 1.56 1.40 1.22 1.14 1.12 0.91 0.79 0.94 0.93 0.88 0.57 0.33 0.27 0.28 0.20 0.14 0.13 0.11 0.12 0.24 0.46
0.16 0.06 0.05 0.09 0.10 0.11 0.11 0.06 0.10 0.11 0.10 0.06 0.12 0.30 0.56 0.76 0.38 0.42 0.38 0.52 1.38 1.10 0.82 1.58 2.43 2.77 2.22 2.44 2.63 2.51 2.31 2.02 1.57 1.21 1.18 1.12 1.13 1.49 1.35 0.99 0.67 0.60 0.46 0.47 0.39 0.38 0.55 0.74 0.51
0.22 0.10 0.04 0.08 0.13 0.14 0.06 0.11 0.06 0.06 0.13 0.09 0.19 0.44 0.72 0.50 0.58 0.52 0.37 0.30 0.53 0.98 0.90 0.94 1.58 2.66 2.57 2.61 3.36 2.75 1.60 1.54 1.73 1.52 1.62 1.42 1.09 1.27 1.34 1.25 1.14 1.15 1.03 1.02 1.05 0.97 1.06 0.99 0.77
0.26 0.10 0.04 0.12 0.18 0.18 0.12 0.21 0.16 0.14 0.40 0.45 0.94 0.81 1.55 1.25 1.35 1.06 0.41 0.44 0.57 0.67 0.73 0.68 1.15 1.73 2.55 2.35 2.43 3.00 2.54 1.64 1.51 1.37 1.27 0.96 0.90 0.86 0.97 1.13 1.34 1.33 1.28 1.26 1.30 1.28 1.38 1.57 1.36
0.27 0.27 0.24 0.20 0.50 0.53 0.11 0.22 0.19 0.13 0.25 0.20 0.51 0.68 1.56 2.05 1.74 1.56 1.56 0.93 0.78 0.81 0.87 0.63 0.92 1.20 1.57 2.12 1.67 1.83 2.47 2.73 2.20 1.54 1.44 1.50 1.23 1.09 1.08 1.21 1.20 1.25 1.13 1.16 1.42 1.56 1.43 1.23 1.14
0.73 0.95 1.22 0.93 1.10 0.63 0.07 0.08 0.23 0.04 0.07 0.18 0.59 0.78 1.55 2.22 1.96 2.09 2.21 1.97 1.87 1.36 1.13 0.74 0.61 1.14 0.93 1.67 1.27 1.17 1.26 1.65 1.99 2.04 1.74 1.59 1.47 1.28 0.89 0.88 0.98 0.98 0.91 0.91 0.86 0.76 0.70 0.73 0.78
0.91 1.08 1.30 0.94 0.50 0.28 0.06 0.16 0.14 0.01 0.01 0.05 0.51 0.55 1.08 1.48 1.97 1.47 1.76 1.76 1.46 0.95 0.41 0.22 0.40 1.05 0.96 0.92 1.00 0.98 1.11 0.97 1.13 1.29 1.30 1.41 1.13 1.10 1.16 0.85 0.71 0.65 0.62 0.57 0.53 0.53 0.50 0.41 0.41
1.16 1.21 0.72 0.89 0.44 0.35 0.16 0.02 0.01 0.00 0.00 0.00 0.14 0.50 1.18 1.16 1.04 1.06 1.35 1.14 0.85 0.44 0.34 0.30 0.28 0.41 1.01 0.95 0.99 0.82 0.77 0.70 0.73 0.82 0.82 0.79 0.84 0.88 0.94 0.89 0.75 0.65 0.67 0.62 0.55 0.47 0.49 0.52 0.47
0.98 0.64 0.89 1.35 0.88 0.41 0.16 0.09 0.10 0.00 0.00 0.00 0.00 0.13 0.27 0.53 0.67 0.68 0.69 0.86 0.59 0.38 0.36 0.44 0.50 0.41 0.49 1.25 0.92 1.06 0.76 0.53 0.73 0.71 0.68 0.73 0.67 0.61 0.66 0.72 0.66 0.60 0.70 0.75 0.66 0.62 0.60 0.59 0.61
0.95 1.19 0.73 0.91 0.48 0.55 0.34 0.30 0.10 0.00 0.00 0.00 0.00 0.01 0.02 0.07 0.18 0.17 0.11 0.08 0.14 0.10 0.08 0.17 0.47 0.47 0.42 0.72 1.03 1.22 1.41 0.92 0.89 0.89 0.63 0.62 0.60 0.41 0.37 0.47 0.60 0.54 0.45 0.53 0.58 0.50 0.57 0.49 0.37
0.53 0.62 0.74 0.86 0.48 0.43 0.53 0.46 0.02 0.00 0.00 0.00 0.01 0.02 0.01 0.00 0.02 0.09 0.06 0.00 0.00 0.00 0.01 0.04 0.15 0.48 0.47 0.48 0.62 0.90 1.06 1.80 1.43 1.37 1.10 0.75 0.56 0.51 0.39 0.33 0.32 0.37 0.36 0.42 0.49 0.41 0.45 0.59 0.55

GFSSGP_prec_precacc_132.txt.gz
Total_Precipitation_Accumulation
0.26 0.49 0.63 0.56 0.32 0.21 0.01 0.00 0.00 0.01 0.04 0.05 0.03 0.02 0.15 0.11 0.02 0.02 0.01 0.00 0.00 0.01 0.02 0.07 0.16 0.16 0.18 0.23 0.16 0.10 0.09 0.13 0.16 0.21 0.23 0.32 0.18 0.06 0.05 0.07 0.08 0.12 0.12 0.25 0.36 0.28 0.16 0.09 0.03
0.53 0.65 0.74 0.56 0.35 0.12 0.01 0.00 0.00 0.02 0.01 0.04 0.06 0.06 0.15 0.11 0.01 0.02 0.04 0.02 0.00 0.00 0.02 0.05 0.15 0.15 0.19 0.24 0.14 0.07 0.10 0.15 0.18 0.21 0.35 0.42 0.09 0.05 0.07 0.06 0.11 0.13 0.16 0.26 0.16 0.06 0.02 0.01 0.01
0.67 0.81 0.87 0.75 0.35 0.08 0.00 0.00 0.00 0.00 0.01 0.02 0.05 0.06 0.17 0.10 0.04 0.02 0.02 0.04 0.01 0.01 0.02 0.09 0.17 0.16 0.21 0.21 0.12 0.11 0.14 0.21 0.21 0.29 0.40 0.27 0.15 0.10 0.08 0.07 0.11 0.12 0.10 0.05 0.02 0.01 0.00 0.00 0.00
0.86 1.21 1.56 0.85 0.42 0.05 0.00 0.00 0.00 0.00 0.03 0.04 0.11 0.18 0.14 0.15 0.07 0.04 0.02 0.03 0.02 0.03 0.04 0.15 0.28 0.26 0.22 0.18 0.13 0.12 0.16 0.15 0.21 0.26 0.25 0.17 0.24 0.16 0.10 0.06 0.04 0.04 0.03 0.02 0.01 0.00 0.00 0.00 0.00
0.90 1.70 1.24 0.93 0.43 0.11 0.00 0.00 0.00 0.00 0.02 0.07 0.16 0.27 0.27 0.19 0.23 0.07 0.05 0.04 0.03 0.05 0.07 0.12 0.40 0.48 0.37 0.26 0.14 0.14 0.15 0.13 0.19 0.23 0.17 0.16 0.27 0.16 0.14 0.03 0.01 0.02 0.01 0.01 0.01 0.00 0.00 0.00 0.00
1.34 1.47 1.44 0.74 0.34 0.10 0.03 0.00 0.00 0.00 0.00 0.02 0.15 0.40 0.59 0.45 0.48 0.34 0.17 0.12 0.07 0.06 0.09 0.13 0.29 0.50 0.59 0.41 0.26 0.18 0.18 0.21 0.24 0.23 0.16 0.18 0.26 0.17 0.18 0.05 0.01 0.01 0.01 0.02 0.01 0.01 0.01 0.01 0.01
1.51 1.04 1.38 0.58 0.21 0.12 0.07 0.02 0.03 0.04 0.01 0.01 0.11 0.48 0.72 0.92 0.86 0.67 0.41 0.29 0.22 0.10 0.09 0.15 0.20 0.40 0.55 0.58 0.43 0.31 0.21 0.20 0.24 0.20 0.13 0.15 0.18 0.11 0.11 0.06 0.03 0.02 0.03 0.02 0.02 0.02 0.02 0.02 0.01
1.15 1.65 0.59 0.69 0.18 0.12 0.07 0.04 0.02 0.06 0.06 0.01 0.11 0.45 0.94 1.34 1.28 0.95 0.74 0.49 0.38 0.26 0.17 0.14 0.14 0.32 0.48 0.58 0.50 0.44 0.29 0.15 0.16 0.16 0.09 0.04 0.05 0.05 0.07 0.05 0.03 0.03 0.02 0.01 0.02 0.02 0.01 0.01 0.01
1.34 1.97 0.87 0.32 0.34 0.10 0.09 0.25 0.03 0.03 0.14 0.05 0.06 0.21 0.52 1.49 1.96 1.37 0.98 0.93 0.73 0.60 0.35 0.21 0.16 0.19 0.41 0.58 0.57 0.53 0.40 0.31 0.12 0.12 0.11 0.07 0.06 0.04 0.01 0.02 0.03 0.04 0.02 0.00 0.00 0.01 0.01 0.01 0.00
1.55 1.37 0.62 0.25 0.35 0.27 0.25 0.38 0.17 0.09 0.15 0.36 0.24 0.20 0.54 1.67 2.64 1.96 1.21 1.03 1.08 0.78 0.61 0.38 0.23 0.18 0.23 0.35 0.62 0.57 0.48 0.35 0.16 0.09 0.08 0.06 0.04 0.03 0.00 0.01 0.03 0.03 0.00 0.00 0.00 0.01 0.00 0.00 0.00
1.30 0.76 0.56 0.47 0.45 0.54 0.28 0.17 0.21 0.25 0.17 0.35 0.22 0.37 0.83 1.67 4.05 3.53 2.29 1.36 1.47 1.43 0.99 0.46 0.20 0.18 0.16 0.23 0.47 0.45 0.38 0.31 0.21 0.09 0.03 0.02 0.03 0.02 0.01 0.02 0.02 0.01 0.00 0.00 0.00 0.01 0.00 0.00 0.00
1.37 0.83 0.86 0.76 0.83 0.59 0.35 0.22 0.14 0.15 0.04 0.11 0.62 0.66 0.98 1.28 4.08 4.91 5.10 4.20 2.86 2.27 1.70 1.54 0.60 0.33 0.23 0.19 0.27 0.32 0.29 0.22 0.11 0.06 0.04 0.02 0.02 0.01 0.01 0.01 0.00 0.00 0.00 0.00 0.00 0.00 0.00 0.00 0.00
1.43 1.25 0.78 0.85 0.64 0.50 0.28 0.38 0.15 0.04 0.03 0.19 0.40 0.65 0.72 1.39 2.18 3.85 4.05 4.83 4.15 2.91 2.09 1.10 1.19 0.82 0.43 0.30 0.25 0.24 0.26 0.19 0.09 0.08 0.05 0.02 0.01 0.01 0.00 0.00 0.00 0.00 0.00 0.00 0.00 0.00 0.00 0.00 0.00
1.22 1.56 0.94 0.76 0.65 0.33 0.25 0.24 0.23 0.07 0.12 0.42 0.39 0.59 0.84 0.99 1.37 2.17 2.35 2.84 3.90 3.43 2.69 1.91 0.74 0.78 0.58 0.33 0.33 0.24 0.22 0.17 0.10 0.05 0.03 0.02 0.00 0.00 0.00 0.00 0.00 0.00 0.00 0.00 0.00 0.00 0.00 0.00 0.00
0.76 1.68 1.34 0.78 0.84 0.41 0.29 0.39 0.33 0.05 0.18 0.51 0.67 0.74 1.31 0.97 1.00 1.55 1.58 1.93 2.38 3.10 2.54 2.21 1.22 0.67 0.51 0.26 0.29 0.32 0.31 0.18 0.12 0.04 0.01 0.01 0.00 0.00 0.00 0.00 0.00 0.00 0.00 0.00 0.00 0.00 0.00 0.00 0.00
0.50 1.33 1.69 0.94 0.92 0.71 0.44 0.21 0.11 0.12 0.11 0.31 0.47 0.69 1.24 0.90 0.72 0.81 1.29 1.64 1.95 2.42 2.45 2.59 1.52 0.87 0.55 0.35 0.29 0.32 0.32 0.23 0.17 0.10 0.03 0.01 0.00 0.00 0.00 0.00 0.00 0.00 0.00 0.00 0.00 0.00 0.00 0.00 0.00
0.39 0.55 0.99 1.09 0.81 0.88 0.41 0.18 0.07 0.20 0.11 0.11 0.20 0.39 1.03 1.05 0.84 0.46 0.57 1.05 1.49 2.47 2.34 2.68 2.29 1.20 0.72 0.76 0.57 0.52 0.37 0.23 0.16 0.13 0.03 0.01 0.03 0.02 0.00 0.00 0.00 0.00 0.00 0.00 0.00 0.00 0.00 0.00 0.00
0.24 0.26 0.28 0.55 0.71 0.68 0.51 0.25 0.12 0.08 0.19 0.03 0.08 0.21 0.61 0.93 0.89 0.68 0.66 0.75 0.99 1.72 2.60 2.58 2.94 2.34 1.33 1.23 1.16 0.89 0.56 0.29 0.20 0.16 0.08 0.16 0.08 0.08 0.04 0.01 0.00 0.00 0.00 0.00 0.00 0.00 0.00 0.00 0.00
0.12 0.17 0.19 0.16 0.26 0.51 0.52 0.28 0.19 0.13 0.12 0.10 0.05 0.23 0.62 1.06 0.98 0.80 0.78 0.89 0.94 1.05 2.29 2.14 2.79 2.77 2.34 1.71 1.34 0.97 0.75 0.76 0.41 0.33 0.41 0.37 0.32 0.26 0.15 0.08 0.08 0.05 0.01 0.02 0.01 0.01 0.01 0.01 0.07
0.14 0.10 0.09 0.13 0.16 0.23 0.31 0.14 0.33 0.30 0.13 0.20 0.21 0.42 0.75 0.83 0.67 0.51 0.57 0.89 0.93 0.80 1.71 2.35 2.47 2.80 2.26 1.94 1.56 1.41 1.23 1.16 1.13 0.92 0.81 0.95 0.93 0.89 0.58 0.34 0.28 0.31 0.21 0.14 0.13 0.11 0.12 0.24 0.46
0.16 0.06 0.05 0.09 0.10 0.11 0.11 0.06 0.10 0.11 0.10 0.06 0.12 0.30 0.56 0.77 0.39 0.42 0.39 0.52 1.38 1.10 0.82 1.58 2.43 2.77 2.22 2.44 2.64 2.54 2.37 2.08 1.62 1.25 1.20 1.13 1.15 1.49 1.35 0.99 0.68 0.63 0.47 0.47 0.39 0.38 0.55 0.74 0.51
0.22 0.10 0.04 0.08 0.13 0.14 0.06 0.11 0.06 0.06 0.13 0.09 0.19 0.44 0.72 0.53 0.61 0.55 0.37 0.30 0.53 0.98 0.90 0.94 1.58 2.66 2.57 2.64 3.40 2.78 1.63 1.58 1.77 1.53 1.64 1.42 1.10 1.27 1.34 1.25 1.14 1.18 1.06 1.03 1.06 0.97 1.06 0.99 0.77
0.27 0.11 0.04 0.12 0.18 0.18 0.12 0.21 0.16 0.14 0.40 0.45 0.94 0.81 1.55 1.27 1.37 1.13 0.45 0.46 0.59 0.68 0.73 0.68 1.15 1.74 2.58 2.41 2.50 3.05 2.59 1.67 1.53 1.38 1.29 0.98 0.91 0.87 0.98 1.13 1.35 1.36 1.33 1.28 1.32 1.28 1.38 1.57 1.36
0.27 0.27 0.24 0.20 0.50 0.53 0.11 0.22 0.19 0.14 0.26 0.20 0.52 0.69 1.56 2.07 1.79 1.61 1.62 0.96 0.83 0.89 0.90 0.67 0.95 1.22 1.64 2.19 1.82 1.95 2.53 2.78 2.28 1.60 1.46 1.53 1.27 1.13 1.09 1.21 1.21 1.27 1.18 1.20 1.44 1.56 1.43 1.23 1.14
0.73 0.95 1.22 0.93 1.11 0.63 0.07 0.08 0.23 0.04 0.07 0.18 0.62 0.88 1.68 2.36 2.10 2.13 2.21 2.01 1.94 1.72 1.25 0.91 0.77 1.52 1.10 1.75 1.40 1.30 1.36 1.73 2.04 2.18 1.86 1.64 1.54 1.35 0.98 0.92 1.01 1.04 0.98 0.98 0.91 0.78 0.71 0.73 0.78
0.91 1.09 1.31 0.94 0.50 0.28 0.06 0.16 0.14 0.01 0.01 0.06 0.56 0.73 1.38 1.68 2.11 1.55 1.88 2.02 1.77 1.57 0.94 0.44 0.51 1.51 1.27 1.08 1.03 1.02 1.30 1.02 1.15 1.35 1.53 1.65 1.37 1.27 1.28 0.95 0.88 0.92 0.84 0.72 0.65 0.62 0.53 0.41 0.41
1.16 1.21 0.72 0.89 0.44 0.35 0.16 0.02 0.01 0.00 0.00 0.00 0.16 0.65 1.35 1.26 1.25 1.37 1.72 1.53 1.18 0.61 0.73 0.57 0.48 0.55 1.14 1.05 1.01 0.83 0.78 0.72 0.74 0.84 0.89 0.87 1.02 1.16 1.21 1.21 1.09 1.07 1.14 1.00 0.81 0.62 0.57 0.55 0.48
0.98 0.64 0.89 1.35 0.88 0.41 0.16 0.09 0.10 0.00 0.00 0.00 0.01 0.15 0.29 0.58 0.72 0.84 0.92 1.13 0.96 0.77 0.97 0.78 0.60 0.51 0.55 1.26 0.94 1.09 0.77 0.53 0.73 0.72 0.70 0.80 0.76 0.72 0.90 1.13 1.02 0.88 1.01 1.09 0.94 0.83 0.72 0.66 0.66
0.95 1.19 0.73 0.91 0.48 0.55 0.34 0.30 0.10 0.00 0.00 0.00 0.00 0.01 0.02 0.08 0.22 0.19 0.13 0.13 0.33 0.44 0.47 0.48 0.67 0.57 0.56 0.79 1.08 1.25 1.44 0.94 0.90 0.90 0.65 0.69 0.78 0.62 0.64 0.72 0.87 0.79 0.62 0.69 0.73 0.62 0.65 0.56 0.43
0.53 0.62 0.74 0.86 0.48 0.43 0.53 0.46 0.02 0.00 0.00 0.00 0.01 0.02 0.01 0.00 0.02 0.10 0.06 0.01 0.06 0.16 0.22 0.28 0.37 0.62 0.60 0.55 0.65 0.92 1.08 1.83 1.46 1.38 1.13 0.86 0.74 0.62 0.58 0.59 0.60 0.59 0.53 0.57 0.62 0.51 0.53 0.64 0.60